<?xml version="1.0" encoding="UTF-8" standalone="no" ?>
<gpx xmlns="http://www.topografix.com/GPX/1/1" xmlns:xsi="http://www.w3.org/2001/XMLSchema-instance" xsi:schemaLocation="http://www.topografix.com/GPX/1/1 http://www.topografix.com/GPX/1/1/gpx.xsd" version="1.1" creator="VisuGPX - https://www.visugpx.com">
  <metadata>
    <name>La Bretagne parisienne</name>
    <desc><![CDATA[Balade effectuée en duo .
Reprise d'une idée de Nicolas Verdes (2019)]]></desc>
  </metadata>
  <trk>
    <name><![CDATA[SityTrail - La Bretagne parisienne]]></name>
    <desc><![CDATA[Balade effectuée en duo .
Reprise d'une idée de Nicolas Verdes (2019)]]></desc>
    <trkseg>
      <trkpt lat="48.85341" lon="2.36838">
        <ele>49</ele>
        <time>2022-02-02T07:39:13.488Z</time>
      </trkpt>
      <trkpt lat="48.8534" lon="2.36829">
        <ele>49</ele>
        <time>2022-02-02T07:39:22.485Z</time>
      </trkpt>
      <trkpt lat="48.85339" lon="2.36826">
        <ele>49</ele>
        <time>2022-02-02T07:39:26.481Z</time>
      </trkpt>
      <trkpt lat="48.85343" lon="2.36833">
        <ele>49</ele>
        <time>2022-02-02T07:39:31.489Z</time>
      </trkpt>
      <trkpt lat="48.85346" lon="2.36836">
        <ele>49</ele>
        <time>2022-02-02T07:39:36.491Z</time>
      </trkpt>
      <trkpt lat="48.85348" lon="2.36843">
        <ele>49</ele>
        <time>2022-02-02T07:39:40.493Z</time>
      </trkpt>
      <trkpt lat="48.8535" lon="2.36848">
        <ele>47</ele>
        <time>2022-02-02T07:39:45.491Z</time>
      </trkpt>
      <trkpt lat="48.85354" lon="2.36854">
        <ele>47</ele>
        <time>2022-02-02T07:39:50.488Z</time>
      </trkpt>
      <trkpt lat="48.85358" lon="2.3686">
        <ele>47</ele>
        <time>2022-02-02T07:39:54.485Z</time>
      </trkpt>
      <trkpt lat="48.85362" lon="2.36863">
        <ele>47</ele>
        <time>2022-02-02T07:39:59.485Z</time>
      </trkpt>
      <trkpt lat="48.85367" lon="2.36868">
        <ele>47</ele>
        <time>2022-02-02T07:40:04.479Z</time>
      </trkpt>
      <trkpt lat="48.8537" lon="2.36874">
        <ele>47</ele>
        <time>2022-02-02T07:40:09.484Z</time>
      </trkpt>
      <trkpt lat="48.85374" lon="2.3688">
        <ele>43</ele>
        <time>2022-02-02T07:40:13.487Z</time>
      </trkpt>
      <trkpt lat="48.85375" lon="2.36889">
        <ele>41</ele>
        <time>2022-02-02T07:40:18.486Z</time>
      </trkpt>
      <trkpt lat="48.85377" lon="2.36899">
        <ele>41</ele>
        <time>2022-02-02T07:40:23.485Z</time>
      </trkpt>
      <trkpt lat="48.85377" lon="2.36911">
        <ele>38</ele>
        <time>2022-02-02T07:40:27.489Z</time>
      </trkpt>
      <trkpt lat="48.85378" lon="2.36919">
        <ele>38</ele>
        <time>2022-02-02T07:40:32.480Z</time>
      </trkpt>
      <trkpt lat="48.85379" lon="2.36928">
        <ele>38</ele>
        <time>2022-02-02T07:40:37.487Z</time>
      </trkpt>
      <trkpt lat="48.85376" lon="2.36936">
        <ele>38</ele>
        <time>2022-02-02T07:40:41.476Z</time>
      </trkpt>
      <trkpt lat="48.85375" lon="2.36944">
        <ele>38</ele>
        <time>2022-02-02T07:40:46.490Z</time>
      </trkpt>
      <trkpt lat="48.85373" lon="2.36953">
        <ele>40</ele>
        <time>2022-02-02T07:40:51.485Z</time>
      </trkpt>
      <trkpt lat="48.85371" lon="2.36961">
        <ele>41</ele>
        <time>2022-02-02T07:40:56.483Z</time>
      </trkpt>
      <trkpt lat="48.85368" lon="2.36969">
        <ele>41</ele>
        <time>2022-02-02T07:41:01.482Z</time>
      </trkpt>
      <trkpt lat="48.85366" lon="2.36977">
        <ele>41</ele>
        <time>2022-02-02T07:41:06.489Z</time>
      </trkpt>
      <trkpt lat="48.85364" lon="2.36985">
        <ele>41</ele>
        <time>2022-02-02T07:41:10.485Z</time>
      </trkpt>
      <trkpt lat="48.85361" lon="2.3699">
        <ele>42</ele>
        <time>2022-02-02T07:41:14.500Z</time>
      </trkpt>
      <trkpt lat="48.85357" lon="2.36995">
        <ele>42</ele>
        <time>2022-02-02T07:41:19.479Z</time>
      </trkpt>
      <trkpt lat="48.85355" lon="2.37003">
        <ele>42</ele>
        <time>2022-02-02T07:41:23.482Z</time>
      </trkpt>
      <trkpt lat="48.85353" lon="2.3701">
        <ele>42</ele>
        <time>2022-02-02T07:41:28.492Z</time>
      </trkpt>
      <trkpt lat="48.85351" lon="2.37019">
        <ele>42</ele>
        <time>2022-02-02T07:41:32.483Z</time>
      </trkpt>
      <trkpt lat="48.85348" lon="2.37026">
        <ele>42</ele>
        <time>2022-02-02T07:41:37.480Z</time>
      </trkpt>
      <trkpt lat="48.85345" lon="2.37034">
        <ele>42</ele>
        <time>2022-02-02T07:41:42.491Z</time>
      </trkpt>
      <trkpt lat="48.8534" lon="2.3704">
        <ele>42</ele>
        <time>2022-02-02T07:41:47.482Z</time>
      </trkpt>
      <trkpt lat="48.85335" lon="2.37045">
        <ele>43</ele>
        <time>2022-02-02T07:41:52.489Z</time>
      </trkpt>
      <trkpt lat="48.85332" lon="2.37052">
        <ele>43</ele>
        <time>2022-02-02T07:41:57.482Z</time>
      </trkpt>
      <trkpt lat="48.8533" lon="2.37061">
        <ele>43</ele>
        <time>2022-02-02T07:42:01.582Z</time>
      </trkpt>
      <trkpt lat="48.85329" lon="2.37067">
        <ele>43</ele>
        <time>2022-02-02T07:42:06.476Z</time>
      </trkpt>
      <trkpt lat="48.85324" lon="2.37074">
        <ele>42</ele>
        <time>2022-02-02T07:42:10.485Z</time>
      </trkpt>
      <trkpt lat="48.85319" lon="2.37077">
        <ele>43</ele>
        <time>2022-02-02T07:42:14.486Z</time>
      </trkpt>
      <trkpt lat="48.85312" lon="2.37081">
        <ele>43</ele>
        <time>2022-02-02T07:42:19.493Z</time>
      </trkpt>
      <trkpt lat="48.85306" lon="2.37085">
        <ele>43</ele>
        <time>2022-02-02T07:42:24.492Z</time>
      </trkpt>
      <trkpt lat="48.85301" lon="2.3709">
        <ele>43</ele>
        <time>2022-02-02T07:42:28.492Z</time>
      </trkpt>
      <trkpt lat="48.85297" lon="2.37094">
        <ele>43</ele>
        <time>2022-02-02T07:42:47.475Z</time>
      </trkpt>
      <trkpt lat="48.85283" lon="2.37112">
        <ele>42</ele>
        <time>2022-02-02T07:42:52.479Z</time>
      </trkpt>
      <trkpt lat="48.85278" lon="2.37117">
        <ele>42</ele>
        <time>2022-02-02T07:42:57.486Z</time>
      </trkpt>
      <trkpt lat="48.85274" lon="2.37126">
        <ele>41</ele>
        <time>2022-02-02T07:43:01.480Z</time>
      </trkpt>
      <trkpt lat="48.85271" lon="2.37131">
        <ele>41</ele>
        <time>2022-02-02T07:43:05.489Z</time>
      </trkpt>
      <trkpt lat="48.85268" lon="2.37136">
        <ele>41</ele>
        <time>2022-02-02T07:43:10.476Z</time>
      </trkpt>
      <trkpt lat="48.85263" lon="2.37142">
        <ele>43</ele>
        <time>2022-02-02T07:43:14.483Z</time>
      </trkpt>
      <trkpt lat="48.85259" lon="2.37147">
        <ele>43</ele>
        <time>2022-02-02T07:43:19.489Z</time>
      </trkpt>
      <trkpt lat="48.85252" lon="2.37152">
        <ele>43</ele>
        <time>2022-02-02T07:43:24.485Z</time>
      </trkpt>
      <trkpt lat="48.85247" lon="2.37158">
        <ele>42</ele>
        <time>2022-02-02T07:43:29.483Z</time>
      </trkpt>
      <trkpt lat="48.85244" lon="2.37166">
        <ele>42</ele>
        <time>2022-02-02T07:43:33.490Z</time>
      </trkpt>
      <trkpt lat="48.85241" lon="2.37171">
        <ele>42</ele>
        <time>2022-02-02T07:43:38.478Z</time>
      </trkpt>
      <trkpt lat="48.85237" lon="2.37179">
        <ele>42</ele>
        <time>2022-02-02T07:43:43.651Z</time>
      </trkpt>
      <trkpt lat="48.85233" lon="2.37187">
        <ele>42</ele>
        <time>2022-02-02T07:43:48.479Z</time>
      </trkpt>
      <trkpt lat="48.85233" lon="2.37196">
        <ele>42</ele>
        <time>2022-02-02T07:43:52.490Z</time>
      </trkpt>
      <trkpt lat="48.85231" lon="2.37203">
        <ele>42</ele>
        <time>2022-02-02T07:43:57.493Z</time>
      </trkpt>
      <trkpt lat="48.8523" lon="2.37214">
        <ele>43</ele>
        <time>2022-02-02T07:44:01.478Z</time>
      </trkpt>
      <trkpt lat="48.85228" lon="2.37222">
        <ele>43</ele>
        <time>2022-02-02T07:44:05.490Z</time>
      </trkpt>
      <trkpt lat="48.85226" lon="2.37229">
        <ele>43</ele>
        <time>2022-02-02T07:44:10.481Z</time>
      </trkpt>
      <trkpt lat="48.85223" lon="2.37239">
        <ele>42</ele>
        <time>2022-02-02T07:44:15.495Z</time>
      </trkpt>
      <trkpt lat="48.8522" lon="2.3725">
        <ele>42</ele>
        <time>2022-02-02T07:44:20.484Z</time>
      </trkpt>
      <trkpt lat="48.85217" lon="2.3726">
        <ele>42</ele>
        <time>2022-02-02T07:44:25.493Z</time>
      </trkpt>
      <trkpt lat="48.85215" lon="2.37271">
        <ele>41</ele>
        <time>2022-02-02T07:44:29.495Z</time>
      </trkpt>
      <trkpt lat="48.85213" lon="2.37279">
        <ele>41</ele>
        <time>2022-02-02T07:44:34.486Z</time>
      </trkpt>
      <trkpt lat="48.85211" lon="2.37289">
        <ele>41</ele>
        <time>2022-02-02T07:44:39.478Z</time>
      </trkpt>
      <trkpt lat="48.8521" lon="2.373">
        <ele>42</ele>
        <time>2022-02-02T07:44:43.485Z</time>
      </trkpt>
      <trkpt lat="48.85209" lon="2.37308">
        <ele>42</ele>
        <time>2022-02-02T07:44:48.494Z</time>
      </trkpt>
      <trkpt lat="48.85206" lon="2.37317">
        <ele>43</ele>
        <time>2022-02-02T07:44:53.489Z</time>
      </trkpt>
      <trkpt lat="48.85203" lon="2.37326">
        <ele>43</ele>
        <time>2022-02-02T07:44:58.481Z</time>
      </trkpt>
      <trkpt lat="48.852" lon="2.37335">
        <ele>43</ele>
        <time>2022-02-02T07:45:02.497Z</time>
      </trkpt>
      <trkpt lat="48.85198" lon="2.37343">
        <ele>43</ele>
        <time>2022-02-02T07:45:06.492Z</time>
      </trkpt>
      <trkpt lat="48.85197" lon="2.37351">
        <ele>43</ele>
        <time>2022-02-02T07:45:11.490Z</time>
      </trkpt>
      <trkpt lat="48.85195" lon="2.3736">
        <ele>43</ele>
        <time>2022-02-02T07:45:16.485Z</time>
      </trkpt>
      <trkpt lat="48.85193" lon="2.3737">
        <ele>43</ele>
        <time>2022-02-02T07:45:20.491Z</time>
      </trkpt>
      <trkpt lat="48.85192" lon="2.37375">
        <ele>43</ele>
        <time>2022-02-02T07:45:24.503Z</time>
      </trkpt>
      <trkpt lat="48.85193" lon="2.37383">
        <ele>43</ele>
        <time>2022-02-02T07:45:29.495Z</time>
      </trkpt>
      <trkpt lat="48.85192" lon="2.37392">
        <ele>43</ele>
        <time>2022-02-02T07:45:33.494Z</time>
      </trkpt>
      <trkpt lat="48.8519" lon="2.37399">
        <ele>43</ele>
        <time>2022-02-02T07:45:38.492Z</time>
      </trkpt>
      <trkpt lat="48.85187" lon="2.37405">
        <ele>42</ele>
        <time>2022-02-02T07:45:42.492Z</time>
      </trkpt>
      <trkpt lat="48.85184" lon="2.37412">
        <ele>42</ele>
        <time>2022-02-02T07:45:47.493Z</time>
      </trkpt>
      <trkpt lat="48.85182" lon="2.37419">
        <ele>42</ele>
        <time>2022-02-02T07:45:51.490Z</time>
      </trkpt>
      <trkpt lat="48.85179" lon="2.37425">
        <ele>43</ele>
        <time>2022-02-02T07:45:56.491Z</time>
      </trkpt>
      <trkpt lat="48.85176" lon="2.37433">
        <ele>43</ele>
        <time>2022-02-02T07:46:01.502Z</time>
      </trkpt>
      <trkpt lat="48.85176" lon="2.37443">
        <ele>43</ele>
        <time>2022-02-02T07:46:06.485Z</time>
      </trkpt>
      <trkpt lat="48.85174" lon="2.37452">
        <ele>43</ele>
        <time>2022-02-02T07:46:10.489Z</time>
      </trkpt>
      <trkpt lat="48.85172" lon="2.3746">
        <ele>43</ele>
        <time>2022-02-02T07:46:14.484Z</time>
      </trkpt>
      <trkpt lat="48.85171" lon="2.37467">
        <ele>43</ele>
        <time>2022-02-02T07:46:18.490Z</time>
      </trkpt>
      <trkpt lat="48.85171" lon="2.37474">
        <ele>43</ele>
        <time>2022-02-02T07:46:23.497Z</time>
      </trkpt>
      <trkpt lat="48.85168" lon="2.37483">
        <ele>43</ele>
        <time>2022-02-02T07:46:28.477Z</time>
      </trkpt>
      <trkpt lat="48.85167" lon="2.3749">
        <ele>43</ele>
        <time>2022-02-02T07:46:32.483Z</time>
      </trkpt>
      <trkpt lat="48.85166" lon="2.37497">
        <ele>43</ele>
        <time>2022-02-02T07:46:37.489Z</time>
      </trkpt>
      <trkpt lat="48.85162" lon="2.37505">
        <ele>43</ele>
        <time>2022-02-02T07:46:41.491Z</time>
      </trkpt>
      <trkpt lat="48.8516" lon="2.37512">
        <ele>43</ele>
        <time>2022-02-02T07:46:46.483Z</time>
      </trkpt>
      <trkpt lat="48.85157" lon="2.37522">
        <ele>44</ele>
        <time>2022-02-02T07:46:51.570Z</time>
      </trkpt>
      <trkpt lat="48.85155" lon="2.3753">
        <ele>44</ele>
        <time>2022-02-02T07:46:56.480Z</time>
      </trkpt>
      <trkpt lat="48.85155" lon="2.37538">
        <ele>44</ele>
        <time>2022-02-02T07:47:00.482Z</time>
      </trkpt>
      <trkpt lat="48.85155" lon="2.37544">
        <ele>45</ele>
        <time>2022-02-02T07:47:05.500Z</time>
      </trkpt>
      <trkpt lat="48.85153" lon="2.37554">
        <ele>45</ele>
        <time>2022-02-02T07:47:10.477Z</time>
      </trkpt>
      <trkpt lat="48.85151" lon="2.37562">
        <ele>45</ele>
        <time>2022-02-02T07:47:14.480Z</time>
      </trkpt>
      <trkpt lat="48.8515" lon="2.37568">
        <ele>45</ele>
        <time>2022-02-02T07:47:19.491Z</time>
      </trkpt>
      <trkpt lat="48.85148" lon="2.37576">
        <ele>46</ele>
        <time>2022-02-02T07:47:23.488Z</time>
      </trkpt>
      <trkpt lat="48.85145" lon="2.37582">
        <ele>46</ele>
        <time>2022-02-02T07:47:27.490Z</time>
      </trkpt>
      <trkpt lat="48.85144" lon="2.37588">
        <ele>46</ele>
        <time>2022-02-02T07:47:32.479Z</time>
      </trkpt>
      <trkpt lat="48.85143" lon="2.37596">
        <ele>46</ele>
        <time>2022-02-02T07:47:37.484Z</time>
      </trkpt>
      <trkpt lat="48.85147" lon="2.37601">
        <ele>47</ele>
        <time>2022-02-02T07:47:41.481Z</time>
      </trkpt>
      <trkpt lat="48.85151" lon="2.37603">
        <ele>47</ele>
        <time>2022-02-02T07:47:45.486Z</time>
      </trkpt>
      <trkpt lat="48.85156" lon="2.37605">
        <ele>47</ele>
        <time>2022-02-02T07:47:50.490Z</time>
      </trkpt>
      <trkpt lat="48.85161" lon="2.37607">
        <ele>47</ele>
        <time>2022-02-02T07:47:55.491Z</time>
      </trkpt>
      <trkpt lat="48.85167" lon="2.3761">
        <ele>47</ele>
        <time>2022-02-02T07:48:00.486Z</time>
      </trkpt>
      <trkpt lat="48.85173" lon="2.37613">
        <ele>47</ele>
        <time>2022-02-02T07:48:04.487Z</time>
      </trkpt>
      <trkpt lat="48.85177" lon="2.37617">
        <ele>47</ele>
        <time>2022-02-02T07:48:09.483Z</time>
      </trkpt>
      <trkpt lat="48.85183" lon="2.37623">
        <ele>44</ele>
        <time>2022-02-02T07:48:13.491Z</time>
      </trkpt>
      <trkpt lat="48.85188" lon="2.37627">
        <ele>45</ele>
        <time>2022-02-02T07:48:18.484Z</time>
      </trkpt>
      <trkpt lat="48.85193" lon="2.37632">
        <ele>45</ele>
        <time>2022-02-02T07:48:22.497Z</time>
      </trkpt>
      <trkpt lat="48.85198" lon="2.37637">
        <ele>45</ele>
        <time>2022-02-02T07:48:26.483Z</time>
      </trkpt>
      <trkpt lat="48.85203" lon="2.37641">
        <ele>45</ele>
        <time>2022-02-02T07:48:31.496Z</time>
      </trkpt>
      <trkpt lat="48.85208" lon="2.37646">
        <ele>43</ele>
        <time>2022-02-02T07:48:36.483Z</time>
      </trkpt>
      <trkpt lat="48.85214" lon="2.37649">
        <ele>43</ele>
        <time>2022-02-02T07:48:40.481Z</time>
      </trkpt>
      <trkpt lat="48.85219" lon="2.37652">
        <ele>43</ele>
        <time>2022-02-02T07:48:44.491Z</time>
      </trkpt>
      <trkpt lat="48.85224" lon="2.37656">
        <ele>44</ele>
        <time>2022-02-02T07:48:49.506Z</time>
      </trkpt>
      <trkpt lat="48.8523" lon="2.37659">
        <ele>44</ele>
        <time>2022-02-02T07:48:54.490Z</time>
      </trkpt>
      <trkpt lat="48.85235" lon="2.37663">
        <ele>44</ele>
        <time>2022-02-02T07:48:58.495Z</time>
      </trkpt>
      <trkpt lat="48.8524" lon="2.37667">
        <ele>44</ele>
        <time>2022-02-02T07:49:03.490Z</time>
      </trkpt>
      <trkpt lat="48.85246" lon="2.37672">
        <ele>44</ele>
        <time>2022-02-02T07:49:08.491Z</time>
      </trkpt>
      <trkpt lat="48.85251" lon="2.37675">
        <ele>44</ele>
        <time>2022-02-02T07:49:12.493Z</time>
      </trkpt>
      <trkpt lat="48.85256" lon="2.37677">
        <ele>44</ele>
        <time>2022-02-02T07:49:16.503Z</time>
      </trkpt>
      <trkpt lat="48.8526" lon="2.3768">
        <ele>44</ele>
        <time>2022-02-02T07:49:21.497Z</time>
      </trkpt>
      <trkpt lat="48.85266" lon="2.37683">
        <ele>43</ele>
        <time>2022-02-02T07:49:26.485Z</time>
      </trkpt>
      <trkpt lat="48.85271" lon="2.37687">
        <ele>43</ele>
        <time>2022-02-02T07:49:30.498Z</time>
      </trkpt>
      <trkpt lat="48.85276" lon="2.3769">
        <ele>43</ele>
        <time>2022-02-02T07:49:35.486Z</time>
      </trkpt>
      <trkpt lat="48.85282" lon="2.37694">
        <ele>43</ele>
        <time>2022-02-02T07:49:40.490Z</time>
      </trkpt>
      <trkpt lat="48.85287" lon="2.37698">
        <ele>43</ele>
        <time>2022-02-02T07:49:45.482Z</time>
      </trkpt>
      <trkpt lat="48.85293" lon="2.37702">
        <ele>41</ele>
        <time>2022-02-02T07:49:49.486Z</time>
      </trkpt>
      <trkpt lat="48.85298" lon="2.37704">
        <ele>41</ele>
        <time>2022-02-02T07:49:54.486Z</time>
      </trkpt>
      <trkpt lat="48.85304" lon="2.37707">
        <ele>41</ele>
        <time>2022-02-02T07:49:58.497Z</time>
      </trkpt>
      <trkpt lat="48.85308" lon="2.3771">
        <ele>39</ele>
        <time>2022-02-02T07:50:03.482Z</time>
      </trkpt>
      <trkpt lat="48.85313" lon="2.37715">
        <ele>39</ele>
        <time>2022-02-02T07:50:08.488Z</time>
      </trkpt>
      <trkpt lat="48.85316" lon="2.37715">
        <ele>39</ele>
        <time>2022-02-02T07:50:17.482Z</time>
      </trkpt>
      <trkpt lat="48.85315" lon="2.37716">
        <ele>39</ele>
        <time>2022-02-02T07:50:22.484Z</time>
      </trkpt>
      <trkpt lat="48.8532" lon="2.37714">
        <ele>41</ele>
        <time>2022-02-02T07:50:27.484Z</time>
      </trkpt>
      <trkpt lat="48.85326" lon="2.3771">
        <ele>41</ele>
        <time>2022-02-02T07:50:31.482Z</time>
      </trkpt>
      <trkpt lat="48.85333" lon="2.37709">
        <ele>41</ele>
        <time>2022-02-02T07:50:35.488Z</time>
      </trkpt>
      <trkpt lat="48.85339" lon="2.37707">
        <ele>41</ele>
        <time>2022-02-02T07:50:39.492Z</time>
      </trkpt>
      <trkpt lat="48.85344" lon="2.37706">
        <ele>41</ele>
        <time>2022-02-02T07:50:43.496Z</time>
      </trkpt>
      <trkpt lat="48.85347" lon="2.37702">
        <ele>41</ele>
        <time>2022-02-02T07:50:48.495Z</time>
      </trkpt>
      <trkpt lat="48.8535" lon="2.37696">
        <ele>42</ele>
        <time>2022-02-02T07:50:53.485Z</time>
      </trkpt>
      <trkpt lat="48.85344" lon="2.37688">
        <ele>41</ele>
        <time>2022-02-02T07:50:58.487Z</time>
      </trkpt>
      <trkpt lat="48.85342" lon="2.37688">
        <ele>41</ele>
        <time>2022-02-02T07:51:03.491Z</time>
      </trkpt>
      <trkpt lat="48.85344" lon="2.37686">
        <ele>41</ele>
        <time>2022-02-02T07:51:08.479Z</time>
      </trkpt>
      <trkpt lat="48.85348" lon="2.37682">
        <ele>42</ele>
        <time>2022-02-02T07:51:13.486Z</time>
      </trkpt>
      <trkpt lat="48.85353" lon="2.37679">
        <ele>41</ele>
        <time>2022-02-02T07:51:18.484Z</time>
      </trkpt>
      <trkpt lat="48.85359" lon="2.37675">
        <ele>41</ele>
        <time>2022-02-02T07:51:22.490Z</time>
      </trkpt>
      <trkpt lat="48.85361" lon="2.3767">
        <ele>41</ele>
        <time>2022-02-02T07:51:27.490Z</time>
      </trkpt>
      <trkpt lat="48.85367" lon="2.37667">
        <ele>41</ele>
        <time>2022-02-02T07:51:32.486Z</time>
      </trkpt>
      <trkpt lat="48.85373" lon="2.37664">
        <ele>41</ele>
        <time>2022-02-02T07:51:37.494Z</time>
      </trkpt>
      <trkpt lat="48.8538" lon="2.37661">
        <ele>41</ele>
        <time>2022-02-02T07:51:42.486Z</time>
      </trkpt>
      <trkpt lat="48.85385" lon="2.37658">
        <ele>41</ele>
        <time>2022-02-02T07:51:47.487Z</time>
      </trkpt>
      <trkpt lat="48.8539" lon="2.37656">
        <ele>41</ele>
        <time>2022-02-02T07:51:51.492Z</time>
      </trkpt>
      <trkpt lat="48.85394" lon="2.37652">
        <ele>40</ele>
        <time>2022-02-02T07:51:56.488Z</time>
      </trkpt>
      <trkpt lat="48.85395" lon="2.37652">
        <ele>40</ele>
        <time>2022-02-02T07:52:01.488Z</time>
      </trkpt>
      <trkpt lat="48.85397" lon="2.37647">
        <ele>40</ele>
        <time>2022-02-02T07:52:06.479Z</time>
      </trkpt>
      <trkpt lat="48.85401" lon="2.37642">
        <ele>40</ele>
        <time>2022-02-02T07:52:11.484Z</time>
      </trkpt>
      <trkpt lat="48.85406" lon="2.37635">
        <ele>39</ele>
        <time>2022-02-02T07:52:16.487Z</time>
      </trkpt>
      <trkpt lat="48.85414" lon="2.37631">
        <ele>39</ele>
        <time>2022-02-02T07:52:21.480Z</time>
      </trkpt>
      <trkpt lat="48.8542" lon="2.37629">
        <ele>39</ele>
        <time>2022-02-02T07:52:25.485Z</time>
      </trkpt>
      <trkpt lat="48.85423" lon="2.37627">
        <ele>39</ele>
        <time>2022-02-02T07:52:29.499Z</time>
      </trkpt>
      <trkpt lat="48.85427" lon="2.37623">
        <ele>39</ele>
        <time>2022-02-02T07:52:34.490Z</time>
      </trkpt>
      <trkpt lat="48.85432" lon="2.37617">
        <ele>41</ele>
        <time>2022-02-02T07:52:39.483Z</time>
      </trkpt>
      <trkpt lat="48.85437" lon="2.37614">
        <ele>41</ele>
        <time>2022-02-02T07:52:44.491Z</time>
      </trkpt>
      <trkpt lat="48.85442" lon="2.37611">
        <ele>41</ele>
        <time>2022-02-02T07:52:48.489Z</time>
      </trkpt>
      <trkpt lat="48.85445" lon="2.37607">
        <ele>41</ele>
        <time>2022-02-02T07:52:53.486Z</time>
      </trkpt>
      <trkpt lat="48.85449" lon="2.37602">
        <ele>41</ele>
        <time>2022-02-02T07:52:58.500Z</time>
      </trkpt>
      <trkpt lat="48.85454" lon="2.37597">
        <ele>43</ele>
        <time>2022-02-02T07:53:03.486Z</time>
      </trkpt>
      <trkpt lat="48.85458" lon="2.37593">
        <ele>46</ele>
        <time>2022-02-02T07:53:08.498Z</time>
      </trkpt>
      <trkpt lat="48.85463" lon="2.37591">
        <ele>46</ele>
        <time>2022-02-02T07:53:26.482Z</time>
      </trkpt>
      <trkpt lat="48.85477" lon="2.3758">
        <ele>46</ele>
        <time>2022-02-02T07:53:31.483Z</time>
      </trkpt>
      <trkpt lat="48.8548" lon="2.37579">
        <ele>46</ele>
        <time>2022-02-02T07:53:36.484Z</time>
      </trkpt>
      <trkpt lat="48.85487" lon="2.37575">
        <ele>48</ele>
        <time>2022-02-02T07:53:41.483Z</time>
      </trkpt>
      <trkpt lat="48.85498" lon="2.37574">
        <ele>48</ele>
        <time>2022-02-02T07:53:46.491Z</time>
      </trkpt>
      <trkpt lat="48.85506" lon="2.37572">
        <ele>48</ele>
        <time>2022-02-02T07:53:51.496Z</time>
      </trkpt>
      <trkpt lat="48.85512" lon="2.37568">
        <ele>46</ele>
        <time>2022-02-02T07:53:56.490Z</time>
      </trkpt>
      <trkpt lat="48.85518" lon="2.37563">
        <ele>46</ele>
        <time>2022-02-02T07:54:00.491Z</time>
      </trkpt>
      <trkpt lat="48.85523" lon="2.3756">
        <ele>46</ele>
        <time>2022-02-02T07:54:04.489Z</time>
      </trkpt>
      <trkpt lat="48.85526" lon="2.37556">
        <ele>46</ele>
        <time>2022-02-02T07:54:18.479Z</time>
      </trkpt>
      <trkpt lat="48.85527" lon="2.37553">
        <ele>46</ele>
        <time>2022-02-02T07:54:22.484Z</time>
      </trkpt>
      <trkpt lat="48.85528" lon="2.37552">
        <ele>46</ele>
        <time>2022-02-02T07:54:27.484Z</time>
      </trkpt>
      <trkpt lat="48.8553" lon="2.37551">
        <ele>46</ele>
        <time>2022-02-02T07:54:32.482Z</time>
      </trkpt>
      <trkpt lat="48.85532" lon="2.3755">
        <ele>46</ele>
        <time>2022-02-02T07:54:37.482Z</time>
      </trkpt>
      <trkpt lat="48.85539" lon="2.37548">
        <ele>46</ele>
        <time>2022-02-02T07:54:41.484Z</time>
      </trkpt>
      <trkpt lat="48.85543" lon="2.37545">
        <ele>44</ele>
        <time>2022-02-02T07:54:45.484Z</time>
      </trkpt>
      <trkpt lat="48.85545" lon="2.37541">
        <ele>42</ele>
        <time>2022-02-02T07:54:50.484Z</time>
      </trkpt>
      <trkpt lat="48.85551" lon="2.37539">
        <ele>42</ele>
        <time>2022-02-02T07:54:55.485Z</time>
      </trkpt>
      <trkpt lat="48.85556" lon="2.37535">
        <ele>42</ele>
        <time>2022-02-02T07:54:59.634Z</time>
      </trkpt>
      <trkpt lat="48.85555" lon="2.37528">
        <ele>42</ele>
        <time>2022-02-02T07:55:04.483Z</time>
      </trkpt>
      <trkpt lat="48.85552" lon="2.37524">
        <ele>42</ele>
        <time>2022-02-02T07:55:08.483Z</time>
      </trkpt>
      <trkpt lat="48.85551" lon="2.37516">
        <ele>42</ele>
        <time>2022-02-02T07:55:12.488Z</time>
      </trkpt>
      <trkpt lat="48.85551" lon="2.37508">
        <ele>41</ele>
        <time>2022-02-02T07:55:16.487Z</time>
      </trkpt>
      <trkpt lat="48.85555" lon="2.37503">
        <ele>41</ele>
        <time>2022-02-02T07:55:21.485Z</time>
      </trkpt>
      <trkpt lat="48.85555" lon="2.37501">
        <ele>41</ele>
        <time>2022-02-02T07:55:25.574Z</time>
      </trkpt>
      <trkpt lat="48.85556" lon="2.375">
        <ele>41</ele>
        <time>2022-02-02T07:55:30.480Z</time>
      </trkpt>
      <trkpt lat="48.85557" lon="2.375">
        <ele>41</ele>
        <time>2022-02-02T07:55:35.477Z</time>
      </trkpt>
      <trkpt lat="48.85564" lon="2.37506">
        <ele>41</ele>
        <time>2022-02-02T07:55:40.481Z</time>
      </trkpt>
      <trkpt lat="48.85571" lon="2.37512">
        <ele>39</ele>
        <time>2022-02-02T07:55:44.483Z</time>
      </trkpt>
      <trkpt lat="48.85576" lon="2.37515">
        <ele>40</ele>
        <time>2022-02-02T07:55:49.493Z</time>
      </trkpt>
      <trkpt lat="48.85582" lon="2.3752">
        <ele>40</ele>
        <time>2022-02-02T07:55:53.494Z</time>
      </trkpt>
      <trkpt lat="48.85584" lon="2.37526">
        <ele>40</ele>
        <time>2022-02-02T07:55:58.484Z</time>
      </trkpt>
      <trkpt lat="48.85588" lon="2.37534">
        <ele>40</ele>
        <time>2022-02-02T07:56:03.490Z</time>
      </trkpt>
      <trkpt lat="48.85593" lon="2.3754">
        <ele>40</ele>
        <time>2022-02-02T07:56:08.496Z</time>
      </trkpt>
      <trkpt lat="48.85595" lon="2.3755">
        <ele>41</ele>
        <time>2022-02-02T07:56:13.481Z</time>
      </trkpt>
      <trkpt lat="48.85597" lon="2.37559">
        <ele>40</ele>
        <time>2022-02-02T07:56:18.482Z</time>
      </trkpt>
      <trkpt lat="48.85599" lon="2.37567">
        <ele>40</ele>
        <time>2022-02-02T07:56:23.487Z</time>
      </trkpt>
      <trkpt lat="48.85601" lon="2.37576">
        <ele>41</ele>
        <time>2022-02-02T07:56:27.494Z</time>
      </trkpt>
      <trkpt lat="48.85603" lon="2.37584">
        <ele>41</ele>
        <time>2022-02-02T07:56:32.490Z</time>
      </trkpt>
      <trkpt lat="48.85607" lon="2.37592">
        <ele>41</ele>
        <time>2022-02-02T07:56:37.495Z</time>
      </trkpt>
      <trkpt lat="48.85611" lon="2.37598">
        <ele>42</ele>
        <time>2022-02-02T07:56:41.493Z</time>
      </trkpt>
      <trkpt lat="48.85614" lon="2.37603">
        <ele>42</ele>
        <time>2022-02-02T07:56:46.486Z</time>
      </trkpt>
      <trkpt lat="48.85619" lon="2.37608">
        <ele>42</ele>
        <time>2022-02-02T07:56:50.490Z</time>
      </trkpt>
      <trkpt lat="48.85621" lon="2.37614">
        <ele>42</ele>
        <time>2022-02-02T07:56:54.490Z</time>
      </trkpt>
      <trkpt lat="48.85623" lon="2.37621">
        <ele>42</ele>
        <time>2022-02-02T07:56:59.480Z</time>
      </trkpt>
      <trkpt lat="48.85627" lon="2.37627">
        <ele>43</ele>
        <time>2022-02-02T07:57:03.486Z</time>
      </trkpt>
      <trkpt lat="48.8563" lon="2.37632">
        <ele>43</ele>
        <time>2022-02-02T07:57:08.494Z</time>
      </trkpt>
      <trkpt lat="48.85633" lon="2.37639">
        <ele>43</ele>
        <time>2022-02-02T07:57:13.487Z</time>
      </trkpt>
      <trkpt lat="48.85637" lon="2.37646">
        <ele>43</ele>
        <time>2022-02-02T07:57:18.485Z</time>
      </trkpt>
      <trkpt lat="48.8564" lon="2.37652">
        <ele>43</ele>
        <time>2022-02-02T07:57:22.486Z</time>
      </trkpt>
      <trkpt lat="48.85643" lon="2.37656">
        <ele>43</ele>
        <time>2022-02-02T07:57:27.486Z</time>
      </trkpt>
      <trkpt lat="48.85645" lon="2.37663">
        <ele>43</ele>
        <time>2022-02-02T07:57:31.486Z</time>
      </trkpt>
      <trkpt lat="48.85648" lon="2.37669">
        <ele>43</ele>
        <time>2022-02-02T07:57:36.485Z</time>
      </trkpt>
      <trkpt lat="48.85651" lon="2.3768">
        <ele>43</ele>
        <time>2022-02-02T07:57:40.486Z</time>
      </trkpt>
      <trkpt lat="48.85653" lon="2.37688">
        <ele>40</ele>
        <time>2022-02-02T07:57:45.481Z</time>
      </trkpt>
      <trkpt lat="48.85655" lon="2.37692">
        <ele>40</ele>
        <time>2022-02-02T07:57:50.485Z</time>
      </trkpt>
      <trkpt lat="48.85656" lon="2.37695">
        <ele>40</ele>
        <time>2022-02-02T07:57:55.482Z</time>
      </trkpt>
      <trkpt lat="48.85659" lon="2.37702">
        <ele>40</ele>
        <time>2022-02-02T07:57:59.480Z</time>
      </trkpt>
      <trkpt lat="48.85662" lon="2.37708">
        <ele>40</ele>
        <time>2022-02-02T07:58:04.487Z</time>
      </trkpt>
      <trkpt lat="48.85667" lon="2.37717">
        <ele>40</ele>
        <time>2022-02-02T07:58:08.490Z</time>
      </trkpt>
      <trkpt lat="48.85668" lon="2.37725">
        <ele>40</ele>
        <time>2022-02-02T07:58:12.491Z</time>
      </trkpt>
      <trkpt lat="48.85669" lon="2.37734">
        <ele>40</ele>
        <time>2022-02-02T07:58:17.482Z</time>
      </trkpt>
      <trkpt lat="48.85671" lon="2.37745">
        <ele>41</ele>
        <time>2022-02-02T07:58:21.485Z</time>
      </trkpt>
      <trkpt lat="48.85674" lon="2.37746">
        <ele>41</ele>
        <time>2022-02-02T07:58:25.487Z</time>
      </trkpt>
      <trkpt lat="48.85674" lon="2.37745">
        <ele>41</ele>
        <time>2022-02-02T07:58:29.486Z</time>
      </trkpt>
      <trkpt lat="48.8567" lon="2.3776">
        <ele>41</ele>
        <time>2022-02-02T07:58:34.487Z</time>
      </trkpt>
      <trkpt lat="48.85673" lon="2.37767">
        <ele>43</ele>
        <time>2022-02-02T07:58:39.482Z</time>
      </trkpt>
      <trkpt lat="48.85676" lon="2.37774">
        <ele>43</ele>
        <time>2022-02-02T07:58:43.486Z</time>
      </trkpt>
      <trkpt lat="48.8568" lon="2.37779">
        <ele>43</ele>
        <time>2022-02-02T07:58:47.490Z</time>
      </trkpt>
      <trkpt lat="48.85682" lon="2.37785">
        <ele>46</ele>
        <time>2022-02-02T07:58:51.490Z</time>
      </trkpt>
      <trkpt lat="48.85683" lon="2.37791">
        <ele>46</ele>
        <time>2022-02-02T07:58:56.489Z</time>
      </trkpt>
      <trkpt lat="48.85686" lon="2.37798">
        <ele>46</ele>
        <time>2022-02-02T07:59:00.490Z</time>
      </trkpt>
      <trkpt lat="48.85689" lon="2.37804">
        <ele>46</ele>
        <time>2022-02-02T07:59:04.489Z</time>
      </trkpt>
      <trkpt lat="48.85693" lon="2.37809">
        <ele>46</ele>
        <time>2022-02-02T07:59:09.498Z</time>
      </trkpt>
      <trkpt lat="48.85697" lon="2.37815">
        <ele>46</ele>
        <time>2022-02-02T07:59:14.485Z</time>
      </trkpt>
      <trkpt lat="48.857" lon="2.37824">
        <ele>45</ele>
        <time>2022-02-02T07:59:18.489Z</time>
      </trkpt>
      <trkpt lat="48.85703" lon="2.37831">
        <ele>45</ele>
        <time>2022-02-02T07:59:23.486Z</time>
      </trkpt>
      <trkpt lat="48.85706" lon="2.37838">
        <ele>45</ele>
        <time>2022-02-02T07:59:28.490Z</time>
      </trkpt>
      <trkpt lat="48.85709" lon="2.37845">
        <ele>45</ele>
        <time>2022-02-02T07:59:33.499Z</time>
      </trkpt>
      <trkpt lat="48.85712" lon="2.37851">
        <ele>44</ele>
        <time>2022-02-02T07:59:38.492Z</time>
      </trkpt>
      <trkpt lat="48.85715" lon="2.3786">
        <ele>44</ele>
        <time>2022-02-02T07:59:42.490Z</time>
      </trkpt>
      <trkpt lat="48.85717" lon="2.37866">
        <ele>44</ele>
        <time>2022-02-02T07:59:47.485Z</time>
      </trkpt>
      <trkpt lat="48.8572" lon="2.37873">
        <ele>44</ele>
        <time>2022-02-02T07:59:51.574Z</time>
      </trkpt>
      <trkpt lat="48.85722" lon="2.37878">
        <ele>44</ele>
        <time>2022-02-02T07:59:56.491Z</time>
      </trkpt>
      <trkpt lat="48.85725" lon="2.37886">
        <ele>44</ele>
        <time>2022-02-02T08:00:01.492Z</time>
      </trkpt>
      <trkpt lat="48.85729" lon="2.37896">
        <ele>44</ele>
        <time>2022-02-02T08:00:06.489Z</time>
      </trkpt>
      <trkpt lat="48.85732" lon="2.37904">
        <ele>45</ele>
        <time>2022-02-02T08:00:11.483Z</time>
      </trkpt>
      <trkpt lat="48.85734" lon="2.37911">
        <ele>45</ele>
        <time>2022-02-02T08:00:16.490Z</time>
      </trkpt>
      <trkpt lat="48.85737" lon="2.3792">
        <ele>43</ele>
        <time>2022-02-02T08:00:20.486Z</time>
      </trkpt>
      <trkpt lat="48.85739" lon="2.37927">
        <ele>43</ele>
        <time>2022-02-02T08:00:25.486Z</time>
      </trkpt>
      <trkpt lat="48.85742" lon="2.37934">
        <ele>43</ele>
        <time>2022-02-02T08:00:30.481Z</time>
      </trkpt>
      <trkpt lat="48.85746" lon="2.37942">
        <ele>43</ele>
        <time>2022-02-02T08:00:34.484Z</time>
      </trkpt>
      <trkpt lat="48.85749" lon="2.37946">
        <ele>43</ele>
        <time>2022-02-02T08:00:38.486Z</time>
      </trkpt>
      <trkpt lat="48.85753" lon="2.3795">
        <ele>43</ele>
        <time>2022-02-02T08:00:42.489Z</time>
      </trkpt>
      <trkpt lat="48.85757" lon="2.37955">
        <ele>43</ele>
        <time>2022-02-02T08:00:47.488Z</time>
      </trkpt>
      <trkpt lat="48.85761" lon="2.3796">
        <ele>43</ele>
        <time>2022-02-02T08:00:52.491Z</time>
      </trkpt>
      <trkpt lat="48.85766" lon="2.37966">
        <ele>41</ele>
        <time>2022-02-02T08:00:57.492Z</time>
      </trkpt>
      <trkpt lat="48.85771" lon="2.37972">
        <ele>41</ele>
        <time>2022-02-02T08:01:02.490Z</time>
      </trkpt>
      <trkpt lat="48.85777" lon="2.3798">
        <ele>41</ele>
        <time>2022-02-02T08:01:07.494Z</time>
      </trkpt>
      <trkpt lat="48.85784" lon="2.37986">
        <ele>41</ele>
        <time>2022-02-02T08:01:11.495Z</time>
      </trkpt>
      <trkpt lat="48.8579" lon="2.37989">
        <ele>41</ele>
        <time>2022-02-02T08:01:16.484Z</time>
      </trkpt>
      <trkpt lat="48.85796" lon="2.37992">
        <ele>41</ele>
        <time>2022-02-02T08:01:21.489Z</time>
      </trkpt>
      <trkpt lat="48.85803" lon="2.37997">
        <ele>41</ele>
        <time>2022-02-02T08:01:25.500Z</time>
      </trkpt>
      <trkpt lat="48.85805" lon="2.38001">
        <ele>41</ele>
        <time>2022-02-02T08:01:48.492Z</time>
      </trkpt>
      <trkpt lat="48.85808" lon="2.38016">
        <ele>42</ele>
        <time>2022-02-02T08:01:53.488Z</time>
      </trkpt>
      <trkpt lat="48.85809" lon="2.38024">
        <ele>42</ele>
        <time>2022-02-02T08:01:57.488Z</time>
      </trkpt>
      <trkpt lat="48.8581" lon="2.38034">
        <ele>42</ele>
        <time>2022-02-02T08:02:02.495Z</time>
      </trkpt>
      <trkpt lat="48.85808" lon="2.38046">
        <ele>44</ele>
        <time>2022-02-02T08:02:07.486Z</time>
      </trkpt>
      <trkpt lat="48.85803" lon="2.38054">
        <ele>44</ele>
        <time>2022-02-02T08:02:12.486Z</time>
      </trkpt>
      <trkpt lat="48.858" lon="2.38063">
        <ele>44</ele>
        <time>2022-02-02T08:02:16.490Z</time>
      </trkpt>
      <trkpt lat="48.85795" lon="2.38067">
        <ele>44</ele>
        <time>2022-02-02T08:02:20.491Z</time>
      </trkpt>
      <trkpt lat="48.85793" lon="2.38074">
        <ele>45</ele>
        <time>2022-02-02T08:02:25.489Z</time>
      </trkpt>
      <trkpt lat="48.85793" lon="2.38084">
        <ele>45</ele>
        <time>2022-02-02T08:02:29.496Z</time>
      </trkpt>
      <trkpt lat="48.85794" lon="2.38091">
        <ele>45</ele>
        <time>2022-02-02T08:02:34.484Z</time>
      </trkpt>
      <trkpt lat="48.85794" lon="2.381">
        <ele>47</ele>
        <time>2022-02-02T08:02:38.485Z</time>
      </trkpt>
      <trkpt lat="48.85794" lon="2.38108">
        <ele>47</ele>
        <time>2022-02-02T08:02:42.496Z</time>
      </trkpt>
      <trkpt lat="48.85796" lon="2.38114">
        <ele>47</ele>
        <time>2022-02-02T08:02:47.484Z</time>
      </trkpt>
      <trkpt lat="48.85797" lon="2.38123">
        <ele>47</ele>
        <time>2022-02-02T08:02:52.483Z</time>
      </trkpt>
      <trkpt lat="48.858" lon="2.3813">
        <ele>47</ele>
        <time>2022-02-02T08:02:56.487Z</time>
      </trkpt>
      <trkpt lat="48.85803" lon="2.38136">
        <ele>47</ele>
        <time>2022-02-02T08:03:01.496Z</time>
      </trkpt>
      <trkpt lat="48.85807" lon="2.3814">
        <ele>47</ele>
        <time>2022-02-02T08:03:06.483Z</time>
      </trkpt>
      <trkpt lat="48.85809" lon="2.38148">
        <ele>47</ele>
        <time>2022-02-02T08:03:10.486Z</time>
      </trkpt>
      <trkpt lat="48.8581" lon="2.38155">
        <ele>48</ele>
        <time>2022-02-02T08:03:15.493Z</time>
      </trkpt>
      <trkpt lat="48.85813" lon="2.38159">
        <ele>48</ele>
        <time>2022-02-02T08:03:20.488Z</time>
      </trkpt>
      <trkpt lat="48.85816" lon="2.38166">
        <ele>48</ele>
        <time>2022-02-02T08:03:25.493Z</time>
      </trkpt>
      <trkpt lat="48.85817" lon="2.38173">
        <ele>48</ele>
        <time>2022-02-02T08:03:30.485Z</time>
      </trkpt>
      <trkpt lat="48.85821" lon="2.3818">
        <ele>51</ele>
        <time>2022-02-02T08:03:34.487Z</time>
      </trkpt>
      <trkpt lat="48.85823" lon="2.38188">
        <ele>50</ele>
        <time>2022-02-02T08:03:39.489Z</time>
      </trkpt>
      <trkpt lat="48.85825" lon="2.38196">
        <ele>50</ele>
        <time>2022-02-02T08:03:43.495Z</time>
      </trkpt>
      <trkpt lat="48.85826" lon="2.38204">
        <ele>50</ele>
        <time>2022-02-02T08:03:48.493Z</time>
      </trkpt>
      <trkpt lat="48.85828" lon="2.38211">
        <ele>48</ele>
        <time>2022-02-02T08:03:53.488Z</time>
      </trkpt>
      <trkpt lat="48.85832" lon="2.38215">
        <ele>48</ele>
        <time>2022-02-02T08:03:58.489Z</time>
      </trkpt>
      <trkpt lat="48.85835" lon="2.38217">
        <ele>48</ele>
        <time>2022-02-02T08:04:03.488Z</time>
      </trkpt>
      <trkpt lat="48.85837" lon="2.38224">
        <ele>48</ele>
        <time>2022-02-02T08:04:07.494Z</time>
      </trkpt>
      <trkpt lat="48.85838" lon="2.38231">
        <ele>48</ele>
        <time>2022-02-02T08:04:11.493Z</time>
      </trkpt>
      <trkpt lat="48.85839" lon="2.38237">
        <ele>48</ele>
        <time>2022-02-02T08:04:16.492Z</time>
      </trkpt>
      <trkpt lat="48.85841" lon="2.38245">
        <ele>48</ele>
        <time>2022-02-02T08:04:20.491Z</time>
      </trkpt>
      <trkpt lat="48.85842" lon="2.3825">
        <ele>48</ele>
        <time>2022-02-02T08:04:24.491Z</time>
      </trkpt>
      <trkpt lat="48.85843" lon="2.38255">
        <ele>48</ele>
        <time>2022-02-02T08:04:29.491Z</time>
      </trkpt>
      <trkpt lat="48.85845" lon="2.38262">
        <ele>48</ele>
        <time>2022-02-02T08:04:33.490Z</time>
      </trkpt>
      <trkpt lat="48.85846" lon="2.38267">
        <ele>48</ele>
        <time>2022-02-02T08:04:38.482Z</time>
      </trkpt>
      <trkpt lat="48.85847" lon="2.38274">
        <ele>51</ele>
        <time>2022-02-02T08:04:43.494Z</time>
      </trkpt>
      <trkpt lat="48.85849" lon="2.38281">
        <ele>51</ele>
        <time>2022-02-02T08:04:48.484Z</time>
      </trkpt>
      <trkpt lat="48.85851" lon="2.38289">
        <ele>51</ele>
        <time>2022-02-02T08:04:53.493Z</time>
      </trkpt>
      <trkpt lat="48.85852" lon="2.38295">
        <ele>52</ele>
        <time>2022-02-02T08:04:58.487Z</time>
      </trkpt>
      <trkpt lat="48.85854" lon="2.38305">
        <ele>52</ele>
        <time>2022-02-02T08:05:03.485Z</time>
      </trkpt>
      <trkpt lat="48.85858" lon="2.38311">
        <ele>52</ele>
        <time>2022-02-02T08:05:07.497Z</time>
      </trkpt>
      <trkpt lat="48.85859" lon="2.3831">
        <ele>52</ele>
        <time>2022-02-02T08:05:12.489Z</time>
      </trkpt>
      <trkpt lat="48.85862" lon="2.38316">
        <ele>52</ele>
        <time>2022-02-02T08:05:16.484Z</time>
      </trkpt>
      <trkpt lat="48.85865" lon="2.38324">
        <ele>53</ele>
        <time>2022-02-02T08:05:21.498Z</time>
      </trkpt>
      <trkpt lat="48.8587" lon="2.38333">
        <ele>53</ele>
        <time>2022-02-02T08:05:26.483Z</time>
      </trkpt>
      <trkpt lat="48.85873" lon="2.38341">
        <ele>53</ele>
        <time>2022-02-02T08:05:30.492Z</time>
      </trkpt>
      <trkpt lat="48.85874" lon="2.38348">
        <ele>51</ele>
        <time>2022-02-02T08:05:35.484Z</time>
      </trkpt>
      <trkpt lat="48.85875" lon="2.38346">
        <ele>53</ele>
        <time>2022-02-02T08:05:40.494Z</time>
      </trkpt>
      <trkpt lat="48.85876" lon="2.3836">
        <ele>51</ele>
        <time>2022-02-02T08:05:45.488Z</time>
      </trkpt>
      <trkpt lat="48.85879" lon="2.38375">
        <ele>50</ele>
        <time>2022-02-02T08:05:50.492Z</time>
      </trkpt>
      <trkpt lat="48.85881" lon="2.38391">
        <ele>50</ele>
        <time>2022-02-02T08:05:54.492Z</time>
      </trkpt>
      <trkpt lat="48.85883" lon="2.38402">
        <ele>50</ele>
        <time>2022-02-02T08:05:58.495Z</time>
      </trkpt>
      <trkpt lat="48.85886" lon="2.38411">
        <ele>47</ele>
        <time>2022-02-02T08:06:03.482Z</time>
      </trkpt>
      <trkpt lat="48.85891" lon="2.38412">
        <ele>47</ele>
        <time>2022-02-02T08:06:07.482Z</time>
      </trkpt>
      <trkpt lat="48.85896" lon="2.38413">
        <ele>47</ele>
        <time>2022-02-02T08:06:11.500Z</time>
      </trkpt>
      <trkpt lat="48.859" lon="2.38413">
        <ele>47</ele>
        <time>2022-02-02T08:06:16.496Z</time>
      </trkpt>
      <trkpt lat="48.85904" lon="2.38411">
        <ele>47</ele>
        <time>2022-02-02T08:06:20.490Z</time>
      </trkpt>
      <trkpt lat="48.85908" lon="2.38413">
        <ele>47</ele>
        <time>2022-02-02T08:06:25.483Z</time>
      </trkpt>
      <trkpt lat="48.85915" lon="2.38411">
        <ele>47</ele>
        <time>2022-02-02T08:06:29.487Z</time>
      </trkpt>
      <trkpt lat="48.8592" lon="2.38409">
        <ele>47</ele>
        <time>2022-02-02T08:06:33.493Z</time>
      </trkpt>
      <trkpt lat="48.85924" lon="2.38407">
        <ele>47</ele>
        <time>2022-02-02T08:06:38.484Z</time>
      </trkpt>
      <trkpt lat="48.85928" lon="2.38406">
        <ele>47</ele>
        <time>2022-02-02T08:06:42.488Z</time>
      </trkpt>
      <trkpt lat="48.85931" lon="2.38404">
        <ele>47</ele>
        <time>2022-02-02T08:06:47.487Z</time>
      </trkpt>
      <trkpt lat="48.85935" lon="2.38401">
        <ele>49</ele>
        <time>2022-02-02T08:06:51.504Z</time>
      </trkpt>
      <trkpt lat="48.85939" lon="2.38397">
        <ele>49</ele>
        <time>2022-02-02T08:06:56.488Z</time>
      </trkpt>
      <trkpt lat="48.85942" lon="2.38393">
        <ele>49</ele>
        <time>2022-02-02T08:07:01.488Z</time>
      </trkpt>
      <trkpt lat="48.85946" lon="2.3839">
        <ele>49</ele>
        <time>2022-02-02T08:07:06.493Z</time>
      </trkpt>
      <trkpt lat="48.85951" lon="2.38384">
        <ele>49</ele>
        <time>2022-02-02T08:07:11.496Z</time>
      </trkpt>
      <trkpt lat="48.85956" lon="2.3838">
        <ele>49</ele>
        <time>2022-02-02T08:07:16.491Z</time>
      </trkpt>
      <trkpt lat="48.8596" lon="2.38375">
        <ele>49</ele>
        <time>2022-02-02T08:07:21.495Z</time>
      </trkpt>
      <trkpt lat="48.85966" lon="2.38371">
        <ele>51</ele>
        <time>2022-02-02T08:07:26.491Z</time>
      </trkpt>
      <trkpt lat="48.85972" lon="2.38368">
        <ele>51</ele>
        <time>2022-02-02T08:07:30.489Z</time>
      </trkpt>
      <trkpt lat="48.85977" lon="2.38366">
        <ele>51</ele>
        <time>2022-02-02T08:07:35.494Z</time>
      </trkpt>
      <trkpt lat="48.85984" lon="2.38364">
        <ele>51</ele>
        <time>2022-02-02T08:07:40.486Z</time>
      </trkpt>
      <trkpt lat="48.8599" lon="2.3836">
        <ele>50</ele>
        <time>2022-02-02T08:07:44.490Z</time>
      </trkpt>
      <trkpt lat="48.85994" lon="2.38358">
        <ele>50</ele>
        <time>2022-02-02T08:07:49.490Z</time>
      </trkpt>
      <trkpt lat="48.86" lon="2.38354">
        <ele>50</ele>
        <time>2022-02-02T08:07:54.486Z</time>
      </trkpt>
      <trkpt lat="48.86006" lon="2.38351">
        <ele>50</ele>
        <time>2022-02-02T08:07:58.488Z</time>
      </trkpt>
      <trkpt lat="48.86012" lon="2.38348">
        <ele>50</ele>
        <time>2022-02-02T08:08:03.492Z</time>
      </trkpt>
      <trkpt lat="48.86018" lon="2.38346">
        <ele>50</ele>
        <time>2022-02-02T08:08:08.487Z</time>
      </trkpt>
      <trkpt lat="48.86024" lon="2.38343">
        <ele>50</ele>
        <time>2022-02-02T08:08:12.485Z</time>
      </trkpt>
      <trkpt lat="48.86029" lon="2.3834">
        <ele>50</ele>
        <time>2022-02-02T08:08:16.485Z</time>
      </trkpt>
      <trkpt lat="48.86033" lon="2.38338">
        <ele>50</ele>
        <time>2022-02-02T08:08:21.492Z</time>
      </trkpt>
      <trkpt lat="48.86039" lon="2.38337">
        <ele>50</ele>
        <time>2022-02-02T08:08:25.491Z</time>
      </trkpt>
      <trkpt lat="48.86043" lon="2.38337">
        <ele>51</ele>
        <time>2022-02-02T08:08:30.491Z</time>
      </trkpt>
      <trkpt lat="48.86049" lon="2.38334">
        <ele>51</ele>
        <time>2022-02-02T08:08:34.503Z</time>
      </trkpt>
      <trkpt lat="48.86054" lon="2.38331">
        <ele>51</ele>
        <time>2022-02-02T08:08:39.497Z</time>
      </trkpt>
      <trkpt lat="48.86059" lon="2.38326">
        <ele>51</ele>
        <time>2022-02-02T08:08:44.494Z</time>
      </trkpt>
      <trkpt lat="48.86065" lon="2.38324">
        <ele>51</ele>
        <time>2022-02-02T08:08:48.506Z</time>
      </trkpt>
      <trkpt lat="48.86069" lon="2.38321">
        <ele>51</ele>
        <time>2022-02-02T08:08:52.499Z</time>
      </trkpt>
      <trkpt lat="48.86074" lon="2.38318">
        <ele>52</ele>
        <time>2022-02-02T08:08:57.494Z</time>
      </trkpt>
      <trkpt lat="48.8608" lon="2.38316">
        <ele>52</ele>
        <time>2022-02-02T08:09:01.496Z</time>
      </trkpt>
      <trkpt lat="48.86084" lon="2.38312">
        <ele>52</ele>
        <time>2022-02-02T08:09:06.502Z</time>
      </trkpt>
      <trkpt lat="48.8609" lon="2.38309">
        <ele>52</ele>
        <time>2022-02-02T08:09:11.498Z</time>
      </trkpt>
      <trkpt lat="48.86096" lon="2.38304">
        <ele>52</ele>
        <time>2022-02-02T08:09:16.482Z</time>
      </trkpt>
      <trkpt lat="48.86102" lon="2.38305">
        <ele>54</ele>
        <time>2022-02-02T08:09:21.546Z</time>
      </trkpt>
      <trkpt lat="48.86103" lon="2.38309">
        <ele>54</ele>
        <time>2022-02-02T08:09:26.480Z</time>
      </trkpt>
      <trkpt lat="48.86109" lon="2.38304">
        <ele>54</ele>
        <time>2022-02-02T08:09:30.486Z</time>
      </trkpt>
      <trkpt lat="48.86113" lon="2.38297">
        <ele>54</ele>
        <time>2022-02-02T08:09:35.477Z</time>
      </trkpt>
      <trkpt lat="48.8612" lon="2.38291">
        <ele>56</ele>
        <time>2022-02-02T08:09:39.488Z</time>
      </trkpt>
      <trkpt lat="48.86122" lon="2.38287">
        <ele>56</ele>
        <time>2022-02-02T08:09:44.484Z</time>
      </trkpt>
      <trkpt lat="48.86128" lon="2.38283">
        <ele>58</ele>
        <time>2022-02-02T08:09:49.492Z</time>
      </trkpt>
      <trkpt lat="48.86133" lon="2.38282">
        <ele>58</ele>
        <time>2022-02-02T08:09:54.484Z</time>
      </trkpt>
      <trkpt lat="48.86138" lon="2.38279">
        <ele>58</ele>
        <time>2022-02-02T08:09:58.496Z</time>
      </trkpt>
      <trkpt lat="48.86144" lon="2.38274">
        <ele>58</ele>
        <time>2022-02-02T08:10:03.479Z</time>
      </trkpt>
      <trkpt lat="48.86149" lon="2.3827">
        <ele>58</ele>
        <time>2022-02-02T08:10:07.495Z</time>
      </trkpt>
      <trkpt lat="48.86155" lon="2.38268">
        <ele>59</ele>
        <time>2022-02-02T08:10:12.484Z</time>
      </trkpt>
      <trkpt lat="48.86161" lon="2.38267">
        <ele>59</ele>
        <time>2022-02-02T08:10:16.486Z</time>
      </trkpt>
      <trkpt lat="48.86166" lon="2.38263">
        <ele>60</ele>
        <time>2022-02-02T08:10:21.486Z</time>
      </trkpt>
      <trkpt lat="48.86172" lon="2.3826">
        <ele>60</ele>
        <time>2022-02-02T08:10:25.497Z</time>
      </trkpt>
      <trkpt lat="48.86177" lon="2.38259">
        <ele>60</ele>
        <time>2022-02-02T08:10:29.500Z</time>
      </trkpt>
      <trkpt lat="48.86182" lon="2.38254">
        <ele>60</ele>
        <time>2022-02-02T08:10:34.487Z</time>
      </trkpt>
      <trkpt lat="48.86187" lon="2.38249">
        <ele>60</ele>
        <time>2022-02-02T08:10:39.493Z</time>
      </trkpt>
      <trkpt lat="48.86192" lon="2.38247">
        <ele>60</ele>
        <time>2022-02-02T08:10:44.484Z</time>
      </trkpt>
      <trkpt lat="48.86198" lon="2.38245">
        <ele>60</ele>
        <time>2022-02-02T08:10:48.497Z</time>
      </trkpt>
      <trkpt lat="48.86202" lon="2.38243">
        <ele>60</ele>
        <time>2022-02-02T08:10:53.502Z</time>
      </trkpt>
      <trkpt lat="48.86207" lon="2.38239">
        <ele>60</ele>
        <time>2022-02-02T08:10:58.499Z</time>
      </trkpt>
      <trkpt lat="48.86212" lon="2.38234">
        <ele>59</ele>
        <time>2022-02-02T08:11:03.489Z</time>
      </trkpt>
      <trkpt lat="48.86218" lon="2.38231">
        <ele>59</ele>
        <time>2022-02-02T08:11:07.487Z</time>
      </trkpt>
      <trkpt lat="48.86223" lon="2.38228">
        <ele>59</ele>
        <time>2022-02-02T08:11:12.487Z</time>
      </trkpt>
      <trkpt lat="48.86226" lon="2.38224">
        <ele>59</ele>
        <time>2022-02-02T08:11:16.486Z</time>
      </trkpt>
      <trkpt lat="48.86226" lon="2.38223">
        <ele>59</ele>
        <time>2022-02-02T08:11:20.486Z</time>
      </trkpt>
      <trkpt lat="48.86228" lon="2.38222">
        <ele>59</ele>
        <time>2022-02-02T08:11:25.485Z</time>
      </trkpt>
      <trkpt lat="48.86235" lon="2.38218">
        <ele>59</ele>
        <time>2022-02-02T08:11:29.486Z</time>
      </trkpt>
      <trkpt lat="48.86239" lon="2.38216">
        <ele>59</ele>
        <time>2022-02-02T08:11:34.488Z</time>
      </trkpt>
      <trkpt lat="48.86243" lon="2.38211">
        <ele>59</ele>
        <time>2022-02-02T08:11:39.491Z</time>
      </trkpt>
      <trkpt lat="48.86248" lon="2.38205">
        <ele>58</ele>
        <time>2022-02-02T08:11:44.490Z</time>
      </trkpt>
      <trkpt lat="48.86253" lon="2.38201">
        <ele>58</ele>
        <time>2022-02-02T08:11:49.482Z</time>
      </trkpt>
      <trkpt lat="48.86258" lon="2.38196">
        <ele>58</ele>
        <time>2022-02-02T08:11:54.490Z</time>
      </trkpt>
      <trkpt lat="48.86263" lon="2.38191">
        <ele>58</ele>
        <time>2022-02-02T08:11:59.495Z</time>
      </trkpt>
      <trkpt lat="48.86269" lon="2.38188">
        <ele>58</ele>
        <time>2022-02-02T08:12:04.491Z</time>
      </trkpt>
      <trkpt lat="48.86275" lon="2.38184">
        <ele>58</ele>
        <time>2022-02-02T08:12:09.491Z</time>
      </trkpt>
      <trkpt lat="48.8628" lon="2.3818">
        <ele>57</ele>
        <time>2022-02-02T08:12:14.489Z</time>
      </trkpt>
      <trkpt lat="48.86287" lon="2.38177">
        <ele>57</ele>
        <time>2022-02-02T08:12:18.494Z</time>
      </trkpt>
      <trkpt lat="48.86292" lon="2.38174">
        <ele>56</ele>
        <time>2022-02-02T08:12:22.497Z</time>
      </trkpt>
      <trkpt lat="48.86296" lon="2.38171">
        <ele>56</ele>
        <time>2022-02-02T08:12:37.490Z</time>
      </trkpt>
      <trkpt lat="48.86305" lon="2.38166">
        <ele>56</ele>
        <time>2022-02-02T08:12:42.498Z</time>
      </trkpt>
      <trkpt lat="48.8631" lon="2.38163">
        <ele>56</ele>
        <time>2022-02-02T08:12:47.498Z</time>
      </trkpt>
      <trkpt lat="48.86316" lon="2.38162">
        <ele>56</ele>
        <time>2022-02-02T08:12:52.489Z</time>
      </trkpt>
      <trkpt lat="48.86322" lon="2.3816">
        <ele>56</ele>
        <time>2022-02-02T08:12:57.490Z</time>
      </trkpt>
      <trkpt lat="48.86327" lon="2.38156">
        <ele>56</ele>
        <time>2022-02-02T08:13:01.493Z</time>
      </trkpt>
      <trkpt lat="48.86332" lon="2.38153">
        <ele>56</ele>
        <time>2022-02-02T08:13:06.495Z</time>
      </trkpt>
      <trkpt lat="48.86338" lon="2.38152">
        <ele>55</ele>
        <time>2022-02-02T08:13:11.507Z</time>
      </trkpt>
      <trkpt lat="48.86344" lon="2.3815">
        <ele>55</ele>
        <time>2022-02-02T08:13:16.499Z</time>
      </trkpt>
      <trkpt lat="48.86349" lon="2.38146">
        <ele>56</ele>
        <time>2022-02-02T08:13:21.498Z</time>
      </trkpt>
      <trkpt lat="48.86356" lon="2.38144">
        <ele>56</ele>
        <time>2022-02-02T08:13:26.503Z</time>
      </trkpt>
      <trkpt lat="48.86361" lon="2.38139">
        <ele>56</ele>
        <time>2022-02-02T08:13:31.485Z</time>
      </trkpt>
      <trkpt lat="48.86367" lon="2.38136">
        <ele>56</ele>
        <time>2022-02-02T08:13:36.491Z</time>
      </trkpt>
      <trkpt lat="48.86373" lon="2.38132">
        <ele>56</ele>
        <time>2022-02-02T08:13:40.499Z</time>
      </trkpt>
      <trkpt lat="48.86379" lon="2.38132">
        <ele>57</ele>
        <time>2022-02-02T08:13:45.481Z</time>
      </trkpt>
      <trkpt lat="48.86386" lon="2.38133">
        <ele>57</ele>
        <time>2022-02-02T08:13:49.481Z</time>
      </trkpt>
      <trkpt lat="48.86388" lon="2.38136">
        <ele>57</ele>
        <time>2022-02-02T08:13:53.487Z</time>
      </trkpt>
      <trkpt lat="48.86392" lon="2.3814">
        <ele>57</ele>
        <time>2022-02-02T08:14:12.505Z</time>
      </trkpt>
      <trkpt lat="48.86398" lon="2.38145">
        <ele>57</ele>
        <time>2022-02-02T08:14:17.480Z</time>
      </trkpt>
      <trkpt lat="48.86398" lon="2.38145">
        <ele>57</ele>
        <time>2022-02-02T08:14:21.488Z</time>
      </trkpt>
      <trkpt lat="48.86399" lon="2.38146">
        <ele>57</ele>
        <time>2022-02-02T08:14:26.486Z</time>
      </trkpt>
      <trkpt lat="48.86401" lon="2.38154">
        <ele>58</ele>
        <time>2022-02-02T08:14:31.493Z</time>
      </trkpt>
      <trkpt lat="48.86401" lon="2.38161">
        <ele>58</ele>
        <time>2022-02-02T08:14:43.998Z</time>
      </trkpt>
      <trkpt lat="48.86398" lon="2.38176">
        <ele>58</ele>
        <time>2022-02-02T08:14:48.482Z</time>
      </trkpt>
      <trkpt lat="48.864" lon="2.38186">
        <ele>59</ele>
        <time>2022-02-02T08:14:53.485Z</time>
      </trkpt>
      <trkpt lat="48.86399" lon="2.3819">
        <ele>59</ele>
        <time>2022-02-02T08:14:58.486Z</time>
      </trkpt>
      <trkpt lat="48.86399" lon="2.3819">
        <ele>59</ele>
        <time>2022-02-02T08:15:20.503Z</time>
      </trkpt>
      <trkpt lat="48.864" lon="2.38189">
        <ele>59</ele>
        <time>2022-02-02T08:15:25.490Z</time>
      </trkpt>
      <trkpt lat="48.86402" lon="2.38183">
        <ele>59</ele>
        <time>2022-02-02T08:15:30.498Z</time>
      </trkpt>
      <trkpt lat="48.86405" lon="2.38175">
        <ele>59</ele>
        <time>2022-02-02T08:15:35.491Z</time>
      </trkpt>
      <trkpt lat="48.86408" lon="2.38169">
        <ele>59</ele>
        <time>2022-02-02T08:15:40.488Z</time>
      </trkpt>
      <trkpt lat="48.86408" lon="2.38159">
        <ele>59</ele>
        <time>2022-02-02T08:15:44.486Z</time>
      </trkpt>
      <trkpt lat="48.86409" lon="2.38151">
        <ele>58</ele>
        <time>2022-02-02T08:15:49.480Z</time>
      </trkpt>
      <trkpt lat="48.8641" lon="2.38143">
        <ele>58</ele>
        <time>2022-02-02T08:15:53.485Z</time>
      </trkpt>
      <trkpt lat="48.86412" lon="2.38136">
        <ele>58</ele>
        <time>2022-02-02T08:15:58.496Z</time>
      </trkpt>
      <trkpt lat="48.86413" lon="2.3813">
        <ele>58</ele>
        <time>2022-02-02T08:16:03.487Z</time>
      </trkpt>
      <trkpt lat="48.86418" lon="2.38139">
        <ele>58</ele>
        <time>2022-02-02T08:16:08.491Z</time>
      </trkpt>
      <trkpt lat="48.86422" lon="2.3815">
        <ele>58</ele>
        <time>2022-02-02T08:16:12.489Z</time>
      </trkpt>
      <trkpt lat="48.86425" lon="2.38156">
        <ele>59</ele>
        <time>2022-02-02T08:16:17.492Z</time>
      </trkpt>
      <trkpt lat="48.86428" lon="2.38164">
        <ele>59</ele>
        <time>2022-02-02T08:16:22.495Z</time>
      </trkpt>
      <trkpt lat="48.86433" lon="2.38168">
        <ele>60</ele>
        <time>2022-02-02T08:16:26.506Z</time>
      </trkpt>
      <trkpt lat="48.86437" lon="2.3817">
        <ele>60</ele>
        <time>2022-02-02T08:16:31.487Z</time>
      </trkpt>
      <trkpt lat="48.86443" lon="2.3817">
        <ele>60</ele>
        <time>2022-02-02T08:16:36.489Z</time>
      </trkpt>
      <trkpt lat="48.86448" lon="2.38173">
        <ele>60</ele>
        <time>2022-02-02T08:16:40.492Z</time>
      </trkpt>
      <trkpt lat="48.86452" lon="2.3817">
        <ele>60</ele>
        <time>2022-02-02T08:16:44.495Z</time>
      </trkpt>
      <trkpt lat="48.86457" lon="2.38167">
        <ele>60</ele>
        <time>2022-02-02T08:16:49.491Z</time>
      </trkpt>
      <trkpt lat="48.8646" lon="2.38163">
        <ele>60</ele>
        <time>2022-02-02T08:16:54.482Z</time>
      </trkpt>
      <trkpt lat="48.86466" lon="2.38161">
        <ele>60</ele>
        <time>2022-02-02T08:16:58.490Z</time>
      </trkpt>
      <trkpt lat="48.86469" lon="2.38157">
        <ele>60</ele>
        <time>2022-02-02T08:17:02.501Z</time>
      </trkpt>
      <trkpt lat="48.86472" lon="2.38154">
        <ele>60</ele>
        <time>2022-02-02T08:17:07.503Z</time>
      </trkpt>
      <trkpt lat="48.86477" lon="2.38149">
        <ele>59</ele>
        <time>2022-02-02T08:17:12.494Z</time>
      </trkpt>
      <trkpt lat="48.8648" lon="2.38145">
        <ele>59</ele>
        <time>2022-02-02T08:17:17.492Z</time>
      </trkpt>
      <trkpt lat="48.86485" lon="2.38147">
        <ele>59</ele>
        <time>2022-02-02T08:17:22.488Z</time>
      </trkpt>
      <trkpt lat="48.8649" lon="2.38144">
        <ele>57</ele>
        <time>2022-02-02T08:17:26.488Z</time>
      </trkpt>
      <trkpt lat="48.86494" lon="2.38141">
        <ele>57</ele>
        <time>2022-02-02T08:17:30.494Z</time>
      </trkpt>
      <trkpt lat="48.86497" lon="2.38136">
        <ele>57</ele>
        <time>2022-02-02T08:17:34.495Z</time>
      </trkpt>
      <trkpt lat="48.865" lon="2.3813">
        <ele>57</ele>
        <time>2022-02-02T08:17:39.490Z</time>
      </trkpt>
      <trkpt lat="48.86505" lon="2.38126">
        <ele>57</ele>
        <time>2022-02-02T08:17:43.490Z</time>
      </trkpt>
      <trkpt lat="48.8651" lon="2.38122">
        <ele>56</ele>
        <time>2022-02-02T08:17:47.517Z</time>
      </trkpt>
      <trkpt lat="48.86514" lon="2.38119">
        <ele>54</ele>
        <time>2022-02-02T08:17:52.492Z</time>
      </trkpt>
      <trkpt lat="48.8652" lon="2.38116">
        <ele>54</ele>
        <time>2022-02-02T08:17:57.492Z</time>
      </trkpt>
      <trkpt lat="48.86527" lon="2.38113">
        <ele>54</ele>
        <time>2022-02-02T08:18:02.492Z</time>
      </trkpt>
      <trkpt lat="48.86532" lon="2.38109">
        <ele>54</ele>
        <time>2022-02-02T08:18:06.494Z</time>
      </trkpt>
      <trkpt lat="48.86537" lon="2.38107">
        <ele>54</ele>
        <time>2022-02-02T08:18:11.484Z</time>
      </trkpt>
      <trkpt lat="48.86542" lon="2.38106">
        <ele>54</ele>
        <time>2022-02-02T08:18:15.490Z</time>
      </trkpt>
      <trkpt lat="48.86546" lon="2.38103">
        <ele>54</ele>
        <time>2022-02-02T08:18:20.492Z</time>
      </trkpt>
      <trkpt lat="48.86551" lon="2.38099">
        <ele>54</ele>
        <time>2022-02-02T08:18:25.492Z</time>
      </trkpt>
      <trkpt lat="48.86555" lon="2.38096">
        <ele>55</ele>
        <time>2022-02-02T08:18:30.490Z</time>
      </trkpt>
      <trkpt lat="48.8656" lon="2.38093">
        <ele>55</ele>
        <time>2022-02-02T08:18:35.487Z</time>
      </trkpt>
      <trkpt lat="48.86567" lon="2.38089">
        <ele>55</ele>
        <time>2022-02-02T08:18:40.493Z</time>
      </trkpt>
      <trkpt lat="48.86572" lon="2.38088">
        <ele>54</ele>
        <time>2022-02-02T08:18:45.481Z</time>
      </trkpt>
      <trkpt lat="48.86576" lon="2.38089">
        <ele>54</ele>
        <time>2022-02-02T08:18:49.486Z</time>
      </trkpt>
      <trkpt lat="48.86582" lon="2.38091">
        <ele>54</ele>
        <time>2022-02-02T08:18:54.484Z</time>
      </trkpt>
      <trkpt lat="48.86589" lon="2.38088">
        <ele>54</ele>
        <time>2022-02-02T08:18:59.487Z</time>
      </trkpt>
      <trkpt lat="48.86595" lon="2.38083">
        <ele>54</ele>
        <time>2022-02-02T08:19:04.484Z</time>
      </trkpt>
      <trkpt lat="48.86596" lon="2.38082">
        <ele>54</ele>
        <time>2022-02-02T08:19:08.506Z</time>
      </trkpt>
      <trkpt lat="48.86596" lon="2.38081">
        <ele>54</ele>
        <time>2022-02-02T08:19:13.502Z</time>
      </trkpt>
      <trkpt lat="48.86597" lon="2.38081">
        <ele>54</ele>
        <time>2022-02-02T08:19:17.505Z</time>
      </trkpt>
      <trkpt lat="48.86601" lon="2.38078">
        <ele>54</ele>
        <time>2022-02-02T08:19:22.486Z</time>
      </trkpt>
      <trkpt lat="48.86607" lon="2.38073">
        <ele>54</ele>
        <time>2022-02-02T08:19:27.493Z</time>
      </trkpt>
      <trkpt lat="48.86612" lon="2.38068">
        <ele>53</ele>
        <time>2022-02-02T08:19:32.494Z</time>
      </trkpt>
      <trkpt lat="48.86618" lon="2.38064">
        <ele>53</ele>
        <time>2022-02-02T08:19:36.500Z</time>
      </trkpt>
      <trkpt lat="48.86621" lon="2.3806">
        <ele>53</ele>
        <time>2022-02-02T08:19:41.486Z</time>
      </trkpt>
      <trkpt lat="48.86623" lon="2.38058">
        <ele>53</ele>
        <time>2022-02-02T08:19:45.488Z</time>
      </trkpt>
      <trkpt lat="48.86628" lon="2.38053">
        <ele>54</ele>
        <time>2022-02-02T08:19:50.484Z</time>
      </trkpt>
      <trkpt lat="48.86636" lon="2.38055">
        <ele>54</ele>
        <time>2022-02-02T08:19:54.494Z</time>
      </trkpt>
      <trkpt lat="48.86637" lon="2.38055">
        <ele>54</ele>
        <time>2022-02-02T08:19:59.485Z</time>
      </trkpt>
      <trkpt lat="48.86638" lon="2.38054">
        <ele>54</ele>
        <time>2022-02-02T08:20:04.485Z</time>
      </trkpt>
      <trkpt lat="48.86639" lon="2.38049">
        <ele>54</ele>
        <time>2022-02-02T08:20:09.484Z</time>
      </trkpt>
      <trkpt lat="48.86643" lon="2.38039">
        <ele>53</ele>
        <time>2022-02-02T08:20:14.481Z</time>
      </trkpt>
      <trkpt lat="48.86644" lon="2.3803">
        <ele>53</ele>
        <time>2022-02-02T08:20:18.487Z</time>
      </trkpt>
      <trkpt lat="48.86645" lon="2.38023">
        <ele>53</ele>
        <time>2022-02-02T08:20:23.495Z</time>
      </trkpt>
      <trkpt lat="48.8665" lon="2.38016">
        <ele>53</ele>
        <time>2022-02-02T08:20:28.489Z</time>
      </trkpt>
      <trkpt lat="48.86655" lon="2.38012">
        <ele>53</ele>
        <time>2022-02-02T08:20:33.489Z</time>
      </trkpt>
      <trkpt lat="48.8666" lon="2.38009">
        <ele>53</ele>
        <time>2022-02-02T08:20:38.489Z</time>
      </trkpt>
      <trkpt lat="48.86662" lon="2.38002">
        <ele>53</ele>
        <time>2022-02-02T08:20:42.491Z</time>
      </trkpt>
      <trkpt lat="48.86664" lon="2.37997">
        <ele>53</ele>
        <time>2022-02-02T08:20:47.494Z</time>
      </trkpt>
      <trkpt lat="48.86668" lon="2.37991">
        <ele>53</ele>
        <time>2022-02-02T08:20:51.499Z</time>
      </trkpt>
      <trkpt lat="48.86671" lon="2.37985">
        <ele>53</ele>
        <time>2022-02-02T08:20:56.487Z</time>
      </trkpt>
      <trkpt lat="48.86676" lon="2.37979">
        <ele>53</ele>
        <time>2022-02-02T08:21:00.488Z</time>
      </trkpt>
      <trkpt lat="48.86681" lon="2.37974">
        <ele>53</ele>
        <time>2022-02-02T08:21:05.496Z</time>
      </trkpt>
      <trkpt lat="48.86686" lon="2.37967">
        <ele>53</ele>
        <time>2022-02-02T08:21:10.491Z</time>
      </trkpt>
      <trkpt lat="48.86692" lon="2.37962">
        <ele>53</ele>
        <time>2022-02-02T08:21:15.492Z</time>
      </trkpt>
      <trkpt lat="48.86698" lon="2.37957">
        <ele>53</ele>
        <time>2022-02-02T08:21:20.489Z</time>
      </trkpt>
      <trkpt lat="48.86703" lon="2.37953">
        <ele>53</ele>
        <time>2022-02-02T08:21:25.488Z</time>
      </trkpt>
      <trkpt lat="48.86708" lon="2.37948">
        <ele>53</ele>
        <time>2022-02-02T08:21:30.487Z</time>
      </trkpt>
      <trkpt lat="48.86713" lon="2.37945">
        <ele>54</ele>
        <time>2022-02-02T08:21:34.494Z</time>
      </trkpt>
      <trkpt lat="48.86717" lon="2.3794">
        <ele>54</ele>
        <time>2022-02-02T08:21:39.483Z</time>
      </trkpt>
      <trkpt lat="48.86722" lon="2.37935">
        <ele>54</ele>
        <time>2022-02-02T08:21:44.492Z</time>
      </trkpt>
      <trkpt lat="48.86728" lon="2.3793">
        <ele>54</ele>
        <time>2022-02-02T08:21:49.491Z</time>
      </trkpt>
      <trkpt lat="48.86733" lon="2.37925">
        <ele>54</ele>
        <time>2022-02-02T08:21:54.487Z</time>
      </trkpt>
      <trkpt lat="48.86738" lon="2.37921">
        <ele>55</ele>
        <time>2022-02-02T08:21:59.484Z</time>
      </trkpt>
      <trkpt lat="48.86744" lon="2.37915">
        <ele>55</ele>
        <time>2022-02-02T08:22:03.486Z</time>
      </trkpt>
      <trkpt lat="48.86748" lon="2.37911">
        <ele>55</ele>
        <time>2022-02-02T08:22:07.498Z</time>
      </trkpt>
      <trkpt lat="48.86753" lon="2.37906">
        <ele>55</ele>
        <time>2022-02-02T08:22:12.485Z</time>
      </trkpt>
      <trkpt lat="48.86758" lon="2.37901">
        <ele>55</ele>
        <time>2022-02-02T08:22:16.490Z</time>
      </trkpt>
      <trkpt lat="48.86763" lon="2.37896">
        <ele>55</ele>
        <time>2022-02-02T08:22:21.491Z</time>
      </trkpt>
      <trkpt lat="48.86768" lon="2.3789">
        <ele>54</ele>
        <time>2022-02-02T08:22:26.496Z</time>
      </trkpt>
      <trkpt lat="48.86772" lon="2.37884">
        <ele>54</ele>
        <time>2022-02-02T08:22:31.492Z</time>
      </trkpt>
      <trkpt lat="48.86778" lon="2.37878">
        <ele>54</ele>
        <time>2022-02-02T08:22:36.490Z</time>
      </trkpt>
      <trkpt lat="48.86784" lon="2.37873">
        <ele>54</ele>
        <time>2022-02-02T08:22:40.494Z</time>
      </trkpt>
      <trkpt lat="48.86788" lon="2.37867">
        <ele>54</ele>
        <time>2022-02-02T08:22:45.482Z</time>
      </trkpt>
      <trkpt lat="48.86795" lon="2.3786">
        <ele>53</ele>
        <time>2022-02-02T08:22:49.489Z</time>
      </trkpt>
      <trkpt lat="48.86797" lon="2.37856">
        <ele>53</ele>
        <time>2022-02-02T08:22:54.498Z</time>
      </trkpt>
      <trkpt lat="48.86798" lon="2.37856">
        <ele>53</ele>
        <time>2022-02-02T08:22:59.495Z</time>
      </trkpt>
      <trkpt lat="48.86798" lon="2.37852">
        <ele>53</ele>
        <time>2022-02-02T08:23:04.502Z</time>
      </trkpt>
      <trkpt lat="48.86796" lon="2.37846">
        <ele>53</ele>
        <time>2022-02-02T08:23:09.491Z</time>
      </trkpt>
      <trkpt lat="48.86796" lon="2.37839">
        <ele>53</ele>
        <time>2022-02-02T08:23:13.486Z</time>
      </trkpt>
      <trkpt lat="48.86794" lon="2.3783">
        <ele>53</ele>
        <time>2022-02-02T08:23:18.488Z</time>
      </trkpt>
      <trkpt lat="48.86793" lon="2.37821">
        <ele>53</ele>
        <time>2022-02-02T08:23:22.490Z</time>
      </trkpt>
      <trkpt lat="48.8679" lon="2.37814">
        <ele>52</ele>
        <time>2022-02-02T08:23:27.499Z</time>
      </trkpt>
      <trkpt lat="48.86789" lon="2.37802">
        <ele>52</ele>
        <time>2022-02-02T08:23:32.490Z</time>
      </trkpt>
      <trkpt lat="48.86787" lon="2.37793">
        <ele>52</ele>
        <time>2022-02-02T08:23:37.488Z</time>
      </trkpt>
      <trkpt lat="48.86784" lon="2.37784">
        <ele>51</ele>
        <time>2022-02-02T08:23:41.502Z</time>
      </trkpt>
      <trkpt lat="48.86784" lon="2.37778">
        <ele>51</ele>
        <time>2022-02-02T08:23:46.489Z</time>
      </trkpt>
      <trkpt lat="48.86785" lon="2.37769">
        <ele>51</ele>
        <time>2022-02-02T08:24:21.475Z</time>
      </trkpt>
      <trkpt lat="48.86779" lon="2.37756">
        <ele>51</ele>
        <time>2022-02-02T08:24:25.481Z</time>
      </trkpt>
      <trkpt lat="48.86776" lon="2.37748">
        <ele>51</ele>
        <time>2022-02-02T08:24:29.484Z</time>
      </trkpt>
      <trkpt lat="48.86774" lon="2.37742">
        <ele>51</ele>
        <time>2022-02-02T08:24:33.487Z</time>
      </trkpt>
      <trkpt lat="48.86773" lon="2.37741">
        <ele>51</ele>
        <time>2022-02-02T08:24:38.491Z</time>
      </trkpt>
      <trkpt lat="48.86774" lon="2.37741">
        <ele>51</ele>
        <time>2022-02-02T08:24:42.490Z</time>
      </trkpt>
      <trkpt lat="48.86773" lon="2.37741">
        <ele>51</ele>
        <time>2022-02-02T08:24:47.489Z</time>
      </trkpt>
      <trkpt lat="48.86771" lon="2.37741">
        <ele>51</ele>
        <time>2022-02-02T08:24:51.611Z</time>
      </trkpt>
      <trkpt lat="48.86767" lon="2.37738">
        <ele>51</ele>
        <time>2022-02-02T08:24:56.488Z</time>
      </trkpt>
      <trkpt lat="48.86764" lon="2.37733">
        <ele>51</ele>
        <time>2022-02-02T08:25:00.493Z</time>
      </trkpt>
      <trkpt lat="48.86763" lon="2.37729">
        <ele>52</ele>
        <time>2022-02-02T08:25:05.493Z</time>
      </trkpt>
      <trkpt lat="48.86761" lon="2.37721">
        <ele>52</ele>
        <time>2022-02-02T08:25:09.497Z</time>
      </trkpt>
      <trkpt lat="48.86761" lon="2.37714">
        <ele>52</ele>
        <time>2022-02-02T08:25:14.490Z</time>
      </trkpt>
      <trkpt lat="48.8676" lon="2.37705">
        <ele>53</ele>
        <time>2022-02-02T08:25:19.489Z</time>
      </trkpt>
      <trkpt lat="48.8676" lon="2.37695">
        <ele>53</ele>
        <time>2022-02-02T08:25:23.490Z</time>
      </trkpt>
      <trkpt lat="48.8676" lon="2.37688">
        <ele>53</ele>
        <time>2022-02-02T08:25:28.493Z</time>
      </trkpt>
      <trkpt lat="48.8676" lon="2.37678">
        <ele>54</ele>
        <time>2022-02-02T08:25:32.532Z</time>
      </trkpt>
      <trkpt lat="48.86757" lon="2.37671">
        <ele>54</ele>
        <time>2022-02-02T08:25:37.494Z</time>
      </trkpt>
      <trkpt lat="48.86756" lon="2.37663">
        <ele>54</ele>
        <time>2022-02-02T08:25:42.490Z</time>
      </trkpt>
      <trkpt lat="48.86754" lon="2.37654">
        <ele>54</ele>
        <time>2022-02-02T08:25:46.493Z</time>
      </trkpt>
      <trkpt lat="48.86753" lon="2.37647">
        <ele>53</ele>
        <time>2022-02-02T08:25:51.492Z</time>
      </trkpt>
      <trkpt lat="48.86752" lon="2.37638">
        <ele>53</ele>
        <time>2022-02-02T08:25:55.521Z</time>
      </trkpt>
      <trkpt lat="48.86749" lon="2.37631">
        <ele>53</ele>
        <time>2022-02-02T08:26:00.490Z</time>
      </trkpt>
      <trkpt lat="48.86748" lon="2.37623">
        <ele>51</ele>
        <time>2022-02-02T08:26:05.489Z</time>
      </trkpt>
      <trkpt lat="48.86746" lon="2.37614">
        <ele>51</ele>
        <time>2022-02-02T08:26:10.490Z</time>
      </trkpt>
      <trkpt lat="48.86744" lon="2.37607">
        <ele>51</ele>
        <time>2022-02-02T08:26:14.497Z</time>
      </trkpt>
      <trkpt lat="48.8674" lon="2.37602">
        <ele>51</ele>
        <time>2022-02-02T08:26:19.496Z</time>
      </trkpt>
      <trkpt lat="48.86733" lon="2.37605">
        <ele>51</ele>
        <time>2022-02-02T08:26:24.483Z</time>
      </trkpt>
      <trkpt lat="48.86727" lon="2.37609">
        <ele>51</ele>
        <time>2022-02-02T08:26:29.483Z</time>
      </trkpt>
      <trkpt lat="48.86719" lon="2.3761">
        <ele>51</ele>
        <time>2022-02-02T08:26:33.488Z</time>
      </trkpt>
      <trkpt lat="48.86711" lon="2.37615">
        <ele>51</ele>
        <time>2022-02-02T08:26:38.495Z</time>
      </trkpt>
      <trkpt lat="48.86704" lon="2.37618">
        <ele>51</ele>
        <time>2022-02-02T08:26:43.493Z</time>
      </trkpt>
      <trkpt lat="48.86696" lon="2.37621">
        <ele>51</ele>
        <time>2022-02-02T08:26:47.499Z</time>
      </trkpt>
      <trkpt lat="48.8669" lon="2.37623">
        <ele>51</ele>
        <time>2022-02-02T08:26:52.495Z</time>
      </trkpt>
      <trkpt lat="48.86684" lon="2.37627">
        <ele>51</ele>
        <time>2022-02-02T08:26:57.493Z</time>
      </trkpt>
      <trkpt lat="48.86679" lon="2.37634">
        <ele>50</ele>
        <time>2022-02-02T08:27:02.495Z</time>
      </trkpt>
      <trkpt lat="48.86675" lon="2.37643">
        <ele>50</ele>
        <time>2022-02-02T08:27:07.492Z</time>
      </trkpt>
      <trkpt lat="48.86669" lon="2.37649">
        <ele>50</ele>
        <time>2022-02-02T08:27:11.501Z</time>
      </trkpt>
      <trkpt lat="48.86665" lon="2.37653">
        <ele>52</ele>
        <time>2022-02-02T08:27:16.495Z</time>
      </trkpt>
      <trkpt lat="48.8666" lon="2.3766">
        <ele>52</ele>
        <time>2022-02-02T08:27:21.500Z</time>
      </trkpt>
      <trkpt lat="48.86654" lon="2.37665">
        <ele>52</ele>
        <time>2022-02-02T08:27:26.487Z</time>
      </trkpt>
      <trkpt lat="48.8665" lon="2.37671">
        <ele>52</ele>
        <time>2022-02-02T08:27:30.496Z</time>
      </trkpt>
      <trkpt lat="48.86646" lon="2.37675">
        <ele>52</ele>
        <time>2022-02-02T08:27:35.499Z</time>
      </trkpt>
      <trkpt lat="48.86641" lon="2.37679">
        <ele>52</ele>
        <time>2022-02-02T08:27:39.505Z</time>
      </trkpt>
      <trkpt lat="48.86637" lon="2.37683">
        <ele>54</ele>
        <time>2022-02-02T08:27:44.495Z</time>
      </trkpt>
      <trkpt lat="48.86632" lon="2.37687">
        <ele>54</ele>
        <time>2022-02-02T08:27:48.500Z</time>
      </trkpt>
      <trkpt lat="48.86627" lon="2.3769">
        <ele>54</ele>
        <time>2022-02-02T08:27:53.490Z</time>
      </trkpt>
      <trkpt lat="48.86621" lon="2.37693">
        <ele>54</ele>
        <time>2022-02-02T08:27:58.489Z</time>
      </trkpt>
      <trkpt lat="48.86616" lon="2.37698">
        <ele>54</ele>
        <time>2022-02-02T08:28:03.498Z</time>
      </trkpt>
      <trkpt lat="48.86609" lon="2.37701">
        <ele>54</ele>
        <time>2022-02-02T08:28:08.505Z</time>
      </trkpt>
      <trkpt lat="48.86603" lon="2.37705">
        <ele>54</ele>
        <time>2022-02-02T08:28:13.487Z</time>
      </trkpt>
      <trkpt lat="48.86597" lon="2.37708">
        <ele>55</ele>
        <time>2022-02-02T08:28:18.492Z</time>
      </trkpt>
      <trkpt lat="48.86592" lon="2.37713">
        <ele>54</ele>
        <time>2022-02-02T08:28:23.486Z</time>
      </trkpt>
      <trkpt lat="48.86586" lon="2.3772">
        <ele>54</ele>
        <time>2022-02-02T08:28:28.487Z</time>
      </trkpt>
      <trkpt lat="48.86582" lon="2.37728">
        <ele>54</ele>
        <time>2022-02-02T08:28:32.496Z</time>
      </trkpt>
      <trkpt lat="48.86579" lon="2.37736">
        <ele>54</ele>
        <time>2022-02-02T08:28:37.485Z</time>
      </trkpt>
      <trkpt lat="48.86578" lon="2.37746">
        <ele>52</ele>
        <time>2022-02-02T08:28:41.487Z</time>
      </trkpt>
      <trkpt lat="48.86579" lon="2.37755">
        <ele>52</ele>
        <time>2022-02-02T08:28:45.503Z</time>
      </trkpt>
      <trkpt lat="48.8658" lon="2.37761">
        <ele>52</ele>
        <time>2022-02-02T08:28:50.485Z</time>
      </trkpt>
      <trkpt lat="48.86581" lon="2.37758">
        <ele>52</ele>
        <time>2022-02-02T08:28:54.489Z</time>
      </trkpt>
      <trkpt lat="48.86579" lon="2.37752">
        <ele>52</ele>
        <time>2022-02-02T08:28:59.487Z</time>
      </trkpt>
      <trkpt lat="48.86577" lon="2.37742">
        <ele>52</ele>
        <time>2022-02-02T08:29:04.493Z</time>
      </trkpt>
      <trkpt lat="48.86573" lon="2.37734">
        <ele>54</ele>
        <time>2022-02-02T08:29:09.489Z</time>
      </trkpt>
      <trkpt lat="48.86569" lon="2.37728">
        <ele>53</ele>
        <time>2022-02-02T08:29:14.480Z</time>
      </trkpt>
      <trkpt lat="48.86567" lon="2.37719">
        <ele>53</ele>
        <time>2022-02-02T08:29:18.493Z</time>
      </trkpt>
      <trkpt lat="48.86564" lon="2.37713">
        <ele>53</ele>
        <time>2022-02-02T08:29:22.495Z</time>
      </trkpt>
      <trkpt lat="48.86562" lon="2.37706">
        <ele>55</ele>
        <time>2022-02-02T08:29:26.491Z</time>
      </trkpt>
      <trkpt lat="48.8656" lon="2.37699">
        <ele>55</ele>
        <time>2022-02-02T08:29:31.486Z</time>
      </trkpt>
      <trkpt lat="48.86557" lon="2.37691">
        <ele>55</ele>
        <time>2022-02-02T08:29:35.492Z</time>
      </trkpt>
      <trkpt lat="48.86555" lon="2.37685">
        <ele>55</ele>
        <time>2022-02-02T08:29:40.491Z</time>
      </trkpt>
      <trkpt lat="48.86552" lon="2.37678">
        <ele>56</ele>
        <time>2022-02-02T08:29:45.499Z</time>
      </trkpt>
      <trkpt lat="48.86549" lon="2.3767">
        <ele>56</ele>
        <time>2022-02-02T08:29:50.492Z</time>
      </trkpt>
      <trkpt lat="48.86547" lon="2.37661">
        <ele>56</ele>
        <time>2022-02-02T08:29:55.495Z</time>
      </trkpt>
      <trkpt lat="48.86546" lon="2.37652">
        <ele>57</ele>
        <time>2022-02-02T08:30:00.493Z</time>
      </trkpt>
      <trkpt lat="48.86543" lon="2.37642">
        <ele>57</ele>
        <time>2022-02-02T08:30:05.492Z</time>
      </trkpt>
      <trkpt lat="48.86541" lon="2.37633">
        <ele>56</ele>
        <time>2022-02-02T08:30:10.497Z</time>
      </trkpt>
      <trkpt lat="48.86539" lon="2.37624">
        <ele>56</ele>
        <time>2022-02-02T08:30:15.493Z</time>
      </trkpt>
      <trkpt lat="48.86537" lon="2.37615">
        <ele>56</ele>
        <time>2022-02-02T08:30:20.488Z</time>
      </trkpt>
      <trkpt lat="48.86536" lon="2.37607">
        <ele>56</ele>
        <time>2022-02-02T08:30:25.497Z</time>
      </trkpt>
      <trkpt lat="48.86534" lon="2.37598">
        <ele>56</ele>
        <time>2022-02-02T08:30:30.488Z</time>
      </trkpt>
      <trkpt lat="48.86531" lon="2.37589">
        <ele>55</ele>
        <time>2022-02-02T08:30:34.502Z</time>
      </trkpt>
      <trkpt lat="48.86529" lon="2.37582">
        <ele>55</ele>
        <time>2022-02-02T08:30:39.489Z</time>
      </trkpt>
      <trkpt lat="48.86528" lon="2.37573">
        <ele>55</ele>
        <time>2022-02-02T08:30:44.492Z</time>
      </trkpt>
      <trkpt lat="48.86528" lon="2.37563">
        <ele>55</ele>
        <time>2022-02-02T08:30:49.494Z</time>
      </trkpt>
      <trkpt lat="48.86529" lon="2.37553">
        <ele>55</ele>
        <time>2022-02-02T08:30:54.512Z</time>
      </trkpt>
      <trkpt lat="48.86528" lon="2.37542">
        <ele>55</ele>
        <time>2022-02-02T08:30:59.486Z</time>
      </trkpt>
      <trkpt lat="48.86527" lon="2.37532">
        <ele>54</ele>
        <time>2022-02-02T08:31:03.489Z</time>
      </trkpt>
      <trkpt lat="48.86527" lon="2.37526">
        <ele>54</ele>
        <time>2022-02-02T08:31:08.494Z</time>
      </trkpt>
      <trkpt lat="48.8653" lon="2.37517">
        <ele>54</ele>
        <time>2022-02-02T08:31:12.490Z</time>
      </trkpt>
      <trkpt lat="48.8653" lon="2.3751">
        <ele>53</ele>
        <time>2022-02-02T08:31:17.496Z</time>
      </trkpt>
      <trkpt lat="48.86527" lon="2.37506">
        <ele>53</ele>
        <time>2022-02-02T08:31:22.489Z</time>
      </trkpt>
      <trkpt lat="48.86522" lon="2.37501">
        <ele>53</ele>
        <time>2022-02-02T08:31:27.487Z</time>
      </trkpt>
      <trkpt lat="48.86514" lon="2.37497">
        <ele>55</ele>
        <time>2022-02-02T08:31:31.502Z</time>
      </trkpt>
      <trkpt lat="48.8651" lon="2.37495">
        <ele>55</ele>
        <time>2022-02-02T08:31:35.495Z</time>
      </trkpt>
      <trkpt lat="48.86508" lon="2.37492">
        <ele>55</ele>
        <time>2022-02-02T08:31:40.492Z</time>
      </trkpt>
      <trkpt lat="48.86505" lon="2.37486">
        <ele>54</ele>
        <time>2022-02-02T08:31:45.492Z</time>
      </trkpt>
      <trkpt lat="48.86499" lon="2.37487">
        <ele>55</ele>
        <time>2022-02-02T08:31:50.490Z</time>
      </trkpt>
      <trkpt lat="48.86498" lon="2.37489">
        <ele>55</ele>
        <time>2022-02-02T08:31:59.492Z</time>
      </trkpt>
      <trkpt lat="48.86498" lon="2.37485">
        <ele>54</ele>
        <time>2022-02-02T08:32:03.491Z</time>
      </trkpt>
      <trkpt lat="48.86497" lon="2.37483">
        <ele>54</ele>
        <time>2022-02-02T08:32:08.504Z</time>
      </trkpt>
      <trkpt lat="48.865" lon="2.37479">
        <ele>54</ele>
        <time>2022-02-02T08:32:13.495Z</time>
      </trkpt>
      <trkpt lat="48.86505" lon="2.37481">
        <ele>54</ele>
        <time>2022-02-02T08:32:18.492Z</time>
      </trkpt>
      <trkpt lat="48.86502" lon="2.37475">
        <ele>54</ele>
        <time>2022-02-02T08:32:22.495Z</time>
      </trkpt>
      <trkpt lat="48.86501" lon="2.3747">
        <ele>54</ele>
        <time>2022-02-02T08:32:27.483Z</time>
      </trkpt>
      <trkpt lat="48.86502" lon="2.37461">
        <ele>54</ele>
        <time>2022-02-02T08:32:31.502Z</time>
      </trkpt>
      <trkpt lat="48.86503" lon="2.37455">
        <ele>54</ele>
        <time>2022-02-02T08:32:36.485Z</time>
      </trkpt>
      <trkpt lat="48.86503" lon="2.37454">
        <ele>54</ele>
        <time>2022-02-02T08:32:40.491Z</time>
      </trkpt>
      <trkpt lat="48.86503" lon="2.37449">
        <ele>54</ele>
        <time>2022-02-02T08:32:45.495Z</time>
      </trkpt>
      <trkpt lat="48.86506" lon="2.3744">
        <ele>54</ele>
        <time>2022-02-02T08:32:50.503Z</time>
      </trkpt>
      <trkpt lat="48.86506" lon="2.37433">
        <ele>54</ele>
        <time>2022-02-02T08:32:55.518Z</time>
      </trkpt>
      <trkpt lat="48.86504" lon="2.37424">
        <ele>54</ele>
        <time>2022-02-02T08:33:00.502Z</time>
      </trkpt>
      <trkpt lat="48.86504" lon="2.37414">
        <ele>54</ele>
        <time>2022-02-02T08:33:04.505Z</time>
      </trkpt>
      <trkpt lat="48.86504" lon="2.37412">
        <ele>54</ele>
        <time>2022-02-02T08:33:09.509Z</time>
      </trkpt>
      <trkpt lat="48.86506" lon="2.37406">
        <ele>54</ele>
        <time>2022-02-02T08:33:14.493Z</time>
      </trkpt>
      <trkpt lat="48.86504" lon="2.37395">
        <ele>53</ele>
        <time>2022-02-02T08:33:19.495Z</time>
      </trkpt>
      <trkpt lat="48.86501" lon="2.37388">
        <ele>53</ele>
        <time>2022-02-02T08:33:24.494Z</time>
      </trkpt>
      <trkpt lat="48.86499" lon="2.37383">
        <ele>53</ele>
        <time>2022-02-02T08:33:28.518Z</time>
      </trkpt>
      <trkpt lat="48.86499" lon="2.37376">
        <ele>53</ele>
        <time>2022-02-02T08:33:33.504Z</time>
      </trkpt>
      <trkpt lat="48.865" lon="2.37368">
        <ele>53</ele>
        <time>2022-02-02T08:33:38.495Z</time>
      </trkpt>
      <trkpt lat="48.86498" lon="2.37361">
        <ele>53</ele>
        <time>2022-02-02T08:33:42.500Z</time>
      </trkpt>
      <trkpt lat="48.86497" lon="2.37354">
        <ele>53</ele>
        <time>2022-02-02T08:33:47.523Z</time>
      </trkpt>
      <trkpt lat="48.86495" lon="2.37344">
        <ele>52</ele>
        <time>2022-02-02T08:33:52.498Z</time>
      </trkpt>
      <trkpt lat="48.86494" lon="2.37333">
        <ele>52</ele>
        <time>2022-02-02T08:33:57.504Z</time>
      </trkpt>
      <trkpt lat="48.8649" lon="2.37326">
        <ele>52</ele>
        <time>2022-02-02T08:34:01.497Z</time>
      </trkpt>
      <trkpt lat="48.86488" lon="2.37324">
        <ele>52</ele>
        <time>2022-02-02T08:34:06.515Z</time>
      </trkpt>
      <trkpt lat="48.86482" lon="2.37317">
        <ele>51</ele>
        <time>2022-02-02T08:34:11.524Z</time>
      </trkpt>
      <trkpt lat="48.86482" lon="2.37311">
        <ele>51</ele>
        <time>2022-02-02T08:34:16.499Z</time>
      </trkpt>
      <trkpt lat="48.86485" lon="2.37305">
        <ele>51</ele>
        <time>2022-02-02T08:34:20.510Z</time>
      </trkpt>
      <trkpt lat="48.86485" lon="2.37298">
        <ele>51</ele>
        <time>2022-02-02T08:34:25.496Z</time>
      </trkpt>
      <trkpt lat="48.86483" lon="2.3729">
        <ele>50</ele>
        <time>2022-02-02T08:34:30.494Z</time>
      </trkpt>
      <trkpt lat="48.86482" lon="2.37284">
        <ele>50</ele>
        <time>2022-02-02T08:34:35.506Z</time>
      </trkpt>
      <trkpt lat="48.86479" lon="2.37275">
        <ele>50</ele>
        <time>2022-02-02T08:34:40.497Z</time>
      </trkpt>
      <trkpt lat="48.86477" lon="2.37266">
        <ele>50</ele>
        <time>2022-02-02T08:34:45.509Z</time>
      </trkpt>
      <trkpt lat="48.86476" lon="2.37258">
        <ele>49</ele>
        <time>2022-02-02T08:34:50.505Z</time>
      </trkpt>
      <trkpt lat="48.86473" lon="2.37249">
        <ele>49</ele>
        <time>2022-02-02T08:34:55.484Z</time>
      </trkpt>
      <trkpt lat="48.8647" lon="2.3724">
        <ele>49</ele>
        <time>2022-02-02T08:34:59.484Z</time>
      </trkpt>
      <trkpt lat="48.8647" lon="2.37234">
        <ele>48</ele>
        <time>2022-02-02T08:35:03.496Z</time>
      </trkpt>
      <trkpt lat="48.8647" lon="2.37226">
        <ele>48</ele>
        <time>2022-02-02T08:35:07.519Z</time>
      </trkpt>
      <trkpt lat="48.86468" lon="2.37218">
        <ele>48</ele>
        <time>2022-02-02T08:35:12.491Z</time>
      </trkpt>
      <trkpt lat="48.86465" lon="2.37208">
        <ele>49</ele>
        <time>2022-02-02T08:35:17.481Z</time>
      </trkpt>
      <trkpt lat="48.86462" lon="2.37198">
        <ele>49</ele>
        <time>2022-02-02T08:35:22.491Z</time>
      </trkpt>
      <trkpt lat="48.86458" lon="2.37188">
        <ele>49</ele>
        <time>2022-02-02T08:35:26.493Z</time>
      </trkpt>
      <trkpt lat="48.86455" lon="2.3718">
        <ele>48</ele>
        <time>2022-02-02T08:35:31.504Z</time>
      </trkpt>
      <trkpt lat="48.86451" lon="2.37173">
        <ele>48</ele>
        <time>2022-02-02T08:35:36.502Z</time>
      </trkpt>
      <trkpt lat="48.86447" lon="2.37167">
        <ele>48</ele>
        <time>2022-02-02T08:35:41.485Z</time>
      </trkpt>
      <trkpt lat="48.86442" lon="2.3716">
        <ele>48</ele>
        <time>2022-02-02T08:35:46.482Z</time>
      </trkpt>
      <trkpt lat="48.86438" lon="2.37152">
        <ele>46</ele>
        <time>2022-02-02T08:36:09.489Z</time>
      </trkpt>
      <trkpt lat="48.86432" lon="2.37143">
        <ele>46</ele>
        <time>2022-02-02T08:36:13.598Z</time>
      </trkpt>
      <trkpt lat="48.86434" lon="2.37136">
        <ele>46</ele>
        <time>2022-02-02T08:36:18.504Z</time>
      </trkpt>
      <trkpt lat="48.86434" lon="2.37126">
        <ele>46</ele>
        <time>2022-02-02T08:36:23.497Z</time>
      </trkpt>
      <trkpt lat="48.86433" lon="2.37114">
        <ele>43</ele>
        <time>2022-02-02T08:36:27.507Z</time>
      </trkpt>
      <trkpt lat="48.86433" lon="2.37106">
        <ele>43</ele>
        <time>2022-02-02T08:36:32.499Z</time>
      </trkpt>
      <trkpt lat="48.86439" lon="2.37102">
        <ele>43</ele>
        <time>2022-02-02T08:36:36.512Z</time>
      </trkpt>
      <trkpt lat="48.86441" lon="2.37094">
        <ele>42</ele>
        <time>2022-02-02T08:36:41.501Z</time>
      </trkpt>
      <trkpt lat="48.86446" lon="2.37087">
        <ele>42</ele>
        <time>2022-02-02T08:36:46.490Z</time>
      </trkpt>
      <trkpt lat="48.86451" lon="2.37084">
        <ele>42</ele>
        <time>2022-02-02T08:36:50.487Z</time>
      </trkpt>
      <trkpt lat="48.86455" lon="2.37081">
        <ele>42</ele>
        <time>2022-02-02T08:36:55.495Z</time>
      </trkpt>
      <trkpt lat="48.86458" lon="2.37077">
        <ele>44</ele>
        <time>2022-02-02T08:37:00.493Z</time>
      </trkpt>
      <trkpt lat="48.86464" lon="2.37072">
        <ele>44</ele>
        <time>2022-02-02T08:37:05.494Z</time>
      </trkpt>
      <trkpt lat="48.86468" lon="2.37071">
        <ele>44</ele>
        <time>2022-02-02T08:37:10.490Z</time>
      </trkpt>
      <trkpt lat="48.86473" lon="2.37068">
        <ele>43</ele>
        <time>2022-02-02T08:37:15.497Z</time>
      </trkpt>
      <trkpt lat="48.86477" lon="2.3706">
        <ele>43</ele>
        <time>2022-02-02T08:37:20.485Z</time>
      </trkpt>
      <trkpt lat="48.86481" lon="2.37056">
        <ele>43</ele>
        <time>2022-02-02T08:37:24.495Z</time>
      </trkpt>
      <trkpt lat="48.86485" lon="2.37054">
        <ele>43</ele>
        <time>2022-02-02T08:37:28.495Z</time>
      </trkpt>
      <trkpt lat="48.86488" lon="2.37052">
        <ele>44</ele>
        <time>2022-02-02T08:37:33.498Z</time>
      </trkpt>
      <trkpt lat="48.86493" lon="2.37049">
        <ele>44</ele>
        <time>2022-02-02T08:37:38.491Z</time>
      </trkpt>
      <trkpt lat="48.86498" lon="2.37047">
        <ele>44</ele>
        <time>2022-02-02T08:37:43.496Z</time>
      </trkpt>
      <trkpt lat="48.86503" lon="2.37044">
        <ele>44</ele>
        <time>2022-02-02T08:37:48.487Z</time>
      </trkpt>
      <trkpt lat="48.86509" lon="2.37036">
        <ele>44</ele>
        <time>2022-02-02T08:37:53.493Z</time>
      </trkpt>
      <trkpt lat="48.86516" lon="2.37031">
        <ele>44</ele>
        <time>2022-02-02T08:37:57.495Z</time>
      </trkpt>
      <trkpt lat="48.86521" lon="2.37027">
        <ele>44</ele>
        <time>2022-02-02T08:38:02.500Z</time>
      </trkpt>
      <trkpt lat="48.86524" lon="2.37024">
        <ele>44</ele>
        <time>2022-02-02T08:38:07.490Z</time>
      </trkpt>
      <trkpt lat="48.8653" lon="2.37022">
        <ele>44</ele>
        <time>2022-02-02T08:38:12.489Z</time>
      </trkpt>
      <trkpt lat="48.86535" lon="2.37019">
        <ele>44</ele>
        <time>2022-02-02T08:38:16.494Z</time>
      </trkpt>
      <trkpt lat="48.8654" lon="2.37011">
        <ele>45</ele>
        <time>2022-02-02T08:38:21.493Z</time>
      </trkpt>
      <trkpt lat="48.86545" lon="2.37004">
        <ele>43</ele>
        <time>2022-02-02T08:38:26.489Z</time>
      </trkpt>
      <trkpt lat="48.86549" lon="2.37001">
        <ele>43</ele>
        <time>2022-02-02T08:38:31.496Z</time>
      </trkpt>
      <trkpt lat="48.86553" lon="2.37">
        <ele>43</ele>
        <time>2022-02-02T08:38:36.496Z</time>
      </trkpt>
      <trkpt lat="48.86558" lon="2.36998">
        <ele>43</ele>
        <time>2022-02-02T08:38:41.496Z</time>
      </trkpt>
      <trkpt lat="48.86563" lon="2.36995">
        <ele>43</ele>
        <time>2022-02-02T08:38:45.502Z</time>
      </trkpt>
      <trkpt lat="48.86567" lon="2.36993">
        <ele>43</ele>
        <time>2022-02-02T08:38:50.496Z</time>
      </trkpt>
      <trkpt lat="48.86572" lon="2.36994">
        <ele>42</ele>
        <time>2022-02-02T08:38:55.497Z</time>
      </trkpt>
      <trkpt lat="48.86575" lon="2.37002">
        <ele>42</ele>
        <time>2022-02-02T08:39:00.490Z</time>
      </trkpt>
      <trkpt lat="48.86583" lon="2.37">
        <ele>42</ele>
        <time>2022-02-02T08:39:13.508Z</time>
      </trkpt>
      <trkpt lat="48.86596" lon="2.36991">
        <ele>42</ele>
        <time>2022-02-02T08:39:18.497Z</time>
      </trkpt>
      <trkpt lat="48.86597" lon="2.36991">
        <ele>42</ele>
        <time>2022-02-02T08:39:23.496Z</time>
      </trkpt>
      <trkpt lat="48.86597" lon="2.36991">
        <ele>42</ele>
        <time>2022-02-02T08:39:28.497Z</time>
      </trkpt>
      <trkpt lat="48.86598" lon="2.36993">
        <ele>44</ele>
        <time>2022-02-02T08:39:32.503Z</time>
      </trkpt>
      <trkpt lat="48.866" lon="2.36998">
        <ele>44</ele>
        <time>2022-02-02T08:39:37.508Z</time>
      </trkpt>
      <trkpt lat="48.86596" lon="2.36999">
        <ele>42</ele>
        <time>2022-02-02T08:39:42.493Z</time>
      </trkpt>
      <trkpt lat="48.86592" lon="2.37002">
        <ele>42</ele>
        <time>2022-02-02T08:39:46.494Z</time>
      </trkpt>
      <trkpt lat="48.86589" lon="2.37004">
        <ele>42</ele>
        <time>2022-02-02T08:39:51.513Z</time>
      </trkpt>
      <trkpt lat="48.86585" lon="2.37007">
        <ele>42</ele>
        <time>2022-02-02T08:39:56.497Z</time>
      </trkpt>
      <trkpt lat="48.86585" lon="2.37012">
        <ele>42</ele>
        <time>2022-02-02T08:40:01.496Z</time>
      </trkpt>
      <trkpt lat="48.86588" lon="2.37018">
        <ele>42</ele>
        <time>2022-02-02T08:40:06.492Z</time>
      </trkpt>
      <trkpt lat="48.8659" lon="2.37024">
        <ele>42</ele>
        <time>2022-02-02T08:40:10.494Z</time>
      </trkpt>
      <trkpt lat="48.86591" lon="2.3703">
        <ele>42</ele>
        <time>2022-02-02T08:40:15.498Z</time>
      </trkpt>
      <trkpt lat="48.86592" lon="2.37039">
        <ele>42</ele>
        <time>2022-02-02T08:40:20.492Z</time>
      </trkpt>
      <trkpt lat="48.86593" lon="2.37046">
        <ele>44</ele>
        <time>2022-02-02T08:40:25.493Z</time>
      </trkpt>
      <trkpt lat="48.86597" lon="2.3705">
        <ele>44</ele>
        <time>2022-02-02T08:40:29.493Z</time>
      </trkpt>
      <trkpt lat="48.86601" lon="2.37051">
        <ele>45</ele>
        <time>2022-02-02T08:40:34.491Z</time>
      </trkpt>
      <trkpt lat="48.86608" lon="2.37049">
        <ele>45</ele>
        <time>2022-02-02T08:40:39.491Z</time>
      </trkpt>
      <trkpt lat="48.86611" lon="2.37053">
        <ele>45</ele>
        <time>2022-02-02T08:40:43.596Z</time>
      </trkpt>
      <trkpt lat="48.8661" lon="2.37059">
        <ele>45</ele>
        <time>2022-02-02T08:40:48.493Z</time>
      </trkpt>
      <trkpt lat="48.86609" lon="2.37067">
        <ele>45</ele>
        <time>2022-02-02T08:40:53.484Z</time>
      </trkpt>
      <trkpt lat="48.86608" lon="2.37076">
        <ele>45</ele>
        <time>2022-02-02T08:40:57.493Z</time>
      </trkpt>
      <trkpt lat="48.86608" lon="2.37082">
        <ele>45</ele>
        <time>2022-02-02T08:41:01.497Z</time>
      </trkpt>
      <trkpt lat="48.86609" lon="2.37088">
        <ele>45</ele>
        <time>2022-02-02T08:41:06.486Z</time>
      </trkpt>
      <trkpt lat="48.86612" lon="2.37094">
        <ele>45</ele>
        <time>2022-02-02T08:41:10.488Z</time>
      </trkpt>
      <trkpt lat="48.86614" lon="2.37099">
        <ele>46</ele>
        <time>2022-02-02T08:41:14.490Z</time>
      </trkpt>
      <trkpt lat="48.86616" lon="2.37105">
        <ele>46</ele>
        <time>2022-02-02T08:41:19.497Z</time>
      </trkpt>
      <trkpt lat="48.8662" lon="2.3711">
        <ele>46</ele>
        <time>2022-02-02T08:41:24.489Z</time>
      </trkpt>
      <trkpt lat="48.86625" lon="2.37111">
        <ele>46</ele>
        <time>2022-02-02T08:41:29.494Z</time>
      </trkpt>
      <trkpt lat="48.86629" lon="2.3711">
        <ele>47</ele>
        <time>2022-02-02T08:41:33.492Z</time>
      </trkpt>
      <trkpt lat="48.86633" lon="2.37111">
        <ele>47</ele>
        <time>2022-02-02T08:41:38.490Z</time>
      </trkpt>
      <trkpt lat="48.86635" lon="2.37109">
        <ele>47</ele>
        <time>2022-02-02T08:41:43.483Z</time>
      </trkpt>
      <trkpt lat="48.86638" lon="2.3711">
        <ele>47</ele>
        <time>2022-02-02T08:41:48.495Z</time>
      </trkpt>
      <trkpt lat="48.86643" lon="2.37106">
        <ele>47</ele>
        <time>2022-02-02T08:41:53.488Z</time>
      </trkpt>
      <trkpt lat="48.86649" lon="2.37103">
        <ele>47</ele>
        <time>2022-02-02T08:41:58.495Z</time>
      </trkpt>
      <trkpt lat="48.86653" lon="2.37101">
        <ele>47</ele>
        <time>2022-02-02T08:42:03.500Z</time>
      </trkpt>
      <trkpt lat="48.86658" lon="2.371">
        <ele>48</ele>
        <time>2022-02-02T08:42:08.493Z</time>
      </trkpt>
      <trkpt lat="48.86663" lon="2.37097">
        <ele>48</ele>
        <time>2022-02-02T08:42:13.491Z</time>
      </trkpt>
      <trkpt lat="48.86669" lon="2.37094">
        <ele>48</ele>
        <time>2022-02-02T08:42:18.491Z</time>
      </trkpt>
      <trkpt lat="48.86675" lon="2.37089">
        <ele>48</ele>
        <time>2022-02-02T08:42:22.492Z</time>
      </trkpt>
      <trkpt lat="48.86678" lon="2.37086">
        <ele>48</ele>
        <time>2022-02-02T08:42:26.493Z</time>
      </trkpt>
      <trkpt lat="48.86682" lon="2.37083">
        <ele>48</ele>
        <time>2022-02-02T08:42:31.491Z</time>
      </trkpt>
      <trkpt lat="48.86687" lon="2.37081">
        <ele>48</ele>
        <time>2022-02-02T08:42:36.494Z</time>
      </trkpt>
      <trkpt lat="48.86692" lon="2.37079">
        <ele>48</ele>
        <time>2022-02-02T08:42:40.496Z</time>
      </trkpt>
      <trkpt lat="48.86697" lon="2.37078">
        <ele>48</ele>
        <time>2022-02-02T08:42:45.492Z</time>
      </trkpt>
      <trkpt lat="48.86704" lon="2.37074">
        <ele>48</ele>
        <time>2022-02-02T08:42:50.493Z</time>
      </trkpt>
      <trkpt lat="48.8671" lon="2.3707">
        <ele>48</ele>
        <time>2022-02-02T08:42:55.494Z</time>
      </trkpt>
      <trkpt lat="48.86717" lon="2.37066">
        <ele>47</ele>
        <time>2022-02-02T08:43:00.489Z</time>
      </trkpt>
      <trkpt lat="48.86724" lon="2.37062">
        <ele>47</ele>
        <time>2022-02-02T08:43:05.493Z</time>
      </trkpt>
      <trkpt lat="48.86729" lon="2.37059">
        <ele>47</ele>
        <time>2022-02-02T08:43:10.485Z</time>
      </trkpt>
      <trkpt lat="48.86735" lon="2.37056">
        <ele>47</ele>
        <time>2022-02-02T08:43:15.494Z</time>
      </trkpt>
      <trkpt lat="48.86742" lon="2.37053">
        <ele>47</ele>
        <time>2022-02-02T08:43:20.496Z</time>
      </trkpt>
      <trkpt lat="48.86749" lon="2.3705">
        <ele>47</ele>
        <time>2022-02-02T08:43:25.493Z</time>
      </trkpt>
      <trkpt lat="48.86757" lon="2.37047">
        <ele>47</ele>
        <time>2022-02-02T08:43:30.489Z</time>
      </trkpt>
      <trkpt lat="48.86764" lon="2.37042">
        <ele>47</ele>
        <time>2022-02-02T08:43:34.491Z</time>
      </trkpt>
      <trkpt lat="48.86767" lon="2.37038">
        <ele>50</ele>
        <time>2022-02-02T08:43:38.493Z</time>
      </trkpt>
      <trkpt lat="48.86772" lon="2.37036">
        <ele>50</ele>
        <time>2022-02-02T08:43:43.498Z</time>
      </trkpt>
      <trkpt lat="48.86778" lon="2.37034">
        <ele>50</ele>
        <time>2022-02-02T08:43:48.488Z</time>
      </trkpt>
      <trkpt lat="48.86778" lon="2.37028">
        <ele>50</ele>
        <time>2022-02-02T08:43:52.494Z</time>
      </trkpt>
      <trkpt lat="48.86782" lon="2.37025">
        <ele>50</ele>
        <time>2022-02-02T08:43:56.505Z</time>
      </trkpt>
      <trkpt lat="48.86786" lon="2.37023">
        <ele>50</ele>
        <time>2022-02-02T08:44:01.493Z</time>
      </trkpt>
      <trkpt lat="48.86792" lon="2.37022">
        <ele>50</ele>
        <time>2022-02-02T08:44:05.494Z</time>
      </trkpt>
      <trkpt lat="48.86798" lon="2.37021">
        <ele>52</ele>
        <time>2022-02-02T08:44:10.484Z</time>
      </trkpt>
      <trkpt lat="48.86802" lon="2.37017">
        <ele>52</ele>
        <time>2022-02-02T08:44:14.494Z</time>
      </trkpt>
      <trkpt lat="48.86806" lon="2.37014">
        <ele>51</ele>
        <time>2022-02-02T08:44:18.489Z</time>
      </trkpt>
      <trkpt lat="48.86811" lon="2.37011">
        <ele>51</ele>
        <time>2022-02-02T08:44:23.497Z</time>
      </trkpt>
      <trkpt lat="48.86817" lon="2.37007">
        <ele>51</ele>
        <time>2022-02-02T08:44:28.495Z</time>
      </trkpt>
      <trkpt lat="48.86822" lon="2.37003">
        <ele>50</ele>
        <time>2022-02-02T08:44:32.503Z</time>
      </trkpt>
      <trkpt lat="48.86826" lon="2.37">
        <ele>50</ele>
        <time>2022-02-02T08:44:37.489Z</time>
      </trkpt>
      <trkpt lat="48.86832" lon="2.36994">
        <ele>50</ele>
        <time>2022-02-02T08:44:42.503Z</time>
      </trkpt>
      <trkpt lat="48.86837" lon="2.36989">
        <ele>50</ele>
        <time>2022-02-02T08:44:47.496Z</time>
      </trkpt>
      <trkpt lat="48.86841" lon="2.36981">
        <ele>49</ele>
        <time>2022-02-02T08:44:52.499Z</time>
      </trkpt>
      <trkpt lat="48.86843" lon="2.3697">
        <ele>49</ele>
        <time>2022-02-02T08:44:57.495Z</time>
      </trkpt>
      <trkpt lat="48.86844" lon="2.3696">
        <ele>49</ele>
        <time>2022-02-02T08:45:02.496Z</time>
      </trkpt>
      <trkpt lat="48.86846" lon="2.36953">
        <ele>48</ele>
        <time>2022-02-02T08:45:06.499Z</time>
      </trkpt>
      <trkpt lat="48.86849" lon="2.36949">
        <ele>46</ele>
        <time>2022-02-02T08:45:11.501Z</time>
      </trkpt>
      <trkpt lat="48.86852" lon="2.36943">
        <ele>46</ele>
        <time>2022-02-02T08:45:16.493Z</time>
      </trkpt>
      <trkpt lat="48.86855" lon="2.36937">
        <ele>46</ele>
        <time>2022-02-02T08:45:21.495Z</time>
      </trkpt>
      <trkpt lat="48.86857" lon="2.3693">
        <ele>46</ele>
        <time>2022-02-02T08:45:26.497Z</time>
      </trkpt>
      <trkpt lat="48.86859" lon="2.36923">
        <ele>46</ele>
        <time>2022-02-02T08:45:30.507Z</time>
      </trkpt>
      <trkpt lat="48.86862" lon="2.36917">
        <ele>46</ele>
        <time>2022-02-02T08:45:35.494Z</time>
      </trkpt>
      <trkpt lat="48.86865" lon="2.36918">
        <ele>46</ele>
        <time>2022-02-02T08:45:39.505Z</time>
      </trkpt>
      <trkpt lat="48.8687" lon="2.36912">
        <ele>46</ele>
        <time>2022-02-02T08:45:44.490Z</time>
      </trkpt>
      <trkpt lat="48.86872" lon="2.36907">
        <ele>46</ele>
        <time>2022-02-02T08:45:48.493Z</time>
      </trkpt>
      <trkpt lat="48.86873" lon="2.36896">
        <ele>46</ele>
        <time>2022-02-02T08:45:52.487Z</time>
      </trkpt>
      <trkpt lat="48.86873" lon="2.36885">
        <ele>46</ele>
        <time>2022-02-02T08:45:57.491Z</time>
      </trkpt>
      <trkpt lat="48.86869" lon="2.36871">
        <ele>46</ele>
        <time>2022-02-02T08:46:02.491Z</time>
      </trkpt>
      <trkpt lat="48.86865" lon="2.36862">
        <ele>46</ele>
        <time>2022-02-02T08:46:06.491Z</time>
      </trkpt>
      <trkpt lat="48.86864" lon="2.36861">
        <ele>46</ele>
        <time>2022-02-02T08:46:11.488Z</time>
      </trkpt>
      <trkpt lat="48.86865" lon="2.36859">
        <ele>46</ele>
        <time>2022-02-02T08:46:15.488Z</time>
      </trkpt>
      <trkpt lat="48.86864" lon="2.36858">
        <ele>46</ele>
        <time>2022-02-02T08:46:20.486Z</time>
      </trkpt>
      <trkpt lat="48.86864" lon="2.36856">
        <ele>46</ele>
        <time>2022-02-02T08:46:24.497Z</time>
      </trkpt>
      <trkpt lat="48.86864" lon="2.36853">
        <ele>46</ele>
        <time>2022-02-02T08:46:29.487Z</time>
      </trkpt>
      <trkpt lat="48.86865" lon="2.36845">
        <ele>45</ele>
        <time>2022-02-02T08:46:34.493Z</time>
      </trkpt>
      <trkpt lat="48.86866" lon="2.36837">
        <ele>45</ele>
        <time>2022-02-02T08:46:39.489Z</time>
      </trkpt>
      <trkpt lat="48.86869" lon="2.36826">
        <ele>45</ele>
        <time>2022-02-02T08:46:43.488Z</time>
      </trkpt>
      <trkpt lat="48.86871" lon="2.36819">
        <ele>45</ele>
        <time>2022-02-02T08:46:48.497Z</time>
      </trkpt>
      <trkpt lat="48.86873" lon="2.36811">
        <ele>45</ele>
        <time>2022-02-02T08:46:53.488Z</time>
      </trkpt>
      <trkpt lat="48.86875" lon="2.36806">
        <ele>47</ele>
        <time>2022-02-02T08:46:57.489Z</time>
      </trkpt>
      <trkpt lat="48.86876" lon="2.36801">
        <ele>47</ele>
        <time>2022-02-02T08:47:02.486Z</time>
      </trkpt>
      <trkpt lat="48.86875" lon="2.36794">
        <ele>47</ele>
        <time>2022-02-02T08:47:06.497Z</time>
      </trkpt>
      <trkpt lat="48.86874" lon="2.36789">
        <ele>45</ele>
        <time>2022-02-02T08:47:11.490Z</time>
      </trkpt>
      <trkpt lat="48.86873" lon="2.36779">
        <ele>45</ele>
        <time>2022-02-02T08:47:15.498Z</time>
      </trkpt>
      <trkpt lat="48.86872" lon="2.36771">
        <ele>45</ele>
        <time>2022-02-02T08:47:20.499Z</time>
      </trkpt>
      <trkpt lat="48.86872" lon="2.36759">
        <ele>46</ele>
        <time>2022-02-02T08:47:25.496Z</time>
      </trkpt>
      <trkpt lat="48.86868" lon="2.36747">
        <ele>46</ele>
        <time>2022-02-02T08:47:29.507Z</time>
      </trkpt>
      <trkpt lat="48.86867" lon="2.36746">
        <ele>46</ele>
        <time>2022-02-02T08:47:34.487Z</time>
      </trkpt>
      <trkpt lat="48.86865" lon="2.36741">
        <ele>46</ele>
        <time>2022-02-02T08:47:38.490Z</time>
      </trkpt>
      <trkpt lat="48.86863" lon="2.36733">
        <ele>47</ele>
        <time>2022-02-02T08:47:43.499Z</time>
      </trkpt>
      <trkpt lat="48.86862" lon="2.36728">
        <ele>47</ele>
        <time>2022-02-02T08:47:48.487Z</time>
      </trkpt>
      <trkpt lat="48.86863" lon="2.36721">
        <ele>47</ele>
        <time>2022-02-02T08:47:52.497Z</time>
      </trkpt>
      <trkpt lat="48.86867" lon="2.36714">
        <ele>47</ele>
        <time>2022-02-02T08:47:56.497Z</time>
      </trkpt>
      <trkpt lat="48.86871" lon="2.36709">
        <ele>47</ele>
        <time>2022-02-02T08:48:00.501Z</time>
      </trkpt>
      <trkpt lat="48.86876" lon="2.36708">
        <ele>48</ele>
        <time>2022-02-02T08:48:05.498Z</time>
      </trkpt>
      <trkpt lat="48.8688" lon="2.36708">
        <ele>48</ele>
        <time>2022-02-02T08:48:10.498Z</time>
      </trkpt>
      <trkpt lat="48.86885" lon="2.3671">
        <ele>48</ele>
        <time>2022-02-02T08:48:15.503Z</time>
      </trkpt>
      <trkpt lat="48.86888" lon="2.36706">
        <ele>48</ele>
        <time>2022-02-02T08:48:20.498Z</time>
      </trkpt>
      <trkpt lat="48.86892" lon="2.36701">
        <ele>48</ele>
        <time>2022-02-02T08:48:24.502Z</time>
      </trkpt>
      <trkpt lat="48.86895" lon="2.36696">
        <ele>48</ele>
        <time>2022-02-02T08:48:29.497Z</time>
      </trkpt>
      <trkpt lat="48.869" lon="2.36691">
        <ele>48</ele>
        <time>2022-02-02T08:48:33.500Z</time>
      </trkpt>
      <trkpt lat="48.86904" lon="2.36688">
        <ele>46</ele>
        <time>2022-02-02T08:48:38.498Z</time>
      </trkpt>
      <trkpt lat="48.86909" lon="2.36684">
        <ele>46</ele>
        <time>2022-02-02T08:48:42.500Z</time>
      </trkpt>
      <trkpt lat="48.86914" lon="2.36682">
        <ele>46</ele>
        <time>2022-02-02T08:48:47.496Z</time>
      </trkpt>
      <trkpt lat="48.8692" lon="2.36677">
        <ele>45</ele>
        <time>2022-02-02T08:48:52.497Z</time>
      </trkpt>
      <trkpt lat="48.86926" lon="2.36673">
        <ele>45</ele>
        <time>2022-02-02T08:48:56.496Z</time>
      </trkpt>
      <trkpt lat="48.8693" lon="2.3667">
        <ele>45</ele>
        <time>2022-02-02T08:49:01.486Z</time>
      </trkpt>
      <trkpt lat="48.86935" lon="2.36666">
        <ele>43</ele>
        <time>2022-02-02T08:49:06.495Z</time>
      </trkpt>
      <trkpt lat="48.86941" lon="2.36663">
        <ele>43</ele>
        <time>2022-02-02T08:49:11.492Z</time>
      </trkpt>
      <trkpt lat="48.86947" lon="2.36661">
        <ele>43</ele>
        <time>2022-02-02T08:49:15.495Z</time>
      </trkpt>
      <trkpt lat="48.8695" lon="2.36666">
        <ele>43</ele>
        <time>2022-02-02T08:49:19.492Z</time>
      </trkpt>
      <trkpt lat="48.8695" lon="2.36666">
        <ele>43</ele>
        <time>2022-02-02T08:49:24.491Z</time>
      </trkpt>
      <trkpt lat="48.86955" lon="2.36659">
        <ele>43</ele>
        <time>2022-02-02T08:49:28.494Z</time>
      </trkpt>
      <trkpt lat="48.86958" lon="2.36653">
        <ele>43</ele>
        <time>2022-02-02T08:49:33.490Z</time>
      </trkpt>
      <trkpt lat="48.86962" lon="2.36648">
        <ele>43</ele>
        <time>2022-02-02T08:49:38.497Z</time>
      </trkpt>
      <trkpt lat="48.86964" lon="2.36641">
        <ele>43</ele>
        <time>2022-02-02T08:49:43.615Z</time>
      </trkpt>
      <trkpt lat="48.86967" lon="2.36636">
        <ele>43</ele>
        <time>2022-02-02T08:49:48.494Z</time>
      </trkpt>
      <trkpt lat="48.86974" lon="2.36629">
        <ele>43</ele>
        <time>2022-02-02T08:49:52.494Z</time>
      </trkpt>
      <trkpt lat="48.86979" lon="2.36628">
        <ele>43</ele>
        <time>2022-02-02T08:49:56.499Z</time>
      </trkpt>
      <trkpt lat="48.86982" lon="2.36625">
        <ele>43</ele>
        <time>2022-02-02T08:50:01.502Z</time>
      </trkpt>
      <trkpt lat="48.86986" lon="2.3662">
        <ele>45</ele>
        <time>2022-02-02T08:50:06.504Z</time>
      </trkpt>
      <trkpt lat="48.86991" lon="2.36616">
        <ele>45</ele>
        <time>2022-02-02T08:50:11.489Z</time>
      </trkpt>
      <trkpt lat="48.86997" lon="2.36612">
        <ele>45</ele>
        <time>2022-02-02T08:50:15.496Z</time>
      </trkpt>
      <trkpt lat="48.87002" lon="2.36608">
        <ele>45</ele>
        <time>2022-02-02T08:50:19.497Z</time>
      </trkpt>
      <trkpt lat="48.87004" lon="2.36606">
        <ele>45</ele>
        <time>2022-02-02T08:50:23.489Z</time>
      </trkpt>
      <trkpt lat="48.87009" lon="2.36602">
        <ele>45</ele>
        <time>2022-02-02T08:50:28.502Z</time>
      </trkpt>
      <trkpt lat="48.87016" lon="2.36598">
        <ele>46</ele>
        <time>2022-02-02T08:50:33.500Z</time>
      </trkpt>
      <trkpt lat="48.87025" lon="2.36593">
        <ele>48</ele>
        <time>2022-02-02T08:52:29.496Z</time>
      </trkpt>
      <trkpt lat="48.87033" lon="2.36595">
        <ele>48</ele>
        <time>2022-02-02T08:52:34.487Z</time>
      </trkpt>
      <trkpt lat="48.87034" lon="2.36593">
        <ele>48</ele>
        <time>2022-02-02T08:52:39.498Z</time>
      </trkpt>
      <trkpt lat="48.87035" lon="2.36593">
        <ele>48</ele>
        <time>2022-02-02T08:52:44.486Z</time>
      </trkpt>
      <trkpt lat="48.87034" lon="2.36596">
        <ele>48</ele>
        <time>2022-02-02T08:52:48.489Z</time>
      </trkpt>
      <trkpt lat="48.87034" lon="2.36604">
        <ele>46</ele>
        <time>2022-02-02T08:56:18.485Z</time>
      </trkpt>
      <trkpt lat="48.87033" lon="2.36603">
        <ele>46</ele>
        <time>2022-02-02T08:56:23.489Z</time>
      </trkpt>
      <trkpt lat="48.87033" lon="2.36602">
        <ele>46</ele>
        <time>2022-02-02T08:56:27.489Z</time>
      </trkpt>
      <trkpt lat="48.87033" lon="2.36597">
        <ele>48</ele>
        <time>2022-02-02T08:56:32.486Z</time>
      </trkpt>
      <trkpt lat="48.87035" lon="2.36589">
        <ele>48</ele>
        <time>2022-02-02T08:56:36.494Z</time>
      </trkpt>
      <trkpt lat="48.87038" lon="2.36584">
        <ele>48</ele>
        <time>2022-02-02T08:56:40.491Z</time>
      </trkpt>
      <trkpt lat="48.8704" lon="2.36579">
        <ele>48</ele>
        <time>2022-02-02T08:56:45.495Z</time>
      </trkpt>
      <trkpt lat="48.87043" lon="2.36575">
        <ele>46</ele>
        <time>2022-02-02T08:56:49.496Z</time>
      </trkpt>
      <trkpt lat="48.87046" lon="2.36572">
        <ele>46</ele>
        <time>2022-02-02T08:56:54.498Z</time>
      </trkpt>
      <trkpt lat="48.87051" lon="2.36564">
        <ele>48</ele>
        <time>2022-02-02T08:56:58.500Z</time>
      </trkpt>
      <trkpt lat="48.87053" lon="2.36561">
        <ele>48</ele>
        <time>2022-02-02T08:57:03.490Z</time>
      </trkpt>
      <trkpt lat="48.87057" lon="2.36558">
        <ele>48</ele>
        <time>2022-02-02T08:57:07.499Z</time>
      </trkpt>
      <trkpt lat="48.8706" lon="2.36554">
        <ele>48</ele>
        <time>2022-02-02T08:57:12.497Z</time>
      </trkpt>
      <trkpt lat="48.87062" lon="2.36547">
        <ele>48</ele>
        <time>2022-02-02T08:57:16.498Z</time>
      </trkpt>
      <trkpt lat="48.87065" lon="2.36543">
        <ele>48</ele>
        <time>2022-02-02T08:57:21.493Z</time>
      </trkpt>
      <trkpt lat="48.87072" lon="2.36538">
        <ele>48</ele>
        <time>2022-02-02T08:57:26.503Z</time>
      </trkpt>
      <trkpt lat="48.8708" lon="2.36533">
        <ele>48</ele>
        <time>2022-02-02T08:57:31.498Z</time>
      </trkpt>
      <trkpt lat="48.87087" lon="2.36532">
        <ele>48</ele>
        <time>2022-02-02T08:57:36.500Z</time>
      </trkpt>
      <trkpt lat="48.87092" lon="2.36533">
        <ele>48</ele>
        <time>2022-02-02T08:57:41.495Z</time>
      </trkpt>
      <trkpt lat="48.87096" lon="2.36527">
        <ele>48</ele>
        <time>2022-02-02T08:57:46.497Z</time>
      </trkpt>
      <trkpt lat="48.87101" lon="2.36522">
        <ele>47</ele>
        <time>2022-02-02T08:57:51.498Z</time>
      </trkpt>
      <trkpt lat="48.87105" lon="2.36517">
        <ele>47</ele>
        <time>2022-02-02T08:57:55.502Z</time>
      </trkpt>
      <trkpt lat="48.87109" lon="2.36514">
        <ele>49</ele>
        <time>2022-02-02T08:58:00.490Z</time>
      </trkpt>
      <trkpt lat="48.87114" lon="2.3651">
        <ele>49</ele>
        <time>2022-02-02T08:58:05.490Z</time>
      </trkpt>
      <trkpt lat="48.8712" lon="2.36507">
        <ele>49</ele>
        <time>2022-02-02T08:58:09.498Z</time>
      </trkpt>
      <trkpt lat="48.87124" lon="2.36505">
        <ele>49</ele>
        <time>2022-02-02T08:58:13.497Z</time>
      </trkpt>
      <trkpt lat="48.87128" lon="2.36503">
        <ele>47</ele>
        <time>2022-02-02T08:58:18.497Z</time>
      </trkpt>
      <trkpt lat="48.87137" lon="2.36499">
        <ele>47</ele>
        <time>2022-02-02T08:58:22.497Z</time>
      </trkpt>
      <trkpt lat="48.87142" lon="2.36494">
        <ele>47</ele>
        <time>2022-02-02T08:58:27.499Z</time>
      </trkpt>
      <trkpt lat="48.87148" lon="2.36491">
        <ele>47</ele>
        <time>2022-02-02T08:58:32.495Z</time>
      </trkpt>
      <trkpt lat="48.87154" lon="2.36485">
        <ele>41</ele>
        <time>2022-02-02T08:58:36.490Z</time>
      </trkpt>
      <trkpt lat="48.87158" lon="2.3648">
        <ele>41</ele>
        <time>2022-02-02T08:58:41.495Z</time>
      </trkpt>
      <trkpt lat="48.87162" lon="2.36474">
        <ele>41</ele>
        <time>2022-02-02T08:58:46.492Z</time>
      </trkpt>
      <trkpt lat="48.87167" lon="2.36471">
        <ele>41</ele>
        <time>2022-02-02T08:58:51.495Z</time>
      </trkpt>
      <trkpt lat="48.87172" lon="2.36471">
        <ele>41</ele>
        <time>2022-02-02T08:58:55.495Z</time>
      </trkpt>
      <trkpt lat="48.87176" lon="2.36469">
        <ele>41</ele>
        <time>2022-02-02T08:59:00.498Z</time>
      </trkpt>
      <trkpt lat="48.87184" lon="2.36466">
        <ele>39</ele>
        <time>2022-02-02T08:59:05.499Z</time>
      </trkpt>
      <trkpt lat="48.87191" lon="2.36461">
        <ele>39</ele>
        <time>2022-02-02T08:59:10.488Z</time>
      </trkpt>
      <trkpt lat="48.87197" lon="2.36456">
        <ele>38</ele>
        <time>2022-02-02T08:59:14.497Z</time>
      </trkpt>
      <trkpt lat="48.87201" lon="2.36452">
        <ele>38</ele>
        <time>2022-02-02T08:59:19.495Z</time>
      </trkpt>
      <trkpt lat="48.87206" lon="2.36449">
        <ele>38</ele>
        <time>2022-02-02T08:59:24.504Z</time>
      </trkpt>
      <trkpt lat="48.87212" lon="2.36445">
        <ele>39</ele>
        <time>2022-02-02T08:59:29.501Z</time>
      </trkpt>
      <trkpt lat="48.87216" lon="2.36435">
        <ele>39</ele>
        <time>2022-02-02T08:59:34.498Z</time>
      </trkpt>
      <trkpt lat="48.87219" lon="2.36427">
        <ele>37</ele>
        <time>2022-02-02T08:59:39.490Z</time>
      </trkpt>
      <trkpt lat="48.87223" lon="2.36421">
        <ele>37</ele>
        <time>2022-02-02T08:59:43.500Z</time>
      </trkpt>
      <trkpt lat="48.87227" lon="2.36418">
        <ele>37</ele>
        <time>2022-02-02T08:59:48.496Z</time>
      </trkpt>
      <trkpt lat="48.87232" lon="2.36415">
        <ele>37</ele>
        <time>2022-02-02T08:59:53.487Z</time>
      </trkpt>
      <trkpt lat="48.87237" lon="2.36414">
        <ele>38</ele>
        <time>2022-02-02T08:59:57.501Z</time>
      </trkpt>
      <trkpt lat="48.87241" lon="2.36414">
        <ele>38</ele>
        <time>2022-02-02T09:00:01.576Z</time>
      </trkpt>
      <trkpt lat="48.87245" lon="2.36411">
        <ele>38</ele>
        <time>2022-02-02T09:00:06.495Z</time>
      </trkpt>
      <trkpt lat="48.87251" lon="2.36408">
        <ele>38</ele>
        <time>2022-02-02T09:00:11.498Z</time>
      </trkpt>
      <trkpt lat="48.87257" lon="2.36403">
        <ele>38</ele>
        <time>2022-02-02T09:00:16.496Z</time>
      </trkpt>
      <trkpt lat="48.87262" lon="2.36396">
        <ele>38</ele>
        <time>2022-02-02T09:00:21.499Z</time>
      </trkpt>
      <trkpt lat="48.87268" lon="2.36394">
        <ele>41</ele>
        <time>2022-02-02T09:00:26.496Z</time>
      </trkpt>
      <trkpt lat="48.87275" lon="2.36387">
        <ele>41</ele>
        <time>2022-02-02T09:00:31.490Z</time>
      </trkpt>
      <trkpt lat="48.87279" lon="2.36379">
        <ele>41</ele>
        <time>2022-02-02T09:00:36.487Z</time>
      </trkpt>
      <trkpt lat="48.87278" lon="2.36373">
        <ele>44</ele>
        <time>2022-02-02T09:00:40.490Z</time>
      </trkpt>
      <trkpt lat="48.8728" lon="2.36371">
        <ele>44</ele>
        <time>2022-02-02T09:00:44.498Z</time>
      </trkpt>
      <trkpt lat="48.8728" lon="2.36371">
        <ele>44</ele>
        <time>2022-02-02T09:00:49.496Z</time>
      </trkpt>
      <trkpt lat="48.87279" lon="2.3637">
        <ele>44</ele>
        <time>2022-02-02T09:00:54.502Z</time>
      </trkpt>
      <trkpt lat="48.87276" lon="2.36364">
        <ele>44</ele>
        <time>2022-02-02T09:00:59.492Z</time>
      </trkpt>
      <trkpt lat="48.87275" lon="2.36357">
        <ele>44</ele>
        <time>2022-02-02T09:01:04.491Z</time>
      </trkpt>
      <trkpt lat="48.87277" lon="2.36354">
        <ele>44</ele>
        <time>2022-02-02T09:01:09.498Z</time>
      </trkpt>
      <trkpt lat="48.87279" lon="2.36352">
        <ele>44</ele>
        <time>2022-02-02T09:01:14.503Z</time>
      </trkpt>
      <trkpt lat="48.87279" lon="2.36349">
        <ele>44</ele>
        <time>2022-02-02T09:01:19.504Z</time>
      </trkpt>
      <trkpt lat="48.87281" lon="2.36348">
        <ele>44</ele>
        <time>2022-02-02T09:01:24.490Z</time>
      </trkpt>
      <trkpt lat="48.87286" lon="2.36349">
        <ele>44</ele>
        <time>2022-02-02T09:01:29.497Z</time>
      </trkpt>
      <trkpt lat="48.87292" lon="2.36349">
        <ele>43</ele>
        <time>2022-02-02T09:01:34.486Z</time>
      </trkpt>
      <trkpt lat="48.87298" lon="2.3635">
        <ele>43</ele>
        <time>2022-02-02T09:01:38.529Z</time>
      </trkpt>
      <trkpt lat="48.87301" lon="2.36353">
        <ele>43</ele>
        <time>2022-02-02T09:01:43.489Z</time>
      </trkpt>
      <trkpt lat="48.87304" lon="2.3635">
        <ele>43</ele>
        <time>2022-02-02T09:01:47.495Z</time>
      </trkpt>
      <trkpt lat="48.87304" lon="2.3635">
        <ele>43</ele>
        <time>2022-02-02T09:01:52.484Z</time>
      </trkpt>
      <trkpt lat="48.8731" lon="2.36343">
        <ele>45</ele>
        <time>2022-02-02T09:01:57.494Z</time>
      </trkpt>
      <trkpt lat="48.87314" lon="2.36331">
        <ele>45</ele>
        <time>2022-02-02T09:02:01.496Z</time>
      </trkpt>
      <trkpt lat="48.87315" lon="2.36323">
        <ele>45</ele>
        <time>2022-02-02T09:02:06.489Z</time>
      </trkpt>
      <trkpt lat="48.87318" lon="2.36318">
        <ele>47</ele>
        <time>2022-02-02T09:02:10.487Z</time>
      </trkpt>
      <trkpt lat="48.87318" lon="2.36312">
        <ele>47</ele>
        <time>2022-02-02T09:02:15.499Z</time>
      </trkpt>
      <trkpt lat="48.87318" lon="2.36303">
        <ele>47</ele>
        <time>2022-02-02T09:02:20.494Z</time>
      </trkpt>
      <trkpt lat="48.87323" lon="2.36299">
        <ele>47</ele>
        <time>2022-02-02T09:02:25.492Z</time>
      </trkpt>
      <trkpt lat="48.87323" lon="2.36289">
        <ele>48</ele>
        <time>2022-02-02T09:02:30.496Z</time>
      </trkpt>
      <trkpt lat="48.87321" lon="2.36276">
        <ele>48</ele>
        <time>2022-02-02T09:02:35.489Z</time>
      </trkpt>
      <trkpt lat="48.8732" lon="2.36266">
        <ele>48</ele>
        <time>2022-02-02T09:02:40.495Z</time>
      </trkpt>
      <trkpt lat="48.8732" lon="2.36256">
        <ele>48</ele>
        <time>2022-02-02T09:02:45.491Z</time>
      </trkpt>
      <trkpt lat="48.87321" lon="2.36246">
        <ele>48</ele>
        <time>2022-02-02T09:02:50.496Z</time>
      </trkpt>
      <trkpt lat="48.87321" lon="2.36236">
        <ele>48</ele>
        <time>2022-02-02T09:02:55.494Z</time>
      </trkpt>
      <trkpt lat="48.87323" lon="2.36235">
        <ele>47</ele>
        <time>2022-02-02T09:02:59.500Z</time>
      </trkpt>
      <trkpt lat="48.87324" lon="2.36234">
        <ele>47</ele>
        <time>2022-02-02T09:03:03.497Z</time>
      </trkpt>
      <trkpt lat="48.87324" lon="2.36234">
        <ele>47</ele>
        <time>2022-02-02T09:03:08.492Z</time>
      </trkpt>
      <trkpt lat="48.87324" lon="2.36227">
        <ele>47</ele>
        <time>2022-02-02T09:03:13.486Z</time>
      </trkpt>
      <trkpt lat="48.87325" lon="2.36218">
        <ele>47</ele>
        <time>2022-02-02T09:03:17.489Z</time>
      </trkpt>
      <trkpt lat="48.87325" lon="2.36211">
        <ele>47</ele>
        <time>2022-02-02T09:03:21.492Z</time>
      </trkpt>
      <trkpt lat="48.87325" lon="2.36205">
        <ele>47</ele>
        <time>2022-02-02T09:03:26.493Z</time>
      </trkpt>
      <trkpt lat="48.87325" lon="2.36197">
        <ele>47</ele>
        <time>2022-02-02T09:03:31.493Z</time>
      </trkpt>
      <trkpt lat="48.87324" lon="2.36188">
        <ele>47</ele>
        <time>2022-02-02T09:03:36.494Z</time>
      </trkpt>
      <trkpt lat="48.87324" lon="2.36179">
        <ele>46</ele>
        <time>2022-02-02T09:03:41.487Z</time>
      </trkpt>
      <trkpt lat="48.87324" lon="2.3617">
        <ele>46</ele>
        <time>2022-02-02T09:03:46.496Z</time>
      </trkpt>
      <trkpt lat="48.87323" lon="2.36161">
        <ele>46</ele>
        <time>2022-02-02T09:03:50.497Z</time>
      </trkpt>
      <trkpt lat="48.87322" lon="2.36153">
        <ele>44</ele>
        <time>2022-02-02T09:03:55.490Z</time>
      </trkpt>
      <trkpt lat="48.87314" lon="2.36148">
        <ele>42</ele>
        <time>2022-02-02T09:04:00.489Z</time>
      </trkpt>
      <trkpt lat="48.87308" lon="2.36142">
        <ele>42</ele>
        <time>2022-02-02T09:04:05.488Z</time>
      </trkpt>
      <trkpt lat="48.87302" lon="2.36135">
        <ele>42</ele>
        <time>2022-02-02T09:04:09.490Z</time>
      </trkpt>
      <trkpt lat="48.87296" lon="2.36132">
        <ele>42</ele>
        <time>2022-02-02T09:04:14.495Z</time>
      </trkpt>
      <trkpt lat="48.87289" lon="2.36128">
        <ele>43</ele>
        <time>2022-02-02T09:04:19.487Z</time>
      </trkpt>
      <trkpt lat="48.87283" lon="2.36123">
        <ele>44</ele>
        <time>2022-02-02T09:04:24.494Z</time>
      </trkpt>
      <trkpt lat="48.87277" lon="2.36117">
        <ele>44</ele>
        <time>2022-02-02T09:04:29.487Z</time>
      </trkpt>
      <trkpt lat="48.87271" lon="2.36111">
        <ele>44</ele>
        <time>2022-02-02T09:04:34.499Z</time>
      </trkpt>
      <trkpt lat="48.87267" lon="2.36121">
        <ele>44</ele>
        <time>2022-02-02T09:04:39.489Z</time>
      </trkpt>
      <trkpt lat="48.87263" lon="2.36125">
        <ele>47</ele>
        <time>2022-02-02T09:04:44.501Z</time>
      </trkpt>
      <trkpt lat="48.87262" lon="2.36123">
        <ele>47</ele>
        <time>2022-02-02T09:04:49.484Z</time>
      </trkpt>
      <trkpt lat="48.87263" lon="2.36123">
        <ele>47</ele>
        <time>2022-02-02T09:04:54.494Z</time>
      </trkpt>
      <trkpt lat="48.87263" lon="2.36118">
        <ele>47</ele>
        <time>2022-02-02T09:04:59.486Z</time>
      </trkpt>
      <trkpt lat="48.87256" lon="2.36114">
        <ele>47</ele>
        <time>2022-02-02T09:05:03.490Z</time>
      </trkpt>
      <trkpt lat="48.87252" lon="2.3611">
        <ele>47</ele>
        <time>2022-02-02T09:05:08.495Z</time>
      </trkpt>
      <trkpt lat="48.87247" lon="2.36102">
        <ele>47</ele>
        <time>2022-02-02T09:05:13.492Z</time>
      </trkpt>
      <trkpt lat="48.87242" lon="2.36097">
        <ele>48</ele>
        <time>2022-02-02T09:05:18.495Z</time>
      </trkpt>
      <trkpt lat="48.87238" lon="2.36092">
        <ele>48</ele>
        <time>2022-02-02T09:05:22.495Z</time>
      </trkpt>
      <trkpt lat="48.87234" lon="2.36088">
        <ele>47</ele>
        <time>2022-02-02T09:05:27.504Z</time>
      </trkpt>
      <trkpt lat="48.87228" lon="2.36084">
        <ele>47</ele>
        <time>2022-02-02T09:05:32.490Z</time>
      </trkpt>
      <trkpt lat="48.87222" lon="2.36078">
        <ele>47</ele>
        <time>2022-02-02T09:05:36.498Z</time>
      </trkpt>
      <trkpt lat="48.87215" lon="2.36074">
        <ele>47</ele>
        <time>2022-02-02T09:05:41.486Z</time>
      </trkpt>
      <trkpt lat="48.87209" lon="2.36068">
        <ele>48</ele>
        <time>2022-02-02T09:05:46.495Z</time>
      </trkpt>
      <trkpt lat="48.87202" lon="2.36064">
        <ele>48</ele>
        <time>2022-02-02T09:05:51.488Z</time>
      </trkpt>
      <trkpt lat="48.87195" lon="2.3606">
        <ele>48</ele>
        <time>2022-02-02T09:05:56.494Z</time>
      </trkpt>
      <trkpt lat="48.87188" lon="2.36054">
        <ele>48</ele>
        <time>2022-02-02T09:06:00.496Z</time>
      </trkpt>
      <trkpt lat="48.87183" lon="2.36053">
        <ele>48</ele>
        <time>2022-02-02T09:06:05.488Z</time>
      </trkpt>
      <trkpt lat="48.87176" lon="2.36051">
        <ele>48</ele>
        <time>2022-02-02T09:06:09.495Z</time>
      </trkpt>
      <trkpt lat="48.87169" lon="2.36051">
        <ele>48</ele>
        <time>2022-02-02T09:06:14.497Z</time>
      </trkpt>
      <trkpt lat="48.87164" lon="2.36052">
        <ele>48</ele>
        <time>2022-02-02T09:06:18.498Z</time>
      </trkpt>
      <trkpt lat="48.8716" lon="2.36049">
        <ele>48</ele>
        <time>2022-02-02T09:06:23.499Z</time>
      </trkpt>
      <trkpt lat="48.87154" lon="2.3605">
        <ele>48</ele>
        <time>2022-02-02T09:06:27.499Z</time>
      </trkpt>
      <trkpt lat="48.87152" lon="2.36048">
        <ele>48</ele>
        <time>2022-02-02T09:06:32.495Z</time>
      </trkpt>
      <trkpt lat="48.87146" lon="2.36044">
        <ele>48</ele>
        <time>2022-02-02T09:06:36.497Z</time>
      </trkpt>
      <trkpt lat="48.87142" lon="2.36038">
        <ele>48</ele>
        <time>2022-02-02T09:06:41.497Z</time>
      </trkpt>
      <trkpt lat="48.87137" lon="2.36034">
        <ele>48</ele>
        <time>2022-02-02T09:06:46.494Z</time>
      </trkpt>
      <trkpt lat="48.87131" lon="2.3603">
        <ele>48</ele>
        <time>2022-02-02T09:06:50.498Z</time>
      </trkpt>
      <trkpt lat="48.87127" lon="2.36027">
        <ele>48</ele>
        <time>2022-02-02T09:06:55.494Z</time>
      </trkpt>
      <trkpt lat="48.87121" lon="2.36022">
        <ele>50</ele>
        <time>2022-02-02T09:07:00.494Z</time>
      </trkpt>
      <trkpt lat="48.87116" lon="2.36016">
        <ele>50</ele>
        <time>2022-02-02T09:07:05.497Z</time>
      </trkpt>
      <trkpt lat="48.87111" lon="2.36011">
        <ele>50</ele>
        <time>2022-02-02T09:07:10.493Z</time>
      </trkpt>
      <trkpt lat="48.87106" lon="2.36006">
        <ele>50</ele>
        <time>2022-02-02T09:07:15.501Z</time>
      </trkpt>
      <trkpt lat="48.871" lon="2.36002">
        <ele>50</ele>
        <time>2022-02-02T09:07:20.493Z</time>
      </trkpt>
      <trkpt lat="48.87095" lon="2.35997">
        <ele>51</ele>
        <time>2022-02-02T09:07:25.493Z</time>
      </trkpt>
      <trkpt lat="48.8709" lon="2.35993">
        <ele>51</ele>
        <time>2022-02-02T09:07:30.509Z</time>
      </trkpt>
      <trkpt lat="48.87085" lon="2.35988">
        <ele>51</ele>
        <time>2022-02-02T09:07:35.494Z</time>
      </trkpt>
      <trkpt lat="48.87078" lon="2.35981">
        <ele>50</ele>
        <time>2022-02-02T09:07:40.487Z</time>
      </trkpt>
      <trkpt lat="48.87074" lon="2.35969">
        <ele>50</ele>
        <time>2022-02-02T09:07:44.491Z</time>
      </trkpt>
      <trkpt lat="48.87069" lon="2.35963">
        <ele>49</ele>
        <time>2022-02-02T09:07:49.488Z</time>
      </trkpt>
      <trkpt lat="48.87064" lon="2.35956">
        <ele>50</ele>
        <time>2022-02-02T09:07:53.497Z</time>
      </trkpt>
      <trkpt lat="48.87059" lon="2.3595">
        <ele>50</ele>
        <time>2022-02-02T09:08:15.498Z</time>
      </trkpt>
      <trkpt lat="48.87059" lon="2.35933">
        <ele>50</ele>
        <time>2022-02-02T09:08:20.487Z</time>
      </trkpt>
      <trkpt lat="48.87062" lon="2.35931">
        <ele>50</ele>
        <time>2022-02-02T09:08:24.487Z</time>
      </trkpt>
      <trkpt lat="48.87066" lon="2.35927">
        <ele>50</ele>
        <time>2022-02-02T09:08:29.490Z</time>
      </trkpt>
      <trkpt lat="48.87071" lon="2.35923">
        <ele>50</ele>
        <time>2022-02-02T09:08:34.483Z</time>
      </trkpt>
      <trkpt lat="48.87076" lon="2.35916">
        <ele>50</ele>
        <time>2022-02-02T09:08:38.495Z</time>
      </trkpt>
      <trkpt lat="48.87078" lon="2.35913">
        <ele>50</ele>
        <time>2022-02-02T09:08:42.498Z</time>
      </trkpt>
      <trkpt lat="48.87083" lon="2.35914">
        <ele>50</ele>
        <time>2022-02-02T09:08:47.487Z</time>
      </trkpt>
      <trkpt lat="48.87087" lon="2.35908">
        <ele>50</ele>
        <time>2022-02-02T09:08:51.492Z</time>
      </trkpt>
      <trkpt lat="48.87091" lon="2.35903">
        <ele>50</ele>
        <time>2022-02-02T09:08:56.499Z</time>
      </trkpt>
      <trkpt lat="48.8709" lon="2.35895">
        <ele>50</ele>
        <time>2022-02-02T09:09:01.489Z</time>
      </trkpt>
      <trkpt lat="48.87085" lon="2.35885">
        <ele>50</ele>
        <time>2022-02-02T09:09:06.487Z</time>
      </trkpt>
      <trkpt lat="48.87076" lon="2.3588">
        <ele>50</ele>
        <time>2022-02-02T09:09:11.491Z</time>
      </trkpt>
      <trkpt lat="48.8707" lon="2.35878">
        <ele>50</ele>
        <time>2022-02-02T09:09:16.497Z</time>
      </trkpt>
      <trkpt lat="48.87063" lon="2.35871">
        <ele>49</ele>
        <time>2022-02-02T09:09:21.488Z</time>
      </trkpt>
      <trkpt lat="48.87057" lon="2.35862">
        <ele>49</ele>
        <time>2022-02-02T09:09:25.491Z</time>
      </trkpt>
      <trkpt lat="48.87053" lon="2.35858">
        <ele>49</ele>
        <time>2022-02-02T09:09:30.494Z</time>
      </trkpt>
      <trkpt lat="48.87046" lon="2.35853">
        <ele>49</ele>
        <time>2022-02-02T09:09:35.495Z</time>
      </trkpt>
      <trkpt lat="48.8704" lon="2.3585">
        <ele>46</ele>
        <time>2022-02-02T09:09:40.489Z</time>
      </trkpt>
      <trkpt lat="48.87034" lon="2.35846">
        <ele>46</ele>
        <time>2022-02-02T09:09:44.494Z</time>
      </trkpt>
      <trkpt lat="48.8703" lon="2.35843">
        <ele>46</ele>
        <time>2022-02-02T09:09:49.494Z</time>
      </trkpt>
      <trkpt lat="48.87024" lon="2.35838">
        <ele>46</ele>
        <time>2022-02-02T09:09:54.492Z</time>
      </trkpt>
      <trkpt lat="48.87018" lon="2.35834">
        <ele>46</ele>
        <time>2022-02-02T09:09:58.494Z</time>
      </trkpt>
      <trkpt lat="48.87014" lon="2.3583">
        <ele>45</ele>
        <time>2022-02-02T09:10:02.496Z</time>
      </trkpt>
      <trkpt lat="48.87009" lon="2.35827">
        <ele>45</ele>
        <time>2022-02-02T09:10:06.498Z</time>
      </trkpt>
      <trkpt lat="48.87005" lon="2.35824">
        <ele>45</ele>
        <time>2022-02-02T09:10:11.486Z</time>
      </trkpt>
      <trkpt lat="48.86999" lon="2.35821">
        <ele>45</ele>
        <time>2022-02-02T09:10:15.502Z</time>
      </trkpt>
      <trkpt lat="48.86995" lon="2.35819">
        <ele>45</ele>
        <time>2022-02-02T09:10:20.491Z</time>
      </trkpt>
      <trkpt lat="48.86989" lon="2.35815">
        <ele>45</ele>
        <time>2022-02-02T09:10:25.491Z</time>
      </trkpt>
      <trkpt lat="48.86983" lon="2.3581">
        <ele>46</ele>
        <time>2022-02-02T09:10:30.492Z</time>
      </trkpt>
      <trkpt lat="48.86978" lon="2.35804">
        <ele>46</ele>
        <time>2022-02-02T09:10:34.485Z</time>
      </trkpt>
      <trkpt lat="48.86974" lon="2.35799">
        <ele>46</ele>
        <time>2022-02-02T09:10:39.494Z</time>
      </trkpt>
      <trkpt lat="48.86971" lon="2.35794">
        <ele>46</ele>
        <time>2022-02-02T09:10:43.488Z</time>
      </trkpt>
      <trkpt lat="48.86967" lon="2.35796">
        <ele>46</ele>
        <time>2022-02-02T09:10:48.494Z</time>
      </trkpt>
      <trkpt lat="48.8696" lon="2.35792">
        <ele>46</ele>
        <time>2022-02-02T09:10:53.491Z</time>
      </trkpt>
      <trkpt lat="48.86953" lon="2.35789">
        <ele>50</ele>
        <time>2022-02-02T09:10:57.489Z</time>
      </trkpt>
      <trkpt lat="48.86947" lon="2.35786">
        <ele>50</ele>
        <time>2022-02-02T09:11:02.491Z</time>
      </trkpt>
      <trkpt lat="48.86942" lon="2.35781">
        <ele>50</ele>
        <time>2022-02-02T09:11:27.492Z</time>
      </trkpt>
      <trkpt lat="48.8693" lon="2.35776">
        <ele>51</ele>
        <time>2022-02-02T09:11:32.494Z</time>
      </trkpt>
      <trkpt lat="48.86929" lon="2.35774">
        <ele>51</ele>
        <time>2022-02-02T09:11:36.497Z</time>
      </trkpt>
      <trkpt lat="48.86927" lon="2.35776">
        <ele>51</ele>
        <time>2022-02-02T09:11:41.496Z</time>
      </trkpt>
      <trkpt lat="48.86924" lon="2.35768">
        <ele>51</ele>
        <time>2022-02-02T09:11:46.492Z</time>
      </trkpt>
      <trkpt lat="48.86926" lon="2.35758">
        <ele>51</ele>
        <time>2022-02-02T09:11:51.487Z</time>
      </trkpt>
      <trkpt lat="48.86931" lon="2.35749">
        <ele>51</ele>
        <time>2022-02-02T09:11:55.488Z</time>
      </trkpt>
      <trkpt lat="48.86933" lon="2.35741">
        <ele>52</ele>
        <time>2022-02-02T09:11:59.493Z</time>
      </trkpt>
      <trkpt lat="48.86935" lon="2.35735">
        <ele>53</ele>
        <time>2022-02-02T09:12:03.501Z</time>
      </trkpt>
      <trkpt lat="48.86937" lon="2.35728">
        <ele>53</ele>
        <time>2022-02-02T09:12:08.493Z</time>
      </trkpt>
      <trkpt lat="48.86939" lon="2.35718">
        <ele>53</ele>
        <time>2022-02-02T09:12:12.487Z</time>
      </trkpt>
      <trkpt lat="48.8694" lon="2.3571">
        <ele>53</ele>
        <time>2022-02-02T09:12:16.489Z</time>
      </trkpt>
      <trkpt lat="48.8694" lon="2.35707">
        <ele>52</ele>
        <time>2022-02-02T09:12:21.498Z</time>
      </trkpt>
      <trkpt lat="48.86944" lon="2.35696">
        <ele>52</ele>
        <time>2022-02-02T09:12:26.486Z</time>
      </trkpt>
      <trkpt lat="48.86944" lon="2.35685">
        <ele>52</ele>
        <time>2022-02-02T09:12:30.487Z</time>
      </trkpt>
      <trkpt lat="48.86946" lon="2.35678">
        <ele>49</ele>
        <time>2022-02-02T09:12:35.494Z</time>
      </trkpt>
      <trkpt lat="48.86945" lon="2.35667">
        <ele>49</ele>
        <time>2022-02-02T09:12:40.494Z</time>
      </trkpt>
      <trkpt lat="48.86944" lon="2.35656">
        <ele>49</ele>
        <time>2022-02-02T09:12:44.497Z</time>
      </trkpt>
      <trkpt lat="48.86941" lon="2.35649">
        <ele>48</ele>
        <time>2022-02-02T09:12:49.500Z</time>
      </trkpt>
      <trkpt lat="48.86937" lon="2.35639">
        <ele>48</ele>
        <time>2022-02-02T09:12:54.497Z</time>
      </trkpt>
      <trkpt lat="48.86934" lon="2.35631">
        <ele>48</ele>
        <time>2022-02-02T09:12:59.488Z</time>
      </trkpt>
      <trkpt lat="48.86927" lon="2.35623">
        <ele>47</ele>
        <time>2022-02-02T09:13:03.487Z</time>
      </trkpt>
      <trkpt lat="48.86919" lon="2.3562">
        <ele>47</ele>
        <time>2022-02-02T09:13:08.497Z</time>
      </trkpt>
      <trkpt lat="48.86914" lon="2.3562">
        <ele>47</ele>
        <time>2022-02-02T09:13:13.500Z</time>
      </trkpt>
      <trkpt lat="48.86913" lon="2.3562">
        <ele>47</ele>
        <time>2022-02-02T09:13:18.501Z</time>
      </trkpt>
      <trkpt lat="48.86911" lon="2.35619">
        <ele>47</ele>
        <time>2022-02-02T09:13:23.487Z</time>
      </trkpt>
      <trkpt lat="48.86906" lon="2.35613">
        <ele>47</ele>
        <time>2022-02-02T09:13:45.502Z</time>
      </trkpt>
      <trkpt lat="48.86901" lon="2.35611">
        <ele>46</ele>
        <time>2022-02-02T09:13:50.496Z</time>
      </trkpt>
      <trkpt lat="48.869" lon="2.35611">
        <ele>46</ele>
        <time>2022-02-02T09:13:54.498Z</time>
      </trkpt>
      <trkpt lat="48.869" lon="2.3561">
        <ele>46</ele>
        <time>2022-02-02T09:13:59.502Z</time>
      </trkpt>
      <trkpt lat="48.86895" lon="2.35605">
        <ele>46</ele>
        <time>2022-02-02T09:14:04.483Z</time>
      </trkpt>
      <trkpt lat="48.86888" lon="2.35603">
        <ele>46</ele>
        <time>2022-02-02T09:14:08.490Z</time>
      </trkpt>
      <trkpt lat="48.86883" lon="2.35601">
        <ele>46</ele>
        <time>2022-02-02T09:14:12.498Z</time>
      </trkpt>
      <trkpt lat="48.86882" lon="2.35592">
        <ele>47</ele>
        <time>2022-02-02T09:14:17.500Z</time>
      </trkpt>
      <trkpt lat="48.86883" lon="2.35582">
        <ele>47</ele>
        <time>2022-02-02T09:14:22.488Z</time>
      </trkpt>
      <trkpt lat="48.86887" lon="2.35573">
        <ele>47</ele>
        <time>2022-02-02T09:14:27.495Z</time>
      </trkpt>
      <trkpt lat="48.86891" lon="2.35566">
        <ele>50</ele>
        <time>2022-02-02T09:14:32.493Z</time>
      </trkpt>
      <trkpt lat="48.86894" lon="2.35556">
        <ele>50</ele>
        <time>2022-02-02T09:14:37.496Z</time>
      </trkpt>
      <trkpt lat="48.86896" lon="2.35545">
        <ele>50</ele>
        <time>2022-02-02T09:14:42.489Z</time>
      </trkpt>
      <trkpt lat="48.86898" lon="2.35535">
        <ele>51</ele>
        <time>2022-02-02T09:14:46.492Z</time>
      </trkpt>
      <trkpt lat="48.86902" lon="2.35528">
        <ele>51</ele>
        <time>2022-02-02T09:14:51.567Z</time>
      </trkpt>
      <trkpt lat="48.86906" lon="2.3552">
        <ele>52</ele>
        <time>2022-02-02T09:14:56.490Z</time>
      </trkpt>
      <trkpt lat="48.86908" lon="2.35513">
        <ele>50</ele>
        <time>2022-02-02T09:15:01.497Z</time>
      </trkpt>
      <trkpt lat="48.8691" lon="2.35507">
        <ele>50</ele>
        <time>2022-02-02T09:15:05.499Z</time>
      </trkpt>
      <trkpt lat="48.8691" lon="2.35502">
        <ele>50</ele>
        <time>2022-02-02T09:15:10.497Z</time>
      </trkpt>
      <trkpt lat="48.86912" lon="2.35495">
        <ele>50</ele>
        <time>2022-02-02T09:15:14.498Z</time>
      </trkpt>
      <trkpt lat="48.86913" lon="2.35489">
        <ele>50</ele>
        <time>2022-02-02T09:15:19.498Z</time>
      </trkpt>
      <trkpt lat="48.86915" lon="2.35482">
        <ele>48</ele>
        <time>2022-02-02T09:15:24.498Z</time>
      </trkpt>
      <trkpt lat="48.86918" lon="2.35473">
        <ele>48</ele>
        <time>2022-02-02T09:15:28.502Z</time>
      </trkpt>
      <trkpt lat="48.8692" lon="2.35467">
        <ele>48</ele>
        <time>2022-02-02T09:15:33.496Z</time>
      </trkpt>
      <trkpt lat="48.86922" lon="2.35458">
        <ele>48</ele>
        <time>2022-02-02T09:15:38.485Z</time>
      </trkpt>
      <trkpt lat="48.86917" lon="2.35449">
        <ele>48</ele>
        <time>2022-02-02T09:15:42.497Z</time>
      </trkpt>
      <trkpt lat="48.86911" lon="2.35445">
        <ele>48</ele>
        <time>2022-02-02T09:15:47.492Z</time>
      </trkpt>
      <trkpt lat="48.86905" lon="2.35441">
        <ele>48</ele>
        <time>2022-02-02T09:15:52.499Z</time>
      </trkpt>
      <trkpt lat="48.86901" lon="2.35432">
        <ele>50</ele>
        <time>2022-02-02T09:15:57.492Z</time>
      </trkpt>
      <trkpt lat="48.86894" lon="2.35421">
        <ele>48</ele>
        <time>2022-02-02T09:16:01.493Z</time>
      </trkpt>
      <trkpt lat="48.86888" lon="2.35414">
        <ele>48</ele>
        <time>2022-02-02T09:16:06.497Z</time>
      </trkpt>
      <trkpt lat="48.86881" lon="2.3541">
        <ele>48</ele>
        <time>2022-02-02T09:16:11.497Z</time>
      </trkpt>
      <trkpt lat="48.86876" lon="2.35404">
        <ele>48</ele>
        <time>2022-02-02T09:16:16.497Z</time>
      </trkpt>
      <trkpt lat="48.8687" lon="2.35399">
        <ele>48</ele>
        <time>2022-02-02T09:16:21.507Z</time>
      </trkpt>
      <trkpt lat="48.86863" lon="2.35394">
        <ele>48</ele>
        <time>2022-02-02T09:16:26.500Z</time>
      </trkpt>
      <trkpt lat="48.86857" lon="2.35388">
        <ele>48</ele>
        <time>2022-02-02T09:16:31.497Z</time>
      </trkpt>
      <trkpt lat="48.86851" lon="2.35384">
        <ele>48</ele>
        <time>2022-02-02T09:16:35.505Z</time>
      </trkpt>
      <trkpt lat="48.86845" lon="2.3538">
        <ele>47</ele>
        <time>2022-02-02T09:16:40.489Z</time>
      </trkpt>
      <trkpt lat="48.86839" lon="2.35376">
        <ele>47</ele>
        <time>2022-02-02T09:16:44.494Z</time>
      </trkpt>
      <trkpt lat="48.86835" lon="2.35372">
        <ele>48</ele>
        <time>2022-02-02T09:16:49.497Z</time>
      </trkpt>
      <trkpt lat="48.8683" lon="2.35367">
        <ele>48</ele>
        <time>2022-02-02T09:16:54.495Z</time>
      </trkpt>
      <trkpt lat="48.86825" lon="2.35364">
        <ele>48</ele>
        <time>2022-02-02T09:16:58.496Z</time>
      </trkpt>
      <trkpt lat="48.8682" lon="2.35368">
        <ele>48</ele>
        <time>2022-02-02T09:17:03.491Z</time>
      </trkpt>
      <trkpt lat="48.86813" lon="2.35364">
        <ele>46</ele>
        <time>2022-02-02T09:17:07.496Z</time>
      </trkpt>
      <trkpt lat="48.86809" lon="2.35361">
        <ele>46</ele>
        <time>2022-02-02T09:17:12.497Z</time>
      </trkpt>
      <trkpt lat="48.86804" lon="2.35357">
        <ele>46</ele>
        <time>2022-02-02T09:17:17.491Z</time>
      </trkpt>
      <trkpt lat="48.86797" lon="2.35354">
        <ele>46</ele>
        <time>2022-02-02T09:17:22.495Z</time>
      </trkpt>
      <trkpt lat="48.86791" lon="2.35349">
        <ele>45</ele>
        <time>2022-02-02T09:17:26.499Z</time>
      </trkpt>
      <trkpt lat="48.86785" lon="2.35346">
        <ele>46</ele>
        <time>2022-02-02T09:17:31.498Z</time>
      </trkpt>
      <trkpt lat="48.86779" lon="2.35341">
        <ele>46</ele>
        <time>2022-02-02T09:17:36.499Z</time>
      </trkpt>
      <trkpt lat="48.86773" lon="2.35337">
        <ele>46</ele>
        <time>2022-02-02T09:17:41.499Z</time>
      </trkpt>
      <trkpt lat="48.86768" lon="2.35336">
        <ele>46</ele>
        <time>2022-02-02T09:17:46.493Z</time>
      </trkpt>
      <trkpt lat="48.86762" lon="2.35334">
        <ele>45</ele>
        <time>2022-02-02T09:17:51.500Z</time>
      </trkpt>
      <trkpt lat="48.86755" lon="2.3533">
        <ele>45</ele>
        <time>2022-02-02T09:17:56.495Z</time>
      </trkpt>
      <trkpt lat="48.86749" lon="2.35327">
        <ele>45</ele>
        <time>2022-02-02T09:18:01.489Z</time>
      </trkpt>
      <trkpt lat="48.86743" lon="2.35324">
        <ele>45</ele>
        <time>2022-02-02T09:18:06.493Z</time>
      </trkpt>
      <trkpt lat="48.86737" lon="2.3532">
        <ele>45</ele>
        <time>2022-02-02T09:18:10.495Z</time>
      </trkpt>
      <trkpt lat="48.86732" lon="2.35317">
        <ele>46</ele>
        <time>2022-02-02T09:18:15.494Z</time>
      </trkpt>
      <trkpt lat="48.86725" lon="2.35314">
        <ele>46</ele>
        <time>2022-02-02T09:18:19.492Z</time>
      </trkpt>
      <trkpt lat="48.86721" lon="2.35311">
        <ele>46</ele>
        <time>2022-02-02T09:18:24.487Z</time>
      </trkpt>
      <trkpt lat="48.86714" lon="2.35307">
        <ele>46</ele>
        <time>2022-02-02T09:18:28.496Z</time>
      </trkpt>
      <trkpt lat="48.86709" lon="2.35304">
        <ele>46</ele>
        <time>2022-02-02T09:18:33.498Z</time>
      </trkpt>
      <trkpt lat="48.86701" lon="2.35304">
        <ele>48</ele>
        <time>2022-02-02T09:18:38.493Z</time>
      </trkpt>
      <trkpt lat="48.86694" lon="2.35302">
        <ele>48</ele>
        <time>2022-02-02T09:18:43.495Z</time>
      </trkpt>
      <trkpt lat="48.86689" lon="2.35296">
        <ele>48</ele>
        <time>2022-02-02T09:18:48.493Z</time>
      </trkpt>
      <trkpt lat="48.86683" lon="2.3529">
        <ele>51</ele>
        <time>2022-02-02T09:18:53.493Z</time>
      </trkpt>
      <trkpt lat="48.86677" lon="2.35287">
        <ele>51</ele>
        <time>2022-02-02T09:18:58.497Z</time>
      </trkpt>
      <trkpt lat="48.86671" lon="2.35282">
        <ele>51</ele>
        <time>2022-02-02T09:19:03.504Z</time>
      </trkpt>
      <trkpt lat="48.86665" lon="2.35279">
        <ele>51</ele>
        <time>2022-02-02T09:19:08.499Z</time>
      </trkpt>
      <trkpt lat="48.8666" lon="2.35274">
        <ele>51</ele>
        <time>2022-02-02T09:19:13.494Z</time>
      </trkpt>
      <trkpt lat="48.86654" lon="2.3527">
        <ele>51</ele>
        <time>2022-02-02T09:19:17.494Z</time>
      </trkpt>
      <trkpt lat="48.86649" lon="2.35267">
        <ele>49</ele>
        <time>2022-02-02T09:19:21.492Z</time>
      </trkpt>
      <trkpt lat="48.86645" lon="2.35264">
        <ele>48</ele>
        <time>2022-02-02T09:19:25.488Z</time>
      </trkpt>
      <trkpt lat="48.8664" lon="2.3526">
        <ele>48</ele>
        <time>2022-02-02T09:20:13.497Z</time>
      </trkpt>
      <trkpt lat="48.86635" lon="2.35256">
        <ele>48</ele>
        <time>2022-02-02T09:20:17.507Z</time>
      </trkpt>
      <trkpt lat="48.86635" lon="2.35256">
        <ele>48</ele>
        <time>2022-02-02T09:20:22.494Z</time>
      </trkpt>
      <trkpt lat="48.86636" lon="2.35254">
        <ele>48</ele>
        <time>2022-02-02T09:20:26.499Z</time>
      </trkpt>
      <trkpt lat="48.86637" lon="2.35246">
        <ele>48</ele>
        <time>2022-02-02T09:20:31.502Z</time>
      </trkpt>
      <trkpt lat="48.8664" lon="2.3524">
        <ele>48</ele>
        <time>2022-02-02T09:20:36.496Z</time>
      </trkpt>
      <trkpt lat="48.86639" lon="2.35234">
        <ele>48</ele>
        <time>2022-02-02T09:20:41.495Z</time>
      </trkpt>
      <trkpt lat="48.86637" lon="2.35228">
        <ele>48</ele>
        <time>2022-02-02T09:20:46.497Z</time>
      </trkpt>
      <trkpt lat="48.86638" lon="2.35221">
        <ele>48</ele>
        <time>2022-02-02T09:20:51.499Z</time>
      </trkpt>
      <trkpt lat="48.86642" lon="2.35212">
        <ele>48</ele>
        <time>2022-02-02T09:20:56.499Z</time>
      </trkpt>
      <trkpt lat="48.86644" lon="2.35206">
        <ele>48</ele>
        <time>2022-02-02T09:21:01.502Z</time>
      </trkpt>
      <trkpt lat="48.86646" lon="2.35199">
        <ele>48</ele>
        <time>2022-02-02T09:21:06.493Z</time>
      </trkpt>
      <trkpt lat="48.86648" lon="2.35192">
        <ele>48</ele>
        <time>2022-02-02T09:21:11.500Z</time>
      </trkpt>
      <trkpt lat="48.8665" lon="2.35183">
        <ele>48</ele>
        <time>2022-02-02T09:21:15.501Z</time>
      </trkpt>
      <trkpt lat="48.86653" lon="2.35177">
        <ele>48</ele>
        <time>2022-02-02T09:21:20.491Z</time>
      </trkpt>
      <trkpt lat="48.86655" lon="2.35168">
        <ele>46</ele>
        <time>2022-02-02T09:21:24.495Z</time>
      </trkpt>
      <trkpt lat="48.86657" lon="2.35162">
        <ele>46</ele>
        <time>2022-02-02T09:21:28.502Z</time>
      </trkpt>
      <trkpt lat="48.86658" lon="2.35154">
        <ele>46</ele>
        <time>2022-02-02T09:21:32.509Z</time>
      </trkpt>
      <trkpt lat="48.86658" lon="2.35148">
        <ele>46</ele>
        <time>2022-02-02T09:21:37.495Z</time>
      </trkpt>
      <trkpt lat="48.86659" lon="2.35146">
        <ele>46</ele>
        <time>2022-02-02T09:21:42.492Z</time>
      </trkpt>
      <trkpt lat="48.8666" lon="2.35137">
        <ele>46</ele>
        <time>2022-02-02T09:21:47.499Z</time>
      </trkpt>
      <trkpt lat="48.86661" lon="2.3513">
        <ele>46</ele>
        <time>2022-02-02T09:22:06.487Z</time>
      </trkpt>
      <trkpt lat="48.86658" lon="2.35109">
        <ele>47</ele>
        <time>2022-02-02T09:22:11.495Z</time>
      </trkpt>
      <trkpt lat="48.86658" lon="2.35106">
        <ele>47</ele>
        <time>2022-02-02T09:22:16.492Z</time>
      </trkpt>
      <trkpt lat="48.86653" lon="2.35097">
        <ele>48</ele>
        <time>2022-02-02T09:22:21.496Z</time>
      </trkpt>
      <trkpt lat="48.86653" lon="2.35085">
        <ele>48</ele>
        <time>2022-02-02T09:22:26.492Z</time>
      </trkpt>
      <trkpt lat="48.86658" lon="2.3508">
        <ele>48</ele>
        <time>2022-02-02T09:22:31.495Z</time>
      </trkpt>
      <trkpt lat="48.86659" lon="2.35068">
        <ele>49</ele>
        <time>2022-02-02T09:22:36.494Z</time>
      </trkpt>
      <trkpt lat="48.86661" lon="2.35063">
        <ele>49</ele>
        <time>2022-02-02T09:22:41.497Z</time>
      </trkpt>
      <trkpt lat="48.86664" lon="2.35062">
        <ele>49</ele>
        <time>2022-02-02T09:22:46.494Z</time>
      </trkpt>
      <trkpt lat="48.86668" lon="2.35052">
        <ele>49</ele>
        <time>2022-02-02T09:22:51.496Z</time>
      </trkpt>
      <trkpt lat="48.8667" lon="2.35043">
        <ele>49</ele>
        <time>2022-02-02T09:22:55.488Z</time>
      </trkpt>
      <trkpt lat="48.86672" lon="2.35036">
        <ele>49</ele>
        <time>2022-02-02T09:23:00.494Z</time>
      </trkpt>
      <trkpt lat="48.8667" lon="2.35029">
        <ele>49</ele>
        <time>2022-02-02T09:23:04.502Z</time>
      </trkpt>
      <trkpt lat="48.86671" lon="2.35027">
        <ele>49</ele>
        <time>2022-02-02T09:23:09.491Z</time>
      </trkpt>
      <trkpt lat="48.86672" lon="2.35019">
        <ele>49</ele>
        <time>2022-02-02T09:23:13.502Z</time>
      </trkpt>
      <trkpt lat="48.86668" lon="2.35006">
        <ele>48</ele>
        <time>2022-02-02T09:23:18.492Z</time>
      </trkpt>
      <trkpt lat="48.8667" lon="2.34988">
        <ele>48</ele>
        <time>2022-02-02T09:23:23.489Z</time>
      </trkpt>
      <trkpt lat="48.86674" lon="2.3498">
        <ele>46</ele>
        <time>2022-02-02T09:23:27.489Z</time>
      </trkpt>
      <trkpt lat="48.86677" lon="2.34977">
        <ele>46</ele>
        <time>2022-02-02T09:23:31.493Z</time>
      </trkpt>
      <trkpt lat="48.8668" lon="2.34968">
        <ele>46</ele>
        <time>2022-02-02T09:23:36.498Z</time>
      </trkpt>
      <trkpt lat="48.86686" lon="2.34957">
        <ele>44</ele>
        <time>2022-02-02T09:23:41.504Z</time>
      </trkpt>
      <trkpt lat="48.8669" lon="2.3495">
        <ele>44</ele>
        <time>2022-02-02T09:23:46.489Z</time>
      </trkpt>
      <trkpt lat="48.86692" lon="2.34941">
        <ele>44</ele>
        <time>2022-02-02T09:23:50.489Z</time>
      </trkpt>
      <trkpt lat="48.86693" lon="2.34935">
        <ele>44</ele>
        <time>2022-02-02T09:23:54.492Z</time>
      </trkpt>
      <trkpt lat="48.86695" lon="2.34927">
        <ele>45</ele>
        <time>2022-02-02T09:23:59.499Z</time>
      </trkpt>
      <trkpt lat="48.86696" lon="2.34919">
        <ele>45</ele>
        <time>2022-02-02T09:24:04.499Z</time>
      </trkpt>
      <trkpt lat="48.86699" lon="2.3491">
        <ele>45</ele>
        <time>2022-02-02T09:24:08.499Z</time>
      </trkpt>
      <trkpt lat="48.86701" lon="2.34904">
        <ele>45</ele>
        <time>2022-02-02T09:24:13.498Z</time>
      </trkpt>
      <trkpt lat="48.86704" lon="2.34896">
        <ele>47</ele>
        <time>2022-02-02T09:24:17.505Z</time>
      </trkpt>
      <trkpt lat="48.86705" lon="2.34889">
        <ele>47</ele>
        <time>2022-02-02T09:24:22.495Z</time>
      </trkpt>
      <trkpt lat="48.86704" lon="2.34877">
        <ele>47</ele>
        <time>2022-02-02T09:24:27.504Z</time>
      </trkpt>
      <trkpt lat="48.86707" lon="2.34867">
        <ele>49</ele>
        <time>2022-02-02T09:24:32.499Z</time>
      </trkpt>
      <trkpt lat="48.8671" lon="2.34857">
        <ele>48</ele>
        <time>2022-02-02T09:24:37.495Z</time>
      </trkpt>
      <trkpt lat="48.86713" lon="2.34848">
        <ele>48</ele>
        <time>2022-02-02T09:24:41.503Z</time>
      </trkpt>
      <trkpt lat="48.86716" lon="2.34841">
        <ele>47</ele>
        <time>2022-02-02T09:24:46.499Z</time>
      </trkpt>
      <trkpt lat="48.86718" lon="2.34831">
        <ele>47</ele>
        <time>2022-02-02T09:24:51.491Z</time>
      </trkpt>
      <trkpt lat="48.86721" lon="2.34823">
        <ele>47</ele>
        <time>2022-02-02T09:24:56.495Z</time>
      </trkpt>
      <trkpt lat="48.86726" lon="2.34815">
        <ele>46</ele>
        <time>2022-02-02T09:25:01.498Z</time>
      </trkpt>
      <trkpt lat="48.8673" lon="2.34807">
        <ele>46</ele>
        <time>2022-02-02T09:25:05.497Z</time>
      </trkpt>
      <trkpt lat="48.86731" lon="2.34799">
        <ele>46</ele>
        <time>2022-02-02T09:25:10.498Z</time>
      </trkpt>
      <trkpt lat="48.86733" lon="2.34791">
        <ele>46</ele>
        <time>2022-02-02T09:25:15.498Z</time>
      </trkpt>
      <trkpt lat="48.86737" lon="2.34781">
        <ele>46</ele>
        <time>2022-02-02T09:25:20.498Z</time>
      </trkpt>
      <trkpt lat="48.86737" lon="2.34772">
        <ele>46</ele>
        <time>2022-02-02T09:25:25.498Z</time>
      </trkpt>
      <trkpt lat="48.86739" lon="2.34763">
        <ele>47</ele>
        <time>2022-02-02T09:25:29.494Z</time>
      </trkpt>
      <trkpt lat="48.8674" lon="2.34755">
        <ele>47</ele>
        <time>2022-02-02T09:25:34.501Z</time>
      </trkpt>
      <trkpt lat="48.86742" lon="2.34745">
        <ele>47</ele>
        <time>2022-02-02T09:25:39.497Z</time>
      </trkpt>
      <trkpt lat="48.86744" lon="2.34735">
        <ele>48</ele>
        <time>2022-02-02T09:25:43.498Z</time>
      </trkpt>
      <trkpt lat="48.86745" lon="2.34727">
        <ele>48</ele>
        <time>2022-02-02T09:25:48.497Z</time>
      </trkpt>
      <trkpt lat="48.86746" lon="2.34718">
        <ele>48</ele>
        <time>2022-02-02T09:25:52.502Z</time>
      </trkpt>
      <trkpt lat="48.86748" lon="2.34711">
        <ele>48</ele>
        <time>2022-02-02T09:25:57.498Z</time>
      </trkpt>
      <trkpt lat="48.8675" lon="2.34702">
        <ele>50</ele>
        <time>2022-02-02T09:26:02.498Z</time>
      </trkpt>
      <trkpt lat="48.86753" lon="2.34693">
        <ele>50</ele>
        <time>2022-02-02T09:26:06.498Z</time>
      </trkpt>
      <trkpt lat="48.86754" lon="2.34686">
        <ele>50</ele>
        <time>2022-02-02T09:26:11.496Z</time>
      </trkpt>
      <trkpt lat="48.86757" lon="2.34676">
        <ele>50</ele>
        <time>2022-02-02T09:26:16.492Z</time>
      </trkpt>
      <trkpt lat="48.86759" lon="2.34667">
        <ele>50</ele>
        <time>2022-02-02T09:26:21.492Z</time>
      </trkpt>
      <trkpt lat="48.86762" lon="2.34658">
        <ele>50</ele>
        <time>2022-02-02T09:26:25.499Z</time>
      </trkpt>
      <trkpt lat="48.86763" lon="2.3465">
        <ele>49</ele>
        <time>2022-02-02T09:26:29.502Z</time>
      </trkpt>
      <trkpt lat="48.86765" lon="2.34643">
        <ele>50</ele>
        <time>2022-02-02T09:26:33.502Z</time>
      </trkpt>
      <trkpt lat="48.86767" lon="2.34638">
        <ele>50</ele>
        <time>2022-02-02T09:26:38.497Z</time>
      </trkpt>
      <trkpt lat="48.86768" lon="2.3463">
        <ele>50</ele>
        <time>2022-02-02T09:26:43.494Z</time>
      </trkpt>
      <trkpt lat="48.86769" lon="2.34622">
        <ele>49</ele>
        <time>2022-02-02T09:26:47.499Z</time>
      </trkpt>
      <trkpt lat="48.86771" lon="2.34615">
        <ele>49</ele>
        <time>2022-02-02T09:26:52.489Z</time>
      </trkpt>
      <trkpt lat="48.86773" lon="2.34606">
        <ele>49</ele>
        <time>2022-02-02T09:26:57.497Z</time>
      </trkpt>
      <trkpt lat="48.86776" lon="2.34597">
        <ele>48</ele>
        <time>2022-02-02T09:27:02.492Z</time>
      </trkpt>
      <trkpt lat="48.86779" lon="2.34587">
        <ele>48</ele>
        <time>2022-02-02T09:27:06.483Z</time>
      </trkpt>
      <trkpt lat="48.8678" lon="2.34578">
        <ele>48</ele>
        <time>2022-02-02T09:27:30.494Z</time>
      </trkpt>
      <trkpt lat="48.86779" lon="2.34568">
        <ele>51</ele>
        <time>2022-02-02T09:27:35.488Z</time>
      </trkpt>
      <trkpt lat="48.86779" lon="2.34568">
        <ele>51</ele>
        <time>2022-02-02T09:27:40.490Z</time>
      </trkpt>
      <trkpt lat="48.86779" lon="2.34568">
        <ele>51</ele>
        <time>2022-02-02T09:27:44.493Z</time>
      </trkpt>
      <trkpt lat="48.8678" lon="2.34565">
        <ele>51</ele>
        <time>2022-02-02T09:27:48.495Z</time>
      </trkpt>
      <trkpt lat="48.86782" lon="2.34559">
        <ele>51</ele>
        <time>2022-02-02T09:27:52.498Z</time>
      </trkpt>
      <trkpt lat="48.86784" lon="2.34552">
        <ele>51</ele>
        <time>2022-02-02T09:27:57.500Z</time>
      </trkpt>
      <trkpt lat="48.86787" lon="2.34542">
        <ele>51</ele>
        <time>2022-02-02T09:28:02.498Z</time>
      </trkpt>
      <trkpt lat="48.86788" lon="2.34532">
        <ele>53</ele>
        <time>2022-02-02T09:28:07.494Z</time>
      </trkpt>
      <trkpt lat="48.86789" lon="2.34525">
        <ele>53</ele>
        <time>2022-02-02T09:28:12.493Z</time>
      </trkpt>
      <trkpt lat="48.86791" lon="2.34517">
        <ele>53</ele>
        <time>2022-02-02T09:28:16.496Z</time>
      </trkpt>
      <trkpt lat="48.86792" lon="2.34512">
        <ele>49</ele>
        <time>2022-02-02T09:28:21.490Z</time>
      </trkpt>
      <trkpt lat="48.86794" lon="2.34502">
        <ele>49</ele>
        <time>2022-02-02T09:28:25.493Z</time>
      </trkpt>
      <trkpt lat="48.86795" lon="2.34494">
        <ele>49</ele>
        <time>2022-02-02T09:28:30.490Z</time>
      </trkpt>
      <trkpt lat="48.868" lon="2.34486">
        <ele>48</ele>
        <time>2022-02-02T09:28:35.490Z</time>
      </trkpt>
      <trkpt lat="48.86801" lon="2.34475">
        <ele>48</ele>
        <time>2022-02-02T09:28:39.490Z</time>
      </trkpt>
      <trkpt lat="48.86803" lon="2.34467">
        <ele>48</ele>
        <time>2022-02-02T09:28:44.490Z</time>
      </trkpt>
      <trkpt lat="48.86806" lon="2.34457">
        <ele>46</ele>
        <time>2022-02-02T09:28:48.493Z</time>
      </trkpt>
      <trkpt lat="48.86807" lon="2.3445">
        <ele>46</ele>
        <time>2022-02-02T09:28:53.496Z</time>
      </trkpt>
      <trkpt lat="48.86808" lon="2.34437">
        <ele>46</ele>
        <time>2022-02-02T09:28:58.496Z</time>
      </trkpt>
      <trkpt lat="48.86809" lon="2.34425">
        <ele>46</ele>
        <time>2022-02-02T09:29:02.500Z</time>
      </trkpt>
      <trkpt lat="48.86812" lon="2.34418">
        <ele>46</ele>
        <time>2022-02-02T09:29:07.502Z</time>
      </trkpt>
      <trkpt lat="48.86816" lon="2.3441">
        <ele>46</ele>
        <time>2022-02-02T09:29:12.501Z</time>
      </trkpt>
      <trkpt lat="48.86817" lon="2.34398">
        <ele>47</ele>
        <time>2022-02-02T09:29:16.497Z</time>
      </trkpt>
      <trkpt lat="48.86819" lon="2.34391">
        <ele>44</ele>
        <time>2022-02-02T09:29:21.494Z</time>
      </trkpt>
      <trkpt lat="48.8682" lon="2.34381">
        <ele>44</ele>
        <time>2022-02-02T09:29:26.487Z</time>
      </trkpt>
      <trkpt lat="48.86821" lon="2.34372">
        <ele>46</ele>
        <time>2022-02-02T09:29:31.490Z</time>
      </trkpt>
      <trkpt lat="48.86822" lon="2.34364">
        <ele>46</ele>
        <time>2022-02-02T09:29:36.494Z</time>
      </trkpt>
      <trkpt lat="48.86824" lon="2.34357">
        <ele>46</ele>
        <time>2022-02-02T09:29:40.500Z</time>
      </trkpt>
      <trkpt lat="48.86829" lon="2.34356">
        <ele>46</ele>
        <time>2022-02-02T09:29:45.496Z</time>
      </trkpt>
      <trkpt lat="48.86834" lon="2.34351">
        <ele>46</ele>
        <time>2022-02-02T09:29:49.498Z</time>
      </trkpt>
      <trkpt lat="48.86838" lon="2.34349">
        <ele>46</ele>
        <time>2022-02-02T09:29:53.506Z</time>
      </trkpt>
      <trkpt lat="48.86842" lon="2.34348">
        <ele>46</ele>
        <time>2022-02-02T09:29:58.497Z</time>
      </trkpt>
      <trkpt lat="48.86848" lon="2.34345">
        <ele>48</ele>
        <time>2022-02-02T09:30:03.503Z</time>
      </trkpt>
      <trkpt lat="48.86854" lon="2.34342">
        <ele>48</ele>
        <time>2022-02-02T09:30:08.494Z</time>
      </trkpt>
      <trkpt lat="48.86859" lon="2.3434">
        <ele>48</ele>
        <time>2022-02-02T09:30:12.497Z</time>
      </trkpt>
      <trkpt lat="48.86863" lon="2.34338">
        <ele>48</ele>
        <time>2022-02-02T09:30:17.499Z</time>
      </trkpt>
      <trkpt lat="48.86869" lon="2.34337">
        <ele>48</ele>
        <time>2022-02-02T09:30:22.497Z</time>
      </trkpt>
      <trkpt lat="48.86874" lon="2.34332">
        <ele>48</ele>
        <time>2022-02-02T09:30:26.499Z</time>
      </trkpt>
      <trkpt lat="48.86878" lon="2.34325">
        <ele>48</ele>
        <time>2022-02-02T09:30:30.512Z</time>
      </trkpt>
      <trkpt lat="48.86882" lon="2.34319">
        <ele>49</ele>
        <time>2022-02-02T09:30:35.494Z</time>
      </trkpt>
      <trkpt lat="48.86887" lon="2.34314">
        <ele>49</ele>
        <time>2022-02-02T09:30:40.496Z</time>
      </trkpt>
      <trkpt lat="48.86892" lon="2.34311">
        <ele>49</ele>
        <time>2022-02-02T09:30:44.505Z</time>
      </trkpt>
      <trkpt lat="48.86897" lon="2.34311">
        <ele>49</ele>
        <time>2022-02-02T09:30:49.488Z</time>
      </trkpt>
      <trkpt lat="48.86902" lon="2.34312">
        <ele>49</ele>
        <time>2022-02-02T09:30:53.491Z</time>
      </trkpt>
      <trkpt lat="48.86907" lon="2.3431">
        <ele>48</ele>
        <time>2022-02-02T09:30:58.494Z</time>
      </trkpt>
      <trkpt lat="48.86912" lon="2.34308">
        <ele>48</ele>
        <time>2022-02-02T09:31:02.500Z</time>
      </trkpt>
      <trkpt lat="48.86916" lon="2.34307">
        <ele>48</ele>
        <time>2022-02-02T09:31:07.491Z</time>
      </trkpt>
      <trkpt lat="48.86922" lon="2.34304">
        <ele>48</ele>
        <time>2022-02-02T09:31:11.494Z</time>
      </trkpt>
      <trkpt lat="48.86926" lon="2.34303">
        <ele>48</ele>
        <time>2022-02-02T09:31:16.495Z</time>
      </trkpt>
      <trkpt lat="48.86931" lon="2.343">
        <ele>47</ele>
        <time>2022-02-02T09:31:21.492Z</time>
      </trkpt>
      <trkpt lat="48.86937" lon="2.34298">
        <ele>47</ele>
        <time>2022-02-02T09:31:25.494Z</time>
      </trkpt>
      <trkpt lat="48.86942" lon="2.34297">
        <ele>47</ele>
        <time>2022-02-02T09:31:30.497Z</time>
      </trkpt>
      <trkpt lat="48.86947" lon="2.34295">
        <ele>47</ele>
        <time>2022-02-02T09:31:35.493Z</time>
      </trkpt>
      <trkpt lat="48.86952" lon="2.34295">
        <ele>47</ele>
        <time>2022-02-02T09:31:39.498Z</time>
      </trkpt>
      <trkpt lat="48.86957" lon="2.34292">
        <ele>47</ele>
        <time>2022-02-02T09:31:43.496Z</time>
      </trkpt>
      <trkpt lat="48.86962" lon="2.34291">
        <ele>45</ele>
        <time>2022-02-02T09:31:48.494Z</time>
      </trkpt>
      <trkpt lat="48.86968" lon="2.34287">
        <ele>45</ele>
        <time>2022-02-02T09:31:53.497Z</time>
      </trkpt>
      <trkpt lat="48.86973" lon="2.34282">
        <ele>45</ele>
        <time>2022-02-02T09:31:58.490Z</time>
      </trkpt>
      <trkpt lat="48.8698" lon="2.34281">
        <ele>45</ele>
        <time>2022-02-02T09:32:03.498Z</time>
      </trkpt>
      <trkpt lat="48.86987" lon="2.34279">
        <ele>46</ele>
        <time>2022-02-02T09:32:08.492Z</time>
      </trkpt>
      <trkpt lat="48.86994" lon="2.34279">
        <ele>46</ele>
        <time>2022-02-02T09:32:12.491Z</time>
      </trkpt>
      <trkpt lat="48.86997" lon="2.34276">
        <ele>46</ele>
        <time>2022-02-02T09:32:17.500Z</time>
      </trkpt>
      <trkpt lat="48.87002" lon="2.34275">
        <ele>46</ele>
        <time>2022-02-02T09:32:22.490Z</time>
      </trkpt>
      <trkpt lat="48.87008" lon="2.34274">
        <ele>46</ele>
        <time>2022-02-02T09:32:26.501Z</time>
      </trkpt>
      <trkpt lat="48.87011" lon="2.34274">
        <ele>46</ele>
        <time>2022-02-02T09:32:31.500Z</time>
      </trkpt>
      <trkpt lat="48.87017" lon="2.34275">
        <ele>48</ele>
        <time>2022-02-02T09:32:35.500Z</time>
      </trkpt>
      <trkpt lat="48.8702" lon="2.34273">
        <ele>48</ele>
        <time>2022-02-02T09:32:40.492Z</time>
      </trkpt>
      <trkpt lat="48.87023" lon="2.34273">
        <ele>48</ele>
        <time>2022-02-02T09:32:45.503Z</time>
      </trkpt>
      <trkpt lat="48.87027" lon="2.34272">
        <ele>48</ele>
        <time>2022-02-02T09:32:50.491Z</time>
      </trkpt>
      <trkpt lat="48.8703" lon="2.34272">
        <ele>48</ele>
        <time>2022-02-02T09:32:54.498Z</time>
      </trkpt>
      <trkpt lat="48.87034" lon="2.34271">
        <ele>48</ele>
        <time>2022-02-02T09:32:59.499Z</time>
      </trkpt>
      <trkpt lat="48.87038" lon="2.34272">
        <ele>48</ele>
        <time>2022-02-02T09:33:03.496Z</time>
      </trkpt>
      <trkpt lat="48.87044" lon="2.34272">
        <ele>48</ele>
        <time>2022-02-02T09:33:08.498Z</time>
      </trkpt>
      <trkpt lat="48.8705" lon="2.34275">
        <ele>48</ele>
        <time>2022-02-02T09:33:12.499Z</time>
      </trkpt>
      <trkpt lat="48.87054" lon="2.34281">
        <ele>48</ele>
        <time>2022-02-02T09:33:17.491Z</time>
      </trkpt>
      <trkpt lat="48.87058" lon="2.34286">
        <ele>48</ele>
        <time>2022-02-02T09:33:21.502Z</time>
      </trkpt>
      <trkpt lat="48.87063" lon="2.3429">
        <ele>48</ele>
        <time>2022-02-02T09:33:26.497Z</time>
      </trkpt>
      <trkpt lat="48.87068" lon="2.34293">
        <ele>49</ele>
        <time>2022-02-02T09:33:30.486Z</time>
      </trkpt>
      <trkpt lat="48.87074" lon="2.34293">
        <ele>48</ele>
        <time>2022-02-02T09:33:35.495Z</time>
      </trkpt>
      <trkpt lat="48.87082" lon="2.34294">
        <ele>48</ele>
        <time>2022-02-02T09:33:40.488Z</time>
      </trkpt>
      <trkpt lat="48.8709" lon="2.34295">
        <ele>48</ele>
        <time>2022-02-02T09:33:45.492Z</time>
      </trkpt>
      <trkpt lat="48.87097" lon="2.34294">
        <ele>48</ele>
        <time>2022-02-02T09:33:50.494Z</time>
      </trkpt>
      <trkpt lat="48.87098" lon="2.34296">
        <ele>48</ele>
        <time>2022-02-02T09:33:55.491Z</time>
      </trkpt>
      <trkpt lat="48.87105" lon="2.34293">
        <ele>48</ele>
        <time>2022-02-02T09:34:00.494Z</time>
      </trkpt>
      <trkpt lat="48.87111" lon="2.34292">
        <ele>48</ele>
        <time>2022-02-02T09:34:34.492Z</time>
      </trkpt>
      <trkpt lat="48.87123" lon="2.34308">
        <ele>48</ele>
        <time>2022-02-02T09:34:38.499Z</time>
      </trkpt>
      <trkpt lat="48.87124" lon="2.34308">
        <ele>48</ele>
        <time>2022-02-02T09:34:42.499Z</time>
      </trkpt>
      <trkpt lat="48.87124" lon="2.34308">
        <ele>48</ele>
        <time>2022-02-02T09:34:46.498Z</time>
      </trkpt>
      <trkpt lat="48.87124" lon="2.34308">
        <ele>48</ele>
        <time>2022-02-02T09:34:51.498Z</time>
      </trkpt>
      <trkpt lat="48.87127" lon="2.34309">
        <ele>48</ele>
        <time>2022-02-02T09:34:55.496Z</time>
      </trkpt>
      <trkpt lat="48.87127" lon="2.34309">
        <ele>48</ele>
        <time>2022-02-02T09:34:59.495Z</time>
      </trkpt>
      <trkpt lat="48.87127" lon="2.34316">
        <ele>48</ele>
        <time>2022-02-02T09:35:04.499Z</time>
      </trkpt>
      <trkpt lat="48.87134" lon="2.34321">
        <ele>47</ele>
        <time>2022-02-02T09:35:09.498Z</time>
      </trkpt>
      <trkpt lat="48.87145" lon="2.34322">
        <ele>47</ele>
        <time>2022-02-02T09:35:13.491Z</time>
      </trkpt>
      <trkpt lat="48.87153" lon="2.34321">
        <ele>47</ele>
        <time>2022-02-02T09:35:18.495Z</time>
      </trkpt>
      <trkpt lat="48.87159" lon="2.34321">
        <ele>46</ele>
        <time>2022-02-02T09:35:22.501Z</time>
      </trkpt>
      <trkpt lat="48.87159" lon="2.34326">
        <ele>46</ele>
        <time>2022-02-02T09:35:27.492Z</time>
      </trkpt>
      <trkpt lat="48.87163" lon="2.3433">
        <ele>46</ele>
        <time>2022-02-02T09:35:32.496Z</time>
      </trkpt>
      <trkpt lat="48.87168" lon="2.34332">
        <ele>46</ele>
        <time>2022-02-02T09:35:36.499Z</time>
      </trkpt>
      <trkpt lat="48.87171" lon="2.34331">
        <ele>46</ele>
        <time>2022-02-02T09:35:41.499Z</time>
      </trkpt>
      <trkpt lat="48.87176" lon="2.34332">
        <ele>46</ele>
        <time>2022-02-02T09:35:45.502Z</time>
      </trkpt>
      <trkpt lat="48.87181" lon="2.3433">
        <ele>47</ele>
        <time>2022-02-02T09:35:50.498Z</time>
      </trkpt>
      <trkpt lat="48.87188" lon="2.34328">
        <ele>47</ele>
        <time>2022-02-02T09:35:55.498Z</time>
      </trkpt>
      <trkpt lat="48.87192" lon="2.34333">
        <ele>47</ele>
        <time>2022-02-02T09:36:00.491Z</time>
      </trkpt>
      <trkpt lat="48.872" lon="2.3433">
        <ele>47</ele>
        <time>2022-02-02T09:36:04.498Z</time>
      </trkpt>
      <trkpt lat="48.87204" lon="2.34329">
        <ele>47</ele>
        <time>2022-02-02T09:36:09.496Z</time>
      </trkpt>
      <trkpt lat="48.87211" lon="2.34326">
        <ele>47</ele>
        <time>2022-02-02T09:36:13.504Z</time>
      </trkpt>
      <trkpt lat="48.87215" lon="2.34324">
        <ele>47</ele>
        <time>2022-02-02T09:36:17.505Z</time>
      </trkpt>
      <trkpt lat="48.8722" lon="2.34322">
        <ele>47</ele>
        <time>2022-02-02T09:36:21.507Z</time>
      </trkpt>
      <trkpt lat="48.87225" lon="2.3432">
        <ele>47</ele>
        <time>2022-02-02T09:36:26.492Z</time>
      </trkpt>
      <trkpt lat="48.8723" lon="2.34317">
        <ele>47</ele>
        <time>2022-02-02T09:36:30.499Z</time>
      </trkpt>
      <trkpt lat="48.87235" lon="2.34315">
        <ele>47</ele>
        <time>2022-02-02T09:36:35.499Z</time>
      </trkpt>
      <trkpt lat="48.87241" lon="2.34311">
        <ele>47</ele>
        <time>2022-02-02T09:36:40.499Z</time>
      </trkpt>
      <trkpt lat="48.87241" lon="2.34308">
        <ele>47</ele>
        <time>2022-02-02T09:36:44.498Z</time>
      </trkpt>
      <trkpt lat="48.87246" lon="2.34307">
        <ele>47</ele>
        <time>2022-02-02T09:36:49.496Z</time>
      </trkpt>
      <trkpt lat="48.87251" lon="2.34308">
        <ele>47</ele>
        <time>2022-02-02T09:36:54.499Z</time>
      </trkpt>
      <trkpt lat="48.87257" lon="2.34306">
        <ele>47</ele>
        <time>2022-02-02T09:36:58.501Z</time>
      </trkpt>
      <trkpt lat="48.87261" lon="2.34304">
        <ele>47</ele>
        <time>2022-02-02T09:37:02.508Z</time>
      </trkpt>
      <trkpt lat="48.87264" lon="2.34305">
        <ele>47</ele>
        <time>2022-02-02T09:37:07.486Z</time>
      </trkpt>
      <trkpt lat="48.87274" lon="2.34302">
        <ele>47</ele>
        <time>2022-02-02T09:37:11.488Z</time>
      </trkpt>
      <trkpt lat="48.87279" lon="2.34298">
        <ele>47</ele>
        <time>2022-02-02T09:37:15.485Z</time>
      </trkpt>
      <trkpt lat="48.8728" lon="2.34297">
        <ele>47</ele>
        <time>2022-02-02T09:37:20.493Z</time>
      </trkpt>
      <trkpt lat="48.87284" lon="2.34298">
        <ele>47</ele>
        <time>2022-02-02T09:37:24.497Z</time>
      </trkpt>
      <trkpt lat="48.87292" lon="2.34301">
        <ele>47</ele>
        <time>2022-02-02T09:37:29.497Z</time>
      </trkpt>
      <trkpt lat="48.87301" lon="2.34304">
        <ele>47</ele>
        <time>2022-02-02T09:37:33.495Z</time>
      </trkpt>
      <trkpt lat="48.87309" lon="2.34304">
        <ele>47</ele>
        <time>2022-02-02T09:37:38.495Z</time>
      </trkpt>
      <trkpt lat="48.87317" lon="2.34299">
        <ele>47</ele>
        <time>2022-02-02T09:37:42.502Z</time>
      </trkpt>
      <trkpt lat="48.87322" lon="2.34295">
        <ele>46</ele>
        <time>2022-02-02T09:37:47.499Z</time>
      </trkpt>
      <trkpt lat="48.87328" lon="2.34291">
        <ele>47</ele>
        <time>2022-02-02T09:37:52.490Z</time>
      </trkpt>
      <trkpt lat="48.87334" lon="2.34289">
        <ele>47</ele>
        <time>2022-02-02T09:37:56.498Z</time>
      </trkpt>
      <trkpt lat="48.87339" lon="2.34287">
        <ele>47</ele>
        <time>2022-02-02T09:38:01.492Z</time>
      </trkpt>
      <trkpt lat="48.87344" lon="2.34283">
        <ele>47</ele>
        <time>2022-02-02T09:38:06.498Z</time>
      </trkpt>
      <trkpt lat="48.8735" lon="2.34282">
        <ele>46</ele>
        <time>2022-02-02T09:38:10.503Z</time>
      </trkpt>
      <trkpt lat="48.87354" lon="2.34276">
        <ele>46</ele>
        <time>2022-02-02T09:38:15.502Z</time>
      </trkpt>
      <trkpt lat="48.8736" lon="2.34271">
        <ele>46</ele>
        <time>2022-02-02T09:38:20.498Z</time>
      </trkpt>
      <trkpt lat="48.87364" lon="2.34265">
        <ele>46</ele>
        <time>2022-02-02T09:38:25.497Z</time>
      </trkpt>
      <trkpt lat="48.87369" lon="2.3426">
        <ele>46</ele>
        <time>2022-02-02T09:38:30.487Z</time>
      </trkpt>
      <trkpt lat="48.87374" lon="2.34256">
        <ele>46</ele>
        <time>2022-02-02T09:38:34.498Z</time>
      </trkpt>
      <trkpt lat="48.87377" lon="2.34251">
        <ele>45</ele>
        <time>2022-02-02T09:38:39.493Z</time>
      </trkpt>
      <trkpt lat="48.87381" lon="2.34245">
        <ele>45</ele>
        <time>2022-02-02T09:38:43.504Z</time>
      </trkpt>
      <trkpt lat="48.87384" lon="2.3424">
        <ele>45</ele>
        <time>2022-02-02T09:38:47.490Z</time>
      </trkpt>
      <trkpt lat="48.87389" lon="2.34236">
        <ele>45</ele>
        <time>2022-02-02T09:38:52.491Z</time>
      </trkpt>
      <trkpt lat="48.87394" lon="2.34231">
        <ele>47</ele>
        <time>2022-02-02T09:38:57.497Z</time>
      </trkpt>
      <trkpt lat="48.874" lon="2.34228">
        <ele>47</ele>
        <time>2022-02-02T09:39:01.504Z</time>
      </trkpt>
      <trkpt lat="48.87405" lon="2.34224">
        <ele>46</ele>
        <time>2022-02-02T09:39:06.501Z</time>
      </trkpt>
      <trkpt lat="48.8741" lon="2.34218">
        <ele>46</ele>
        <time>2022-02-02T09:39:11.513Z</time>
      </trkpt>
      <trkpt lat="48.87415" lon="2.34213">
        <ele>46</ele>
        <time>2022-02-02T09:39:16.500Z</time>
      </trkpt>
      <trkpt lat="48.87419" lon="2.34208">
        <ele>46</ele>
        <time>2022-02-02T09:39:21.488Z</time>
      </trkpt>
      <trkpt lat="48.87424" lon="2.34203">
        <ele>47</ele>
        <time>2022-02-02T09:39:25.494Z</time>
      </trkpt>
      <trkpt lat="48.87427" lon="2.34198">
        <ele>47</ele>
        <time>2022-02-02T09:39:30.493Z</time>
      </trkpt>
      <trkpt lat="48.87432" lon="2.34191">
        <ele>46</ele>
        <time>2022-02-02T09:39:34.495Z</time>
      </trkpt>
      <trkpt lat="48.87435" lon="2.34185">
        <ele>46</ele>
        <time>2022-02-02T09:39:39.497Z</time>
      </trkpt>
      <trkpt lat="48.8744" lon="2.34179">
        <ele>46</ele>
        <time>2022-02-02T09:39:43.498Z</time>
      </trkpt>
      <trkpt lat="48.87444" lon="2.34172">
        <ele>46</ele>
        <time>2022-02-02T09:39:48.498Z</time>
      </trkpt>
      <trkpt lat="48.87449" lon="2.34167">
        <ele>46</ele>
        <time>2022-02-02T09:39:53.491Z</time>
      </trkpt>
      <trkpt lat="48.87454" lon="2.34159">
        <ele>46</ele>
        <time>2022-02-02T09:39:58.494Z</time>
      </trkpt>
      <trkpt lat="48.87458" lon="2.34162">
        <ele>46</ele>
        <time>2022-02-02T09:40:02.503Z</time>
      </trkpt>
      <trkpt lat="48.87459" lon="2.34163">
        <ele>45</ele>
        <time>2022-02-02T09:40:07.491Z</time>
      </trkpt>
      <trkpt lat="48.87459" lon="2.34162">
        <ele>45</ele>
        <time>2022-02-02T09:40:11.503Z</time>
      </trkpt>
      <trkpt lat="48.8746" lon="2.3416">
        <ele>45</ele>
        <time>2022-02-02T09:40:16.495Z</time>
      </trkpt>
      <trkpt lat="48.87465" lon="2.34156">
        <ele>45</ele>
        <time>2022-02-02T09:40:21.496Z</time>
      </trkpt>
      <trkpt lat="48.87468" lon="2.34148">
        <ele>46</ele>
        <time>2022-02-02T09:40:26.488Z</time>
      </trkpt>
      <trkpt lat="48.87471" lon="2.3414">
        <ele>46</ele>
        <time>2022-02-02T09:40:30.494Z</time>
      </trkpt>
      <trkpt lat="48.87473" lon="2.34131">
        <ele>46</ele>
        <time>2022-02-02T09:40:34.496Z</time>
      </trkpt>
      <trkpt lat="48.87478" lon="2.34131">
        <ele>46</ele>
        <time>2022-02-02T09:40:39.499Z</time>
      </trkpt>
      <trkpt lat="48.87483" lon="2.34124">
        <ele>47</ele>
        <time>2022-02-02T09:40:44.501Z</time>
      </trkpt>
      <trkpt lat="48.87487" lon="2.34118">
        <ele>48</ele>
        <time>2022-02-02T09:40:49.501Z</time>
      </trkpt>
      <trkpt lat="48.87492" lon="2.34115">
        <ele>48</ele>
        <time>2022-02-02T09:40:54.494Z</time>
      </trkpt>
      <trkpt lat="48.87497" lon="2.34112">
        <ele>48</ele>
        <time>2022-02-02T09:40:58.503Z</time>
      </trkpt>
      <trkpt lat="48.87501" lon="2.34109">
        <ele>48</ele>
        <time>2022-02-02T09:41:12.515Z</time>
      </trkpt>
      <trkpt lat="48.87507" lon="2.34112">
        <ele>48</ele>
        <time>2022-02-02T09:41:17.491Z</time>
      </trkpt>
      <trkpt lat="48.87507" lon="2.34112">
        <ele>48</ele>
        <time>2022-02-02T09:41:21.497Z</time>
      </trkpt>
      <trkpt lat="48.87508" lon="2.34111">
        <ele>48</ele>
        <time>2022-02-02T09:41:26.495Z</time>
      </trkpt>
      <trkpt lat="48.87513" lon="2.34105">
        <ele>48</ele>
        <time>2022-02-02T09:41:30.505Z</time>
      </trkpt>
      <trkpt lat="48.87517" lon="2.341">
        <ele>48</ele>
        <time>2022-02-02T09:41:35.503Z</time>
      </trkpt>
      <trkpt lat="48.87522" lon="2.34095">
        <ele>49</ele>
        <time>2022-02-02T09:41:40.493Z</time>
      </trkpt>
      <trkpt lat="48.87528" lon="2.34091">
        <ele>49</ele>
        <time>2022-02-02T09:41:44.508Z</time>
      </trkpt>
      <trkpt lat="48.87533" lon="2.34087">
        <ele>49</ele>
        <time>2022-02-02T09:41:49.498Z</time>
      </trkpt>
      <trkpt lat="48.87537" lon="2.34082">
        <ele>49</ele>
        <time>2022-02-02T09:41:54.500Z</time>
      </trkpt>
      <trkpt lat="48.87543" lon="2.34079">
        <ele>50</ele>
        <time>2022-02-02T09:41:58.505Z</time>
      </trkpt>
      <trkpt lat="48.87546" lon="2.34075">
        <ele>50</ele>
        <time>2022-02-02T09:42:03.492Z</time>
      </trkpt>
      <trkpt lat="48.87551" lon="2.3407">
        <ele>50</ele>
        <time>2022-02-02T09:42:07.509Z</time>
      </trkpt>
      <trkpt lat="48.87554" lon="2.34066">
        <ele>49</ele>
        <time>2022-02-02T09:42:12.501Z</time>
      </trkpt>
      <trkpt lat="48.87558" lon="2.3406">
        <ele>49</ele>
        <time>2022-02-02T09:42:17.503Z</time>
      </trkpt>
      <trkpt lat="48.87558" lon="2.34061">
        <ele>49</ele>
        <time>2022-02-02T09:42:22.496Z</time>
      </trkpt>
      <trkpt lat="48.87559" lon="2.34059">
        <ele>49</ele>
        <time>2022-02-02T09:42:26.498Z</time>
      </trkpt>
      <trkpt lat="48.87561" lon="2.34054">
        <ele>49</ele>
        <time>2022-02-02T09:42:31.490Z</time>
      </trkpt>
      <trkpt lat="48.87564" lon="2.3405">
        <ele>49</ele>
        <time>2022-02-02T09:42:36.500Z</time>
      </trkpt>
      <trkpt lat="48.8757" lon="2.34046">
        <ele>48</ele>
        <time>2022-02-02T09:42:41.498Z</time>
      </trkpt>
      <trkpt lat="48.87576" lon="2.34045">
        <ele>48</ele>
        <time>2022-02-02T09:42:46.496Z</time>
      </trkpt>
      <trkpt lat="48.87583" lon="2.34042">
        <ele>48</ele>
        <time>2022-02-02T09:42:51.498Z</time>
      </trkpt>
      <trkpt lat="48.8759" lon="2.34039">
        <ele>47</ele>
        <time>2022-02-02T09:42:56.486Z</time>
      </trkpt>
      <trkpt lat="48.87597" lon="2.34034">
        <ele>47</ele>
        <time>2022-02-02T09:43:01.496Z</time>
      </trkpt>
      <trkpt lat="48.87602" lon="2.34026">
        <ele>45</ele>
        <time>2022-02-02T09:43:05.502Z</time>
      </trkpt>
      <trkpt lat="48.87607" lon="2.34022">
        <ele>45</ele>
        <time>2022-02-02T09:43:09.501Z</time>
      </trkpt>
      <trkpt lat="48.87609" lon="2.34014">
        <ele>45</ele>
        <time>2022-02-02T09:43:14.491Z</time>
      </trkpt>
      <trkpt lat="48.87613" lon="2.34007">
        <ele>45</ele>
        <time>2022-02-02T09:43:19.501Z</time>
      </trkpt>
      <trkpt lat="48.87619" lon="2.34001">
        <ele>45</ele>
        <time>2022-02-02T09:43:24.491Z</time>
      </trkpt>
      <trkpt lat="48.87624" lon="2.33999">
        <ele>45</ele>
        <time>2022-02-02T09:43:28.494Z</time>
      </trkpt>
      <trkpt lat="48.87628" lon="2.33996">
        <ele>44</ele>
        <time>2022-02-02T09:43:33.496Z</time>
      </trkpt>
      <trkpt lat="48.87633" lon="2.33991">
        <ele>44</ele>
        <time>2022-02-02T09:43:38.494Z</time>
      </trkpt>
      <trkpt lat="48.87637" lon="2.33986">
        <ele>44</ele>
        <time>2022-02-02T09:43:43.492Z</time>
      </trkpt>
      <trkpt lat="48.87641" lon="2.3398">
        <ele>44</ele>
        <time>2022-02-02T09:43:47.501Z</time>
      </trkpt>
      <trkpt lat="48.87645" lon="2.33976">
        <ele>44</ele>
        <time>2022-02-02T09:43:52.501Z</time>
      </trkpt>
      <trkpt lat="48.8765" lon="2.3397">
        <ele>44</ele>
        <time>2022-02-02T09:43:57.501Z</time>
      </trkpt>
      <trkpt lat="48.87656" lon="2.3396">
        <ele>46</ele>
        <time>2022-02-02T09:44:02.491Z</time>
      </trkpt>
      <trkpt lat="48.87664" lon="2.33952">
        <ele>47</ele>
        <time>2022-02-02T09:44:06.490Z</time>
      </trkpt>
      <trkpt lat="48.87668" lon="2.33945">
        <ele>47</ele>
        <time>2022-02-02T09:44:11.490Z</time>
      </trkpt>
      <trkpt lat="48.87671" lon="2.33937">
        <ele>47</ele>
        <time>2022-02-02T09:44:16.489Z</time>
      </trkpt>
      <trkpt lat="48.87672" lon="2.33934">
        <ele>47</ele>
        <time>2022-02-02T09:44:21.492Z</time>
      </trkpt>
      <trkpt lat="48.87674" lon="2.3393">
        <ele>46</ele>
        <time>2022-02-02T09:44:26.497Z</time>
      </trkpt>
      <trkpt lat="48.8768" lon="2.33928">
        <ele>46</ele>
        <time>2022-02-02T09:44:31.489Z</time>
      </trkpt>
      <trkpt lat="48.87684" lon="2.33927">
        <ele>48</ele>
        <time>2022-02-02T09:44:35.494Z</time>
      </trkpt>
      <trkpt lat="48.87687" lon="2.33923">
        <ele>48</ele>
        <time>2022-02-02T09:44:40.499Z</time>
      </trkpt>
      <trkpt lat="48.8769" lon="2.33917">
        <ele>48</ele>
        <time>2022-02-02T09:44:45.489Z</time>
      </trkpt>
      <trkpt lat="48.8769" lon="2.33909">
        <ele>48</ele>
        <time>2022-02-02T09:45:25.498Z</time>
      </trkpt>
      <trkpt lat="48.87693" lon="2.33905">
        <ele>48</ele>
        <time>2022-02-02T09:45:30.499Z</time>
      </trkpt>
      <trkpt lat="48.87693" lon="2.33905">
        <ele>48</ele>
        <time>2022-02-02T09:45:35.497Z</time>
      </trkpt>
      <trkpt lat="48.87698" lon="2.33903">
        <ele>48</ele>
        <time>2022-02-02T09:45:39.496Z</time>
      </trkpt>
      <trkpt lat="48.87702" lon="2.33898">
        <ele>49</ele>
        <time>2022-02-02T09:45:43.589Z</time>
      </trkpt>
      <trkpt lat="48.87706" lon="2.33894">
        <ele>49</ele>
        <time>2022-02-02T09:45:48.487Z</time>
      </trkpt>
      <trkpt lat="48.87711" lon="2.33888">
        <ele>49</ele>
        <time>2022-02-02T09:45:52.492Z</time>
      </trkpt>
      <trkpt lat="48.87716" lon="2.33885">
        <ele>49</ele>
        <time>2022-02-02T09:45:57.498Z</time>
      </trkpt>
      <trkpt lat="48.87719" lon="2.33881">
        <ele>49</ele>
        <time>2022-02-02T09:46:02.496Z</time>
      </trkpt>
      <trkpt lat="48.87724" lon="2.33876">
        <ele>49</ele>
        <time>2022-02-02T09:46:06.500Z</time>
      </trkpt>
      <trkpt lat="48.87728" lon="2.33872">
        <ele>50</ele>
        <time>2022-02-02T09:46:11.504Z</time>
      </trkpt>
      <trkpt lat="48.87733" lon="2.33867">
        <ele>50</ele>
        <time>2022-02-02T09:46:16.498Z</time>
      </trkpt>
      <trkpt lat="48.87738" lon="2.33861">
        <ele>52</ele>
        <time>2022-02-02T09:46:21.500Z</time>
      </trkpt>
      <trkpt lat="48.87741" lon="2.33856">
        <ele>52</ele>
        <time>2022-02-02T09:46:25.500Z</time>
      </trkpt>
      <trkpt lat="48.87746" lon="2.33852">
        <ele>52</ele>
        <time>2022-02-02T09:46:30.493Z</time>
      </trkpt>
      <trkpt lat="48.8775" lon="2.33848">
        <ele>52</ele>
        <time>2022-02-02T09:46:34.499Z</time>
      </trkpt>
      <trkpt lat="48.87754" lon="2.33844">
        <ele>52</ele>
        <time>2022-02-02T09:46:39.507Z</time>
      </trkpt>
      <trkpt lat="48.87759" lon="2.33838">
        <ele>52</ele>
        <time>2022-02-02T09:46:44.499Z</time>
      </trkpt>
      <trkpt lat="48.87763" lon="2.3383">
        <ele>52</ele>
        <time>2022-02-02T09:46:48.500Z</time>
      </trkpt>
      <trkpt lat="48.87766" lon="2.33826">
        <ele>54</ele>
        <time>2022-02-02T09:46:53.497Z</time>
      </trkpt>
      <trkpt lat="48.87772" lon="2.33823">
        <ele>54</ele>
        <time>2022-02-02T09:46:57.497Z</time>
      </trkpt>
      <trkpt lat="48.87775" lon="2.33817">
        <ele>53</ele>
        <time>2022-02-02T09:47:02.501Z</time>
      </trkpt>
      <trkpt lat="48.87781" lon="2.33813">
        <ele>53</ele>
        <time>2022-02-02T09:47:07.502Z</time>
      </trkpt>
      <trkpt lat="48.87786" lon="2.33809">
        <ele>53</ele>
        <time>2022-02-02T09:47:12.496Z</time>
      </trkpt>
      <trkpt lat="48.8779" lon="2.338">
        <ele>53</ele>
        <time>2022-02-02T09:47:17.503Z</time>
      </trkpt>
      <trkpt lat="48.87796" lon="2.33795">
        <ele>54</ele>
        <time>2022-02-02T09:47:22.499Z</time>
      </trkpt>
      <trkpt lat="48.87801" lon="2.3379">
        <ele>54</ele>
        <time>2022-02-02T09:47:26.498Z</time>
      </trkpt>
      <trkpt lat="48.87805" lon="2.33789">
        <ele>54</ele>
        <time>2022-02-02T09:47:30.488Z</time>
      </trkpt>
      <trkpt lat="48.87811" lon="2.33788">
        <ele>54</ele>
        <time>2022-02-02T09:47:35.492Z</time>
      </trkpt>
      <trkpt lat="48.87818" lon="2.33779">
        <ele>54</ele>
        <time>2022-02-02T09:47:40.493Z</time>
      </trkpt>
      <trkpt lat="48.87824" lon="2.33774">
        <ele>54</ele>
        <time>2022-02-02T09:47:45.499Z</time>
      </trkpt>
      <trkpt lat="48.87826" lon="2.33768">
        <ele>54</ele>
        <time>2022-02-02T09:47:50.497Z</time>
      </trkpt>
      <trkpt lat="48.8783" lon="2.33768">
        <ele>54</ele>
        <time>2022-02-02T09:47:55.498Z</time>
      </trkpt>
      <trkpt lat="48.87838" lon="2.33768">
        <ele>54</ele>
        <time>2022-02-02T09:48:33.494Z</time>
      </trkpt>
      <trkpt lat="48.87846" lon="2.33771">
        <ele>54</ele>
        <time>2022-02-02T09:48:38.492Z</time>
      </trkpt>
      <trkpt lat="48.87846" lon="2.33771">
        <ele>54</ele>
        <time>2022-02-02T09:48:43.492Z</time>
      </trkpt>
      <trkpt lat="48.87847" lon="2.3377">
        <ele>54</ele>
        <time>2022-02-02T09:48:47.496Z</time>
      </trkpt>
      <trkpt lat="48.87849" lon="2.33762">
        <ele>51</ele>
        <time>2022-02-02T09:48:52.496Z</time>
      </trkpt>
      <trkpt lat="48.87851" lon="2.33754">
        <ele>51</ele>
        <time>2022-02-02T09:48:57.502Z</time>
      </trkpt>
      <trkpt lat="48.87853" lon="2.33745">
        <ele>51</ele>
        <time>2022-02-02T09:49:02.498Z</time>
      </trkpt>
      <trkpt lat="48.87858" lon="2.33739">
        <ele>51</ele>
        <time>2022-02-02T09:49:07.494Z</time>
      </trkpt>
      <trkpt lat="48.87864" lon="2.33733">
        <ele>50</ele>
        <time>2022-02-02T09:49:12.496Z</time>
      </trkpt>
      <trkpt lat="48.8787" lon="2.33728">
        <ele>50</ele>
        <time>2022-02-02T09:49:17.491Z</time>
      </trkpt>
      <trkpt lat="48.87874" lon="2.33721">
        <ele>50</ele>
        <time>2022-02-02T09:49:22.497Z</time>
      </trkpt>
      <trkpt lat="48.87876" lon="2.33714">
        <ele>52</ele>
        <time>2022-02-02T09:49:27.501Z</time>
      </trkpt>
      <trkpt lat="48.87879" lon="2.33707">
        <ele>53</ele>
        <time>2022-02-02T09:49:31.503Z</time>
      </trkpt>
      <trkpt lat="48.87881" lon="2.33701">
        <ele>53</ele>
        <time>2022-02-02T09:49:36.500Z</time>
      </trkpt>
      <trkpt lat="48.87885" lon="2.33688">
        <ele>53</ele>
        <time>2022-02-02T09:49:41.498Z</time>
      </trkpt>
      <trkpt lat="48.8789" lon="2.33683">
        <ele>53</ele>
        <time>2022-02-02T09:49:46.499Z</time>
      </trkpt>
      <trkpt lat="48.87893" lon="2.3368">
        <ele>54</ele>
        <time>2022-02-02T09:49:51.494Z</time>
      </trkpt>
      <trkpt lat="48.87895" lon="2.33688">
        <ele>53</ele>
        <time>2022-02-02T09:49:56.497Z</time>
      </trkpt>
      <trkpt lat="48.87898" lon="2.33685">
        <ele>53</ele>
        <time>2022-02-02T09:50:01.492Z</time>
      </trkpt>
      <trkpt lat="48.879" lon="2.33677">
        <ele>54</ele>
        <time>2022-02-02T09:50:05.501Z</time>
      </trkpt>
      <trkpt lat="48.87903" lon="2.33669">
        <ele>54</ele>
        <time>2022-02-02T09:50:09.505Z</time>
      </trkpt>
      <trkpt lat="48.87907" lon="2.33662">
        <ele>59</ele>
        <time>2022-02-02T09:50:14.503Z</time>
      </trkpt>
      <trkpt lat="48.87911" lon="2.33656">
        <ele>59</ele>
        <time>2022-02-02T09:50:19.619Z</time>
      </trkpt>
      <trkpt lat="48.87915" lon="2.33651">
        <ele>58</ele>
        <time>2022-02-02T09:50:24.501Z</time>
      </trkpt>
      <trkpt lat="48.87919" lon="2.33647">
        <ele>58</ele>
        <time>2022-02-02T09:50:29.498Z</time>
      </trkpt>
      <trkpt lat="48.87923" lon="2.33643">
        <ele>58</ele>
        <time>2022-02-02T09:50:34.503Z</time>
      </trkpt>
      <trkpt lat="48.87927" lon="2.33639">
        <ele>58</ele>
        <time>2022-02-02T09:50:39.502Z</time>
      </trkpt>
      <trkpt lat="48.87932" lon="2.33634">
        <ele>61</ele>
        <time>2022-02-02T09:50:44.498Z</time>
      </trkpt>
      <trkpt lat="48.87937" lon="2.33628">
        <ele>61</ele>
        <time>2022-02-02T09:50:49.490Z</time>
      </trkpt>
      <trkpt lat="48.87942" lon="2.33623">
        <ele>62</ele>
        <time>2022-02-02T09:50:54.495Z</time>
      </trkpt>
      <trkpt lat="48.87946" lon="2.33618">
        <ele>62</ele>
        <time>2022-02-02T09:50:59.489Z</time>
      </trkpt>
      <trkpt lat="48.87952" lon="2.33613">
        <ele>62</ele>
        <time>2022-02-02T09:51:03.500Z</time>
      </trkpt>
      <trkpt lat="48.87956" lon="2.33608">
        <ele>62</ele>
        <time>2022-02-02T09:51:08.499Z</time>
      </trkpt>
      <trkpt lat="48.87961" lon="2.33602">
        <ele>64</ele>
        <time>2022-02-02T09:51:12.499Z</time>
      </trkpt>
      <trkpt lat="48.87965" lon="2.33598">
        <ele>64</ele>
        <time>2022-02-02T09:51:16.505Z</time>
      </trkpt>
      <trkpt lat="48.87969" lon="2.33595">
        <ele>65</ele>
        <time>2022-02-02T09:51:21.493Z</time>
      </trkpt>
      <trkpt lat="48.87975" lon="2.33589">
        <ele>65</ele>
        <time>2022-02-02T09:51:25.495Z</time>
      </trkpt>
      <trkpt lat="48.87979" lon="2.33584">
        <ele>65</ele>
        <time>2022-02-02T09:51:29.499Z</time>
      </trkpt>
      <trkpt lat="48.87983" lon="2.33579">
        <ele>65</ele>
        <time>2022-02-02T09:51:34.495Z</time>
      </trkpt>
      <trkpt lat="48.87987" lon="2.33573">
        <ele>64</ele>
        <time>2022-02-02T09:51:38.496Z</time>
      </trkpt>
      <trkpt lat="48.87992" lon="2.33567">
        <ele>63</ele>
        <time>2022-02-02T09:51:43.495Z</time>
      </trkpt>
      <trkpt lat="48.87997" lon="2.33561">
        <ele>63</ele>
        <time>2022-02-02T09:51:47.503Z</time>
      </trkpt>
      <trkpt lat="48.88001" lon="2.33556">
        <ele>63</ele>
        <time>2022-02-02T09:51:52.496Z</time>
      </trkpt>
      <trkpt lat="48.88007" lon="2.33548">
        <ele>63</ele>
        <time>2022-02-02T09:51:57.494Z</time>
      </trkpt>
      <trkpt lat="48.88007" lon="2.33532">
        <ele>62</ele>
        <time>2022-02-02T09:52:01.496Z</time>
      </trkpt>
      <trkpt lat="48.88009" lon="2.33522">
        <ele>62</ele>
        <time>2022-02-02T09:52:06.499Z</time>
      </trkpt>
      <trkpt lat="48.88015" lon="2.33518">
        <ele>60</ele>
        <time>2022-02-02T09:52:10.499Z</time>
      </trkpt>
      <trkpt lat="48.88018" lon="2.33514">
        <ele>60</ele>
        <time>2022-02-02T09:52:15.491Z</time>
      </trkpt>
      <trkpt lat="48.88023" lon="2.33508">
        <ele>61</ele>
        <time>2022-02-02T09:52:20.500Z</time>
      </trkpt>
      <trkpt lat="48.88028" lon="2.33501">
        <ele>61</ele>
        <time>2022-02-02T09:52:25.500Z</time>
      </trkpt>
      <trkpt lat="48.88032" lon="2.33495">
        <ele>61</ele>
        <time>2022-02-02T09:52:30.492Z</time>
      </trkpt>
      <trkpt lat="48.88032" lon="2.33488">
        <ele>61</ele>
        <time>2022-02-02T09:52:35.490Z</time>
      </trkpt>
      <trkpt lat="48.8803" lon="2.33483">
        <ele>62</ele>
        <time>2022-02-02T09:52:39.491Z</time>
      </trkpt>
      <trkpt lat="48.88028" lon="2.33477">
        <ele>62</ele>
        <time>2022-02-02T09:52:44.486Z</time>
      </trkpt>
      <trkpt lat="48.88025" lon="2.3347">
        <ele>62</ele>
        <time>2022-02-02T09:52:48.503Z</time>
      </trkpt>
      <trkpt lat="48.88022" lon="2.33469">
        <ele>62</ele>
        <time>2022-02-02T09:52:53.504Z</time>
      </trkpt>
      <trkpt lat="48.88018" lon="2.33463">
        <ele>62</ele>
        <time>2022-02-02T09:52:58.490Z</time>
      </trkpt>
      <trkpt lat="48.88015" lon="2.33454">
        <ele>63</ele>
        <time>2022-02-02T09:53:02.501Z</time>
      </trkpt>
      <trkpt lat="48.88011" lon="2.33448">
        <ele>61</ele>
        <time>2022-02-02T09:53:07.495Z</time>
      </trkpt>
      <trkpt lat="48.88007" lon="2.33441">
        <ele>61</ele>
        <time>2022-02-02T09:53:11.503Z</time>
      </trkpt>
      <trkpt lat="48.88005" lon="2.33436">
        <ele>61</ele>
        <time>2022-02-02T09:53:16.495Z</time>
      </trkpt>
      <trkpt lat="48.88001" lon="2.33429">
        <ele>59</ele>
        <time>2022-02-02T09:53:21.494Z</time>
      </trkpt>
      <trkpt lat="48.87996" lon="2.33424">
        <ele>59</ele>
        <time>2022-02-02T09:53:25.501Z</time>
      </trkpt>
      <trkpt lat="48.87991" lon="2.3342">
        <ele>59</ele>
        <time>2022-02-02T09:53:30.502Z</time>
      </trkpt>
      <trkpt lat="48.87986" lon="2.33414">
        <ele>59</ele>
        <time>2022-02-02T09:53:34.504Z</time>
      </trkpt>
      <trkpt lat="48.87983" lon="2.3341">
        <ele>58</ele>
        <time>2022-02-02T09:53:39.499Z</time>
      </trkpt>
      <trkpt lat="48.87978" lon="2.33404">
        <ele>58</ele>
        <time>2022-02-02T09:53:44.500Z</time>
      </trkpt>
      <trkpt lat="48.87973" lon="2.33399">
        <ele>56</ele>
        <time>2022-02-02T09:53:49.497Z</time>
      </trkpt>
      <trkpt lat="48.87968" lon="2.33394">
        <ele>56</ele>
        <time>2022-02-02T09:53:53.494Z</time>
      </trkpt>
      <trkpt lat="48.87964" lon="2.33391">
        <ele>56</ele>
        <time>2022-02-02T09:53:57.501Z</time>
      </trkpt>
      <trkpt lat="48.8796" lon="2.33387">
        <ele>56</ele>
        <time>2022-02-02T09:54:01.504Z</time>
      </trkpt>
      <trkpt lat="48.8796" lon="2.33382">
        <ele>56</ele>
        <time>2022-02-02T09:54:06.496Z</time>
      </trkpt>
      <trkpt lat="48.87957" lon="2.33373">
        <ele>56</ele>
        <time>2022-02-02T09:54:10.501Z</time>
      </trkpt>
      <trkpt lat="48.87953" lon="2.33369">
        <ele>56</ele>
        <time>2022-02-02T09:54:15.494Z</time>
      </trkpt>
      <trkpt lat="48.87948" lon="2.33365">
        <ele>56</ele>
        <time>2022-02-02T09:54:19.508Z</time>
      </trkpt>
      <trkpt lat="48.87945" lon="2.33361">
        <ele>56</ele>
        <time>2022-02-02T09:54:24.490Z</time>
      </trkpt>
      <trkpt lat="48.87941" lon="2.33355">
        <ele>56</ele>
        <time>2022-02-02T09:54:29.499Z</time>
      </trkpt>
      <trkpt lat="48.87936" lon="2.33349">
        <ele>56</ele>
        <time>2022-02-02T09:54:34.494Z</time>
      </trkpt>
      <trkpt lat="48.87932" lon="2.33344">
        <ele>55</ele>
        <time>2022-02-02T09:54:39.509Z</time>
      </trkpt>
      <trkpt lat="48.87927" lon="2.33338">
        <ele>57</ele>
        <time>2022-02-02T09:54:44.500Z</time>
      </trkpt>
      <trkpt lat="48.87923" lon="2.33332">
        <ele>57</ele>
        <time>2022-02-02T09:54:49.489Z</time>
      </trkpt>
      <trkpt lat="48.87918" lon="2.33326">
        <ele>57</ele>
        <time>2022-02-02T09:54:53.493Z</time>
      </trkpt>
      <trkpt lat="48.87914" lon="2.33319">
        <ele>57</ele>
        <time>2022-02-02T09:54:58.500Z</time>
      </trkpt>
      <trkpt lat="48.87911" lon="2.33311">
        <ele>57</ele>
        <time>2022-02-02T09:55:03.504Z</time>
      </trkpt>
      <trkpt lat="48.87905" lon="2.33304">
        <ele>57</ele>
        <time>2022-02-02T09:55:08.501Z</time>
      </trkpt>
      <trkpt lat="48.879" lon="2.33298">
        <ele>57</ele>
        <time>2022-02-02T09:55:13.497Z</time>
      </trkpt>
      <trkpt lat="48.87894" lon="2.3329">
        <ele>57</ele>
        <time>2022-02-02T09:55:18.499Z</time>
      </trkpt>
      <trkpt lat="48.87888" lon="2.33284">
        <ele>57</ele>
        <time>2022-02-02T09:55:23.500Z</time>
      </trkpt>
      <trkpt lat="48.87884" lon="2.33279">
        <ele>57</ele>
        <time>2022-02-02T09:55:27.506Z</time>
      </trkpt>
      <trkpt lat="48.87879" lon="2.33276">
        <ele>57</ele>
        <time>2022-02-02T09:55:32.504Z</time>
      </trkpt>
      <trkpt lat="48.87873" lon="2.33273">
        <ele>57</ele>
        <time>2022-02-02T09:55:36.505Z</time>
      </trkpt>
      <trkpt lat="48.87868" lon="2.33271">
        <ele>57</ele>
        <time>2022-02-02T09:55:41.506Z</time>
      </trkpt>
      <trkpt lat="48.87861" lon="2.33269">
        <ele>57</ele>
        <time>2022-02-02T09:55:46.502Z</time>
      </trkpt>
      <trkpt lat="48.87854" lon="2.33263">
        <ele>55</ele>
        <time>2022-02-02T09:55:51.498Z</time>
      </trkpt>
      <trkpt lat="48.87847" lon="2.33261">
        <ele>55</ele>
        <time>2022-02-02T09:55:55.499Z</time>
      </trkpt>
      <trkpt lat="48.87842" lon="2.33258">
        <ele>56</ele>
        <time>2022-02-02T09:55:59.508Z</time>
      </trkpt>
      <trkpt lat="48.87838" lon="2.33252">
        <ele>56</ele>
        <time>2022-02-02T09:56:04.500Z</time>
      </trkpt>
      <trkpt lat="48.87832" lon="2.33245">
        <ele>56</ele>
        <time>2022-02-02T09:56:08.496Z</time>
      </trkpt>
      <trkpt lat="48.87828" lon="2.33237">
        <ele>56</ele>
        <time>2022-02-02T09:56:13.497Z</time>
      </trkpt>
      <trkpt lat="48.87822" lon="2.33232">
        <ele>54</ele>
        <time>2022-02-02T09:56:17.510Z</time>
      </trkpt>
      <trkpt lat="48.87816" lon="2.33227">
        <ele>54</ele>
        <time>2022-02-02T09:56:22.495Z</time>
      </trkpt>
      <trkpt lat="48.87809" lon="2.33221">
        <ele>54</ele>
        <time>2022-02-02T09:56:26.498Z</time>
      </trkpt>
      <trkpt lat="48.87805" lon="2.33215">
        <ele>54</ele>
        <time>2022-02-02T09:56:31.502Z</time>
      </trkpt>
      <trkpt lat="48.87799" lon="2.33209">
        <ele>54</ele>
        <time>2022-02-02T09:56:36.502Z</time>
      </trkpt>
      <trkpt lat="48.87798" lon="2.33196">
        <ele>52</ele>
        <time>2022-02-02T09:56:41.498Z</time>
      </trkpt>
      <trkpt lat="48.87797" lon="2.33186">
        <ele>52</ele>
        <time>2022-02-02T09:56:45.500Z</time>
      </trkpt>
      <trkpt lat="48.87802" lon="2.33183">
        <ele>52</ele>
        <time>2022-02-02T09:56:50.498Z</time>
      </trkpt>
      <trkpt lat="48.87808" lon="2.3318">
        <ele>50</ele>
        <time>2022-02-02T09:56:55.500Z</time>
      </trkpt>
      <trkpt lat="48.87813" lon="2.33177">
        <ele>50</ele>
        <time>2022-02-02T09:57:00.500Z</time>
      </trkpt>
      <trkpt lat="48.87818" lon="2.33174">
        <ele>50</ele>
        <time>2022-02-02T09:57:05.497Z</time>
      </trkpt>
      <trkpt lat="48.87823" lon="2.3317">
        <ele>50</ele>
        <time>2022-02-02T09:57:09.503Z</time>
      </trkpt>
      <trkpt lat="48.87828" lon="2.33173">
        <ele>50</ele>
        <time>2022-02-02T09:57:14.491Z</time>
      </trkpt>
      <trkpt lat="48.87834" lon="2.33173">
        <ele>50</ele>
        <time>2022-02-02T09:57:18.495Z</time>
      </trkpt>
      <trkpt lat="48.8784" lon="2.33174">
        <ele>50</ele>
        <time>2022-02-02T09:57:23.499Z</time>
      </trkpt>
      <trkpt lat="48.87846" lon="2.33174">
        <ele>50</ele>
        <time>2022-02-02T09:57:27.505Z</time>
      </trkpt>
      <trkpt lat="48.87851" lon="2.33174">
        <ele>50</ele>
        <time>2022-02-02T09:57:32.490Z</time>
      </trkpt>
      <trkpt lat="48.87857" lon="2.33171">
        <ele>50</ele>
        <time>2022-02-02T09:57:37.497Z</time>
      </trkpt>
      <trkpt lat="48.87864" lon="2.33173">
        <ele>50</ele>
        <time>2022-02-02T09:57:42.496Z</time>
      </trkpt>
      <trkpt lat="48.8787" lon="2.33172">
        <ele>50</ele>
        <time>2022-02-02T09:57:47.500Z</time>
      </trkpt>
      <trkpt lat="48.87876" lon="2.33169">
        <ele>53</ele>
        <time>2022-02-02T09:57:52.493Z</time>
      </trkpt>
      <trkpt lat="48.87881" lon="2.33166">
        <ele>53</ele>
        <time>2022-02-02T09:57:56.505Z</time>
      </trkpt>
      <trkpt lat="48.87887" lon="2.33164">
        <ele>53</ele>
        <time>2022-02-02T09:58:01.504Z</time>
      </trkpt>
      <trkpt lat="48.87893" lon="2.33161">
        <ele>53</ele>
        <time>2022-02-02T09:58:06.500Z</time>
      </trkpt>
      <trkpt lat="48.87899" lon="2.33161">
        <ele>53</ele>
        <time>2022-02-02T09:58:11.511Z</time>
      </trkpt>
      <trkpt lat="48.87906" lon="2.33159">
        <ele>56</ele>
        <time>2022-02-02T09:58:16.498Z</time>
      </trkpt>
      <trkpt lat="48.87912" lon="2.33159">
        <ele>56</ele>
        <time>2022-02-02T09:58:45.504Z</time>
      </trkpt>
      <trkpt lat="48.87924" lon="2.33156">
        <ele>56</ele>
        <time>2022-02-02T09:58:50.494Z</time>
      </trkpt>
      <trkpt lat="48.87924" lon="2.33155">
        <ele>56</ele>
        <time>2022-02-02T09:58:54.501Z</time>
      </trkpt>
      <trkpt lat="48.87924" lon="2.33156">
        <ele>56</ele>
        <time>2022-02-02T09:58:59.500Z</time>
      </trkpt>
      <trkpt lat="48.8793" lon="2.33154">
        <ele>56</ele>
        <time>2022-02-02T09:59:03.492Z</time>
      </trkpt>
      <trkpt lat="48.87935" lon="2.33151">
        <ele>57</ele>
        <time>2022-02-02T09:59:31.493Z</time>
      </trkpt>
      <trkpt lat="48.87948" lon="2.33145">
        <ele>57</ele>
        <time>2022-02-02T09:59:36.496Z</time>
      </trkpt>
      <trkpt lat="48.87952" lon="2.33142">
        <ele>57</ele>
        <time>2022-02-02T09:59:41.492Z</time>
      </trkpt>
      <trkpt lat="48.8796" lon="2.33143">
        <ele>59</ele>
        <time>2022-02-02T09:59:45.489Z</time>
      </trkpt>
      <trkpt lat="48.87964" lon="2.33141">
        <ele>59</ele>
        <time>2022-02-02T09:59:49.492Z</time>
      </trkpt>
      <trkpt lat="48.87963" lon="2.33136">
        <ele>59</ele>
        <time>2022-02-02T09:59:54.494Z</time>
      </trkpt>
      <trkpt lat="48.87965" lon="2.33141">
        <ele>59</ele>
        <time>2022-02-02T09:59:58.497Z</time>
      </trkpt>
      <trkpt lat="48.87974" lon="2.33139">
        <ele>59</ele>
        <time>2022-02-02T10:00:03.500Z</time>
      </trkpt>
      <trkpt lat="48.87982" lon="2.33138">
        <ele>59</ele>
        <time>2022-02-02T10:00:07.500Z</time>
      </trkpt>
      <trkpt lat="48.87989" lon="2.33139">
        <ele>57</ele>
        <time>2022-02-02T10:00:12.501Z</time>
      </trkpt>
      <trkpt lat="48.87995" lon="2.3314">
        <ele>57</ele>
        <time>2022-02-02T10:00:17.494Z</time>
      </trkpt>
      <trkpt lat="48.88001" lon="2.33133">
        <ele>57</ele>
        <time>2022-02-02T10:00:21.498Z</time>
      </trkpt>
      <trkpt lat="48.88002" lon="2.33124">
        <ele>57</ele>
        <time>2022-02-02T10:00:25.496Z</time>
      </trkpt>
      <trkpt lat="48.88003" lon="2.33115">
        <ele>57</ele>
        <time>2022-02-02T10:00:30.501Z</time>
      </trkpt>
      <trkpt lat="48.88003" lon="2.33106">
        <ele>57</ele>
        <time>2022-02-02T10:00:35.499Z</time>
      </trkpt>
      <trkpt lat="48.88002" lon="2.33097">
        <ele>57</ele>
        <time>2022-02-02T10:00:39.504Z</time>
      </trkpt>
      <trkpt lat="48.88002" lon="2.3309">
        <ele>57</ele>
        <time>2022-02-02T10:00:44.493Z</time>
      </trkpt>
      <trkpt lat="48.88" lon="2.33082">
        <ele>57</ele>
        <time>2022-02-02T10:00:48.494Z</time>
      </trkpt>
      <trkpt lat="48.87999" lon="2.33075">
        <ele>57</ele>
        <time>2022-02-02T10:00:53.502Z</time>
      </trkpt>
      <trkpt lat="48.87998" lon="2.33066">
        <ele>57</ele>
        <time>2022-02-02T10:00:58.494Z</time>
      </trkpt>
      <trkpt lat="48.87998" lon="2.33058">
        <ele>57</ele>
        <time>2022-02-02T10:01:03.490Z</time>
      </trkpt>
      <trkpt lat="48.87997" lon="2.33049">
        <ele>57</ele>
        <time>2022-02-02T10:01:07.497Z</time>
      </trkpt>
      <trkpt lat="48.87995" lon="2.33042">
        <ele>57</ele>
        <time>2022-02-02T10:01:12.508Z</time>
      </trkpt>
      <trkpt lat="48.87995" lon="2.33034">
        <ele>57</ele>
        <time>2022-02-02T10:01:17.502Z</time>
      </trkpt>
      <trkpt lat="48.87995" lon="2.33025">
        <ele>57</ele>
        <time>2022-02-02T10:01:22.504Z</time>
      </trkpt>
      <trkpt lat="48.87995" lon="2.33016">
        <ele>57</ele>
        <time>2022-02-02T10:01:27.504Z</time>
      </trkpt>
      <trkpt lat="48.87995" lon="2.33007">
        <ele>57</ele>
        <time>2022-02-02T10:01:32.491Z</time>
      </trkpt>
      <trkpt lat="48.87994" lon="2.32997">
        <ele>57</ele>
        <time>2022-02-02T10:01:36.496Z</time>
      </trkpt>
      <trkpt lat="48.87994" lon="2.3299">
        <ele>57</ele>
        <time>2022-02-02T10:01:41.500Z</time>
      </trkpt>
      <trkpt lat="48.87993" lon="2.32981">
        <ele>58</ele>
        <time>2022-02-02T10:01:45.506Z</time>
      </trkpt>
      <trkpt lat="48.87994" lon="2.32973">
        <ele>58</ele>
        <time>2022-02-02T10:01:50.495Z</time>
      </trkpt>
      <trkpt lat="48.87994" lon="2.32963">
        <ele>58</ele>
        <time>2022-02-02T10:01:54.503Z</time>
      </trkpt>
      <trkpt lat="48.87995" lon="2.32955">
        <ele>58</ele>
        <time>2022-02-02T10:01:59.495Z</time>
      </trkpt>
      <trkpt lat="48.87997" lon="2.32941">
        <ele>58</ele>
        <time>2022-02-02T10:02:04.495Z</time>
      </trkpt>
      <trkpt lat="48.87997" lon="2.3292">
        <ele>59</ele>
        <time>2022-02-02T10:02:09.509Z</time>
      </trkpt>
      <trkpt lat="48.87991" lon="2.3291">
        <ele>59</ele>
        <time>2022-02-02T10:02:14.492Z</time>
      </trkpt>
      <trkpt lat="48.87985" lon="2.32917">
        <ele>56</ele>
        <time>2022-02-02T10:02:19.497Z</time>
      </trkpt>
      <trkpt lat="48.8798" lon="2.32926">
        <ele>56</ele>
        <time>2022-02-02T10:02:24.499Z</time>
      </trkpt>
      <trkpt lat="48.87972" lon="2.32929">
        <ele>56</ele>
        <time>2022-02-02T10:02:29.501Z</time>
      </trkpt>
      <trkpt lat="48.87967" lon="2.32928">
        <ele>56</ele>
        <time>2022-02-02T10:02:34.492Z</time>
      </trkpt>
      <trkpt lat="48.87965" lon="2.3292">
        <ele>56</ele>
        <time>2022-02-02T10:02:39.501Z</time>
      </trkpt>
      <trkpt lat="48.87959" lon="2.32919">
        <ele>56</ele>
        <time>2022-02-02T10:02:44.505Z</time>
      </trkpt>
      <trkpt lat="48.87951" lon="2.32923">
        <ele>54</ele>
        <time>2022-02-02T10:02:49.493Z</time>
      </trkpt>
      <trkpt lat="48.87945" lon="2.32927">
        <ele>54</ele>
        <time>2022-02-02T10:02:53.499Z</time>
      </trkpt>
      <trkpt lat="48.8794" lon="2.3293">
        <ele>54</ele>
        <time>2022-02-02T10:02:58.497Z</time>
      </trkpt>
      <trkpt lat="48.87934" lon="2.32934">
        <ele>54</ele>
        <time>2022-02-02T10:03:03.506Z</time>
      </trkpt>
      <trkpt lat="48.87928" lon="2.32938">
        <ele>53</ele>
        <time>2022-02-02T10:03:08.494Z</time>
      </trkpt>
      <trkpt lat="48.87922" lon="2.32943">
        <ele>53</ele>
        <time>2022-02-02T10:03:12.498Z</time>
      </trkpt>
      <trkpt lat="48.87917" lon="2.32946">
        <ele>53</ele>
        <time>2022-02-02T10:03:17.493Z</time>
      </trkpt>
      <trkpt lat="48.87912" lon="2.32951">
        <ele>53</ele>
        <time>2022-02-02T10:03:21.503Z</time>
      </trkpt>
      <trkpt lat="48.87907" lon="2.32954">
        <ele>53</ele>
        <time>2022-02-02T10:03:26.491Z</time>
      </trkpt>
      <trkpt lat="48.87902" lon="2.32952">
        <ele>53</ele>
        <time>2022-02-02T10:03:31.494Z</time>
      </trkpt>
      <trkpt lat="48.87902" lon="2.32944">
        <ele>53</ele>
        <time>2022-02-02T10:03:36.491Z</time>
      </trkpt>
      <trkpt lat="48.87901" lon="2.32935">
        <ele>53</ele>
        <time>2022-02-02T10:03:40.499Z</time>
      </trkpt>
      <trkpt lat="48.879" lon="2.3293">
        <ele>55</ele>
        <time>2022-02-02T10:03:44.503Z</time>
      </trkpt>
      <trkpt lat="48.87899" lon="2.32923">
        <ele>55</ele>
        <time>2022-02-02T10:03:49.499Z</time>
      </trkpt>
      <trkpt lat="48.87897" lon="2.32915">
        <ele>55</ele>
        <time>2022-02-02T10:03:54.500Z</time>
      </trkpt>
      <trkpt lat="48.87894" lon="2.32906">
        <ele>55</ele>
        <time>2022-02-02T10:03:59.502Z</time>
      </trkpt>
      <trkpt lat="48.87891" lon="2.32897">
        <ele>56</ele>
        <time>2022-02-02T10:04:03.505Z</time>
      </trkpt>
      <trkpt lat="48.87887" lon="2.32887">
        <ele>56</ele>
        <time>2022-02-02T10:04:08.497Z</time>
      </trkpt>
      <trkpt lat="48.87884" lon="2.32875">
        <ele>57</ele>
        <time>2022-02-02T10:04:12.497Z</time>
      </trkpt>
      <trkpt lat="48.87883" lon="2.32866">
        <ele>57</ele>
        <time>2022-02-02T10:04:16.506Z</time>
      </trkpt>
      <trkpt lat="48.87884" lon="2.32858">
        <ele>57</ele>
        <time>2022-02-02T10:04:21.498Z</time>
      </trkpt>
      <trkpt lat="48.87882" lon="2.32847">
        <ele>58</ele>
        <time>2022-02-02T10:04:25.503Z</time>
      </trkpt>
      <trkpt lat="48.8788" lon="2.32838">
        <ele>58</ele>
        <time>2022-02-02T10:04:30.500Z</time>
      </trkpt>
      <trkpt lat="48.8788" lon="2.32827">
        <ele>58</ele>
        <time>2022-02-02T10:04:34.506Z</time>
      </trkpt>
      <trkpt lat="48.87878" lon="2.32818">
        <ele>58</ele>
        <time>2022-02-02T10:04:39.498Z</time>
      </trkpt>
      <trkpt lat="48.87878" lon="2.32808">
        <ele>58</ele>
        <time>2022-02-02T10:04:43.501Z</time>
      </trkpt>
      <trkpt lat="48.87878" lon="2.32798">
        <ele>58</ele>
        <time>2022-02-02T10:04:48.494Z</time>
      </trkpt>
      <trkpt lat="48.87878" lon="2.32787">
        <ele>57</ele>
        <time>2022-02-02T10:04:52.500Z</time>
      </trkpt>
      <trkpt lat="48.87878" lon="2.32779">
        <ele>57</ele>
        <time>2022-02-02T10:04:57.504Z</time>
      </trkpt>
      <trkpt lat="48.87877" lon="2.32769">
        <ele>57</ele>
        <time>2022-02-02T10:05:01.511Z</time>
      </trkpt>
      <trkpt lat="48.87875" lon="2.32763">
        <ele>58</ele>
        <time>2022-02-02T10:05:06.499Z</time>
      </trkpt>
      <trkpt lat="48.87872" lon="2.32762">
        <ele>58</ele>
        <time>2022-02-02T10:05:16.499Z</time>
      </trkpt>
      <trkpt lat="48.87871" lon="2.3275">
        <ele>58</ele>
        <time>2022-02-02T10:05:21.501Z</time>
      </trkpt>
      <trkpt lat="48.8787" lon="2.3275">
        <ele>58</ele>
        <time>2022-02-02T10:05:25.503Z</time>
      </trkpt>
      <trkpt lat="48.8787" lon="2.32748">
        <ele>58</ele>
        <time>2022-02-02T10:05:30.498Z</time>
      </trkpt>
      <trkpt lat="48.8787" lon="2.32746">
        <ele>58</ele>
        <time>2022-02-02T10:05:34.500Z</time>
      </trkpt>
      <trkpt lat="48.87871" lon="2.32738">
        <ele>58</ele>
        <time>2022-02-02T10:05:39.502Z</time>
      </trkpt>
      <trkpt lat="48.8787" lon="2.32727">
        <ele>58</ele>
        <time>2022-02-02T10:05:43.497Z</time>
      </trkpt>
      <trkpt lat="48.87868" lon="2.32718">
        <ele>58</ele>
        <time>2022-02-02T10:05:48.495Z</time>
      </trkpt>
      <trkpt lat="48.87868" lon="2.3271">
        <ele>58</ele>
        <time>2022-02-02T10:05:52.500Z</time>
      </trkpt>
      <trkpt lat="48.87873" lon="2.32704">
        <ele>57</ele>
        <time>2022-02-02T10:05:57.494Z</time>
      </trkpt>
      <trkpt lat="48.8788" lon="2.32698">
        <ele>57</ele>
        <time>2022-02-02T10:06:01.502Z</time>
      </trkpt>
      <trkpt lat="48.87887" lon="2.32697">
        <ele>57</ele>
        <time>2022-02-02T10:06:05.507Z</time>
      </trkpt>
      <trkpt lat="48.87891" lon="2.32698">
        <ele>57</ele>
        <time>2022-02-02T10:06:10.500Z</time>
      </trkpt>
      <trkpt lat="48.87898" lon="2.32702">
        <ele>57</ele>
        <time>2022-02-02T10:06:15.507Z</time>
      </trkpt>
      <trkpt lat="48.879" lon="2.32705">
        <ele>57</ele>
        <time>2022-02-02T10:06:19.502Z</time>
      </trkpt>
      <trkpt lat="48.87905" lon="2.32707">
        <ele>59</ele>
        <time>2022-02-02T10:06:24.504Z</time>
      </trkpt>
      <trkpt lat="48.87911" lon="2.32709">
        <ele>57</ele>
        <time>2022-02-02T10:06:29.499Z</time>
      </trkpt>
      <trkpt lat="48.87917" lon="2.32709">
        <ele>57</ele>
        <time>2022-02-02T10:06:33.499Z</time>
      </trkpt>
      <trkpt lat="48.87922" lon="2.32709">
        <ele>57</ele>
        <time>2022-02-02T10:06:38.505Z</time>
      </trkpt>
      <trkpt lat="48.87929" lon="2.32711">
        <ele>57</ele>
        <time>2022-02-02T10:06:42.507Z</time>
      </trkpt>
      <trkpt lat="48.87934" lon="2.32713">
        <ele>58</ele>
        <time>2022-02-02T10:06:47.513Z</time>
      </trkpt>
      <trkpt lat="48.87939" lon="2.32714">
        <ele>58</ele>
        <time>2022-02-02T10:06:52.514Z</time>
      </trkpt>
      <trkpt lat="48.87946" lon="2.32714">
        <ele>58</ele>
        <time>2022-02-02T10:06:57.502Z</time>
      </trkpt>
      <trkpt lat="48.87952" lon="2.32715">
        <ele>58</ele>
        <time>2022-02-02T10:07:01.504Z</time>
      </trkpt>
      <trkpt lat="48.87956" lon="2.32709">
        <ele>58</ele>
        <time>2022-02-02T10:07:05.508Z</time>
      </trkpt>
      <trkpt lat="48.8796" lon="2.32704">
        <ele>60</ele>
        <time>2022-02-02T10:07:10.502Z</time>
      </trkpt>
      <trkpt lat="48.87964" lon="2.32697">
        <ele>60</ele>
        <time>2022-02-02T10:07:15.501Z</time>
      </trkpt>
      <trkpt lat="48.87966" lon="2.32688">
        <ele>60</ele>
        <time>2022-02-02T10:07:20.504Z</time>
      </trkpt>
      <trkpt lat="48.87963" lon="2.32678">
        <ele>60</ele>
        <time>2022-02-02T10:07:25.500Z</time>
      </trkpt>
      <trkpt lat="48.87962" lon="2.32668">
        <ele>60</ele>
        <time>2022-02-02T10:07:29.504Z</time>
      </trkpt>
      <trkpt lat="48.87959" lon="2.3266">
        <ele>60</ele>
        <time>2022-02-02T10:07:33.510Z</time>
      </trkpt>
      <trkpt lat="48.87956" lon="2.32651">
        <ele>61</ele>
        <time>2022-02-02T10:07:38.493Z</time>
      </trkpt>
      <trkpt lat="48.87952" lon="2.32639">
        <ele>61</ele>
        <time>2022-02-02T10:07:42.503Z</time>
      </trkpt>
      <trkpt lat="48.87948" lon="2.32629">
        <ele>61</ele>
        <time>2022-02-02T10:07:47.490Z</time>
      </trkpt>
      <trkpt lat="48.87943" lon="2.32615">
        <ele>62</ele>
        <time>2022-02-02T10:07:51.503Z</time>
      </trkpt>
      <trkpt lat="48.87941" lon="2.32606">
        <ele>62</ele>
        <time>2022-02-02T10:07:56.501Z</time>
      </trkpt>
      <trkpt lat="48.87941" lon="2.32597">
        <ele>63</ele>
        <time>2022-02-02T10:08:00.498Z</time>
      </trkpt>
      <trkpt lat="48.87939" lon="2.32588">
        <ele>63</ele>
        <time>2022-02-02T10:08:05.500Z</time>
      </trkpt>
      <trkpt lat="48.87938" lon="2.32573">
        <ele>63</ele>
        <time>2022-02-02T10:08:09.502Z</time>
      </trkpt>
      <trkpt lat="48.87937" lon="2.32564">
        <ele>64</ele>
        <time>2022-02-02T10:08:14.508Z</time>
      </trkpt>
      <trkpt lat="48.87934" lon="2.32553">
        <ele>64</ele>
        <time>2022-02-02T10:08:19.504Z</time>
      </trkpt>
      <trkpt lat="48.87933" lon="2.32543">
        <ele>64</ele>
        <time>2022-02-02T10:08:24.499Z</time>
      </trkpt>
      <trkpt lat="48.87931" lon="2.32533">
        <ele>64</ele>
        <time>2022-02-02T10:08:29.499Z</time>
      </trkpt>
      <trkpt lat="48.8793" lon="2.32524">
        <ele>63</ele>
        <time>2022-02-02T10:08:34.504Z</time>
      </trkpt>
      <trkpt lat="48.87928" lon="2.32515">
        <ele>63</ele>
        <time>2022-02-02T10:08:39.498Z</time>
      </trkpt>
      <trkpt lat="48.87926" lon="2.32504">
        <ele>61</ele>
        <time>2022-02-02T10:08:43.503Z</time>
      </trkpt>
      <trkpt lat="48.87924" lon="2.32497">
        <ele>61</ele>
        <time>2022-02-02T10:08:48.502Z</time>
      </trkpt>
      <trkpt lat="48.87922" lon="2.32489">
        <ele>61</ele>
        <time>2022-02-02T10:08:52.513Z</time>
      </trkpt>
      <trkpt lat="48.8792" lon="2.32483">
        <ele>60</ele>
        <time>2022-02-02T10:08:57.513Z</time>
      </trkpt>
      <trkpt lat="48.87918" lon="2.32472">
        <ele>60</ele>
        <time>2022-02-02T10:09:02.504Z</time>
      </trkpt>
      <trkpt lat="48.87917" lon="2.32462">
        <ele>60</ele>
        <time>2022-02-02T10:09:07.507Z</time>
      </trkpt>
      <trkpt lat="48.87915" lon="2.32451">
        <ele>57</ele>
        <time>2022-02-02T10:09:12.502Z</time>
      </trkpt>
      <trkpt lat="48.87914" lon="2.32444">
        <ele>57</ele>
        <time>2022-02-02T10:09:17.499Z</time>
      </trkpt>
      <trkpt lat="48.87912" lon="2.32434">
        <ele>57</ele>
        <time>2022-02-02T10:09:21.503Z</time>
      </trkpt>
      <trkpt lat="48.87911" lon="2.32426">
        <ele>52</ele>
        <time>2022-02-02T10:09:26.505Z</time>
      </trkpt>
      <trkpt lat="48.87911" lon="2.32416">
        <ele>52</ele>
        <time>2022-02-02T10:09:31.497Z</time>
      </trkpt>
      <trkpt lat="48.87913" lon="2.32405">
        <ele>52</ele>
        <time>2022-02-02T10:09:36.510Z</time>
      </trkpt>
      <trkpt lat="48.87913" lon="2.32395">
        <ele>48</ele>
        <time>2022-02-02T10:09:41.504Z</time>
      </trkpt>
      <trkpt lat="48.87912" lon="2.32387">
        <ele>48</ele>
        <time>2022-02-02T10:09:46.501Z</time>
      </trkpt>
      <trkpt lat="48.87909" lon="2.32379">
        <ele>48</ele>
        <time>2022-02-02T10:09:51.493Z</time>
      </trkpt>
      <trkpt lat="48.87908" lon="2.32371">
        <ele>46</ele>
        <time>2022-02-02T10:09:56.505Z</time>
      </trkpt>
      <trkpt lat="48.87906" lon="2.32362">
        <ele>46</ele>
        <time>2022-02-02T10:10:16.512Z</time>
      </trkpt>
      <trkpt lat="48.87919" lon="2.32356">
        <ele>46</ele>
        <time>2022-02-02T10:10:21.502Z</time>
      </trkpt>
      <trkpt lat="48.8792" lon="2.32356">
        <ele>46</ele>
        <time>2022-02-02T10:10:26.499Z</time>
      </trkpt>
      <trkpt lat="48.8792" lon="2.32356">
        <ele>46</ele>
        <time>2022-02-02T10:10:31.503Z</time>
      </trkpt>
      <trkpt lat="48.87921" lon="2.32352">
        <ele>46</ele>
        <time>2022-02-02T10:10:36.506Z</time>
      </trkpt>
      <trkpt lat="48.87923" lon="2.32344">
        <ele>46</ele>
        <time>2022-02-02T10:10:41.516Z</time>
      </trkpt>
      <trkpt lat="48.87922" lon="2.32335">
        <ele>46</ele>
        <time>2022-02-02T10:10:46.498Z</time>
      </trkpt>
      <trkpt lat="48.8792" lon="2.32326">
        <ele>46</ele>
        <time>2022-02-02T10:10:51.498Z</time>
      </trkpt>
      <trkpt lat="48.87917" lon="2.32316">
        <ele>46</ele>
        <time>2022-02-02T10:10:56.498Z</time>
      </trkpt>
      <trkpt lat="48.87915" lon="2.32308">
        <ele>46</ele>
        <time>2022-02-02T10:11:00.511Z</time>
      </trkpt>
      <trkpt lat="48.87913" lon="2.32302">
        <ele>46</ele>
        <time>2022-02-02T10:11:05.510Z</time>
      </trkpt>
      <trkpt lat="48.87911" lon="2.323">
        <ele>46</ele>
        <time>2022-02-02T10:11:10.502Z</time>
      </trkpt>
      <trkpt lat="48.87906" lon="2.323">
        <ele>46</ele>
        <time>2022-02-02T10:11:14.513Z</time>
      </trkpt>
      <trkpt lat="48.87902" lon="2.32301">
        <ele>46</ele>
        <time>2022-02-02T10:11:19.496Z</time>
      </trkpt>
      <trkpt lat="48.87895" lon="2.323">
        <ele>46</ele>
        <time>2022-02-02T10:11:24.503Z</time>
      </trkpt>
      <trkpt lat="48.87888" lon="2.32303">
        <ele>46</ele>
        <time>2022-02-02T10:11:29.511Z</time>
      </trkpt>
      <trkpt lat="48.87882" lon="2.32308">
        <ele>46</ele>
        <time>2022-02-02T10:11:34.497Z</time>
      </trkpt>
      <trkpt lat="48.87876" lon="2.32309">
        <ele>46</ele>
        <time>2022-02-02T10:11:39.497Z</time>
      </trkpt>
      <trkpt lat="48.87871" lon="2.32305">
        <ele>46</ele>
        <time>2022-02-02T10:11:44.503Z</time>
      </trkpt>
      <trkpt lat="48.87866" lon="2.32301">
        <ele>46</ele>
        <time>2022-02-02T10:11:49.493Z</time>
      </trkpt>
      <trkpt lat="48.8786" lon="2.32297">
        <ele>46</ele>
        <time>2022-02-02T10:11:53.509Z</time>
      </trkpt>
      <trkpt lat="48.87857" lon="2.32295">
        <ele>46</ele>
        <time>2022-02-02T10:11:58.498Z</time>
      </trkpt>
      <trkpt lat="48.87853" lon="2.32291">
        <ele>52</ele>
        <time>2022-02-02T10:12:02.502Z</time>
      </trkpt>
      <trkpt lat="48.87848" lon="2.32286">
        <ele>52</ele>
        <time>2022-02-02T10:12:06.504Z</time>
      </trkpt>
      <trkpt lat="48.87844" lon="2.32283">
        <ele>51</ele>
        <time>2022-02-02T10:12:11.503Z</time>
      </trkpt>
      <trkpt lat="48.8784" lon="2.32278">
        <ele>51</ele>
        <time>2022-02-02T10:12:33.498Z</time>
      </trkpt>
      <trkpt lat="48.87826" lon="2.32276">
        <ele>51</ele>
        <time>2022-02-02T10:12:37.506Z</time>
      </trkpt>
      <trkpt lat="48.87826" lon="2.32276">
        <ele>51</ele>
        <time>2022-02-02T10:12:42.496Z</time>
      </trkpt>
      <trkpt lat="48.87826" lon="2.32276">
        <ele>51</ele>
        <time>2022-02-02T10:12:47.492Z</time>
      </trkpt>
      <trkpt lat="48.87826" lon="2.32276">
        <ele>51</ele>
        <time>2022-02-02T10:12:51.503Z</time>
      </trkpt>
      <trkpt lat="48.87824" lon="2.32277">
        <ele>51</ele>
        <time>2022-02-02T10:12:56.497Z</time>
      </trkpt>
      <trkpt lat="48.87818" lon="2.32276">
        <ele>50</ele>
        <time>2022-02-02T10:13:01.505Z</time>
      </trkpt>
      <trkpt lat="48.87814" lon="2.32276">
        <ele>50</ele>
        <time>2022-02-02T10:13:05.506Z</time>
      </trkpt>
      <trkpt lat="48.87811" lon="2.32275">
        <ele>50</ele>
        <time>2022-02-02T10:13:10.504Z</time>
      </trkpt>
      <trkpt lat="48.87807" lon="2.32275">
        <ele>50</ele>
        <time>2022-02-02T10:13:14.495Z</time>
      </trkpt>
      <trkpt lat="48.87803" lon="2.32278">
        <ele>50</ele>
        <time>2022-02-02T10:13:19.501Z</time>
      </trkpt>
      <trkpt lat="48.87798" lon="2.32281">
        <ele>50</ele>
        <time>2022-02-02T10:13:23.508Z</time>
      </trkpt>
      <trkpt lat="48.87794" lon="2.32284">
        <ele>50</ele>
        <time>2022-02-02T10:13:28.503Z</time>
      </trkpt>
      <trkpt lat="48.87789" lon="2.32286">
        <ele>50</ele>
        <time>2022-02-02T10:13:33.495Z</time>
      </trkpt>
      <trkpt lat="48.87783" lon="2.32289">
        <ele>50</ele>
        <time>2022-02-02T10:13:37.496Z</time>
      </trkpt>
      <trkpt lat="48.87779" lon="2.32292">
        <ele>45</ele>
        <time>2022-02-02T10:13:41.506Z</time>
      </trkpt>
      <trkpt lat="48.87774" lon="2.32294">
        <ele>45</ele>
        <time>2022-02-02T10:13:46.506Z</time>
      </trkpt>
      <trkpt lat="48.87769" lon="2.32296">
        <ele>45</ele>
        <time>2022-02-02T10:13:51.503Z</time>
      </trkpt>
      <trkpt lat="48.87763" lon="2.32299">
        <ele>46</ele>
        <time>2022-02-02T10:13:55.507Z</time>
      </trkpt>
      <trkpt lat="48.87757" lon="2.32301">
        <ele>46</ele>
        <time>2022-02-02T10:14:00.504Z</time>
      </trkpt>
      <trkpt lat="48.87751" lon="2.32304">
        <ele>46</ele>
        <time>2022-02-02T10:14:05.499Z</time>
      </trkpt>
      <trkpt lat="48.87745" lon="2.32307">
        <ele>46</ele>
        <time>2022-02-02T10:14:10.503Z</time>
      </trkpt>
      <trkpt lat="48.87739" lon="2.32312">
        <ele>46</ele>
        <time>2022-02-02T10:14:15.506Z</time>
      </trkpt>
      <trkpt lat="48.87732" lon="2.32312">
        <ele>50</ele>
        <time>2022-02-02T10:14:20.501Z</time>
      </trkpt>
      <trkpt lat="48.87727" lon="2.32317">
        <ele>50</ele>
        <time>2022-02-02T10:14:25.501Z</time>
      </trkpt>
      <trkpt lat="48.87722" lon="2.3232">
        <ele>47</ele>
        <time>2022-02-02T10:14:30.496Z</time>
      </trkpt>
      <trkpt lat="48.87717" lon="2.32323">
        <ele>47</ele>
        <time>2022-02-02T10:14:34.510Z</time>
      </trkpt>
      <trkpt lat="48.87712" lon="2.32325">
        <ele>47</ele>
        <time>2022-02-02T10:14:39.503Z</time>
      </trkpt>
      <trkpt lat="48.87707" lon="2.32329">
        <ele>48</ele>
        <time>2022-02-02T10:14:44.511Z</time>
      </trkpt>
      <trkpt lat="48.87701" lon="2.32332">
        <ele>48</ele>
        <time>2022-02-02T10:14:49.503Z</time>
      </trkpt>
      <trkpt lat="48.87696" lon="2.32337">
        <ele>48</ele>
        <time>2022-02-02T10:14:54.500Z</time>
      </trkpt>
      <trkpt lat="48.8769" lon="2.32341">
        <ele>48</ele>
        <time>2022-02-02T10:14:59.504Z</time>
      </trkpt>
      <trkpt lat="48.87684" lon="2.32345">
        <ele>48</ele>
        <time>2022-02-02T10:15:04.503Z</time>
      </trkpt>
      <trkpt lat="48.87678" lon="2.32349">
        <ele>45</ele>
        <time>2022-02-02T10:15:09.504Z</time>
      </trkpt>
      <trkpt lat="48.87672" lon="2.32354">
        <ele>45</ele>
        <time>2022-02-02T10:15:13.500Z</time>
      </trkpt>
      <trkpt lat="48.87667" lon="2.32356">
        <ele>45</ele>
        <time>2022-02-02T10:15:17.507Z</time>
      </trkpt>
      <trkpt lat="48.87661" lon="2.32358">
        <ele>45</ele>
        <time>2022-02-02T10:15:21.614Z</time>
      </trkpt>
      <trkpt lat="48.87656" lon="2.32361">
        <ele>45</ele>
        <time>2022-02-02T10:15:26.501Z</time>
      </trkpt>
      <trkpt lat="48.8765" lon="2.32365">
        <ele>43</ele>
        <time>2022-02-02T10:15:30.508Z</time>
      </trkpt>
      <trkpt lat="48.87645" lon="2.32367">
        <ele>43</ele>
        <time>2022-02-02T10:15:35.500Z</time>
      </trkpt>
      <trkpt lat="48.87638" lon="2.3237">
        <ele>43</ele>
        <time>2022-02-02T10:15:39.501Z</time>
      </trkpt>
      <trkpt lat="48.87633" lon="2.32372">
        <ele>43</ele>
        <time>2022-02-02T10:15:44.490Z</time>
      </trkpt>
      <trkpt lat="48.87625" lon="2.32373">
        <ele>43</ele>
        <time>2022-02-02T10:15:48.505Z</time>
      </trkpt>
      <trkpt lat="48.87625" lon="2.32372">
        <ele>42</ele>
        <time>2022-02-02T10:15:52.505Z</time>
      </trkpt>
      <trkpt lat="48.87626" lon="2.32368">
        <ele>43</ele>
        <time>2022-02-02T10:15:57.497Z</time>
      </trkpt>
      <trkpt lat="48.87621" lon="2.32363">
        <ele>42</ele>
        <time>2022-02-02T10:16:01.506Z</time>
      </trkpt>
      <trkpt lat="48.87612" lon="2.32365">
        <ele>42</ele>
        <time>2022-02-02T10:16:05.502Z</time>
      </trkpt>
      <trkpt lat="48.87604" lon="2.32367">
        <ele>42</ele>
        <time>2022-02-02T10:16:10.507Z</time>
      </trkpt>
      <trkpt lat="48.87597" lon="2.32372">
        <ele>42</ele>
        <time>2022-02-02T10:16:14.500Z</time>
      </trkpt>
      <trkpt lat="48.87592" lon="2.32372">
        <ele>40</ele>
        <time>2022-02-02T10:16:19.500Z</time>
      </trkpt>
      <trkpt lat="48.87583" lon="2.32376">
        <ele>37</ele>
        <time>2022-02-02T10:16:24.499Z</time>
      </trkpt>
      <trkpt lat="48.87572" lon="2.32375">
        <ele>37</ele>
        <time>2022-02-02T10:16:29.498Z</time>
      </trkpt>
      <trkpt lat="48.87564" lon="2.32372">
        <ele>42</ele>
        <time>2022-02-02T10:16:34.495Z</time>
      </trkpt>
      <trkpt lat="48.87556" lon="2.3237">
        <ele>42</ele>
        <time>2022-02-02T10:16:38.497Z</time>
      </trkpt>
      <trkpt lat="48.87549" lon="2.32371">
        <ele>42</ele>
        <time>2022-02-02T10:16:43.495Z</time>
      </trkpt>
      <trkpt lat="48.87542" lon="2.3237">
        <ele>42</ele>
        <time>2022-02-02T10:16:48.494Z</time>
      </trkpt>
      <trkpt lat="48.87535" lon="2.3237">
        <ele>42</ele>
        <time>2022-02-02T10:16:52.496Z</time>
      </trkpt>
      <trkpt lat="48.87529" lon="2.32369">
        <ele>42</ele>
        <time>2022-02-02T10:16:57.501Z</time>
      </trkpt>
      <trkpt lat="48.87523" lon="2.32372">
        <ele>42</ele>
        <time>2022-02-02T10:17:02.495Z</time>
      </trkpt>
      <trkpt lat="48.87516" lon="2.32372">
        <ele>42</ele>
        <time>2022-02-02T10:17:06.501Z</time>
      </trkpt>
      <trkpt lat="48.87511" lon="2.32372">
        <ele>44</ele>
        <time>2022-02-02T10:17:10.500Z</time>
      </trkpt>
      <trkpt lat="48.87506" lon="2.32374">
        <ele>44</ele>
        <time>2022-02-02T10:17:15.498Z</time>
      </trkpt>
      <trkpt lat="48.875" lon="2.32375">
        <ele>43</ele>
        <time>2022-02-02T10:17:20.510Z</time>
      </trkpt>
      <trkpt lat="48.87494" lon="2.32378">
        <ele>43</ele>
        <time>2022-02-02T10:17:24.508Z</time>
      </trkpt>
      <trkpt lat="48.87489" lon="2.32379">
        <ele>43</ele>
        <time>2022-02-02T10:17:29.502Z</time>
      </trkpt>
      <trkpt lat="48.87484" lon="2.3238">
        <ele>44</ele>
        <time>2022-02-02T10:17:34.503Z</time>
      </trkpt>
      <trkpt lat="48.87478" lon="2.32381">
        <ele>44</ele>
        <time>2022-02-02T10:17:39.497Z</time>
      </trkpt>
      <trkpt lat="48.87471" lon="2.32382">
        <ele>44</ele>
        <time>2022-02-02T10:17:44.506Z</time>
      </trkpt>
      <trkpt lat="48.87464" lon="2.32386">
        <ele>44</ele>
        <time>2022-02-02T10:17:48.500Z</time>
      </trkpt>
      <trkpt lat="48.87459" lon="2.32384">
        <ele>44</ele>
        <time>2022-02-02T10:17:53.499Z</time>
      </trkpt>
      <trkpt lat="48.87453" lon="2.32385">
        <ele>44</ele>
        <time>2022-02-02T10:17:58.496Z</time>
      </trkpt>
      <trkpt lat="48.87446" lon="2.32388">
        <ele>44</ele>
        <time>2022-02-02T10:18:02.509Z</time>
      </trkpt>
      <trkpt lat="48.8744" lon="2.32388">
        <ele>44</ele>
        <time>2022-02-02T10:18:07.497Z</time>
      </trkpt>
      <trkpt lat="48.87435" lon="2.32392">
        <ele>44</ele>
        <time>2022-02-02T10:18:12.499Z</time>
      </trkpt>
      <trkpt lat="48.87429" lon="2.32396">
        <ele>43</ele>
        <time>2022-02-02T10:18:17.507Z</time>
      </trkpt>
      <trkpt lat="48.87423" lon="2.324">
        <ele>43</ele>
        <time>2022-02-02T10:18:21.601Z</time>
      </trkpt>
      <trkpt lat="48.87418" lon="2.32402">
        <ele>43</ele>
        <time>2022-02-02T10:18:26.500Z</time>
      </trkpt>
      <trkpt lat="48.87412" lon="2.32397">
        <ele>43</ele>
        <time>2022-02-02T10:18:31.496Z</time>
      </trkpt>
      <trkpt lat="48.87409" lon="2.32395">
        <ele>43</ele>
        <time>2022-02-02T10:28:02.495Z</time>
      </trkpt>
      <trkpt lat="48.87404" lon="2.32388">
        <ele>43</ele>
        <time>2022-02-02T10:28:06.505Z</time>
      </trkpt>
      <trkpt lat="48.87405" lon="2.32385">
        <ele>43</ele>
        <time>2022-02-02T10:28:11.492Z</time>
      </trkpt>
      <trkpt lat="48.87408" lon="2.3238">
        <ele>43</ele>
        <time>2022-02-02T10:28:15.496Z</time>
      </trkpt>
      <trkpt lat="48.87412" lon="2.32373">
        <ele>42</ele>
        <time>2022-02-02T10:28:20.502Z</time>
      </trkpt>
      <trkpt lat="48.87418" lon="2.32365">
        <ele>42</ele>
        <time>2022-02-02T10:28:24.506Z</time>
      </trkpt>
      <trkpt lat="48.87422" lon="2.3236">
        <ele>42</ele>
        <time>2022-02-02T10:28:28.504Z</time>
      </trkpt>
      <trkpt lat="48.87426" lon="2.32353">
        <ele>42</ele>
        <time>2022-02-02T10:28:33.501Z</time>
      </trkpt>
      <trkpt lat="48.87431" lon="2.32345">
        <ele>45</ele>
        <time>2022-02-02T10:28:37.544Z</time>
      </trkpt>
      <trkpt lat="48.87435" lon="2.32336">
        <ele>45</ele>
        <time>2022-02-02T10:28:42.496Z</time>
      </trkpt>
      <trkpt lat="48.87438" lon="2.32325">
        <ele>45</ele>
        <time>2022-02-02T10:28:47.501Z</time>
      </trkpt>
      <trkpt lat="48.87438" lon="2.32316">
        <ele>46</ele>
        <time>2022-02-02T10:28:51.500Z</time>
      </trkpt>
      <trkpt lat="48.87437" lon="2.32309">
        <ele>46</ele>
        <time>2022-02-02T10:28:55.546Z</time>
      </trkpt>
      <trkpt lat="48.87435" lon="2.323">
        <ele>46</ele>
        <time>2022-02-02T10:29:00.500Z</time>
      </trkpt>
      <trkpt lat="48.87436" lon="2.32292">
        <ele>46</ele>
        <time>2022-02-02T10:29:04.523Z</time>
      </trkpt>
      <trkpt lat="48.87439" lon="2.32289">
        <ele>46</ele>
        <time>2022-02-02T10:29:09.508Z</time>
      </trkpt>
      <trkpt lat="48.87444" lon="2.32287">
        <ele>46</ele>
        <time>2022-02-02T10:29:14.497Z</time>
      </trkpt>
      <trkpt lat="48.87448" lon="2.32283">
        <ele>46</ele>
        <time>2022-02-02T10:29:19.496Z</time>
      </trkpt>
      <trkpt lat="48.87449" lon="2.3228">
        <ele>46</ele>
        <time>2022-02-02T10:29:24.506Z</time>
      </trkpt>
      <trkpt lat="48.87449" lon="2.32273">
        <ele>46</ele>
        <time>2022-02-02T10:29:29.503Z</time>
      </trkpt>
      <trkpt lat="48.87453" lon="2.32266">
        <ele>46</ele>
        <time>2022-02-02T10:29:33.498Z</time>
      </trkpt>
      <trkpt lat="48.87454" lon="2.32258">
        <ele>47</ele>
        <time>2022-02-02T10:29:37.536Z</time>
      </trkpt>
      <trkpt lat="48.87456" lon="2.3225">
        <ele>47</ele>
        <time>2022-02-02T10:29:42.499Z</time>
      </trkpt>
      <trkpt lat="48.87457" lon="2.3224">
        <ele>47</ele>
        <time>2022-02-02T10:29:46.527Z</time>
      </trkpt>
      <trkpt lat="48.87459" lon="2.32233">
        <ele>48</ele>
        <time>2022-02-02T10:29:51.501Z</time>
      </trkpt>
      <trkpt lat="48.87461" lon="2.32224">
        <ele>48</ele>
        <time>2022-02-02T10:30:15.514Z</time>
      </trkpt>
      <trkpt lat="48.87466" lon="2.32205">
        <ele>49</ele>
        <time>2022-02-02T10:30:20.498Z</time>
      </trkpt>
      <trkpt lat="48.87464" lon="2.32201">
        <ele>49</ele>
        <time>2022-02-02T10:30:24.499Z</time>
      </trkpt>
      <trkpt lat="48.87466" lon="2.32197">
        <ele>49</ele>
        <time>2022-02-02T10:30:29.510Z</time>
      </trkpt>
      <trkpt lat="48.87466" lon="2.32196">
        <ele>49</ele>
        <time>2022-02-02T10:30:34.511Z</time>
      </trkpt>
      <trkpt lat="48.87467" lon="2.32193">
        <ele>49</ele>
        <time>2022-02-02T10:30:39.527Z</time>
      </trkpt>
      <trkpt lat="48.87467" lon="2.32189">
        <ele>49</ele>
        <time>2022-02-02T10:30:44.498Z</time>
      </trkpt>
      <trkpt lat="48.87469" lon="2.3218">
        <ele>48</ele>
        <time>2022-02-02T10:30:49.503Z</time>
      </trkpt>
      <trkpt lat="48.87469" lon="2.32171">
        <ele>48</ele>
        <time>2022-02-02T10:30:53.526Z</time>
      </trkpt>
      <trkpt lat="48.8747" lon="2.32164">
        <ele>48</ele>
        <time>2022-02-02T10:30:58.531Z</time>
      </trkpt>
      <trkpt lat="48.87469" lon="2.32155">
        <ele>48</ele>
        <time>2022-02-02T10:31:03.501Z</time>
      </trkpt>
      <trkpt lat="48.8747" lon="2.32146">
        <ele>46</ele>
        <time>2022-02-02T10:31:08.499Z</time>
      </trkpt>
      <trkpt lat="48.87471" lon="2.32136">
        <ele>46</ele>
        <time>2022-02-02T10:31:12.503Z</time>
      </trkpt>
      <trkpt lat="48.87471" lon="2.32129">
        <ele>46</ele>
        <time>2022-02-02T10:31:16.507Z</time>
      </trkpt>
      <trkpt lat="48.87472" lon="2.32122">
        <ele>45</ele>
        <time>2022-02-02T10:31:21.506Z</time>
      </trkpt>
      <trkpt lat="48.87473" lon="2.32114">
        <ele>45</ele>
        <time>2022-02-02T10:31:26.500Z</time>
      </trkpt>
      <trkpt lat="48.87475" lon="2.32105">
        <ele>45</ele>
        <time>2022-02-02T10:31:31.533Z</time>
      </trkpt>
      <trkpt lat="48.87476" lon="2.32096">
        <ele>44</ele>
        <time>2022-02-02T10:31:36.500Z</time>
      </trkpt>
      <trkpt lat="48.87476" lon="2.32087">
        <ele>44</ele>
        <time>2022-02-02T10:31:40.510Z</time>
      </trkpt>
      <trkpt lat="48.87474" lon="2.32079">
        <ele>44</ele>
        <time>2022-02-02T10:31:45.500Z</time>
      </trkpt>
      <trkpt lat="48.87473" lon="2.32071">
        <ele>44</ele>
        <time>2022-02-02T10:31:49.528Z</time>
      </trkpt>
      <trkpt lat="48.87473" lon="2.32064">
        <ele>45</ele>
        <time>2022-02-02T10:31:54.497Z</time>
      </trkpt>
      <trkpt lat="48.87473" lon="2.32056">
        <ele>45</ele>
        <time>2022-02-02T10:31:59.552Z</time>
      </trkpt>
      <trkpt lat="48.87475" lon="2.32048">
        <ele>45</ele>
        <time>2022-02-02T10:32:04.501Z</time>
      </trkpt>
      <trkpt lat="48.87478" lon="2.32039">
        <ele>45</ele>
        <time>2022-02-02T10:32:08.545Z</time>
      </trkpt>
      <trkpt lat="48.87481" lon="2.32033">
        <ele>45</ele>
        <time>2022-02-02T10:32:13.502Z</time>
      </trkpt>
      <trkpt lat="48.87485" lon="2.32029">
        <ele>45</ele>
        <time>2022-02-02T10:32:17.505Z</time>
      </trkpt>
      <trkpt lat="48.87489" lon="2.32027">
        <ele>46</ele>
        <time>2022-02-02T10:32:22.502Z</time>
      </trkpt>
      <trkpt lat="48.87493" lon="2.32021">
        <ele>46</ele>
        <time>2022-02-02T10:32:27.506Z</time>
      </trkpt>
      <trkpt lat="48.87496" lon="2.32013">
        <ele>46</ele>
        <time>2022-02-02T10:32:31.505Z</time>
      </trkpt>
      <trkpt lat="48.87497" lon="2.32007">
        <ele>46</ele>
        <time>2022-02-02T10:32:36.545Z</time>
      </trkpt>
      <trkpt lat="48.87498" lon="2.31999">
        <ele>46</ele>
        <time>2022-02-02T10:32:41.499Z</time>
      </trkpt>
      <trkpt lat="48.87497" lon="2.3199">
        <ele>46</ele>
        <time>2022-02-02T10:32:45.512Z</time>
      </trkpt>
      <trkpt lat="48.87497" lon="2.31982">
        <ele>46</ele>
        <time>2022-02-02T10:32:50.506Z</time>
      </trkpt>
      <trkpt lat="48.87495" lon="2.31975">
        <ele>46</ele>
        <time>2022-02-02T10:32:54.501Z</time>
      </trkpt>
      <trkpt lat="48.87494" lon="2.31973">
        <ele>46</ele>
        <time>2022-02-02T10:32:58.547Z</time>
      </trkpt>
      <trkpt lat="48.87493" lon="2.31965">
        <ele>46</ele>
        <time>2022-02-02T10:33:03.500Z</time>
      </trkpt>
      <trkpt lat="48.87496" lon="2.31955">
        <ele>45</ele>
        <time>2022-02-02T10:33:08.500Z</time>
      </trkpt>
      <trkpt lat="48.87502" lon="2.31949">
        <ele>45</ele>
        <time>2022-02-02T10:33:12.526Z</time>
      </trkpt>
      <trkpt lat="48.87504" lon="2.31943">
        <ele>45</ele>
        <time>2022-02-02T10:33:17.501Z</time>
      </trkpt>
      <trkpt lat="48.87508" lon="2.31936">
        <ele>45</ele>
        <time>2022-02-02T10:33:22.528Z</time>
      </trkpt>
      <trkpt lat="48.87513" lon="2.31932">
        <ele>45</ele>
        <time>2022-02-02T10:33:31.497Z</time>
      </trkpt>
      <trkpt lat="48.87517" lon="2.31929">
        <ele>44</ele>
        <time>2022-02-02T10:33:36.528Z</time>
      </trkpt>
      <trkpt lat="48.87517" lon="2.31928">
        <ele>44</ele>
        <time>2022-02-02T10:33:41.500Z</time>
      </trkpt>
      <trkpt lat="48.87518" lon="2.31927">
        <ele>44</ele>
        <time>2022-02-02T10:33:46.535Z</time>
      </trkpt>
      <trkpt lat="48.87522" lon="2.31923">
        <ele>44</ele>
        <time>2022-02-02T10:33:51.501Z</time>
      </trkpt>
      <trkpt lat="48.87525" lon="2.31918">
        <ele>44</ele>
        <time>2022-02-02T10:33:56.490Z</time>
      </trkpt>
      <trkpt lat="48.8753" lon="2.31915">
        <ele>44</ele>
        <time>2022-02-02T10:34:00.498Z</time>
      </trkpt>
      <trkpt lat="48.87532" lon="2.31911">
        <ele>44</ele>
        <time>2022-02-02T10:34:05.505Z</time>
      </trkpt>
      <trkpt lat="48.87537" lon="2.31906">
        <ele>44</ele>
        <time>2022-02-02T10:34:10.499Z</time>
      </trkpt>
      <trkpt lat="48.87542" lon="2.319">
        <ele>43</ele>
        <time>2022-02-02T10:34:15.534Z</time>
      </trkpt>
      <trkpt lat="48.87546" lon="2.31893">
        <ele>43</ele>
        <time>2022-02-02T10:34:20.502Z</time>
      </trkpt>
      <trkpt lat="48.8755" lon="2.31887">
        <ele>43</ele>
        <time>2022-02-02T10:34:25.493Z</time>
      </trkpt>
      <trkpt lat="48.87555" lon="2.3188">
        <ele>43</ele>
        <time>2022-02-02T10:34:30.492Z</time>
      </trkpt>
      <trkpt lat="48.87554" lon="2.31872">
        <ele>45</ele>
        <time>2022-02-02T10:34:34.525Z</time>
      </trkpt>
      <trkpt lat="48.87553" lon="2.31864">
        <ele>45</ele>
        <time>2022-02-02T10:34:38.522Z</time>
      </trkpt>
      <trkpt lat="48.87551" lon="2.31857">
        <ele>45</ele>
        <time>2022-02-02T10:34:43.506Z</time>
      </trkpt>
      <trkpt lat="48.87548" lon="2.31849">
        <ele>45</ele>
        <time>2022-02-02T10:34:48.502Z</time>
      </trkpt>
      <trkpt lat="48.87549" lon="2.3184">
        <ele>48</ele>
        <time>2022-02-02T10:34:52.511Z</time>
      </trkpt>
      <trkpt lat="48.8755" lon="2.31832">
        <ele>48</ele>
        <time>2022-02-02T10:34:57.508Z</time>
      </trkpt>
      <trkpt lat="48.87552" lon="2.31823">
        <ele>48</ele>
        <time>2022-02-02T10:35:02.504Z</time>
      </trkpt>
      <trkpt lat="48.87553" lon="2.31814">
        <ele>51</ele>
        <time>2022-02-02T10:35:07.504Z</time>
      </trkpt>
      <trkpt lat="48.87554" lon="2.31804">
        <ele>51</ele>
        <time>2022-02-02T10:35:12.505Z</time>
      </trkpt>
      <trkpt lat="48.87554" lon="2.31795">
        <ele>51</ele>
        <time>2022-02-02T10:35:16.503Z</time>
      </trkpt>
      <trkpt lat="48.87554" lon="2.31788">
        <ele>51</ele>
        <time>2022-02-02T10:35:21.505Z</time>
      </trkpt>
      <trkpt lat="48.87552" lon="2.3178">
        <ele>51</ele>
        <time>2022-02-02T10:35:26.540Z</time>
      </trkpt>
      <trkpt lat="48.87551" lon="2.31772">
        <ele>51</ele>
        <time>2022-02-02T10:35:31.507Z</time>
      </trkpt>
      <trkpt lat="48.87549" lon="2.31764">
        <ele>50</ele>
        <time>2022-02-02T10:35:36.503Z</time>
      </trkpt>
      <trkpt lat="48.87549" lon="2.31755">
        <ele>50</ele>
        <time>2022-02-02T10:35:40.509Z</time>
      </trkpt>
      <trkpt lat="48.8755" lon="2.31747">
        <ele>50</ele>
        <time>2022-02-02T10:35:45.508Z</time>
      </trkpt>
      <trkpt lat="48.87548" lon="2.31739">
        <ele>50</ele>
        <time>2022-02-02T10:35:50.511Z</time>
      </trkpt>
      <trkpt lat="48.87547" lon="2.31737">
        <ele>50</ele>
        <time>2022-02-02T10:35:55.514Z</time>
      </trkpt>
      <trkpt lat="48.87547" lon="2.31737">
        <ele>50</ele>
        <time>2022-02-02T10:36:00.506Z</time>
      </trkpt>
      <trkpt lat="48.87547" lon="2.31731">
        <ele>49</ele>
        <time>2022-02-02T10:36:05.507Z</time>
      </trkpt>
      <trkpt lat="48.87547" lon="2.31721">
        <ele>49</ele>
        <time>2022-02-02T10:36:09.504Z</time>
      </trkpt>
      <trkpt lat="48.87546" lon="2.31715">
        <ele>49</ele>
        <time>2022-02-02T10:36:14.515Z</time>
      </trkpt>
      <trkpt lat="48.87544" lon="2.31707">
        <ele>48</ele>
        <time>2022-02-02T10:36:19.508Z</time>
      </trkpt>
      <trkpt lat="48.87543" lon="2.31698">
        <ele>48</ele>
        <time>2022-02-02T10:36:24.512Z</time>
      </trkpt>
      <trkpt lat="48.87543" lon="2.31689">
        <ele>48</ele>
        <time>2022-02-02T10:36:28.530Z</time>
      </trkpt>
      <trkpt lat="48.87543" lon="2.31682">
        <ele>48</ele>
        <time>2022-02-02T10:36:33.499Z</time>
      </trkpt>
      <trkpt lat="48.87544" lon="2.31673">
        <ele>47</ele>
        <time>2022-02-02T10:36:38.502Z</time>
      </trkpt>
      <trkpt lat="48.87547" lon="2.31663">
        <ele>47</ele>
        <time>2022-02-02T10:36:43.513Z</time>
      </trkpt>
      <trkpt lat="48.8755" lon="2.31653">
        <ele>47</ele>
        <time>2022-02-02T10:36:48.524Z</time>
      </trkpt>
      <trkpt lat="48.87545" lon="2.31644">
        <ele>47</ele>
        <time>2022-02-02T10:36:53.510Z</time>
      </trkpt>
      <trkpt lat="48.87546" lon="2.31635">
        <ele>47</ele>
        <time>2022-02-02T10:36:58.503Z</time>
      </trkpt>
      <trkpt lat="48.87546" lon="2.31627">
        <ele>47</ele>
        <time>2022-02-02T10:37:03.502Z</time>
      </trkpt>
      <trkpt lat="48.87546" lon="2.31617">
        <ele>48</ele>
        <time>2022-02-02T10:37:08.492Z</time>
      </trkpt>
      <trkpt lat="48.87546" lon="2.31608">
        <ele>48</ele>
        <time>2022-02-02T10:37:12.523Z</time>
      </trkpt>
      <trkpt lat="48.87546" lon="2.316">
        <ele>48</ele>
        <time>2022-02-02T10:37:17.503Z</time>
      </trkpt>
      <trkpt lat="48.87545" lon="2.31591">
        <ele>48</ele>
        <time>2022-02-02T10:37:22.495Z</time>
      </trkpt>
      <trkpt lat="48.87546" lon="2.31583">
        <ele>48</ele>
        <time>2022-02-02T10:37:26.501Z</time>
      </trkpt>
      <trkpt lat="48.87547" lon="2.31577">
        <ele>48</ele>
        <time>2022-02-02T10:37:31.544Z</time>
      </trkpt>
      <trkpt lat="48.87549" lon="2.31569">
        <ele>49</ele>
        <time>2022-02-02T10:37:36.496Z</time>
      </trkpt>
      <trkpt lat="48.87549" lon="2.3156">
        <ele>49</ele>
        <time>2022-02-02T10:37:41.525Z</time>
      </trkpt>
      <trkpt lat="48.87551" lon="2.31552">
        <ele>49</ele>
        <time>2022-02-02T10:37:46.501Z</time>
      </trkpt>
      <trkpt lat="48.87553" lon="2.31543">
        <ele>49</ele>
        <time>2022-02-02T10:37:51.502Z</time>
      </trkpt>
      <trkpt lat="48.87555" lon="2.31534">
        <ele>50</ele>
        <time>2022-02-02T10:37:55.508Z</time>
      </trkpt>
      <trkpt lat="48.87556" lon="2.31526">
        <ele>50</ele>
        <time>2022-02-02T10:38:00.498Z</time>
      </trkpt>
      <trkpt lat="48.87559" lon="2.31518">
        <ele>50</ele>
        <time>2022-02-02T10:38:05.529Z</time>
      </trkpt>
      <trkpt lat="48.87562" lon="2.31508">
        <ele>50</ele>
        <time>2022-02-02T10:38:10.495Z</time>
      </trkpt>
      <trkpt lat="48.87565" lon="2.31498">
        <ele>50</ele>
        <time>2022-02-02T10:38:14.499Z</time>
      </trkpt>
      <trkpt lat="48.87567" lon="2.3149">
        <ele>50</ele>
        <time>2022-02-02T10:38:18.524Z</time>
      </trkpt>
      <trkpt lat="48.87569" lon="2.31483">
        <ele>52</ele>
        <time>2022-02-02T10:38:23.500Z</time>
      </trkpt>
      <trkpt lat="48.87571" lon="2.31473">
        <ele>53</ele>
        <time>2022-02-02T10:38:27.505Z</time>
      </trkpt>
      <trkpt lat="48.87574" lon="2.31466">
        <ele>53</ele>
        <time>2022-02-02T10:38:32.507Z</time>
      </trkpt>
      <trkpt lat="48.87578" lon="2.3146">
        <ele>53</ele>
        <time>2022-02-02T10:38:37.493Z</time>
      </trkpt>
      <trkpt lat="48.87581" lon="2.31452">
        <ele>54</ele>
        <time>2022-02-02T10:38:41.500Z</time>
      </trkpt>
      <trkpt lat="48.87584" lon="2.31445">
        <ele>54</ele>
        <time>2022-02-02T10:38:45.523Z</time>
      </trkpt>
      <trkpt lat="48.87586" lon="2.31439">
        <ele>54</ele>
        <time>2022-02-02T10:38:50.496Z</time>
      </trkpt>
      <trkpt lat="48.87589" lon="2.31431">
        <ele>54</ele>
        <time>2022-02-02T10:38:54.498Z</time>
      </trkpt>
      <trkpt lat="48.87592" lon="2.31424">
        <ele>55</ele>
        <time>2022-02-02T10:38:59.509Z</time>
      </trkpt>
      <trkpt lat="48.87595" lon="2.31417">
        <ele>55</ele>
        <time>2022-02-02T10:39:03.532Z</time>
      </trkpt>
      <trkpt lat="48.87597" lon="2.3141">
        <ele>55</ele>
        <time>2022-02-02T10:39:08.498Z</time>
      </trkpt>
      <trkpt lat="48.876" lon="2.31402">
        <ele>53</ele>
        <time>2022-02-02T10:39:13.507Z</time>
      </trkpt>
      <trkpt lat="48.87602" lon="2.31395">
        <ele>53</ele>
        <time>2022-02-02T10:39:18.501Z</time>
      </trkpt>
      <trkpt lat="48.876" lon="2.31386">
        <ele>53</ele>
        <time>2022-02-02T10:39:22.501Z</time>
      </trkpt>
      <trkpt lat="48.876" lon="2.3138">
        <ele>53</ele>
        <time>2022-02-02T10:39:27.508Z</time>
      </trkpt>
      <trkpt lat="48.87607" lon="2.31379">
        <ele>53</ele>
        <time>2022-02-02T10:39:32.508Z</time>
      </trkpt>
      <trkpt lat="48.87611" lon="2.31375">
        <ele>52</ele>
        <time>2022-02-02T10:39:37.506Z</time>
      </trkpt>
      <trkpt lat="48.87614" lon="2.31367">
        <ele>52</ele>
        <time>2022-02-02T10:39:42.509Z</time>
      </trkpt>
      <trkpt lat="48.87618" lon="2.31359">
        <ele>52</ele>
        <time>2022-02-02T10:39:47.496Z</time>
      </trkpt>
      <trkpt lat="48.87621" lon="2.31352">
        <ele>52</ele>
        <time>2022-02-02T10:39:51.501Z</time>
      </trkpt>
      <trkpt lat="48.87624" lon="2.31344">
        <ele>51</ele>
        <time>2022-02-02T10:39:56.502Z</time>
      </trkpt>
      <trkpt lat="48.87627" lon="2.31336">
        <ele>52</ele>
        <time>2022-02-02T10:40:00.508Z</time>
      </trkpt>
      <trkpt lat="48.87631" lon="2.31329">
        <ele>52</ele>
        <time>2022-02-02T10:40:05.506Z</time>
      </trkpt>
      <trkpt lat="48.87634" lon="2.3132">
        <ele>52</ele>
        <time>2022-02-02T10:40:10.508Z</time>
      </trkpt>
      <trkpt lat="48.87638" lon="2.31312">
        <ele>53</ele>
        <time>2022-02-02T10:40:15.510Z</time>
      </trkpt>
      <trkpt lat="48.8764" lon="2.31302">
        <ele>53</ele>
        <time>2022-02-02T10:40:20.501Z</time>
      </trkpt>
      <trkpt lat="48.87637" lon="2.31295">
        <ele>53</ele>
        <time>2022-02-02T10:40:24.505Z</time>
      </trkpt>
      <trkpt lat="48.87633" lon="2.31291">
        <ele>54</ele>
        <time>2022-02-02T10:40:29.503Z</time>
      </trkpt>
      <trkpt lat="48.8763" lon="2.3129">
        <ele>54</ele>
        <time>2022-02-02T10:40:33.509Z</time>
      </trkpt>
      <trkpt lat="48.87629" lon="2.31283">
        <ele>54</ele>
        <time>2022-02-02T10:40:38.504Z</time>
      </trkpt>
      <trkpt lat="48.87633" lon="2.31277">
        <ele>54</ele>
        <time>2022-02-02T10:40:43.494Z</time>
      </trkpt>
      <trkpt lat="48.87636" lon="2.31269">
        <ele>54</ele>
        <time>2022-02-02T10:40:47.496Z</time>
      </trkpt>
      <trkpt lat="48.87638" lon="2.31264">
        <ele>54</ele>
        <time>2022-02-02T10:40:51.499Z</time>
      </trkpt>
      <trkpt lat="48.87642" lon="2.31258">
        <ele>54</ele>
        <time>2022-02-02T10:40:56.558Z</time>
      </trkpt>
      <trkpt lat="48.87644" lon="2.3125">
        <ele>54</ele>
        <time>2022-02-02T10:41:01.506Z</time>
      </trkpt>
      <trkpt lat="48.87644" lon="2.3124">
        <ele>54</ele>
        <time>2022-02-02T10:41:05.508Z</time>
      </trkpt>
      <trkpt lat="48.87645" lon="2.31233">
        <ele>55</ele>
        <time>2022-02-02T10:41:10.497Z</time>
      </trkpt>
      <trkpt lat="48.87644" lon="2.31223">
        <ele>55</ele>
        <time>2022-02-02T10:41:14.523Z</time>
      </trkpt>
      <trkpt lat="48.87644" lon="2.31217">
        <ele>55</ele>
        <time>2022-02-02T10:41:18.531Z</time>
      </trkpt>
      <trkpt lat="48.87644" lon="2.3121">
        <ele>55</ele>
        <time>2022-02-02T10:41:22.528Z</time>
      </trkpt>
      <trkpt lat="48.87642" lon="2.31204">
        <ele>56</ele>
        <time>2022-02-02T10:41:27.497Z</time>
      </trkpt>
      <trkpt lat="48.87643" lon="2.31196">
        <ele>56</ele>
        <time>2022-02-02T10:41:31.500Z</time>
      </trkpt>
      <trkpt lat="48.87645" lon="2.31189">
        <ele>56</ele>
        <time>2022-02-02T10:41:36.499Z</time>
      </trkpt>
      <trkpt lat="48.87645" lon="2.31181">
        <ele>56</ele>
        <time>2022-02-02T10:41:40.503Z</time>
      </trkpt>
      <trkpt lat="48.87646" lon="2.31174">
        <ele>58</ele>
        <time>2022-02-02T10:41:45.503Z</time>
      </trkpt>
      <trkpt lat="48.87648" lon="2.31164">
        <ele>58</ele>
        <time>2022-02-02T10:41:50.502Z</time>
      </trkpt>
      <trkpt lat="48.87647" lon="2.31155">
        <ele>58</ele>
        <time>2022-02-02T10:41:55.501Z</time>
      </trkpt>
      <trkpt lat="48.87648" lon="2.31145">
        <ele>59</ele>
        <time>2022-02-02T10:42:00.502Z</time>
      </trkpt>
      <trkpt lat="48.87648" lon="2.31133">
        <ele>59</ele>
        <time>2022-02-02T10:42:04.503Z</time>
      </trkpt>
      <trkpt lat="48.87644" lon="2.31126">
        <ele>59</ele>
        <time>2022-02-02T10:42:08.522Z</time>
      </trkpt>
      <trkpt lat="48.87641" lon="2.31119">
        <ele>60</ele>
        <time>2022-02-02T10:42:13.497Z</time>
      </trkpt>
      <trkpt lat="48.87637" lon="2.31109">
        <ele>60</ele>
        <time>2022-02-02T10:42:18.507Z</time>
      </trkpt>
      <trkpt lat="48.87631" lon="2.31102">
        <ele>60</ele>
        <time>2022-02-02T10:42:23.511Z</time>
      </trkpt>
      <trkpt lat="48.87626" lon="2.31095">
        <ele>60</ele>
        <time>2022-02-02T10:42:28.506Z</time>
      </trkpt>
      <trkpt lat="48.87622" lon="2.31086">
        <ele>56</ele>
        <time>2022-02-02T10:42:32.502Z</time>
      </trkpt>
      <trkpt lat="48.8762" lon="2.31079">
        <ele>56</ele>
        <time>2022-02-02T10:42:37.505Z</time>
      </trkpt>
      <trkpt lat="48.87616" lon="2.31069">
        <ele>57</ele>
        <time>2022-02-02T10:42:41.505Z</time>
      </trkpt>
      <trkpt lat="48.87614" lon="2.31062">
        <ele>57</ele>
        <time>2022-02-02T10:42:45.508Z</time>
      </trkpt>
      <trkpt lat="48.87611" lon="2.31055">
        <ele>57</ele>
        <time>2022-02-02T10:42:50.495Z</time>
      </trkpt>
      <trkpt lat="48.87608" lon="2.31047">
        <ele>57</ele>
        <time>2022-02-02T10:42:54.531Z</time>
      </trkpt>
      <trkpt lat="48.87607" lon="2.31038">
        <ele>56</ele>
        <time>2022-02-02T10:42:59.507Z</time>
      </trkpt>
      <trkpt lat="48.87605" lon="2.31027">
        <ele>56</ele>
        <time>2022-02-02T10:43:03.504Z</time>
      </trkpt>
      <trkpt lat="48.87603" lon="2.31019">
        <ele>56</ele>
        <time>2022-02-02T10:43:08.528Z</time>
      </trkpt>
      <trkpt lat="48.87602" lon="2.3101">
        <ele>52</ele>
        <time>2022-02-02T10:43:12.538Z</time>
      </trkpt>
      <trkpt lat="48.87601" lon="2.31002">
        <ele>52</ele>
        <time>2022-02-02T10:43:17.505Z</time>
      </trkpt>
      <trkpt lat="48.87598" lon="2.30993">
        <ele>52</ele>
        <time>2022-02-02T10:43:22.503Z</time>
      </trkpt>
      <trkpt lat="48.87595" lon="2.30983">
        <ele>55</ele>
        <time>2022-02-02T10:43:27.498Z</time>
      </trkpt>
      <trkpt lat="48.87591" lon="2.30973">
        <ele>55</ele>
        <time>2022-02-02T10:43:31.504Z</time>
      </trkpt>
      <trkpt lat="48.87586" lon="2.30967">
        <ele>55</ele>
        <time>2022-02-02T10:43:36.534Z</time>
      </trkpt>
      <trkpt lat="48.8758" lon="2.30962">
        <ele>55</ele>
        <time>2022-02-02T10:43:41.511Z</time>
      </trkpt>
      <trkpt lat="48.87577" lon="2.30956">
        <ele>58</ele>
        <time>2022-02-02T10:43:45.528Z</time>
      </trkpt>
      <trkpt lat="48.87573" lon="2.30951">
        <ele>58</ele>
        <time>2022-02-02T10:43:50.490Z</time>
      </trkpt>
      <trkpt lat="48.87569" lon="2.30944">
        <ele>61</ele>
        <time>2022-02-02T10:43:54.543Z</time>
      </trkpt>
      <trkpt lat="48.87566" lon="2.3094">
        <ele>61</ele>
        <time>2022-02-02T10:43:59.502Z</time>
      </trkpt>
      <trkpt lat="48.87563" lon="2.30932">
        <ele>61</ele>
        <time>2022-02-02T10:44:03.528Z</time>
      </trkpt>
      <trkpt lat="48.87562" lon="2.30925">
        <ele>61</ele>
        <time>2022-02-02T10:44:08.502Z</time>
      </trkpt>
      <trkpt lat="48.8756" lon="2.30916">
        <ele>61</ele>
        <time>2022-02-02T10:44:13.501Z</time>
      </trkpt>
      <trkpt lat="48.87558" lon="2.30908">
        <ele>61</ele>
        <time>2022-02-02T10:44:17.503Z</time>
      </trkpt>
      <trkpt lat="48.87555" lon="2.30902">
        <ele>61</ele>
        <time>2022-02-02T10:44:22.528Z</time>
      </trkpt>
      <trkpt lat="48.87553" lon="2.30894">
        <ele>61</ele>
        <time>2022-02-02T10:44:27.516Z</time>
      </trkpt>
      <trkpt lat="48.87549" lon="2.30887">
        <ele>61</ele>
        <time>2022-02-02T10:44:32.495Z</time>
      </trkpt>
      <trkpt lat="48.87547" lon="2.30884">
        <ele>61</ele>
        <time>2022-02-02T10:44:36.534Z</time>
      </trkpt>
      <trkpt lat="48.87541" lon="2.30887">
        <ele>57</ele>
        <time>2022-02-02T10:44:41.531Z</time>
      </trkpt>
      <trkpt lat="48.87534" lon="2.30891">
        <ele>57</ele>
        <time>2022-02-02T10:44:46.498Z</time>
      </trkpt>
      <trkpt lat="48.87529" lon="2.30898">
        <ele>57</ele>
        <time>2022-02-02T10:44:51.505Z</time>
      </trkpt>
      <trkpt lat="48.87524" lon="2.30904">
        <ele>59</ele>
        <time>2022-02-02T10:44:55.529Z</time>
      </trkpt>
      <trkpt lat="48.87521" lon="2.30908">
        <ele>59</ele>
        <time>2022-02-02T10:45:00.495Z</time>
      </trkpt>
      <trkpt lat="48.87518" lon="2.30903">
        <ele>59</ele>
        <time>2022-02-02T10:45:04.502Z</time>
      </trkpt>
      <trkpt lat="48.87518" lon="2.30897">
        <ele>57</ele>
        <time>2022-02-02T10:45:09.497Z</time>
      </trkpt>
      <trkpt lat="48.87517" lon="2.3089">
        <ele>57</ele>
        <time>2022-02-02T10:45:14.495Z</time>
      </trkpt>
      <trkpt lat="48.87516" lon="2.30882">
        <ele>57</ele>
        <time>2022-02-02T10:45:19.500Z</time>
      </trkpt>
      <trkpt lat="48.87517" lon="2.30874">
        <ele>55</ele>
        <time>2022-02-02T10:45:23.506Z</time>
      </trkpt>
      <trkpt lat="48.87517" lon="2.30868">
        <ele>55</ele>
        <time>2022-02-02T10:45:28.500Z</time>
      </trkpt>
      <trkpt lat="48.87518" lon="2.30859">
        <ele>55</ele>
        <time>2022-02-02T10:45:33.497Z</time>
      </trkpt>
      <trkpt lat="48.87518" lon="2.30851">
        <ele>55</ele>
        <time>2022-02-02T10:45:38.528Z</time>
      </trkpt>
      <trkpt lat="48.87519" lon="2.30851">
        <ele>55</ele>
        <time>2022-02-02T10:45:43.514Z</time>
      </trkpt>
      <trkpt lat="48.87518" lon="2.30851">
        <ele>55</ele>
        <time>2022-02-02T10:45:48.504Z</time>
      </trkpt>
      <trkpt lat="48.87519" lon="2.30842">
        <ele>53</ele>
        <time>2022-02-02T10:45:53.511Z</time>
      </trkpt>
      <trkpt lat="48.87519" lon="2.30833">
        <ele>53</ele>
        <time>2022-02-02T10:45:58.500Z</time>
      </trkpt>
      <trkpt lat="48.87519" lon="2.30824">
        <ele>53</ele>
        <time>2022-02-02T10:46:02.510Z</time>
      </trkpt>
      <trkpt lat="48.87519" lon="2.30817">
        <ele>52</ele>
        <time>2022-02-02T10:46:07.507Z</time>
      </trkpt>
      <trkpt lat="48.87518" lon="2.30809">
        <ele>52</ele>
        <time>2022-02-02T10:46:12.503Z</time>
      </trkpt>
      <trkpt lat="48.87518" lon="2.308">
        <ele>52</ele>
        <time>2022-02-02T10:46:16.503Z</time>
      </trkpt>
      <trkpt lat="48.87519" lon="2.30793">
        <ele>52</ele>
        <time>2022-02-02T10:46:21.506Z</time>
      </trkpt>
      <trkpt lat="48.8752" lon="2.30784">
        <ele>52</ele>
        <time>2022-02-02T10:46:25.509Z</time>
      </trkpt>
      <trkpt lat="48.8752" lon="2.30777">
        <ele>52</ele>
        <time>2022-02-02T10:46:29.541Z</time>
      </trkpt>
      <trkpt lat="48.87519" lon="2.3077">
        <ele>52</ele>
        <time>2022-02-02T10:46:34.504Z</time>
      </trkpt>
      <trkpt lat="48.8752" lon="2.30761">
        <ele>55</ele>
        <time>2022-02-02T10:46:38.528Z</time>
      </trkpt>
      <trkpt lat="48.8752" lon="2.30754">
        <ele>55</ele>
        <time>2022-02-02T10:46:43.501Z</time>
      </trkpt>
      <trkpt lat="48.8752" lon="2.30745">
        <ele>55</ele>
        <time>2022-02-02T10:46:47.504Z</time>
      </trkpt>
      <trkpt lat="48.87521" lon="2.30737">
        <ele>55</ele>
        <time>2022-02-02T10:46:52.506Z</time>
      </trkpt>
      <trkpt lat="48.87521" lon="2.30728">
        <ele>57</ele>
        <time>2022-02-02T10:46:56.541Z</time>
      </trkpt>
      <trkpt lat="48.87521" lon="2.3072">
        <ele>57</ele>
        <time>2022-02-02T10:47:01.499Z</time>
      </trkpt>
      <trkpt lat="48.8752" lon="2.30711">
        <ele>57</ele>
        <time>2022-02-02T10:47:05.503Z</time>
      </trkpt>
      <trkpt lat="48.87519" lon="2.30704">
        <ele>56</ele>
        <time>2022-02-02T10:47:10.542Z</time>
      </trkpt>
      <trkpt lat="48.87517" lon="2.30695">
        <ele>56</ele>
        <time>2022-02-02T10:47:15.542Z</time>
      </trkpt>
      <trkpt lat="48.87517" lon="2.30686">
        <ele>56</ele>
        <time>2022-02-02T10:47:20.503Z</time>
      </trkpt>
      <trkpt lat="48.87517" lon="2.30677">
        <ele>54</ele>
        <time>2022-02-02T10:47:24.550Z</time>
      </trkpt>
      <trkpt lat="48.87517" lon="2.30669">
        <ele>54</ele>
        <time>2022-02-02T10:47:29.503Z</time>
      </trkpt>
      <trkpt lat="48.87515" lon="2.30659">
        <ele>54</ele>
        <time>2022-02-02T10:47:34.494Z</time>
      </trkpt>
      <trkpt lat="48.87514" lon="2.30648">
        <ele>52</ele>
        <time>2022-02-02T10:47:38.512Z</time>
      </trkpt>
      <trkpt lat="48.87514" lon="2.3064">
        <ele>52</ele>
        <time>2022-02-02T10:47:43.524Z</time>
      </trkpt>
      <trkpt lat="48.87512" lon="2.30631">
        <ele>52</ele>
        <time>2022-02-02T10:47:48.506Z</time>
      </trkpt>
      <trkpt lat="48.87513" lon="2.30623">
        <ele>52</ele>
        <time>2022-02-02T10:47:52.506Z</time>
      </trkpt>
      <trkpt lat="48.87516" lon="2.30616">
        <ele>52</ele>
        <time>2022-02-02T10:47:57.499Z</time>
      </trkpt>
      <trkpt lat="48.87519" lon="2.30607">
        <ele>52</ele>
        <time>2022-02-02T10:48:01.524Z</time>
      </trkpt>
      <trkpt lat="48.87518" lon="2.30599">
        <ele>52</ele>
        <time>2022-02-02T10:48:05.525Z</time>
      </trkpt>
      <trkpt lat="48.87516" lon="2.30591">
        <ele>52</ele>
        <time>2022-02-02T10:48:10.510Z</time>
      </trkpt>
      <trkpt lat="48.87514" lon="2.30583">
        <ele>54</ele>
        <time>2022-02-02T10:48:14.530Z</time>
      </trkpt>
      <trkpt lat="48.87513" lon="2.30576">
        <ele>54</ele>
        <time>2022-02-02T10:48:19.502Z</time>
      </trkpt>
      <trkpt lat="48.87514" lon="2.30567">
        <ele>53</ele>
        <time>2022-02-02T10:48:24.507Z</time>
      </trkpt>
      <trkpt lat="48.87514" lon="2.30556">
        <ele>52</ele>
        <time>2022-02-02T10:48:29.503Z</time>
      </trkpt>
      <trkpt lat="48.87514" lon="2.30547">
        <ele>53</ele>
        <time>2022-02-02T10:48:34.512Z</time>
      </trkpt>
      <trkpt lat="48.87513" lon="2.30537">
        <ele>52</ele>
        <time>2022-02-02T10:48:39.495Z</time>
      </trkpt>
      <trkpt lat="48.87512" lon="2.30528">
        <ele>52</ele>
        <time>2022-02-02T10:48:44.503Z</time>
      </trkpt>
      <trkpt lat="48.87509" lon="2.30519">
        <ele>52</ele>
        <time>2022-02-02T10:48:48.505Z</time>
      </trkpt>
      <trkpt lat="48.87508" lon="2.30511">
        <ele>52</ele>
        <time>2022-02-02T10:48:52.503Z</time>
      </trkpt>
      <trkpt lat="48.87507" lon="2.30504">
        <ele>52</ele>
        <time>2022-02-02T10:48:57.498Z</time>
      </trkpt>
      <trkpt lat="48.87507" lon="2.30495">
        <ele>52</ele>
        <time>2022-02-02T10:49:02.526Z</time>
      </trkpt>
      <trkpt lat="48.87507" lon="2.30485">
        <ele>52</ele>
        <time>2022-02-02T10:49:07.501Z</time>
      </trkpt>
      <trkpt lat="48.87506" lon="2.30475">
        <ele>52</ele>
        <time>2022-02-02T10:49:12.502Z</time>
      </trkpt>
      <trkpt lat="48.87507" lon="2.30465">
        <ele>52</ele>
        <time>2022-02-02T10:49:16.532Z</time>
      </trkpt>
      <trkpt lat="48.87507" lon="2.30457">
        <ele>52</ele>
        <time>2022-02-02T10:49:21.621Z</time>
      </trkpt>
      <trkpt lat="48.87503" lon="2.30449">
        <ele>52</ele>
        <time>2022-02-02T10:49:26.494Z</time>
      </trkpt>
      <trkpt lat="48.87501" lon="2.30439">
        <ele>52</ele>
        <time>2022-02-02T10:49:30.524Z</time>
      </trkpt>
      <trkpt lat="48.875" lon="2.30431">
        <ele>52</ele>
        <time>2022-02-02T10:49:35.505Z</time>
      </trkpt>
      <trkpt lat="48.87498" lon="2.30422">
        <ele>54</ele>
        <time>2022-02-02T10:49:39.534Z</time>
      </trkpt>
      <trkpt lat="48.87497" lon="2.30416">
        <ele>54</ele>
        <time>2022-02-02T10:49:44.525Z</time>
      </trkpt>
      <trkpt lat="48.87497" lon="2.30407">
        <ele>54</ele>
        <time>2022-02-02T10:49:49.496Z</time>
      </trkpt>
      <trkpt lat="48.87499" lon="2.30397">
        <ele>54</ele>
        <time>2022-02-02T10:49:53.503Z</time>
      </trkpt>
      <trkpt lat="48.875" lon="2.3039">
        <ele>54</ele>
        <time>2022-02-02T10:49:57.507Z</time>
      </trkpt>
      <trkpt lat="48.87501" lon="2.30383">
        <ele>54</ele>
        <time>2022-02-02T10:50:02.498Z</time>
      </trkpt>
      <trkpt lat="48.87503" lon="2.30374">
        <ele>53</ele>
        <time>2022-02-02T10:50:07.509Z</time>
      </trkpt>
      <trkpt lat="48.87504" lon="2.30366">
        <ele>53</ele>
        <time>2022-02-02T10:50:12.503Z</time>
      </trkpt>
      <trkpt lat="48.87506" lon="2.30357">
        <ele>53</ele>
        <time>2022-02-02T10:50:17.510Z</time>
      </trkpt>
      <trkpt lat="48.87506" lon="2.30349">
        <ele>53</ele>
        <time>2022-02-02T10:50:22.533Z</time>
      </trkpt>
      <trkpt lat="48.87506" lon="2.30341">
        <ele>53</ele>
        <time>2022-02-02T10:50:27.496Z</time>
      </trkpt>
      <trkpt lat="48.87505" lon="2.30334">
        <ele>53</ele>
        <time>2022-02-02T10:50:31.505Z</time>
      </trkpt>
      <trkpt lat="48.87503" lon="2.30325">
        <ele>53</ele>
        <time>2022-02-02T10:50:36.506Z</time>
      </trkpt>
      <trkpt lat="48.87498" lon="2.30314">
        <ele>53</ele>
        <time>2022-02-02T10:50:41.502Z</time>
      </trkpt>
      <trkpt lat="48.87495" lon="2.30304">
        <ele>53</ele>
        <time>2022-02-02T10:50:45.537Z</time>
      </trkpt>
      <trkpt lat="48.87493" lon="2.30298">
        <ele>53</ele>
        <time>2022-02-02T10:50:50.507Z</time>
      </trkpt>
      <trkpt lat="48.87491" lon="2.3029">
        <ele>54</ele>
        <time>2022-02-02T10:50:55.507Z</time>
      </trkpt>
      <trkpt lat="48.8749" lon="2.30281">
        <ele>54</ele>
        <time>2022-02-02T10:51:00.505Z</time>
      </trkpt>
      <trkpt lat="48.87488" lon="2.30271">
        <ele>54</ele>
        <time>2022-02-02T10:51:04.505Z</time>
      </trkpt>
      <trkpt lat="48.87487" lon="2.30264">
        <ele>54</ele>
        <time>2022-02-02T10:51:09.531Z</time>
      </trkpt>
      <trkpt lat="48.87486" lon="2.30255">
        <ele>53</ele>
        <time>2022-02-02T10:51:14.506Z</time>
      </trkpt>
      <trkpt lat="48.87487" lon="2.30245">
        <ele>58</ele>
        <time>2022-02-02T10:51:18.506Z</time>
      </trkpt>
      <trkpt lat="48.87487" lon="2.30237">
        <ele>58</ele>
        <time>2022-02-02T10:51:22.510Z</time>
      </trkpt>
      <trkpt lat="48.87488" lon="2.30229">
        <ele>62</ele>
        <time>2022-02-02T10:51:27.640Z</time>
      </trkpt>
      <trkpt lat="48.87488" lon="2.30218">
        <ele>62</ele>
        <time>2022-02-02T10:51:32.501Z</time>
      </trkpt>
      <trkpt lat="48.8749" lon="2.3021">
        <ele>62</ele>
        <time>2022-02-02T10:51:37.502Z</time>
      </trkpt>
      <trkpt lat="48.87489" lon="2.30205">
        <ele>66</ele>
        <time>2022-02-02T10:51:41.505Z</time>
      </trkpt>
      <trkpt lat="48.87492" lon="2.30199">
        <ele>66</ele>
        <time>2022-02-02T10:51:46.524Z</time>
      </trkpt>
      <trkpt lat="48.87496" lon="2.30196">
        <ele>66</ele>
        <time>2022-02-02T10:52:24.506Z</time>
      </trkpt>
      <trkpt lat="48.87496" lon="2.30196">
        <ele>66</ele>
        <time>2022-02-02T10:52:28.514Z</time>
      </trkpt>
      <trkpt lat="48.87496" lon="2.30191">
        <ele>66</ele>
        <time>2022-02-02T10:52:32.501Z</time>
      </trkpt>
      <trkpt lat="48.87496" lon="2.30185">
        <ele>66</ele>
        <time>2022-02-02T10:52:37.530Z</time>
      </trkpt>
      <trkpt lat="48.87494" lon="2.30174">
        <ele>68</ele>
        <time>2022-02-02T10:52:42.510Z</time>
      </trkpt>
      <trkpt lat="48.87495" lon="2.30164">
        <ele>68</ele>
        <time>2022-02-02T10:52:46.505Z</time>
      </trkpt>
      <trkpt lat="48.87497" lon="2.30157">
        <ele>68</ele>
        <time>2022-02-02T10:52:51.510Z</time>
      </trkpt>
      <trkpt lat="48.87499" lon="2.3015">
        <ele>68</ele>
        <time>2022-02-02T10:52:56.511Z</time>
      </trkpt>
      <trkpt lat="48.87496" lon="2.30144">
        <ele>68</ele>
        <time>2022-02-02T10:53:00.513Z</time>
      </trkpt>
      <trkpt lat="48.87496" lon="2.30138">
        <ele>68</ele>
        <time>2022-02-02T10:53:05.506Z</time>
      </trkpt>
      <trkpt lat="48.87496" lon="2.30129">
        <ele>68</ele>
        <time>2022-02-02T10:53:09.516Z</time>
      </trkpt>
      <trkpt lat="48.87498" lon="2.30123">
        <ele>70</ele>
        <time>2022-02-02T10:53:13.508Z</time>
      </trkpt>
      <trkpt lat="48.87499" lon="2.30116">
        <ele>70</ele>
        <time>2022-02-02T10:53:18.636Z</time>
      </trkpt>
      <trkpt lat="48.875" lon="2.30108">
        <ele>70</ele>
        <time>2022-02-02T10:53:23.514Z</time>
      </trkpt>
      <trkpt lat="48.87503" lon="2.301">
        <ele>70</ele>
        <time>2022-02-02T10:53:28.495Z</time>
      </trkpt>
      <trkpt lat="48.87505" lon="2.30091">
        <ele>70</ele>
        <time>2022-02-02T10:53:32.505Z</time>
      </trkpt>
      <trkpt lat="48.87507" lon="2.30083">
        <ele>70</ele>
        <time>2022-02-02T10:53:37.507Z</time>
      </trkpt>
      <trkpt lat="48.87509" lon="2.30075">
        <ele>70</ele>
        <time>2022-02-02T10:53:42.501Z</time>
      </trkpt>
      <trkpt lat="48.87511" lon="2.30066">
        <ele>70</ele>
        <time>2022-02-02T10:53:47.504Z</time>
      </trkpt>
      <trkpt lat="48.87513" lon="2.30058">
        <ele>70</ele>
        <time>2022-02-02T10:53:52.506Z</time>
      </trkpt>
      <trkpt lat="48.87516" lon="2.30051">
        <ele>71</ele>
        <time>2022-02-02T10:53:56.507Z</time>
      </trkpt>
      <trkpt lat="48.87517" lon="2.30045">
        <ele>71</ele>
        <time>2022-02-02T10:54:01.516Z</time>
      </trkpt>
      <trkpt lat="48.8752" lon="2.30037">
        <ele>73</ele>
        <time>2022-02-02T10:54:05.508Z</time>
      </trkpt>
      <trkpt lat="48.87522" lon="2.3003">
        <ele>73</ele>
        <time>2022-02-02T10:54:10.513Z</time>
      </trkpt>
      <trkpt lat="48.87524" lon="2.30021">
        <ele>73</ele>
        <time>2022-02-02T10:54:15.506Z</time>
      </trkpt>
      <trkpt lat="48.87524" lon="2.30012">
        <ele>73</ele>
        <time>2022-02-02T10:54:20.508Z</time>
      </trkpt>
      <trkpt lat="48.87525" lon="2.30003">
        <ele>73</ele>
        <time>2022-02-02T10:54:25.510Z</time>
      </trkpt>
      <trkpt lat="48.87525" lon="2.29993">
        <ele>73</ele>
        <time>2022-02-02T10:54:30.500Z</time>
      </trkpt>
      <trkpt lat="48.87526" lon="2.29984">
        <ele>71</ele>
        <time>2022-02-02T10:54:34.499Z</time>
      </trkpt>
      <trkpt lat="48.87527" lon="2.29976">
        <ele>71</ele>
        <time>2022-02-02T10:54:39.506Z</time>
      </trkpt>
      <trkpt lat="48.87528" lon="2.29965">
        <ele>71</ele>
        <time>2022-02-02T10:54:43.507Z</time>
      </trkpt>
      <trkpt lat="48.87528" lon="2.29956">
        <ele>69</ele>
        <time>2022-02-02T10:54:48.508Z</time>
      </trkpt>
      <trkpt lat="48.87527" lon="2.29944">
        <ele>69</ele>
        <time>2022-02-02T10:54:52.511Z</time>
      </trkpt>
      <trkpt lat="48.87526" lon="2.29933">
        <ele>69</ele>
        <time>2022-02-02T10:54:57.504Z</time>
      </trkpt>
      <trkpt lat="48.87527" lon="2.29921">
        <ele>68</ele>
        <time>2022-02-02T10:55:02.504Z</time>
      </trkpt>
      <trkpt lat="48.87526" lon="2.29908">
        <ele>68</ele>
        <time>2022-02-02T10:55:06.515Z</time>
      </trkpt>
      <trkpt lat="48.87523" lon="2.29898">
        <ele>65</ele>
        <time>2022-02-02T10:55:11.525Z</time>
      </trkpt>
      <trkpt lat="48.8752" lon="2.29886">
        <ele>65</ele>
        <time>2022-02-02T10:55:16.510Z</time>
      </trkpt>
      <trkpt lat="48.8752" lon="2.29876">
        <ele>65</ele>
        <time>2022-02-02T10:55:21.506Z</time>
      </trkpt>
      <trkpt lat="48.87521" lon="2.29868">
        <ele>63</ele>
        <time>2022-02-02T10:55:25.520Z</time>
      </trkpt>
      <trkpt lat="48.8752" lon="2.29862">
        <ele>63</ele>
        <time>2022-02-02T10:55:30.512Z</time>
      </trkpt>
      <trkpt lat="48.87519" lon="2.29853">
        <ele>63</ele>
        <time>2022-02-02T10:55:34.505Z</time>
      </trkpt>
      <trkpt lat="48.87518" lon="2.29848">
        <ele>63</ele>
        <time>2022-02-02T10:55:39.514Z</time>
      </trkpt>
      <trkpt lat="48.87518" lon="2.29841">
        <ele>62</ele>
        <time>2022-02-02T10:55:44.510Z</time>
      </trkpt>
      <trkpt lat="48.87518" lon="2.29833">
        <ele>62</ele>
        <time>2022-02-02T10:55:49.510Z</time>
      </trkpt>
      <trkpt lat="48.87518" lon="2.29824">
        <ele>62</ele>
        <time>2022-02-02T10:55:54.510Z</time>
      </trkpt>
      <trkpt lat="48.87518" lon="2.29814">
        <ele>63</ele>
        <time>2022-02-02T10:55:59.513Z</time>
      </trkpt>
      <trkpt lat="48.8752" lon="2.29802">
        <ele>63</ele>
        <time>2022-02-02T10:56:03.513Z</time>
      </trkpt>
      <trkpt lat="48.8752" lon="2.29794">
        <ele>63</ele>
        <time>2022-02-02T10:56:08.502Z</time>
      </trkpt>
      <trkpt lat="48.8752" lon="2.29783">
        <ele>64</ele>
        <time>2022-02-02T10:56:13.509Z</time>
      </trkpt>
      <trkpt lat="48.87522" lon="2.29772">
        <ele>64</ele>
        <time>2022-02-02T10:56:18.503Z</time>
      </trkpt>
      <trkpt lat="48.87523" lon="2.29762">
        <ele>66</ele>
        <time>2022-02-02T10:56:22.502Z</time>
      </trkpt>
      <trkpt lat="48.87524" lon="2.29754">
        <ele>66</ele>
        <time>2022-02-02T10:56:26.499Z</time>
      </trkpt>
      <trkpt lat="48.87526" lon="2.29746">
        <ele>66</ele>
        <time>2022-02-02T10:56:31.509Z</time>
      </trkpt>
      <trkpt lat="48.87528" lon="2.29736">
        <ele>67</ele>
        <time>2022-02-02T10:56:36.507Z</time>
      </trkpt>
      <trkpt lat="48.8753" lon="2.29725">
        <ele>67</ele>
        <time>2022-02-02T10:56:41.517Z</time>
      </trkpt>
      <trkpt lat="48.87532" lon="2.29715">
        <ele>67</ele>
        <time>2022-02-02T10:56:46.508Z</time>
      </trkpt>
      <trkpt lat="48.87533" lon="2.29706">
        <ele>67</ele>
        <time>2022-02-02T10:56:51.507Z</time>
      </trkpt>
      <trkpt lat="48.87535" lon="2.29696">
        <ele>67</ele>
        <time>2022-02-02T10:56:56.512Z</time>
      </trkpt>
      <trkpt lat="48.87534" lon="2.29686">
        <ele>67</ele>
        <time>2022-02-02T10:57:01.505Z</time>
      </trkpt>
      <trkpt lat="48.87533" lon="2.29675">
        <ele>66</ele>
        <time>2022-02-02T10:57:06.505Z</time>
      </trkpt>
      <trkpt lat="48.87534" lon="2.29665">
        <ele>66</ele>
        <time>2022-02-02T10:57:11.513Z</time>
      </trkpt>
      <trkpt lat="48.87536" lon="2.29655">
        <ele>66</ele>
        <time>2022-02-02T10:57:16.506Z</time>
      </trkpt>
      <trkpt lat="48.87541" lon="2.29647">
        <ele>65</ele>
        <time>2022-02-02T10:57:21.507Z</time>
      </trkpt>
      <trkpt lat="48.87538" lon="2.29641">
        <ele>65</ele>
        <time>2022-02-02T10:57:26.507Z</time>
      </trkpt>
      <trkpt lat="48.87534" lon="2.29635">
        <ele>65</ele>
        <time>2022-02-02T10:57:31.510Z</time>
      </trkpt>
      <trkpt lat="48.87529" lon="2.29629">
        <ele>65</ele>
        <time>2022-02-02T10:57:36.509Z</time>
      </trkpt>
      <trkpt lat="48.87524" lon="2.29624">
        <ele>64</ele>
        <time>2022-02-02T10:57:41.508Z</time>
      </trkpt>
      <trkpt lat="48.87519" lon="2.2962">
        <ele>64</ele>
        <time>2022-02-02T10:57:46.497Z</time>
      </trkpt>
      <trkpt lat="48.87515" lon="2.29617">
        <ele>64</ele>
        <time>2022-02-02T10:57:50.506Z</time>
      </trkpt>
      <trkpt lat="48.87516" lon="2.29611">
        <ele>64</ele>
        <time>2022-02-02T10:57:55.523Z</time>
      </trkpt>
      <trkpt lat="48.87518" lon="2.29606">
        <ele>64</ele>
        <time>2022-02-02T10:58:00.504Z</time>
      </trkpt>
      <trkpt lat="48.87522" lon="2.29599">
        <ele>64</ele>
        <time>2022-02-02T10:58:05.522Z</time>
      </trkpt>
      <trkpt lat="48.87523" lon="2.29591">
        <ele>63</ele>
        <time>2022-02-02T10:58:10.499Z</time>
      </trkpt>
      <trkpt lat="48.87524" lon="2.29582">
        <ele>63</ele>
        <time>2022-02-02T10:58:15.520Z</time>
      </trkpt>
      <trkpt lat="48.87527" lon="2.29573">
        <ele>63</ele>
        <time>2022-02-02T10:58:20.508Z</time>
      </trkpt>
      <trkpt lat="48.87528" lon="2.29564">
        <ele>62</ele>
        <time>2022-02-02T10:58:25.514Z</time>
      </trkpt>
      <trkpt lat="48.8753" lon="2.29556">
        <ele>62</ele>
        <time>2022-02-02T10:58:30.505Z</time>
      </trkpt>
      <trkpt lat="48.87531" lon="2.29548">
        <ele>62</ele>
        <time>2022-02-02T10:58:35.513Z</time>
      </trkpt>
      <trkpt lat="48.87533" lon="2.2954">
        <ele>62</ele>
        <time>2022-02-02T10:58:40.504Z</time>
      </trkpt>
      <trkpt lat="48.87534" lon="2.2953">
        <ele>62</ele>
        <time>2022-02-02T10:58:45.510Z</time>
      </trkpt>
      <trkpt lat="48.87534" lon="2.29521">
        <ele>62</ele>
        <time>2022-02-02T10:58:50.505Z</time>
      </trkpt>
      <trkpt lat="48.87535" lon="2.29511">
        <ele>63</ele>
        <time>2022-02-02T10:58:55.517Z</time>
      </trkpt>
      <trkpt lat="48.87535" lon="2.29502">
        <ele>63</ele>
        <time>2022-02-02T10:59:00.510Z</time>
      </trkpt>
      <trkpt lat="48.87536" lon="2.29493">
        <ele>63</ele>
        <time>2022-02-02T10:59:04.506Z</time>
      </trkpt>
      <trkpt lat="48.87537" lon="2.29492">
        <ele>63</ele>
        <time>2022-02-02T10:59:09.501Z</time>
      </trkpt>
      <trkpt lat="48.87536" lon="2.29489">
        <ele>63</ele>
        <time>2022-02-02T10:59:13.514Z</time>
      </trkpt>
      <trkpt lat="48.87535" lon="2.2948">
        <ele>65</ele>
        <time>2022-02-02T10:59:18.504Z</time>
      </trkpt>
      <trkpt lat="48.87534" lon="2.29472">
        <ele>65</ele>
        <time>2022-02-02T10:59:22.500Z</time>
      </trkpt>
      <trkpt lat="48.87534" lon="2.29463">
        <ele>65</ele>
        <time>2022-02-02T10:59:27.518Z</time>
      </trkpt>
      <trkpt lat="48.87532" lon="2.29449">
        <ele>67</ele>
        <time>2022-02-02T10:59:32.503Z</time>
      </trkpt>
      <trkpt lat="48.8753" lon="2.29438">
        <ele>67</ele>
        <time>2022-02-02T10:59:37.505Z</time>
      </trkpt>
      <trkpt lat="48.87529" lon="2.29429">
        <ele>69</ele>
        <time>2022-02-02T10:59:42.503Z</time>
      </trkpt>
      <trkpt lat="48.87527" lon="2.2942">
        <ele>69</ele>
        <time>2022-02-02T10:59:46.503Z</time>
      </trkpt>
      <trkpt lat="48.87525" lon="2.29413">
        <ele>69</ele>
        <time>2022-02-02T10:59:51.505Z</time>
      </trkpt>
      <trkpt lat="48.87523" lon="2.29404">
        <ele>69</ele>
        <time>2022-02-02T10:59:55.508Z</time>
      </trkpt>
      <trkpt lat="48.87521" lon="2.29398">
        <ele>69</ele>
        <time>2022-02-02T10:59:59.513Z</time>
      </trkpt>
      <trkpt lat="48.87518" lon="2.2939">
        <ele>69</ele>
        <time>2022-02-02T11:00:09.502Z</time>
      </trkpt>
      <trkpt lat="48.87517" lon="2.29385">
        <ele>69</ele>
        <time>2022-02-02T11:00:13.508Z</time>
      </trkpt>
      <trkpt lat="48.87517" lon="2.29385">
        <ele>69</ele>
        <time>2022-02-02T11:00:17.509Z</time>
      </trkpt>
      <trkpt lat="48.87517" lon="2.29384">
        <ele>69</ele>
        <time>2022-02-02T11:00:21.507Z</time>
      </trkpt>
      <trkpt lat="48.87514" lon="2.29378">
        <ele>69</ele>
        <time>2022-02-02T11:00:25.628Z</time>
      </trkpt>
      <trkpt lat="48.87511" lon="2.29372">
        <ele>67</ele>
        <time>2022-02-02T11:00:30.507Z</time>
      </trkpt>
      <trkpt lat="48.87507" lon="2.29365">
        <ele>67</ele>
        <time>2022-02-02T11:00:35.502Z</time>
      </trkpt>
      <trkpt lat="48.87502" lon="2.29359">
        <ele>67</ele>
        <time>2022-02-02T11:00:40.505Z</time>
      </trkpt>
      <trkpt lat="48.87498" lon="2.29352">
        <ele>67</ele>
        <time>2022-02-02T11:00:45.505Z</time>
      </trkpt>
      <trkpt lat="48.87494" lon="2.29345">
        <ele>68</ele>
        <time>2022-02-02T11:00:50.505Z</time>
      </trkpt>
      <trkpt lat="48.8749" lon="2.29339">
        <ele>68</ele>
        <time>2022-02-02T11:00:54.507Z</time>
      </trkpt>
      <trkpt lat="48.87486" lon="2.29334">
        <ele>68</ele>
        <time>2022-02-02T11:00:59.501Z</time>
      </trkpt>
      <trkpt lat="48.87482" lon="2.29327">
        <ele>68</ele>
        <time>2022-02-02T11:01:03.502Z</time>
      </trkpt>
      <trkpt lat="48.87477" lon="2.29322">
        <ele>68</ele>
        <time>2022-02-02T11:01:08.494Z</time>
      </trkpt>
      <trkpt lat="48.87472" lon="2.29314">
        <ele>70</ele>
        <time>2022-02-02T11:01:12.502Z</time>
      </trkpt>
      <trkpt lat="48.87469" lon="2.29307">
        <ele>70</ele>
        <time>2022-02-02T11:01:16.503Z</time>
      </trkpt>
      <trkpt lat="48.87466" lon="2.29302">
        <ele>70</ele>
        <time>2022-02-02T11:01:21.506Z</time>
      </trkpt>
      <trkpt lat="48.87462" lon="2.29296">
        <ele>70</ele>
        <time>2022-02-02T11:01:25.512Z</time>
      </trkpt>
      <trkpt lat="48.87458" lon="2.29293">
        <ele>70</ele>
        <time>2022-02-02T11:01:30.503Z</time>
      </trkpt>
      <trkpt lat="48.87452" lon="2.29288">
        <ele>64</ele>
        <time>2022-02-02T11:01:34.496Z</time>
      </trkpt>
      <trkpt lat="48.87447" lon="2.29284">
        <ele>64</ele>
        <time>2022-02-02T11:01:39.521Z</time>
      </trkpt>
      <trkpt lat="48.87441" lon="2.2928">
        <ele>64</ele>
        <time>2022-02-02T11:01:44.495Z</time>
      </trkpt>
      <trkpt lat="48.87437" lon="2.29279">
        <ele>64</ele>
        <time>2022-02-02T11:01:49.505Z</time>
      </trkpt>
      <trkpt lat="48.87436" lon="2.29273">
        <ele>64</ele>
        <time>2022-02-02T11:01:54.498Z</time>
      </trkpt>
      <trkpt lat="48.87436" lon="2.29265">
        <ele>64</ele>
        <time>2022-02-02T11:01:58.500Z</time>
      </trkpt>
      <trkpt lat="48.87435" lon="2.29257">
        <ele>65</ele>
        <time>2022-02-02T11:02:03.501Z</time>
      </trkpt>
      <trkpt lat="48.87436" lon="2.29246">
        <ele>65</ele>
        <time>2022-02-02T11:02:07.518Z</time>
      </trkpt>
      <trkpt lat="48.87437" lon="2.29238">
        <ele>65</ele>
        <time>2022-02-02T11:02:12.502Z</time>
      </trkpt>
      <trkpt lat="48.8744" lon="2.29228">
        <ele>63</ele>
        <time>2022-02-02T11:02:17.517Z</time>
      </trkpt>
      <trkpt lat="48.87443" lon="2.29219">
        <ele>63</ele>
        <time>2022-02-02T11:02:22.504Z</time>
      </trkpt>
      <trkpt lat="48.87445" lon="2.2921">
        <ele>63</ele>
        <time>2022-02-02T11:02:27.512Z</time>
      </trkpt>
      <trkpt lat="48.87449" lon="2.29202">
        <ele>64</ele>
        <time>2022-02-02T11:02:32.509Z</time>
      </trkpt>
      <trkpt lat="48.87454" lon="2.29194">
        <ele>64</ele>
        <time>2022-02-02T11:02:37.502Z</time>
      </trkpt>
      <trkpt lat="48.87457" lon="2.29185">
        <ele>64</ele>
        <time>2022-02-02T11:02:41.501Z</time>
      </trkpt>
      <trkpt lat="48.8746" lon="2.29178">
        <ele>64</ele>
        <time>2022-02-02T11:02:46.496Z</time>
      </trkpt>
      <trkpt lat="48.87462" lon="2.29168">
        <ele>64</ele>
        <time>2022-02-02T11:02:50.495Z</time>
      </trkpt>
      <trkpt lat="48.87463" lon="2.2916">
        <ele>64</ele>
        <time>2022-02-02T11:02:54.503Z</time>
      </trkpt>
      <trkpt lat="48.87459" lon="2.29155">
        <ele>64</ele>
        <time>2022-02-02T11:02:59.501Z</time>
      </trkpt>
      <trkpt lat="48.87452" lon="2.29153">
        <ele>67</ele>
        <time>2022-02-02T11:03:03.516Z</time>
      </trkpt>
      <trkpt lat="48.87448" lon="2.29148">
        <ele>68</ele>
        <time>2022-02-02T11:03:08.502Z</time>
      </trkpt>
      <trkpt lat="48.87442" lon="2.29145">
        <ele>68</ele>
        <time>2022-02-02T11:03:13.504Z</time>
      </trkpt>
      <trkpt lat="48.87437" lon="2.29141">
        <ele>68</ele>
        <time>2022-02-02T11:03:18.496Z</time>
      </trkpt>
      <trkpt lat="48.87431" lon="2.29136">
        <ele>68</ele>
        <time>2022-02-02T11:03:22.500Z</time>
      </trkpt>
      <trkpt lat="48.87426" lon="2.29132">
        <ele>69</ele>
        <time>2022-02-02T11:03:27.497Z</time>
      </trkpt>
      <trkpt lat="48.87422" lon="2.29134">
        <ele>69</ele>
        <time>2022-02-02T11:03:31.502Z</time>
      </trkpt>
      <trkpt lat="48.87422" lon="2.29134">
        <ele>69</ele>
        <time>2022-02-02T11:03:36.500Z</time>
      </trkpt>
      <trkpt lat="48.87423" lon="2.29133">
        <ele>69</ele>
        <time>2022-02-02T11:03:41.499Z</time>
      </trkpt>
      <trkpt lat="48.87418" lon="2.29129">
        <ele>69</ele>
        <time>2022-02-02T11:03:46.496Z</time>
      </trkpt>
      <trkpt lat="48.87414" lon="2.29124">
        <ele>69</ele>
        <time>2022-02-02T11:03:51.506Z</time>
      </trkpt>
      <trkpt lat="48.87408" lon="2.29125">
        <ele>69</ele>
        <time>2022-02-02T11:03:56.508Z</time>
      </trkpt>
      <trkpt lat="48.87402" lon="2.29121">
        <ele>70</ele>
        <time>2022-02-02T11:04:00.507Z</time>
      </trkpt>
      <trkpt lat="48.87398" lon="2.29118">
        <ele>70</ele>
        <time>2022-02-02T11:04:05.497Z</time>
      </trkpt>
      <trkpt lat="48.87394" lon="2.29116">
        <ele>70</ele>
        <time>2022-02-02T11:04:10.500Z</time>
      </trkpt>
      <trkpt lat="48.8739" lon="2.29111">
        <ele>70</ele>
        <time>2022-02-02T11:04:15.500Z</time>
      </trkpt>
      <trkpt lat="48.87384" lon="2.29109">
        <ele>70</ele>
        <time>2022-02-02T11:04:19.505Z</time>
      </trkpt>
      <trkpt lat="48.8738" lon="2.29108">
        <ele>70</ele>
        <time>2022-02-02T11:04:24.503Z</time>
      </trkpt>
      <trkpt lat="48.87375" lon="2.29105">
        <ele>70</ele>
        <time>2022-02-02T11:04:28.504Z</time>
      </trkpt>
      <trkpt lat="48.87371" lon="2.29102">
        <ele>72</ele>
        <time>2022-02-02T11:04:33.509Z</time>
      </trkpt>
      <trkpt lat="48.87366" lon="2.29098">
        <ele>72</ele>
        <time>2022-02-02T11:04:38.503Z</time>
      </trkpt>
      <trkpt lat="48.87363" lon="2.29094">
        <ele>72</ele>
        <time>2022-02-02T11:04:42.510Z</time>
      </trkpt>
      <trkpt lat="48.87358" lon="2.29091">
        <ele>72</ele>
        <time>2022-02-02T11:04:47.505Z</time>
      </trkpt>
      <trkpt lat="48.87353" lon="2.2909">
        <ele>72</ele>
        <time>2022-02-02T11:04:51.518Z</time>
      </trkpt>
      <trkpt lat="48.87349" lon="2.29088">
        <ele>72</ele>
        <time>2022-02-02T11:04:56.504Z</time>
      </trkpt>
      <trkpt lat="48.87346" lon="2.29081">
        <ele>69</ele>
        <time>2022-02-02T11:05:01.495Z</time>
      </trkpt>
      <trkpt lat="48.87345" lon="2.29072">
        <ele>69</ele>
        <time>2022-02-02T11:05:05.495Z</time>
      </trkpt>
      <trkpt lat="48.87345" lon="2.29064">
        <ele>65</ele>
        <time>2022-02-02T11:05:09.499Z</time>
      </trkpt>
      <trkpt lat="48.87345" lon="2.29057">
        <ele>65</ele>
        <time>2022-02-02T11:05:13.503Z</time>
      </trkpt>
      <trkpt lat="48.87345" lon="2.2905">
        <ele>65</ele>
        <time>2022-02-02T11:05:18.509Z</time>
      </trkpt>
      <trkpt lat="48.87345" lon="2.29041">
        <ele>60</ele>
        <time>2022-02-02T11:05:22.515Z</time>
      </trkpt>
      <trkpt lat="48.87344" lon="2.29034">
        <ele>60</ele>
        <time>2022-02-02T11:05:26.525Z</time>
      </trkpt>
      <trkpt lat="48.87345" lon="2.29028">
        <ele>60</ele>
        <time>2022-02-02T11:05:31.508Z</time>
      </trkpt>
      <trkpt lat="48.87348" lon="2.2902">
        <ele>68</ele>
        <time>2022-02-02T11:05:36.499Z</time>
      </trkpt>
      <trkpt lat="48.87349" lon="2.2901">
        <ele>66</ele>
        <time>2022-02-02T11:05:41.507Z</time>
      </trkpt>
      <trkpt lat="48.87352" lon="2.29003">
        <ele>66</ele>
        <time>2022-02-02T11:05:46.498Z</time>
      </trkpt>
      <trkpt lat="48.87355" lon="2.28996">
        <ele>66</ele>
        <time>2022-02-02T11:05:51.507Z</time>
      </trkpt>
      <trkpt lat="48.87359" lon="2.28989">
        <ele>66</ele>
        <time>2022-02-02T11:05:56.520Z</time>
      </trkpt>
      <trkpt lat="48.87361" lon="2.28989">
        <ele>66</ele>
        <time>2022-02-02T11:06:01.498Z</time>
      </trkpt>
      <trkpt lat="48.8736" lon="2.28978">
        <ele>65</ele>
        <time>2022-02-02T11:06:05.505Z</time>
      </trkpt>
      <trkpt lat="48.87359" lon="2.2897">
        <ele>65</ele>
        <time>2022-02-02T11:06:10.508Z</time>
      </trkpt>
      <trkpt lat="48.87359" lon="2.28959">
        <ele>65</ele>
        <time>2022-02-02T11:06:15.589Z</time>
      </trkpt>
      <trkpt lat="48.87358" lon="2.28948">
        <ele>65</ele>
        <time>2022-02-02T11:06:20.508Z</time>
      </trkpt>
      <trkpt lat="48.87358" lon="2.28939">
        <ele>65</ele>
        <time>2022-02-02T11:06:25.502Z</time>
      </trkpt>
      <trkpt lat="48.87357" lon="2.28928">
        <ele>65</ele>
        <time>2022-02-02T11:06:30.504Z</time>
      </trkpt>
      <trkpt lat="48.87356" lon="2.28919">
        <ele>65</ele>
        <time>2022-02-02T11:06:35.500Z</time>
      </trkpt>
      <trkpt lat="48.87355" lon="2.28909">
        <ele>65</ele>
        <time>2022-02-02T11:06:40.512Z</time>
      </trkpt>
      <trkpt lat="48.87353" lon="2.28899">
        <ele>65</ele>
        <time>2022-02-02T11:06:45.504Z</time>
      </trkpt>
      <trkpt lat="48.87352" lon="2.28888">
        <ele>65</ele>
        <time>2022-02-02T11:06:50.502Z</time>
      </trkpt>
      <trkpt lat="48.87351" lon="2.28879">
        <ele>65</ele>
        <time>2022-02-02T11:06:54.503Z</time>
      </trkpt>
      <trkpt lat="48.87351" lon="2.28871">
        <ele>64</ele>
        <time>2022-02-02T11:06:59.500Z</time>
      </trkpt>
      <trkpt lat="48.87349" lon="2.28861">
        <ele>64</ele>
        <time>2022-02-02T11:07:04.499Z</time>
      </trkpt>
      <trkpt lat="48.87349" lon="2.28853">
        <ele>64</ele>
        <time>2022-02-02T11:07:09.510Z</time>
      </trkpt>
      <trkpt lat="48.87347" lon="2.28843">
        <ele>60</ele>
        <time>2022-02-02T11:07:14.502Z</time>
      </trkpt>
      <trkpt lat="48.87345" lon="2.28834">
        <ele>60</ele>
        <time>2022-02-02T11:07:19.501Z</time>
      </trkpt>
      <trkpt lat="48.87345" lon="2.28824">
        <ele>60</ele>
        <time>2022-02-02T11:07:23.504Z</time>
      </trkpt>
      <trkpt lat="48.87344" lon="2.28816">
        <ele>58</ele>
        <time>2022-02-02T11:07:28.506Z</time>
      </trkpt>
      <trkpt lat="48.87344" lon="2.28807">
        <ele>58</ele>
        <time>2022-02-02T11:07:33.506Z</time>
      </trkpt>
      <trkpt lat="48.87343" lon="2.28797">
        <ele>58</ele>
        <time>2022-02-02T11:07:38.505Z</time>
      </trkpt>
      <trkpt lat="48.87342" lon="2.28787">
        <ele>59</ele>
        <time>2022-02-02T11:07:43.496Z</time>
      </trkpt>
      <trkpt lat="48.87341" lon="2.28778">
        <ele>59</ele>
        <time>2022-02-02T11:07:47.509Z</time>
      </trkpt>
      <trkpt lat="48.87341" lon="2.28772">
        <ele>59</ele>
        <time>2022-02-02T11:07:52.495Z</time>
      </trkpt>
      <trkpt lat="48.8734" lon="2.28764">
        <ele>59</ele>
        <time>2022-02-02T11:07:56.497Z</time>
      </trkpt>
      <trkpt lat="48.87339" lon="2.28761">
        <ele>58</ele>
        <time>2022-02-02T11:08:10.394Z</time>
      </trkpt>
      <trkpt lat="48.87338" lon="2.2873">
        <ele>59</ele>
        <time>2022-02-02T11:08:14.502Z</time>
      </trkpt>
      <trkpt lat="48.87336" lon="2.28722">
        <ele>59</ele>
        <time>2022-02-02T11:08:18.507Z</time>
      </trkpt>
      <trkpt lat="48.87335" lon="2.28716">
        <ele>59</ele>
        <time>2022-02-02T11:08:23.500Z</time>
      </trkpt>
      <trkpt lat="48.87334" lon="2.28708">
        <ele>58</ele>
        <time>2022-02-02T11:08:27.506Z</time>
      </trkpt>
      <trkpt lat="48.87333" lon="2.287">
        <ele>58</ele>
        <time>2022-02-02T11:08:31.530Z</time>
      </trkpt>
      <trkpt lat="48.87334" lon="2.28693">
        <ele>58</ele>
        <time>2022-02-02T11:08:36.503Z</time>
      </trkpt>
      <trkpt lat="48.87333" lon="2.28684">
        <ele>58</ele>
        <time>2022-02-02T11:08:41.510Z</time>
      </trkpt>
      <trkpt lat="48.87333" lon="2.28674">
        <ele>60</ele>
        <time>2022-02-02T11:08:45.536Z</time>
      </trkpt>
      <trkpt lat="48.87332" lon="2.28665">
        <ele>60</ele>
        <time>2022-02-02T11:08:50.506Z</time>
      </trkpt>
      <trkpt lat="48.8733" lon="2.28656">
        <ele>60</ele>
        <time>2022-02-02T11:08:55.511Z</time>
      </trkpt>
      <trkpt lat="48.87326" lon="2.28647">
        <ele>61</ele>
        <time>2022-02-02T11:08:59.527Z</time>
      </trkpt>
      <trkpt lat="48.87325" lon="2.28639">
        <ele>61</ele>
        <time>2022-02-02T11:09:04.504Z</time>
      </trkpt>
      <trkpt lat="48.87324" lon="2.28629">
        <ele>61</ele>
        <time>2022-02-02T11:09:09.512Z</time>
      </trkpt>
      <trkpt lat="48.87323" lon="2.28619">
        <ele>62</ele>
        <time>2022-02-02T11:09:13.524Z</time>
      </trkpt>
      <trkpt lat="48.87322" lon="2.28612">
        <ele>62</ele>
        <time>2022-02-02T11:09:18.514Z</time>
      </trkpt>
      <trkpt lat="48.87322" lon="2.28603">
        <ele>62</ele>
        <time>2022-02-02T11:09:23.559Z</time>
      </trkpt>
      <trkpt lat="48.8732" lon="2.28594">
        <ele>62</ele>
        <time>2022-02-02T11:09:28.510Z</time>
      </trkpt>
      <trkpt lat="48.87318" lon="2.28585">
        <ele>58</ele>
        <time>2022-02-02T11:09:32.506Z</time>
      </trkpt>
      <trkpt lat="48.87317" lon="2.28578">
        <ele>58</ele>
        <time>2022-02-02T11:09:37.530Z</time>
      </trkpt>
      <trkpt lat="48.87316" lon="2.28569">
        <ele>57</ele>
        <time>2022-02-02T11:09:41.504Z</time>
      </trkpt>
      <trkpt lat="48.87315" lon="2.28561">
        <ele>57</ele>
        <time>2022-02-02T11:09:46.513Z</time>
      </trkpt>
      <trkpt lat="48.87314" lon="2.28552">
        <ele>57</ele>
        <time>2022-02-02T11:09:51.528Z</time>
      </trkpt>
      <trkpt lat="48.87311" lon="2.28543">
        <ele>57</ele>
        <time>2022-02-02T11:09:55.545Z</time>
      </trkpt>
      <trkpt lat="48.87309" lon="2.28537">
        <ele>54</ele>
        <time>2022-02-02T11:10:00.507Z</time>
      </trkpt>
      <trkpt lat="48.87307" lon="2.28528">
        <ele>54</ele>
        <time>2022-02-02T11:10:04.508Z</time>
      </trkpt>
      <trkpt lat="48.87305" lon="2.28521">
        <ele>54</ele>
        <time>2022-02-02T11:10:08.516Z</time>
      </trkpt>
      <trkpt lat="48.87303" lon="2.28515">
        <ele>54</ele>
        <time>2022-02-02T11:10:13.505Z</time>
      </trkpt>
      <trkpt lat="48.87299" lon="2.28508">
        <ele>52</ele>
        <time>2022-02-02T11:10:17.511Z</time>
      </trkpt>
      <trkpt lat="48.87295" lon="2.28504">
        <ele>52</ele>
        <time>2022-02-02T11:10:22.515Z</time>
      </trkpt>
      <trkpt lat="48.87292" lon="2.28497">
        <ele>52</ele>
        <time>2022-02-02T11:10:27.528Z</time>
      </trkpt>
      <trkpt lat="48.87289" lon="2.28489">
        <ele>49</ele>
        <time>2022-02-02T11:10:31.528Z</time>
      </trkpt>
      <trkpt lat="48.87287" lon="2.28482">
        <ele>47</ele>
        <time>2022-02-02T11:10:36.557Z</time>
      </trkpt>
      <trkpt lat="48.87284" lon="2.28474">
        <ele>47</ele>
        <time>2022-02-02T11:10:41.536Z</time>
      </trkpt>
      <trkpt lat="48.87276" lon="2.28473">
        <ele>47</ele>
        <time>2022-02-02T11:10:46.508Z</time>
      </trkpt>
      <trkpt lat="48.87269" lon="2.28474">
        <ele>47</ele>
        <time>2022-02-02T11:10:51.510Z</time>
      </trkpt>
      <trkpt lat="48.87262" lon="2.28472">
        <ele>47</ele>
        <time>2022-02-02T11:10:56.500Z</time>
      </trkpt>
      <trkpt lat="48.87258" lon="2.28463">
        <ele>47</ele>
        <time>2022-02-02T11:11:00.504Z</time>
      </trkpt>
      <trkpt lat="48.87257" lon="2.28455">
        <ele>46</ele>
        <time>2022-02-02T11:11:05.508Z</time>
      </trkpt>
      <trkpt lat="48.87253" lon="2.28447">
        <ele>46</ele>
        <time>2022-02-02T11:11:10.496Z</time>
      </trkpt>
      <trkpt lat="48.87247" lon="2.28442">
        <ele>46</ele>
        <time>2022-02-02T11:11:15.496Z</time>
      </trkpt>
      <trkpt lat="48.87241" lon="2.2844">
        <ele>46</ele>
        <time>2022-02-02T11:11:19.512Z</time>
      </trkpt>
      <trkpt lat="48.87236" lon="2.28437">
        <ele>46</ele>
        <time>2022-02-02T11:11:24.502Z</time>
      </trkpt>
      <trkpt lat="48.8723" lon="2.28439">
        <ele>52</ele>
        <time>2022-02-02T11:11:28.499Z</time>
      </trkpt>
      <trkpt lat="48.87226" lon="2.28444">
        <ele>52</ele>
        <time>2022-02-02T11:11:50.504Z</time>
      </trkpt>
      <trkpt lat="48.87217" lon="2.28448">
        <ele>52</ele>
        <time>2022-02-02T11:11:54.519Z</time>
      </trkpt>
      <trkpt lat="48.87216" lon="2.2844">
        <ele>52</ele>
        <time>2022-02-02T11:11:59.504Z</time>
      </trkpt>
      <trkpt lat="48.87214" lon="2.28429">
        <ele>50</ele>
        <time>2022-02-02T11:12:04.502Z</time>
      </trkpt>
      <trkpt lat="48.8721" lon="2.28422">
        <ele>50</ele>
        <time>2022-02-02T11:12:08.527Z</time>
      </trkpt>
      <trkpt lat="48.8721" lon="2.28421">
        <ele>50</ele>
        <time>2022-02-02T11:12:12.545Z</time>
      </trkpt>
      <trkpt lat="48.87208" lon="2.28421">
        <ele>61</ele>
        <time>2022-02-02T11:12:17.515Z</time>
      </trkpt>
      <trkpt lat="48.87202" lon="2.28417">
        <ele>61</ele>
        <time>2022-02-02T11:12:21.573Z</time>
      </trkpt>
      <trkpt lat="48.87198" lon="2.28414">
        <ele>61</ele>
        <time>2022-02-02T11:12:26.509Z</time>
      </trkpt>
      <trkpt lat="48.87193" lon="2.28411">
        <ele>61</ele>
        <time>2022-02-02T11:12:31.506Z</time>
      </trkpt>
      <trkpt lat="48.87187" lon="2.28406">
        <ele>61</ele>
        <time>2022-02-02T11:12:35.549Z</time>
      </trkpt>
      <trkpt lat="48.87183" lon="2.28402">
        <ele>61</ele>
        <time>2022-02-02T11:12:40.504Z</time>
      </trkpt>
      <trkpt lat="48.87178" lon="2.28396">
        <ele>65</ele>
        <time>2022-02-02T11:12:45.530Z</time>
      </trkpt>
      <trkpt lat="48.87173" lon="2.2839">
        <ele>65</ele>
        <time>2022-02-02T11:12:50.510Z</time>
      </trkpt>
      <trkpt lat="48.87168" lon="2.28386">
        <ele>65</ele>
        <time>2022-02-02T11:12:55.505Z</time>
      </trkpt>
      <trkpt lat="48.87162" lon="2.28381">
        <ele>65</ele>
        <time>2022-02-02T11:12:59.501Z</time>
      </trkpt>
      <trkpt lat="48.8716" lon="2.28379">
        <ele>65</ele>
        <time>2022-02-02T11:13:03.657Z</time>
      </trkpt>
      <trkpt lat="48.87159" lon="2.2838">
        <ele>65</ele>
        <time>2022-02-02T11:13:08.511Z</time>
      </trkpt>
      <trkpt lat="48.87157" lon="2.28377">
        <ele>65</ele>
        <time>2022-02-02T11:13:13.498Z</time>
      </trkpt>
      <trkpt lat="48.87152" lon="2.28372">
        <ele>68</ele>
        <time>2022-02-02T11:13:17.496Z</time>
      </trkpt>
      <trkpt lat="48.87148" lon="2.28369">
        <ele>68</ele>
        <time>2022-02-02T11:13:21.500Z</time>
      </trkpt>
      <trkpt lat="48.87143" lon="2.28366">
        <ele>68</ele>
        <time>2022-02-02T11:13:25.504Z</time>
      </trkpt>
      <trkpt lat="48.87138" lon="2.28363">
        <ele>68</ele>
        <time>2022-02-02T11:13:29.524Z</time>
      </trkpt>
      <trkpt lat="48.87134" lon="2.28359">
        <ele>68</ele>
        <time>2022-02-02T11:13:34.500Z</time>
      </trkpt>
      <trkpt lat="48.87128" lon="2.28355">
        <ele>68</ele>
        <time>2022-02-02T11:13:38.499Z</time>
      </trkpt>
      <trkpt lat="48.87123" lon="2.2835">
        <ele>70</ele>
        <time>2022-02-02T11:13:43.500Z</time>
      </trkpt>
      <trkpt lat="48.87116" lon="2.28347">
        <ele>68</ele>
        <time>2022-02-02T11:13:48.501Z</time>
      </trkpt>
      <trkpt lat="48.87109" lon="2.28344">
        <ele>68</ele>
        <time>2022-02-02T11:13:53.497Z</time>
      </trkpt>
      <trkpt lat="48.87103" lon="2.28344">
        <ele>68</ele>
        <time>2022-02-02T11:13:57.584Z</time>
      </trkpt>
      <trkpt lat="48.87099" lon="2.28349">
        <ele>70</ele>
        <time>2022-02-02T11:14:02.498Z</time>
      </trkpt>
      <trkpt lat="48.87094" lon="2.28355">
        <ele>69</ele>
        <time>2022-02-02T11:14:06.507Z</time>
      </trkpt>
      <trkpt lat="48.87091" lon="2.2836">
        <ele>69</ele>
        <time>2022-02-02T11:14:11.532Z</time>
      </trkpt>
      <trkpt lat="48.87087" lon="2.28368">
        <ele>69</ele>
        <time>2022-02-02T11:14:16.512Z</time>
      </trkpt>
      <trkpt lat="48.87083" lon="2.28375">
        <ele>69</ele>
        <time>2022-02-02T11:14:21.504Z</time>
      </trkpt>
      <trkpt lat="48.87078" lon="2.28381">
        <ele>70</ele>
        <time>2022-02-02T11:14:25.537Z</time>
      </trkpt>
      <trkpt lat="48.87074" lon="2.28385">
        <ele>70</ele>
        <time>2022-02-02T11:14:30.502Z</time>
      </trkpt>
      <trkpt lat="48.8707" lon="2.28393">
        <ele>70</ele>
        <time>2022-02-02T11:14:35.506Z</time>
      </trkpt>
      <trkpt lat="48.87065" lon="2.28398">
        <ele>71</ele>
        <time>2022-02-02T11:14:40.498Z</time>
      </trkpt>
      <trkpt lat="48.8706" lon="2.28404">
        <ele>71</ele>
        <time>2022-02-02T11:14:45.500Z</time>
      </trkpt>
      <trkpt lat="48.87056" lon="2.2841">
        <ele>71</ele>
        <time>2022-02-02T11:14:49.508Z</time>
      </trkpt>
      <trkpt lat="48.87053" lon="2.28414">
        <ele>71</ele>
        <time>2022-02-02T11:14:54.498Z</time>
      </trkpt>
      <trkpt lat="48.87049" lon="2.2842">
        <ele>71</ele>
        <time>2022-02-02T11:14:58.509Z</time>
      </trkpt>
      <trkpt lat="48.87046" lon="2.28427">
        <ele>71</ele>
        <time>2022-02-02T11:15:03.530Z</time>
      </trkpt>
      <trkpt lat="48.87042" lon="2.28433">
        <ele>70</ele>
        <time>2022-02-02T11:15:08.503Z</time>
      </trkpt>
      <trkpt lat="48.87038" lon="2.28441">
        <ele>73</ele>
        <time>2022-02-02T11:15:12.506Z</time>
      </trkpt>
      <trkpt lat="48.87035" lon="2.28446">
        <ele>73</ele>
        <time>2022-02-02T11:15:17.503Z</time>
      </trkpt>
      <trkpt lat="48.8703" lon="2.28453">
        <ele>73</ele>
        <time>2022-02-02T11:15:22.501Z</time>
      </trkpt>
      <trkpt lat="48.87026" lon="2.28461">
        <ele>73</ele>
        <time>2022-02-02T11:15:26.525Z</time>
      </trkpt>
      <trkpt lat="48.87023" lon="2.28467">
        <ele>73</ele>
        <time>2022-02-02T11:15:31.545Z</time>
      </trkpt>
      <trkpt lat="48.87018" lon="2.28476">
        <ele>73</ele>
        <time>2022-02-02T11:15:36.499Z</time>
      </trkpt>
      <trkpt lat="48.87015" lon="2.28484">
        <ele>73</ele>
        <time>2022-02-02T11:15:40.508Z</time>
      </trkpt>
      <trkpt lat="48.87011" lon="2.28489">
        <ele>73</ele>
        <time>2022-02-02T11:15:45.532Z</time>
      </trkpt>
      <trkpt lat="48.87006" lon="2.28494">
        <ele>73</ele>
        <time>2022-02-02T11:15:50.526Z</time>
      </trkpt>
      <trkpt lat="48.87001" lon="2.28497">
        <ele>73</ele>
        <time>2022-02-02T11:15:55.530Z</time>
      </trkpt>
      <trkpt lat="48.87003" lon="2.28504">
        <ele>73</ele>
        <time>2022-02-02T11:16:00.532Z</time>
      </trkpt>
      <trkpt lat="48.87006" lon="2.28509">
        <ele>73</ele>
        <time>2022-02-02T11:16:05.508Z</time>
      </trkpt>
      <trkpt lat="48.87009" lon="2.28516">
        <ele>72</ele>
        <time>2022-02-02T11:16:09.504Z</time>
      </trkpt>
      <trkpt lat="48.8701" lon="2.28517">
        <ele>72</ele>
        <time>2022-02-02T11:16:14.501Z</time>
      </trkpt>
      <trkpt lat="48.8701" lon="2.28517">
        <ele>72</ele>
        <time>2022-02-02T11:16:18.533Z</time>
      </trkpt>
      <trkpt lat="48.87013" lon="2.28518">
        <ele>72</ele>
        <time>2022-02-02T11:16:23.504Z</time>
      </trkpt>
      <trkpt lat="48.87016" lon="2.28523">
        <ele>71</ele>
        <time>2022-02-02T11:16:28.502Z</time>
      </trkpt>
      <trkpt lat="48.87016" lon="2.28531">
        <ele>71</ele>
        <time>2022-02-02T11:16:32.529Z</time>
      </trkpt>
      <trkpt lat="48.87016" lon="2.28537">
        <ele>71</ele>
        <time>2022-02-02T11:16:37.504Z</time>
      </trkpt>
      <trkpt lat="48.87011" lon="2.28542">
        <ele>72</ele>
        <time>2022-02-02T11:16:42.502Z</time>
      </trkpt>
      <trkpt lat="48.87007" lon="2.28551">
        <ele>72</ele>
        <time>2022-02-02T11:16:46.506Z</time>
      </trkpt>
      <trkpt lat="48.87006" lon="2.28559">
        <ele>72</ele>
        <time>2022-02-02T11:16:51.508Z</time>
      </trkpt>
      <trkpt lat="48.87005" lon="2.28567">
        <ele>72</ele>
        <time>2022-02-02T11:16:56.509Z</time>
      </trkpt>
      <trkpt lat="48.87001" lon="2.28576">
        <ele>73</ele>
        <time>2022-02-02T11:17:01.513Z</time>
      </trkpt>
      <trkpt lat="48.86998" lon="2.28584">
        <ele>73</ele>
        <time>2022-02-02T11:17:06.502Z</time>
      </trkpt>
      <trkpt lat="48.86993" lon="2.28587">
        <ele>73</ele>
        <time>2022-02-02T11:17:11.502Z</time>
      </trkpt>
      <trkpt lat="48.86988" lon="2.28592">
        <ele>73</ele>
        <time>2022-02-02T11:17:15.504Z</time>
      </trkpt>
      <trkpt lat="48.86983" lon="2.28593">
        <ele>73</ele>
        <time>2022-02-02T11:17:20.498Z</time>
      </trkpt>
      <trkpt lat="48.86977" lon="2.28594">
        <ele>73</ele>
        <time>2022-02-02T11:17:25.510Z</time>
      </trkpt>
      <trkpt lat="48.8697" lon="2.28596">
        <ele>73</ele>
        <time>2022-02-02T11:17:29.502Z</time>
      </trkpt>
      <trkpt lat="48.86966" lon="2.286">
        <ele>73</ele>
        <time>2022-02-02T11:17:34.497Z</time>
      </trkpt>
      <trkpt lat="48.86964" lon="2.28611">
        <ele>73</ele>
        <time>2022-02-02T11:17:38.522Z</time>
      </trkpt>
      <trkpt lat="48.86963" lon="2.28619">
        <ele>73</ele>
        <time>2022-02-02T11:17:43.502Z</time>
      </trkpt>
      <trkpt lat="48.86963" lon="2.28628">
        <ele>73</ele>
        <time>2022-02-02T11:17:48.498Z</time>
      </trkpt>
      <trkpt lat="48.8696" lon="2.28638">
        <ele>73</ele>
        <time>2022-02-02T11:17:52.500Z</time>
      </trkpt>
      <trkpt lat="48.86959" lon="2.28646">
        <ele>73</ele>
        <time>2022-02-02T11:17:57.503Z</time>
      </trkpt>
      <trkpt lat="48.86957" lon="2.28655">
        <ele>74</ele>
        <time>2022-02-02T11:18:02.505Z</time>
      </trkpt>
      <trkpt lat="48.86954" lon="2.28663">
        <ele>74</ele>
        <time>2022-02-02T11:18:07.505Z</time>
      </trkpt>
      <trkpt lat="48.86952" lon="2.28673">
        <ele>74</ele>
        <time>2022-02-02T11:18:11.535Z</time>
      </trkpt>
      <trkpt lat="48.8695" lon="2.28681">
        <ele>75</ele>
        <time>2022-02-02T11:18:16.526Z</time>
      </trkpt>
      <trkpt lat="48.86948" lon="2.2869">
        <ele>75</ele>
        <time>2022-02-02T11:18:21.504Z</time>
      </trkpt>
      <trkpt lat="48.86945" lon="2.287">
        <ele>75</ele>
        <time>2022-02-02T11:18:25.512Z</time>
      </trkpt>
      <trkpt lat="48.86944" lon="2.28707">
        <ele>75</ele>
        <time>2022-02-02T11:18:30.502Z</time>
      </trkpt>
      <trkpt lat="48.86942" lon="2.28716">
        <ele>75</ele>
        <time>2022-02-02T11:18:35.503Z</time>
      </trkpt>
      <trkpt lat="48.8694" lon="2.28726">
        <ele>75</ele>
        <time>2022-02-02T11:18:39.508Z</time>
      </trkpt>
      <trkpt lat="48.86939" lon="2.28734">
        <ele>75</ele>
        <time>2022-02-02T11:18:44.503Z</time>
      </trkpt>
      <trkpt lat="48.8694" lon="2.28745">
        <ele>74</ele>
        <time>2022-02-02T11:18:48.513Z</time>
      </trkpt>
      <trkpt lat="48.86939" lon="2.28754">
        <ele>74</ele>
        <time>2022-02-02T11:18:52.533Z</time>
      </trkpt>
      <trkpt lat="48.86939" lon="2.28763">
        <ele>74</ele>
        <time>2022-02-02T11:18:57.506Z</time>
      </trkpt>
      <trkpt lat="48.86938" lon="2.28775">
        <ele>73</ele>
        <time>2022-02-02T11:19:02.525Z</time>
      </trkpt>
      <trkpt lat="48.86937" lon="2.28786">
        <ele>73</ele>
        <time>2022-02-02T11:19:07.509Z</time>
      </trkpt>
      <trkpt lat="48.86935" lon="2.28796">
        <ele>73</ele>
        <time>2022-02-02T11:19:12.532Z</time>
      </trkpt>
      <trkpt lat="48.86933" lon="2.28806">
        <ele>73</ele>
        <time>2022-02-02T11:19:17.503Z</time>
      </trkpt>
      <trkpt lat="48.86929" lon="2.28814">
        <ele>74</ele>
        <time>2022-02-02T11:19:22.499Z</time>
      </trkpt>
      <trkpt lat="48.8693" lon="2.28825">
        <ele>75</ele>
        <time>2022-02-02T11:19:26.504Z</time>
      </trkpt>
      <trkpt lat="48.86929" lon="2.28833">
        <ele>75</ele>
        <time>2022-02-02T11:19:30.507Z</time>
      </trkpt>
      <trkpt lat="48.86928" lon="2.28841">
        <ele>75</ele>
        <time>2022-02-02T11:19:35.502Z</time>
      </trkpt>
      <trkpt lat="48.86927" lon="2.2885">
        <ele>75</ele>
        <time>2022-02-02T11:19:39.504Z</time>
      </trkpt>
      <trkpt lat="48.86926" lon="2.28857">
        <ele>75</ele>
        <time>2022-02-02T11:19:44.541Z</time>
      </trkpt>
      <trkpt lat="48.86924" lon="2.28863">
        <ele>75</ele>
        <time>2022-02-02T11:19:49.501Z</time>
      </trkpt>
      <trkpt lat="48.86921" lon="2.28873">
        <ele>75</ele>
        <time>2022-02-02T11:19:54.514Z</time>
      </trkpt>
      <trkpt lat="48.8692" lon="2.28882">
        <ele>74</ele>
        <time>2022-02-02T11:19:59.503Z</time>
      </trkpt>
      <trkpt lat="48.86919" lon="2.28891">
        <ele>74</ele>
        <time>2022-02-02T11:20:03.532Z</time>
      </trkpt>
      <trkpt lat="48.86919" lon="2.28899">
        <ele>74</ele>
        <time>2022-02-02T11:20:08.543Z</time>
      </trkpt>
      <trkpt lat="48.86918" lon="2.28908">
        <ele>74</ele>
        <time>2022-02-02T11:20:13.507Z</time>
      </trkpt>
      <trkpt lat="48.86917" lon="2.28917">
        <ele>74</ele>
        <time>2022-02-02T11:20:17.508Z</time>
      </trkpt>
      <trkpt lat="48.86915" lon="2.28925">
        <ele>74</ele>
        <time>2022-02-02T11:20:21.534Z</time>
      </trkpt>
      <trkpt lat="48.86914" lon="2.2893">
        <ele>74</ele>
        <time>2022-02-02T11:20:26.501Z</time>
      </trkpt>
      <trkpt lat="48.86911" lon="2.28941">
        <ele>74</ele>
        <time>2022-02-02T11:20:30.501Z</time>
      </trkpt>
      <trkpt lat="48.8691" lon="2.28949">
        <ele>74</ele>
        <time>2022-02-02T11:20:35.498Z</time>
      </trkpt>
      <trkpt lat="48.86908" lon="2.28959">
        <ele>74</ele>
        <time>2022-02-02T11:20:39.504Z</time>
      </trkpt>
      <trkpt lat="48.86908" lon="2.28967">
        <ele>74</ele>
        <time>2022-02-02T11:20:43.524Z</time>
      </trkpt>
      <trkpt lat="48.8691" lon="2.28976">
        <ele>74</ele>
        <time>2022-02-02T11:20:47.537Z</time>
      </trkpt>
      <trkpt lat="48.86911" lon="2.28984">
        <ele>74</ele>
        <time>2022-02-02T11:20:52.514Z</time>
      </trkpt>
      <trkpt lat="48.8691" lon="2.28994">
        <ele>75</ele>
        <time>2022-02-02T11:20:57.509Z</time>
      </trkpt>
      <trkpt lat="48.86909" lon="2.29003">
        <ele>75</ele>
        <time>2022-02-02T11:21:01.511Z</time>
      </trkpt>
      <trkpt lat="48.86908" lon="2.29011">
        <ele>75</ele>
        <time>2022-02-02T11:21:06.524Z</time>
      </trkpt>
      <trkpt lat="48.86909" lon="2.2902">
        <ele>75</ele>
        <time>2022-02-02T11:21:10.533Z</time>
      </trkpt>
      <trkpt lat="48.86911" lon="2.29022">
        <ele>75</ele>
        <time>2022-02-02T11:21:15.517Z</time>
      </trkpt>
      <trkpt lat="48.8691" lon="2.29029">
        <ele>75</ele>
        <time>2022-02-02T11:21:19.492Z</time>
      </trkpt>
      <trkpt lat="48.8691" lon="2.29037">
        <ele>75</ele>
        <time>2022-02-02T11:21:24.527Z</time>
      </trkpt>
      <trkpt lat="48.86909" lon="2.29046">
        <ele>75</ele>
        <time>2022-02-02T11:21:29.512Z</time>
      </trkpt>
      <trkpt lat="48.86907" lon="2.29055">
        <ele>75</ele>
        <time>2022-02-02T11:21:33.533Z</time>
      </trkpt>
      <trkpt lat="48.86906" lon="2.29063">
        <ele>75</ele>
        <time>2022-02-02T11:21:38.529Z</time>
      </trkpt>
      <trkpt lat="48.86905" lon="2.29072">
        <ele>76</ele>
        <time>2022-02-02T11:21:43.547Z</time>
      </trkpt>
      <trkpt lat="48.86904" lon="2.29082">
        <ele>76</ele>
        <time>2022-02-02T11:22:02.499Z</time>
      </trkpt>
      <trkpt lat="48.8691" lon="2.29086">
        <ele>76</ele>
        <time>2022-02-02T11:22:06.534Z</time>
      </trkpt>
      <trkpt lat="48.86906" lon="2.29091">
        <ele>76</ele>
        <time>2022-02-02T11:22:11.530Z</time>
      </trkpt>
      <trkpt lat="48.86904" lon="2.29099">
        <ele>75</ele>
        <time>2022-02-02T11:22:16.513Z</time>
      </trkpt>
      <trkpt lat="48.86901" lon="2.29106">
        <ele>72</ele>
        <time>2022-02-02T11:22:20.507Z</time>
      </trkpt>
      <trkpt lat="48.86898" lon="2.29112">
        <ele>72</ele>
        <time>2022-02-02T11:22:25.507Z</time>
      </trkpt>
      <trkpt lat="48.86896" lon="2.29121">
        <ele>72</ele>
        <time>2022-02-02T11:22:30.501Z</time>
      </trkpt>
      <trkpt lat="48.86897" lon="2.29131">
        <ele>72</ele>
        <time>2022-02-02T11:22:34.503Z</time>
      </trkpt>
      <trkpt lat="48.869" lon="2.29138">
        <ele>72</ele>
        <time>2022-02-02T11:22:38.533Z</time>
      </trkpt>
      <trkpt lat="48.86904" lon="2.29145">
        <ele>74</ele>
        <time>2022-02-02T11:22:43.508Z</time>
      </trkpt>
      <trkpt lat="48.86904" lon="2.29155">
        <ele>73</ele>
        <time>2022-02-02T11:22:47.524Z</time>
      </trkpt>
      <trkpt lat="48.86903" lon="2.29163">
        <ele>73</ele>
        <time>2022-02-02T11:22:52.506Z</time>
      </trkpt>
      <trkpt lat="48.86901" lon="2.29171">
        <ele>72</ele>
        <time>2022-02-02T11:22:57.538Z</time>
      </trkpt>
      <trkpt lat="48.86897" lon="2.29177">
        <ele>72</ele>
        <time>2022-02-02T11:23:01.526Z</time>
      </trkpt>
      <trkpt lat="48.86896" lon="2.29183">
        <ele>73</ele>
        <time>2022-02-02T11:23:06.526Z</time>
      </trkpt>
      <trkpt lat="48.86893" lon="2.2919">
        <ele>73</ele>
        <time>2022-02-02T11:23:10.530Z</time>
      </trkpt>
      <trkpt lat="48.86891" lon="2.29197">
        <ele>73</ele>
        <time>2022-02-02T11:23:15.508Z</time>
      </trkpt>
      <trkpt lat="48.86888" lon="2.29204">
        <ele>73</ele>
        <time>2022-02-02T11:23:20.507Z</time>
      </trkpt>
      <trkpt lat="48.86885" lon="2.29212">
        <ele>74</ele>
        <time>2022-02-02T11:23:24.512Z</time>
      </trkpt>
      <trkpt lat="48.86882" lon="2.29218">
        <ele>74</ele>
        <time>2022-02-02T11:23:29.511Z</time>
      </trkpt>
      <trkpt lat="48.86877" lon="2.29224">
        <ele>74</ele>
        <time>2022-02-02T11:23:34.508Z</time>
      </trkpt>
      <trkpt lat="48.86872" lon="2.29231">
        <ele>76</ele>
        <time>2022-02-02T11:23:39.504Z</time>
      </trkpt>
      <trkpt lat="48.86869" lon="2.2924">
        <ele>76</ele>
        <time>2022-02-02T11:23:44.534Z</time>
      </trkpt>
      <trkpt lat="48.86867" lon="2.2925">
        <ele>76</ele>
        <time>2022-02-02T11:23:49.503Z</time>
      </trkpt>
      <trkpt lat="48.86863" lon="2.29256">
        <ele>76</ele>
        <time>2022-02-02T11:23:54.507Z</time>
      </trkpt>
      <trkpt lat="48.8686" lon="2.29265">
        <ele>75</ele>
        <time>2022-02-02T11:23:58.511Z</time>
      </trkpt>
      <trkpt lat="48.86857" lon="2.29274">
        <ele>75</ele>
        <time>2022-02-02T11:24:03.494Z</time>
      </trkpt>
      <trkpt lat="48.86854" lon="2.29283">
        <ele>75</ele>
        <time>2022-02-02T11:24:07.501Z</time>
      </trkpt>
      <trkpt lat="48.86853" lon="2.2929">
        <ele>75</ele>
        <time>2022-02-02T11:24:11.500Z</time>
      </trkpt>
      <trkpt lat="48.86851" lon="2.29293">
        <ele>74</ele>
        <time>2022-02-02T11:50:02.514Z</time>
      </trkpt>
      <trkpt lat="48.86852" lon="2.29308">
        <ele>74</ele>
        <time>2022-02-02T11:50:07.514Z</time>
      </trkpt>
      <trkpt lat="48.86856" lon="2.29305">
        <ele>74</ele>
        <time>2022-02-02T11:50:12.519Z</time>
      </trkpt>
      <trkpt lat="48.86861" lon="2.29311">
        <ele>74</ele>
        <time>2022-02-02T11:50:17.506Z</time>
      </trkpt>
      <trkpt lat="48.86867" lon="2.29312">
        <ele>74</ele>
        <time>2022-02-02T11:50:21.512Z</time>
      </trkpt>
      <trkpt lat="48.8687" lon="2.29313">
        <ele>74</ele>
        <time>2022-02-02T11:50:25.509Z</time>
      </trkpt>
      <trkpt lat="48.86875" lon="2.29316">
        <ele>74</ele>
        <time>2022-02-02T11:50:30.514Z</time>
      </trkpt>
      <trkpt lat="48.86881" lon="2.29319">
        <ele>72</ele>
        <time>2022-02-02T11:50:34.515Z</time>
      </trkpt>
      <trkpt lat="48.86885" lon="2.29321">
        <ele>72</ele>
        <time>2022-02-02T11:50:39.514Z</time>
      </trkpt>
      <trkpt lat="48.86891" lon="2.29322">
        <ele>72</ele>
        <time>2022-02-02T11:50:43.522Z</time>
      </trkpt>
      <trkpt lat="48.86896" lon="2.29323">
        <ele>72</ele>
        <time>2022-02-02T11:50:47.510Z</time>
      </trkpt>
      <trkpt lat="48.86902" lon="2.29324">
        <ele>72</ele>
        <time>2022-02-02T11:50:52.521Z</time>
      </trkpt>
      <trkpt lat="48.86908" lon="2.29324">
        <ele>71</ele>
        <time>2022-02-02T11:50:57.501Z</time>
      </trkpt>
      <trkpt lat="48.86915" lon="2.29325">
        <ele>71</ele>
        <time>2022-02-02T11:51:01.512Z</time>
      </trkpt>
      <trkpt lat="48.86921" lon="2.29326">
        <ele>71</ele>
        <time>2022-02-02T11:51:05.517Z</time>
      </trkpt>
      <trkpt lat="48.86927" lon="2.29327">
        <ele>71</ele>
        <time>2022-02-02T11:51:10.499Z</time>
      </trkpt>
      <trkpt lat="48.86932" lon="2.2933">
        <ele>71</ele>
        <time>2022-02-02T11:51:14.518Z</time>
      </trkpt>
      <trkpt lat="48.86937" lon="2.29333">
        <ele>71</ele>
        <time>2022-02-02T11:51:18.514Z</time>
      </trkpt>
      <trkpt lat="48.86942" lon="2.29335">
        <ele>71</ele>
        <time>2022-02-02T11:51:23.530Z</time>
      </trkpt>
      <trkpt lat="48.86947" lon="2.29338">
        <ele>71</ele>
        <time>2022-02-02T11:51:27.522Z</time>
      </trkpt>
      <trkpt lat="48.86952" lon="2.29341">
        <ele>71</ele>
        <time>2022-02-02T11:51:32.513Z</time>
      </trkpt>
      <trkpt lat="48.86955" lon="2.29349">
        <ele>71</ele>
        <time>2022-02-02T11:51:36.507Z</time>
      </trkpt>
      <trkpt lat="48.86958" lon="2.29358">
        <ele>71</ele>
        <time>2022-02-02T11:51:40.495Z</time>
      </trkpt>
      <trkpt lat="48.8696" lon="2.29367">
        <ele>72</ele>
        <time>2022-02-02T11:51:45.508Z</time>
      </trkpt>
      <trkpt lat="48.86963" lon="2.29377">
        <ele>71</ele>
        <time>2022-02-02T11:51:50.503Z</time>
      </trkpt>
      <trkpt lat="48.86966" lon="2.29386">
        <ele>71</ele>
        <time>2022-02-02T11:51:54.516Z</time>
      </trkpt>
      <trkpt lat="48.86968" lon="2.29394">
        <ele>71</ele>
        <time>2022-02-02T11:51:59.512Z</time>
      </trkpt>
      <trkpt lat="48.86972" lon="2.29403">
        <ele>71</ele>
        <time>2022-02-02T11:52:04.500Z</time>
      </trkpt>
      <trkpt lat="48.86975" lon="2.29411">
        <ele>70</ele>
        <time>2022-02-02T11:52:08.508Z</time>
      </trkpt>
      <trkpt lat="48.8698" lon="2.29416">
        <ele>70</ele>
        <time>2022-02-02T11:52:12.512Z</time>
      </trkpt>
      <trkpt lat="48.86983" lon="2.29422">
        <ele>70</ele>
        <time>2022-02-02T11:52:17.517Z</time>
      </trkpt>
      <trkpt lat="48.86987" lon="2.29431">
        <ele>71</ele>
        <time>2022-02-02T11:52:22.520Z</time>
      </trkpt>
      <trkpt lat="48.8699" lon="2.29434">
        <ele>71</ele>
        <time>2022-02-02T11:52:27.509Z</time>
      </trkpt>
      <trkpt lat="48.8699" lon="2.29435">
        <ele>71</ele>
        <time>2022-02-02T11:52:32.496Z</time>
      </trkpt>
      <trkpt lat="48.86992" lon="2.2944">
        <ele>71</ele>
        <time>2022-02-02T11:52:36.512Z</time>
      </trkpt>
      <trkpt lat="48.86994" lon="2.29447">
        <ele>71</ele>
        <time>2022-02-02T11:52:41.509Z</time>
      </trkpt>
      <trkpt lat="48.86998" lon="2.29454">
        <ele>71</ele>
        <time>2022-02-02T11:52:46.505Z</time>
      </trkpt>
      <trkpt lat="48.87002" lon="2.29462">
        <ele>70</ele>
        <time>2022-02-02T11:52:50.509Z</time>
      </trkpt>
      <trkpt lat="48.87006" lon="2.29468">
        <ele>70</ele>
        <time>2022-02-02T11:52:55.507Z</time>
      </trkpt>
      <trkpt lat="48.87011" lon="2.29474">
        <ele>70</ele>
        <time>2022-02-02T11:52:59.509Z</time>
      </trkpt>
      <trkpt lat="48.87014" lon="2.2948">
        <ele>68</ele>
        <time>2022-02-02T11:53:04.506Z</time>
      </trkpt>
      <trkpt lat="48.87018" lon="2.29488">
        <ele>67</ele>
        <time>2022-02-02T11:53:08.513Z</time>
      </trkpt>
      <trkpt lat="48.8702" lon="2.29495">
        <ele>67</ele>
        <time>2022-02-02T11:53:13.517Z</time>
      </trkpt>
      <trkpt lat="48.87023" lon="2.29503">
        <ele>67</ele>
        <time>2022-02-02T11:53:18.511Z</time>
      </trkpt>
      <trkpt lat="48.87027" lon="2.29512">
        <ele>67</ele>
        <time>2022-02-02T11:53:22.519Z</time>
      </trkpt>
      <trkpt lat="48.8703" lon="2.29519">
        <ele>66</ele>
        <time>2022-02-02T11:53:27.513Z</time>
      </trkpt>
      <trkpt lat="48.87032" lon="2.29529">
        <ele>66</ele>
        <time>2022-02-02T11:53:32.515Z</time>
      </trkpt>
      <trkpt lat="48.87031" lon="2.29539">
        <ele>66</ele>
        <time>2022-02-02T11:53:37.506Z</time>
      </trkpt>
      <trkpt lat="48.87027" lon="2.29546">
        <ele>69</ele>
        <time>2022-02-02T11:53:42.517Z</time>
      </trkpt>
      <trkpt lat="48.87022" lon="2.29548">
        <ele>69</ele>
        <time>2022-02-02T11:53:47.530Z</time>
      </trkpt>
      <trkpt lat="48.87018" lon="2.2955">
        <ele>69</ele>
        <time>2022-02-02T11:53:52.522Z</time>
      </trkpt>
      <trkpt lat="48.87012" lon="2.29552">
        <ele>68</ele>
        <time>2022-02-02T11:53:57.520Z</time>
      </trkpt>
      <trkpt lat="48.87007" lon="2.29556">
        <ele>68</ele>
        <time>2022-02-02T11:54:02.497Z</time>
      </trkpt>
      <trkpt lat="48.87003" lon="2.29559">
        <ele>68</ele>
        <time>2022-02-02T11:54:06.511Z</time>
      </trkpt>
      <trkpt lat="48.86998" lon="2.2956">
        <ele>68</ele>
        <time>2022-02-02T11:54:11.512Z</time>
      </trkpt>
      <trkpt lat="48.86991" lon="2.29563">
        <ele>68</ele>
        <time>2022-02-02T11:54:16.502Z</time>
      </trkpt>
      <trkpt lat="48.86984" lon="2.29567">
        <ele>68</ele>
        <time>2022-02-02T11:54:21.503Z</time>
      </trkpt>
      <trkpt lat="48.86978" lon="2.29572">
        <ele>69</ele>
        <time>2022-02-02T11:54:26.503Z</time>
      </trkpt>
      <trkpt lat="48.86977" lon="2.29578">
        <ele>69</ele>
        <time>2022-02-02T11:54:31.500Z</time>
      </trkpt>
      <trkpt lat="48.86973" lon="2.29581">
        <ele>69</ele>
        <time>2022-02-02T11:54:36.501Z</time>
      </trkpt>
      <trkpt lat="48.86968" lon="2.29584">
        <ele>69</ele>
        <time>2022-02-02T11:54:40.523Z</time>
      </trkpt>
      <trkpt lat="48.86963" lon="2.29587">
        <ele>69</ele>
        <time>2022-02-02T11:54:45.504Z</time>
      </trkpt>
      <trkpt lat="48.86957" lon="2.2959">
        <ele>71</ele>
        <time>2022-02-02T11:54:50.510Z</time>
      </trkpt>
      <trkpt lat="48.8695" lon="2.29591">
        <ele>71</ele>
        <time>2022-02-02T11:54:55.503Z</time>
      </trkpt>
      <trkpt lat="48.86944" lon="2.29592">
        <ele>71</ele>
        <time>2022-02-02T11:54:59.519Z</time>
      </trkpt>
      <trkpt lat="48.86939" lon="2.29593">
        <ele>71</ele>
        <time>2022-02-02T11:55:04.504Z</time>
      </trkpt>
      <trkpt lat="48.86933" lon="2.29594">
        <ele>71</ele>
        <time>2022-02-02T11:55:08.511Z</time>
      </trkpt>
      <trkpt lat="48.86928" lon="2.29595">
        <ele>73</ele>
        <time>2022-02-02T11:55:12.525Z</time>
      </trkpt>
      <trkpt lat="48.86923" lon="2.29595">
        <ele>73</ele>
        <time>2022-02-02T11:55:17.519Z</time>
      </trkpt>
      <trkpt lat="48.86916" lon="2.29596">
        <ele>73</ele>
        <time>2022-02-02T11:55:22.500Z</time>
      </trkpt>
      <trkpt lat="48.8691" lon="2.29597">
        <ele>73</ele>
        <time>2022-02-02T11:55:26.506Z</time>
      </trkpt>
      <trkpt lat="48.86904" lon="2.29597">
        <ele>73</ele>
        <time>2022-02-02T11:55:31.502Z</time>
      </trkpt>
      <trkpt lat="48.86898" lon="2.29597">
        <ele>74</ele>
        <time>2022-02-02T11:55:36.534Z</time>
      </trkpt>
      <trkpt lat="48.86891" lon="2.29598">
        <ele>74</ele>
        <time>2022-02-02T11:55:41.502Z</time>
      </trkpt>
      <trkpt lat="48.86884" lon="2.29597">
        <ele>74</ele>
        <time>2022-02-02T11:55:45.505Z</time>
      </trkpt>
      <trkpt lat="48.86879" lon="2.29596">
        <ele>74</ele>
        <time>2022-02-02T11:55:49.511Z</time>
      </trkpt>
      <trkpt lat="48.86873" lon="2.29595">
        <ele>71</ele>
        <time>2022-02-02T11:55:54.511Z</time>
      </trkpt>
      <trkpt lat="48.86867" lon="2.29595">
        <ele>71</ele>
        <time>2022-02-02T11:55:59.508Z</time>
      </trkpt>
      <trkpt lat="48.86859" lon="2.29595">
        <ele>71</ele>
        <time>2022-02-02T11:56:03.517Z</time>
      </trkpt>
      <trkpt lat="48.86854" lon="2.29594">
        <ele>71</ele>
        <time>2022-02-02T11:56:07.514Z</time>
      </trkpt>
      <trkpt lat="48.86849" lon="2.29593">
        <ele>71</ele>
        <time>2022-02-02T11:56:12.511Z</time>
      </trkpt>
      <trkpt lat="48.86842" lon="2.29592">
        <ele>68</ele>
        <time>2022-02-02T11:56:17.515Z</time>
      </trkpt>
      <trkpt lat="48.86835" lon="2.29592">
        <ele>68</ele>
        <time>2022-02-02T11:56:22.508Z</time>
      </trkpt>
      <trkpt lat="48.86827" lon="2.29592">
        <ele>68</ele>
        <time>2022-02-02T11:56:26.518Z</time>
      </trkpt>
      <trkpt lat="48.86822" lon="2.29591">
        <ele>68</ele>
        <time>2022-02-02T11:56:31.508Z</time>
      </trkpt>
      <trkpt lat="48.86815" lon="2.2959">
        <ele>66</ele>
        <time>2022-02-02T11:56:35.513Z</time>
      </trkpt>
      <trkpt lat="48.8681" lon="2.29589">
        <ele>66</ele>
        <time>2022-02-02T11:56:40.515Z</time>
      </trkpt>
      <trkpt lat="48.86806" lon="2.29596">
        <ele>66</ele>
        <time>2022-02-02T11:56:45.513Z</time>
      </trkpt>
      <trkpt lat="48.86809" lon="2.29606">
        <ele>66</ele>
        <time>2022-02-02T11:56:49.515Z</time>
      </trkpt>
      <trkpt lat="48.86813" lon="2.29614">
        <ele>66</ele>
        <time>2022-02-02T11:56:54.516Z</time>
      </trkpt>
      <trkpt lat="48.86818" lon="2.29622">
        <ele>66</ele>
        <time>2022-02-02T11:56:58.516Z</time>
      </trkpt>
      <trkpt lat="48.86823" lon="2.29629">
        <ele>67</ele>
        <time>2022-02-02T11:57:03.514Z</time>
      </trkpt>
      <trkpt lat="48.86827" lon="2.29636">
        <ele>67</ele>
        <time>2022-02-02T11:57:08.516Z</time>
      </trkpt>
      <trkpt lat="48.86832" lon="2.29645">
        <ele>67</ele>
        <time>2022-02-02T11:57:12.519Z</time>
      </trkpt>
      <trkpt lat="48.86835" lon="2.2965">
        <ele>67</ele>
        <time>2022-02-02T11:57:17.510Z</time>
      </trkpt>
      <trkpt lat="48.86839" lon="2.29658">
        <ele>66</ele>
        <time>2022-02-02T11:57:21.515Z</time>
      </trkpt>
      <trkpt lat="48.86844" lon="2.29662">
        <ele>66</ele>
        <time>2022-02-02T11:57:26.522Z</time>
      </trkpt>
      <trkpt lat="48.86849" lon="2.29668">
        <ele>68</ele>
        <time>2022-02-02T11:57:31.500Z</time>
      </trkpt>
      <trkpt lat="48.86853" lon="2.29676">
        <ele>68</ele>
        <time>2022-02-02T11:57:35.502Z</time>
      </trkpt>
      <trkpt lat="48.86855" lon="2.29683">
        <ele>65</ele>
        <time>2022-02-02T11:57:39.513Z</time>
      </trkpt>
      <trkpt lat="48.86859" lon="2.29688">
        <ele>65</ele>
        <time>2022-02-02T11:57:44.507Z</time>
      </trkpt>
      <trkpt lat="48.86863" lon="2.29696">
        <ele>65</ele>
        <time>2022-02-02T11:57:48.513Z</time>
      </trkpt>
      <trkpt lat="48.86866" lon="2.29703">
        <ele>65</ele>
        <time>2022-02-02T11:57:53.501Z</time>
      </trkpt>
      <trkpt lat="48.86871" lon="2.2971">
        <ele>64</ele>
        <time>2022-02-02T11:57:58.511Z</time>
      </trkpt>
      <trkpt lat="48.86876" lon="2.29717">
        <ele>66</ele>
        <time>2022-02-02T11:58:02.513Z</time>
      </trkpt>
      <trkpt lat="48.86879" lon="2.29723">
        <ele>66</ele>
        <time>2022-02-02T11:58:07.510Z</time>
      </trkpt>
      <trkpt lat="48.86883" lon="2.29729">
        <ele>66</ele>
        <time>2022-02-02T11:58:12.520Z</time>
      </trkpt>
      <trkpt lat="48.86888" lon="2.29735">
        <ele>66</ele>
        <time>2022-02-02T11:58:17.504Z</time>
      </trkpt>
      <trkpt lat="48.86893" lon="2.29741">
        <ele>66</ele>
        <time>2022-02-02T11:58:21.500Z</time>
      </trkpt>
      <trkpt lat="48.86898" lon="2.29743">
        <ele>66</ele>
        <time>2022-02-02T11:58:26.509Z</time>
      </trkpt>
      <trkpt lat="48.86905" lon="2.29746">
        <ele>69</ele>
        <time>2022-02-02T11:58:31.510Z</time>
      </trkpt>
      <trkpt lat="48.8691" lon="2.29751">
        <ele>69</ele>
        <time>2022-02-02T11:58:35.506Z</time>
      </trkpt>
      <trkpt lat="48.86915" lon="2.29756">
        <ele>69</ele>
        <time>2022-02-02T11:58:40.506Z</time>
      </trkpt>
      <trkpt lat="48.8692" lon="2.29761">
        <ele>69</ele>
        <time>2022-02-02T11:58:44.514Z</time>
      </trkpt>
      <trkpt lat="48.86923" lon="2.29767">
        <ele>68</ele>
        <time>2022-02-02T11:58:48.508Z</time>
      </trkpt>
      <trkpt lat="48.86927" lon="2.29773">
        <ele>68</ele>
        <time>2022-02-02T11:58:53.509Z</time>
      </trkpt>
      <trkpt lat="48.86931" lon="2.29781">
        <ele>70</ele>
        <time>2022-02-02T11:58:58.511Z</time>
      </trkpt>
      <trkpt lat="48.86936" lon="2.29788">
        <ele>70</ele>
        <time>2022-02-02T11:59:02.511Z</time>
      </trkpt>
      <trkpt lat="48.86939" lon="2.29794">
        <ele>69</ele>
        <time>2022-02-02T11:59:06.510Z</time>
      </trkpt>
      <trkpt lat="48.86943" lon="2.29796">
        <ele>69</ele>
        <time>2022-02-02T11:59:11.510Z</time>
      </trkpt>
      <trkpt lat="48.86948" lon="2.29801">
        <ele>69</ele>
        <time>2022-02-02T11:59:15.521Z</time>
      </trkpt>
      <trkpt lat="48.86951" lon="2.29807">
        <ele>69</ele>
        <time>2022-02-02T11:59:20.512Z</time>
      </trkpt>
      <trkpt lat="48.86951" lon="2.29814">
        <ele>69</ele>
        <time>2022-02-02T11:59:25.502Z</time>
      </trkpt>
      <trkpt lat="48.86945" lon="2.29817">
        <ele>69</ele>
        <time>2022-02-02T11:59:30.520Z</time>
      </trkpt>
      <trkpt lat="48.86939" lon="2.2982">
        <ele>68</ele>
        <time>2022-02-02T11:59:35.505Z</time>
      </trkpt>
      <trkpt lat="48.86933" lon="2.29822">
        <ele>68</ele>
        <time>2022-02-02T11:59:39.505Z</time>
      </trkpt>
      <trkpt lat="48.86928" lon="2.29825">
        <ele>65</ele>
        <time>2022-02-02T11:59:44.517Z</time>
      </trkpt>
      <trkpt lat="48.86923" lon="2.29827">
        <ele>65</ele>
        <time>2022-02-02T11:59:49.521Z</time>
      </trkpt>
      <trkpt lat="48.86917" lon="2.2983">
        <ele>65</ele>
        <time>2022-02-02T11:59:54.510Z</time>
      </trkpt>
      <trkpt lat="48.86911" lon="2.29833">
        <ele>65</ele>
        <time>2022-02-02T11:59:58.515Z</time>
      </trkpt>
      <trkpt lat="48.86906" lon="2.29834">
        <ele>65</ele>
        <time>2022-02-02T12:00:03.519Z</time>
      </trkpt>
      <trkpt lat="48.86901" lon="2.29838">
        <ele>61</ele>
        <time>2022-02-02T12:00:08.514Z</time>
      </trkpt>
      <trkpt lat="48.86894" lon="2.29841">
        <ele>61</ele>
        <time>2022-02-02T12:00:13.511Z</time>
      </trkpt>
      <trkpt lat="48.86889" lon="2.29845">
        <ele>61</ele>
        <time>2022-02-02T12:00:18.505Z</time>
      </trkpt>
      <trkpt lat="48.86883" lon="2.29849">
        <ele>60</ele>
        <time>2022-02-02T12:00:23.505Z</time>
      </trkpt>
      <trkpt lat="48.86877" lon="2.29852">
        <ele>60</ele>
        <time>2022-02-02T12:00:27.513Z</time>
      </trkpt>
      <trkpt lat="48.86872" lon="2.29855">
        <ele>59</ele>
        <time>2022-02-02T12:00:32.508Z</time>
      </trkpt>
      <trkpt lat="48.86866" lon="2.29858">
        <ele>59</ele>
        <time>2022-02-02T12:00:36.530Z</time>
      </trkpt>
      <trkpt lat="48.86862" lon="2.29863">
        <ele>59</ele>
        <time>2022-02-02T12:00:41.525Z</time>
      </trkpt>
      <trkpt lat="48.86858" lon="2.2987">
        <ele>59</ele>
        <time>2022-02-02T12:00:46.511Z</time>
      </trkpt>
      <trkpt lat="48.86852" lon="2.29873">
        <ele>59</ele>
        <time>2022-02-02T12:00:50.508Z</time>
      </trkpt>
      <trkpt lat="48.86847" lon="2.29874">
        <ele>60</ele>
        <time>2022-02-02T12:00:55.507Z</time>
      </trkpt>
      <trkpt lat="48.86842" lon="2.29868">
        <ele>60</ele>
        <time>2022-02-02T12:00:59.517Z</time>
      </trkpt>
      <trkpt lat="48.86839" lon="2.29862">
        <ele>60</ele>
        <time>2022-02-02T12:01:04.507Z</time>
      </trkpt>
      <trkpt lat="48.86833" lon="2.2986">
        <ele>60</ele>
        <time>2022-02-02T12:01:08.514Z</time>
      </trkpt>
      <trkpt lat="48.86829" lon="2.29856">
        <ele>60</ele>
        <time>2022-02-02T12:01:12.517Z</time>
      </trkpt>
      <trkpt lat="48.86825" lon="2.29851">
        <ele>60</ele>
        <time>2022-02-02T12:01:17.520Z</time>
      </trkpt>
      <trkpt lat="48.86821" lon="2.29845">
        <ele>61</ele>
        <time>2022-02-02T12:01:22.516Z</time>
      </trkpt>
      <trkpt lat="48.86817" lon="2.29841">
        <ele>61</ele>
        <time>2022-02-02T12:01:27.514Z</time>
      </trkpt>
      <trkpt lat="48.86814" lon="2.29839">
        <ele>61</ele>
        <time>2022-02-02T12:01:31.516Z</time>
      </trkpt>
      <trkpt lat="48.86811" lon="2.29835">
        <ele>61</ele>
        <time>2022-02-02T12:01:36.510Z</time>
      </trkpt>
      <trkpt lat="48.86807" lon="2.29828">
        <ele>61</ele>
        <time>2022-02-02T12:01:40.510Z</time>
      </trkpt>
      <trkpt lat="48.86804" lon="2.29823">
        <ele>61</ele>
        <time>2022-02-02T12:01:44.507Z</time>
      </trkpt>
      <trkpt lat="48.86799" lon="2.2982">
        <ele>61</ele>
        <time>2022-02-02T12:01:49.506Z</time>
      </trkpt>
      <trkpt lat="48.86794" lon="2.29818">
        <ele>61</ele>
        <time>2022-02-02T12:01:53.505Z</time>
      </trkpt>
      <trkpt lat="48.86789" lon="2.29815">
        <ele>62</ele>
        <time>2022-02-02T12:01:57.637Z</time>
      </trkpt>
      <trkpt lat="48.86784" lon="2.29814">
        <ele>62</ele>
        <time>2022-02-02T12:02:02.500Z</time>
      </trkpt>
      <trkpt lat="48.86784" lon="2.29811">
        <ele>62</ele>
        <time>2022-02-02T12:02:07.503Z</time>
      </trkpt>
      <trkpt lat="48.8678" lon="2.29804">
        <ele>62</ele>
        <time>2022-02-02T12:02:11.509Z</time>
      </trkpt>
      <trkpt lat="48.86778" lon="2.29798">
        <ele>62</ele>
        <time>2022-02-02T12:02:15.504Z</time>
      </trkpt>
      <trkpt lat="48.86774" lon="2.29794">
        <ele>62</ele>
        <time>2022-02-02T12:02:20.501Z</time>
      </trkpt>
      <trkpt lat="48.86769" lon="2.29792">
        <ele>62</ele>
        <time>2022-02-02T12:02:24.512Z</time>
      </trkpt>
      <trkpt lat="48.86763" lon="2.29792">
        <ele>61</ele>
        <time>2022-02-02T12:02:29.506Z</time>
      </trkpt>
      <trkpt lat="48.86758" lon="2.29787">
        <ele>62</ele>
        <time>2022-02-02T12:02:34.512Z</time>
      </trkpt>
      <trkpt lat="48.86753" lon="2.29784">
        <ele>62</ele>
        <time>2022-02-02T12:02:39.501Z</time>
      </trkpt>
      <trkpt lat="48.86749" lon="2.29777">
        <ele>62</ele>
        <time>2022-02-02T12:02:43.509Z</time>
      </trkpt>
      <trkpt lat="48.86748" lon="2.29768">
        <ele>62</ele>
        <time>2022-02-02T12:02:48.512Z</time>
      </trkpt>
      <trkpt lat="48.86747" lon="2.2976">
        <ele>63</ele>
        <time>2022-02-02T12:02:53.510Z</time>
      </trkpt>
      <trkpt lat="48.86743" lon="2.29754">
        <ele>63</ele>
        <time>2022-02-02T12:02:58.501Z</time>
      </trkpt>
      <trkpt lat="48.86739" lon="2.29749">
        <ele>63</ele>
        <time>2022-02-02T12:03:02.512Z</time>
      </trkpt>
      <trkpt lat="48.86734" lon="2.29744">
        <ele>62</ele>
        <time>2022-02-02T12:03:07.511Z</time>
      </trkpt>
      <trkpt lat="48.86729" lon="2.29741">
        <ele>62</ele>
        <time>2022-02-02T12:03:12.509Z</time>
      </trkpt>
      <trkpt lat="48.86724" lon="2.29734">
        <ele>63</ele>
        <time>2022-02-02T12:03:16.512Z</time>
      </trkpt>
      <trkpt lat="48.8672" lon="2.2973">
        <ele>63</ele>
        <time>2022-02-02T12:03:21.516Z</time>
      </trkpt>
      <trkpt lat="48.86716" lon="2.29723">
        <ele>63</ele>
        <time>2022-02-02T12:03:25.519Z</time>
      </trkpt>
      <trkpt lat="48.86712" lon="2.29718">
        <ele>63</ele>
        <time>2022-02-02T12:03:29.514Z</time>
      </trkpt>
      <trkpt lat="48.86708" lon="2.29713">
        <ele>61</ele>
        <time>2022-02-02T12:03:34.509Z</time>
      </trkpt>
      <trkpt lat="48.86704" lon="2.29704">
        <ele>61</ele>
        <time>2022-02-02T12:03:39.506Z</time>
      </trkpt>
      <trkpt lat="48.86699" lon="2.29696">
        <ele>61</ele>
        <time>2022-02-02T12:03:43.506Z</time>
      </trkpt>
      <trkpt lat="48.86696" lon="2.2969">
        <ele>61</ele>
        <time>2022-02-02T12:03:48.521Z</time>
      </trkpt>
      <trkpt lat="48.86691" lon="2.29684">
        <ele>61</ele>
        <time>2022-02-02T12:03:53.520Z</time>
      </trkpt>
      <trkpt lat="48.86686" lon="2.29676">
        <ele>62</ele>
        <time>2022-02-02T12:03:58.514Z</time>
      </trkpt>
      <trkpt lat="48.86683" lon="2.29667">
        <ele>62</ele>
        <time>2022-02-02T12:04:03.509Z</time>
      </trkpt>
      <trkpt lat="48.86676" lon="2.29663">
        <ele>58</ele>
        <time>2022-02-02T12:04:08.514Z</time>
      </trkpt>
      <trkpt lat="48.86669" lon="2.29659">
        <ele>58</ele>
        <time>2022-02-02T12:04:13.513Z</time>
      </trkpt>
      <trkpt lat="48.86663" lon="2.29659">
        <ele>58</ele>
        <time>2022-02-02T12:04:27.519Z</time>
      </trkpt>
      <trkpt lat="48.86656" lon="2.29663">
        <ele>58</ele>
        <time>2022-02-02T12:04:32.506Z</time>
      </trkpt>
      <trkpt lat="48.86649" lon="2.2967">
        <ele>55</ele>
        <time>2022-02-02T12:04:37.514Z</time>
      </trkpt>
      <trkpt lat="48.86643" lon="2.29682">
        <ele>54</ele>
        <time>2022-02-02T12:04:42.512Z</time>
      </trkpt>
      <trkpt lat="48.86641" lon="2.29691">
        <ele>54</ele>
        <time>2022-02-02T12:04:47.520Z</time>
      </trkpt>
      <trkpt lat="48.86642" lon="2.29697">
        <ele>54</ele>
        <time>2022-02-02T12:05:01.498Z</time>
      </trkpt>
      <trkpt lat="48.86642" lon="2.297">
        <ele>54</ele>
        <time>2022-02-02T12:05:06.509Z</time>
      </trkpt>
      <trkpt lat="48.86641" lon="2.29701">
        <ele>54</ele>
        <time>2022-02-02T12:05:10.522Z</time>
      </trkpt>
      <trkpt lat="48.8664" lon="2.29701">
        <ele>54</ele>
        <time>2022-02-02T12:05:15.511Z</time>
      </trkpt>
      <trkpt lat="48.8664" lon="2.29692">
        <ele>54</ele>
        <time>2022-02-02T12:05:20.525Z</time>
      </trkpt>
      <trkpt lat="48.86633" lon="2.29709">
        <ele>54</ele>
        <time>2022-02-02T12:05:25.526Z</time>
      </trkpt>
      <trkpt lat="48.86635" lon="2.29711">
        <ele>54</ele>
        <time>2022-02-02T12:05:29.528Z</time>
      </trkpt>
      <trkpt lat="48.86636" lon="2.29713">
        <ele>54</ele>
        <time>2022-02-02T12:05:34.515Z</time>
      </trkpt>
      <trkpt lat="48.86636" lon="2.29713">
        <ele>54</ele>
        <time>2022-02-02T12:05:38.512Z</time>
      </trkpt>
      <trkpt lat="48.86628" lon="2.29725">
        <ele>54</ele>
        <time>2022-02-02T12:07:04.506Z</time>
      </trkpt>
      <trkpt lat="48.8662" lon="2.2974">
        <ele>58</ele>
        <time>2022-02-02T12:07:09.503Z</time>
      </trkpt>
      <trkpt lat="48.86614" lon="2.29745">
        <ele>58</ele>
        <time>2022-02-02T12:07:14.509Z</time>
      </trkpt>
      <trkpt lat="48.86611" lon="2.29751">
        <ele>58</ele>
        <time>2022-02-02T12:07:19.499Z</time>
      </trkpt>
      <trkpt lat="48.86606" lon="2.29757">
        <ele>58</ele>
        <time>2022-02-02T12:12:45.514Z</time>
      </trkpt>
      <trkpt lat="48.86602" lon="2.29762">
        <ele>58</ele>
        <time>2022-02-02T12:12:49.509Z</time>
      </trkpt>
      <trkpt lat="48.86598" lon="2.29769">
        <ele>60</ele>
        <time>2022-02-02T12:12:54.503Z</time>
      </trkpt>
      <trkpt lat="48.86594" lon="2.29772">
        <ele>56</ele>
        <time>2022-02-02T12:12:58.516Z</time>
      </trkpt>
      <trkpt lat="48.86589" lon="2.29777">
        <ele>56</ele>
        <time>2022-02-02T12:13:03.513Z</time>
      </trkpt>
      <trkpt lat="48.86586" lon="2.29781">
        <ele>56</ele>
        <time>2022-02-02T12:13:07.508Z</time>
      </trkpt>
      <trkpt lat="48.86584" lon="2.2979">
        <ele>56</ele>
        <time>2022-02-02T12:13:12.511Z</time>
      </trkpt>
      <trkpt lat="48.86582" lon="2.29795">
        <ele>55</ele>
        <time>2022-02-02T12:13:16.510Z</time>
      </trkpt>
      <trkpt lat="48.86578" lon="2.29798">
        <ele>55</ele>
        <time>2022-02-02T12:13:21.525Z</time>
      </trkpt>
      <trkpt lat="48.86572" lon="2.29803">
        <ele>55</ele>
        <time>2022-02-02T12:13:26.505Z</time>
      </trkpt>
      <trkpt lat="48.86567" lon="2.29808">
        <ele>52</ele>
        <time>2022-02-02T12:13:30.508Z</time>
      </trkpt>
      <trkpt lat="48.8656" lon="2.29812">
        <ele>52</ele>
        <time>2022-02-02T12:13:34.510Z</time>
      </trkpt>
      <trkpt lat="48.86555" lon="2.29818">
        <ele>52</ele>
        <time>2022-02-02T12:13:39.507Z</time>
      </trkpt>
      <trkpt lat="48.8655" lon="2.29824">
        <ele>52</ele>
        <time>2022-02-02T12:13:43.510Z</time>
      </trkpt>
      <trkpt lat="48.86547" lon="2.29827">
        <ele>52</ele>
        <time>2022-02-02T12:13:48.506Z</time>
      </trkpt>
      <trkpt lat="48.86542" lon="2.29831">
        <ele>52</ele>
        <time>2022-02-02T12:13:52.512Z</time>
      </trkpt>
      <trkpt lat="48.86535" lon="2.29833">
        <ele>49</ele>
        <time>2022-02-02T12:13:56.504Z</time>
      </trkpt>
      <trkpt lat="48.8654" lon="2.2983">
        <ele>49</ele>
        <time>2022-02-02T12:14:01.507Z</time>
      </trkpt>
      <trkpt lat="48.86548" lon="2.29832">
        <ele>52</ele>
        <time>2022-02-02T12:14:05.510Z</time>
      </trkpt>
      <trkpt lat="48.86553" lon="2.29827">
        <ele>52</ele>
        <time>2022-02-02T12:14:10.520Z</time>
      </trkpt>
      <trkpt lat="48.86556" lon="2.29822">
        <ele>52</ele>
        <time>2022-02-02T12:14:15.508Z</time>
      </trkpt>
      <trkpt lat="48.86568" lon="2.29819">
        <ele>52</ele>
        <time>2022-02-02T12:14:19.514Z</time>
      </trkpt>
      <trkpt lat="48.86574" lon="2.29812">
        <ele>55</ele>
        <time>2022-02-02T12:14:24.513Z</time>
      </trkpt>
      <trkpt lat="48.86582" lon="2.29806">
        <ele>55</ele>
        <time>2022-02-02T12:14:28.512Z</time>
      </trkpt>
      <trkpt lat="48.86584" lon="2.29798">
        <ele>55</ele>
        <time>2022-02-02T12:14:33.512Z</time>
      </trkpt>
      <trkpt lat="48.86586" lon="2.29789">
        <ele>56</ele>
        <time>2022-02-02T12:14:38.514Z</time>
      </trkpt>
      <trkpt lat="48.86589" lon="2.2978">
        <ele>56</ele>
        <time>2022-02-02T12:14:42.510Z</time>
      </trkpt>
      <trkpt lat="48.86593" lon="2.29775">
        <ele>56</ele>
        <time>2022-02-02T12:14:47.508Z</time>
      </trkpt>
      <trkpt lat="48.86596" lon="2.29769">
        <ele>56</ele>
        <time>2022-02-02T12:14:52.526Z</time>
      </trkpt>
      <trkpt lat="48.86589" lon="2.29762">
        <ele>56</ele>
        <time>2022-02-02T12:14:57.522Z</time>
      </trkpt>
      <trkpt lat="48.86586" lon="2.29754">
        <ele>56</ele>
        <time>2022-02-02T12:15:02.509Z</time>
      </trkpt>
      <trkpt lat="48.86582" lon="2.29748">
        <ele>56</ele>
        <time>2022-02-02T12:15:07.512Z</time>
      </trkpt>
      <trkpt lat="48.86583" lon="2.29741">
        <ele>56</ele>
        <time>2022-02-02T12:15:11.512Z</time>
      </trkpt>
      <trkpt lat="48.86585" lon="2.29733">
        <ele>56</ele>
        <time>2022-02-02T12:15:16.510Z</time>
      </trkpt>
      <trkpt lat="48.86586" lon="2.29726">
        <ele>56</ele>
        <time>2022-02-02T12:15:20.515Z</time>
      </trkpt>
      <trkpt lat="48.86588" lon="2.29719">
        <ele>56</ele>
        <time>2022-02-02T12:15:25.513Z</time>
      </trkpt>
      <trkpt lat="48.86591" lon="2.29711">
        <ele>56</ele>
        <time>2022-02-02T12:15:30.520Z</time>
      </trkpt>
      <trkpt lat="48.86594" lon="2.29706">
        <ele>55</ele>
        <time>2022-02-02T12:15:35.500Z</time>
      </trkpt>
      <trkpt lat="48.86599" lon="2.29698">
        <ele>55</ele>
        <time>2022-02-02T12:15:39.522Z</time>
      </trkpt>
      <trkpt lat="48.86603" lon="2.29691">
        <ele>55</ele>
        <time>2022-02-02T12:15:44.516Z</time>
      </trkpt>
      <trkpt lat="48.86606" lon="2.29686">
        <ele>55</ele>
        <time>2022-02-02T12:15:49.509Z</time>
      </trkpt>
      <trkpt lat="48.86611" lon="2.29672">
        <ele>55</ele>
        <time>2022-02-02T12:15:53.510Z</time>
      </trkpt>
      <trkpt lat="48.86611" lon="2.29664">
        <ele>55</ele>
        <time>2022-02-02T12:15:57.519Z</time>
      </trkpt>
      <trkpt lat="48.86613" lon="2.29658">
        <ele>55</ele>
        <time>2022-02-02T12:16:02.512Z</time>
      </trkpt>
      <trkpt lat="48.86617" lon="2.29652">
        <ele>57</ele>
        <time>2022-02-02T12:16:07.508Z</time>
      </trkpt>
      <trkpt lat="48.86621" lon="2.29647">
        <ele>57</ele>
        <time>2022-02-02T12:16:11.507Z</time>
      </trkpt>
      <trkpt lat="48.86623" lon="2.29637">
        <ele>57</ele>
        <time>2022-02-02T12:16:16.510Z</time>
      </trkpt>
      <trkpt lat="48.86625" lon="2.29631">
        <ele>58</ele>
        <time>2022-02-02T12:16:20.512Z</time>
      </trkpt>
      <trkpt lat="48.86632" lon="2.29631">
        <ele>58</ele>
        <time>2022-02-02T12:16:25.513Z</time>
      </trkpt>
      <trkpt lat="48.86636" lon="2.29637">
        <ele>58</ele>
        <time>2022-02-02T12:16:30.507Z</time>
      </trkpt>
      <trkpt lat="48.86641" lon="2.29642">
        <ele>58</ele>
        <time>2022-02-02T12:16:35.502Z</time>
      </trkpt>
      <trkpt lat="48.86645" lon="2.29647">
        <ele>58</ele>
        <time>2022-02-02T12:16:39.514Z</time>
      </trkpt>
      <trkpt lat="48.8665" lon="2.29651">
        <ele>58</ele>
        <time>2022-02-02T12:16:44.511Z</time>
      </trkpt>
      <trkpt lat="48.86656" lon="2.29652">
        <ele>61</ele>
        <time>2022-02-02T12:17:04.515Z</time>
      </trkpt>
      <trkpt lat="48.8666" lon="2.29647">
        <ele>61</ele>
        <time>2022-02-02T12:17:09.506Z</time>
      </trkpt>
      <trkpt lat="48.86662" lon="2.29642">
        <ele>61</ele>
        <time>2022-02-02T12:17:14.519Z</time>
      </trkpt>
      <trkpt lat="48.86666" lon="2.29638">
        <ele>61</ele>
        <time>2022-02-02T12:17:19.508Z</time>
      </trkpt>
      <trkpt lat="48.86671" lon="2.29632">
        <ele>61</ele>
        <time>2022-02-02T12:17:23.524Z</time>
      </trkpt>
      <trkpt lat="48.86677" lon="2.29626">
        <ele>61</ele>
        <time>2022-02-02T12:17:28.516Z</time>
      </trkpt>
      <trkpt lat="48.8668" lon="2.29621">
        <ele>64</ele>
        <time>2022-02-02T12:17:33.516Z</time>
      </trkpt>
      <trkpt lat="48.86685" lon="2.29616">
        <ele>66</ele>
        <time>2022-02-02T12:17:38.503Z</time>
      </trkpt>
      <trkpt lat="48.86689" lon="2.29611">
        <ele>66</ele>
        <time>2022-02-02T12:17:42.512Z</time>
      </trkpt>
      <trkpt lat="48.86693" lon="2.29607">
        <ele>66</ele>
        <time>2022-02-02T12:17:46.513Z</time>
      </trkpt>
      <trkpt lat="48.86698" lon="2.29601">
        <ele>66</ele>
        <time>2022-02-02T12:17:51.507Z</time>
      </trkpt>
      <trkpt lat="48.86701" lon="2.29595">
        <ele>68</ele>
        <time>2022-02-02T12:17:55.511Z</time>
      </trkpt>
      <trkpt lat="48.86705" lon="2.2959">
        <ele>68</ele>
        <time>2022-02-02T12:17:59.512Z</time>
      </trkpt>
      <trkpt lat="48.86709" lon="2.29583">
        <ele>66</ele>
        <time>2022-02-02T12:18:04.506Z</time>
      </trkpt>
      <trkpt lat="48.86714" lon="2.29576">
        <ele>66</ele>
        <time>2022-02-02T12:18:09.514Z</time>
      </trkpt>
      <trkpt lat="48.86716" lon="2.29568">
        <ele>66</ele>
        <time>2022-02-02T12:18:14.514Z</time>
      </trkpt>
      <trkpt lat="48.86716" lon="2.29561">
        <ele>66</ele>
        <time>2022-02-02T12:18:19.511Z</time>
      </trkpt>
      <trkpt lat="48.86716" lon="2.29556">
        <ele>66</ele>
        <time>2022-02-02T12:18:24.510Z</time>
      </trkpt>
      <trkpt lat="48.86716" lon="2.29554">
        <ele>66</ele>
        <time>2022-02-02T12:18:29.510Z</time>
      </trkpt>
      <trkpt lat="48.86716" lon="2.29552">
        <ele>66</ele>
        <time>2022-02-02T12:18:34.509Z</time>
      </trkpt>
      <trkpt lat="48.86717" lon="2.29545">
        <ele>66</ele>
        <time>2022-02-02T12:18:39.503Z</time>
      </trkpt>
      <trkpt lat="48.8672" lon="2.29538">
        <ele>66</ele>
        <time>2022-02-02T12:18:43.517Z</time>
      </trkpt>
      <trkpt lat="48.86725" lon="2.29529">
        <ele>66</ele>
        <time>2022-02-02T12:18:48.520Z</time>
      </trkpt>
      <trkpt lat="48.86727" lon="2.29519">
        <ele>66</ele>
        <time>2022-02-02T12:18:53.503Z</time>
      </trkpt>
      <trkpt lat="48.86726" lon="2.29509">
        <ele>64</ele>
        <time>2022-02-02T12:18:57.507Z</time>
      </trkpt>
      <trkpt lat="48.86722" lon="2.29502">
        <ele>64</ele>
        <time>2022-02-02T12:19:10.514Z</time>
      </trkpt>
      <trkpt lat="48.86717" lon="2.29493">
        <ele>64</ele>
        <time>2022-02-02T12:19:15.514Z</time>
      </trkpt>
      <trkpt lat="48.86714" lon="2.29488">
        <ele>64</ele>
        <time>2022-02-02T12:19:19.520Z</time>
      </trkpt>
      <trkpt lat="48.86711" lon="2.29481">
        <ele>61</ele>
        <time>2022-02-02T12:19:24.510Z</time>
      </trkpt>
      <trkpt lat="48.86707" lon="2.29475">
        <ele>62</ele>
        <time>2022-02-02T12:19:28.512Z</time>
      </trkpt>
      <trkpt lat="48.86704" lon="2.2947">
        <ele>62</ele>
        <time>2022-02-02T12:19:33.505Z</time>
      </trkpt>
      <trkpt lat="48.867" lon="2.29463">
        <ele>62</ele>
        <time>2022-02-02T12:19:37.507Z</time>
      </trkpt>
      <trkpt lat="48.86695" lon="2.29456">
        <ele>60</ele>
        <time>2022-02-02T12:19:42.518Z</time>
      </trkpt>
      <trkpt lat="48.86691" lon="2.29447">
        <ele>60</ele>
        <time>2022-02-02T12:19:47.507Z</time>
      </trkpt>
      <trkpt lat="48.86686" lon="2.29439">
        <ele>60</ele>
        <time>2022-02-02T12:19:52.512Z</time>
      </trkpt>
      <trkpt lat="48.86683" lon="2.29433">
        <ele>60</ele>
        <time>2022-02-02T12:19:57.510Z</time>
      </trkpt>
      <trkpt lat="48.8668" lon="2.29426">
        <ele>61</ele>
        <time>2022-02-02T12:20:02.505Z</time>
      </trkpt>
      <trkpt lat="48.86676" lon="2.29419">
        <ele>61</ele>
        <time>2022-02-02T12:20:07.527Z</time>
      </trkpt>
      <trkpt lat="48.86673" lon="2.29412">
        <ele>61</ele>
        <time>2022-02-02T12:20:12.503Z</time>
      </trkpt>
      <trkpt lat="48.86666" lon="2.29407">
        <ele>61</ele>
        <time>2022-02-02T12:20:16.506Z</time>
      </trkpt>
      <trkpt lat="48.86662" lon="2.29401">
        <ele>61</ele>
        <time>2022-02-02T12:20:20.517Z</time>
      </trkpt>
      <trkpt lat="48.86654" lon="2.29395">
        <ele>61</ele>
        <time>2022-02-02T12:20:25.521Z</time>
      </trkpt>
      <trkpt lat="48.86649" lon="2.29389">
        <ele>60</ele>
        <time>2022-02-02T12:20:30.511Z</time>
      </trkpt>
      <trkpt lat="48.86644" lon="2.29384">
        <ele>60</ele>
        <time>2022-02-02T12:20:34.512Z</time>
      </trkpt>
      <trkpt lat="48.8664" lon="2.29376">
        <ele>60</ele>
        <time>2022-02-02T12:20:39.508Z</time>
      </trkpt>
      <trkpt lat="48.86635" lon="2.29371">
        <ele>60</ele>
        <time>2022-02-02T12:20:43.510Z</time>
      </trkpt>
      <trkpt lat="48.8663" lon="2.29365">
        <ele>60</ele>
        <time>2022-02-02T12:20:47.518Z</time>
      </trkpt>
      <trkpt lat="48.86626" lon="2.29357">
        <ele>60</ele>
        <time>2022-02-02T12:20:52.510Z</time>
      </trkpt>
      <trkpt lat="48.86621" lon="2.29348">
        <ele>61</ele>
        <time>2022-02-02T12:20:57.512Z</time>
      </trkpt>
      <trkpt lat="48.86617" lon="2.29341">
        <ele>62</ele>
        <time>2022-02-02T12:21:01.520Z</time>
      </trkpt>
      <trkpt lat="48.86612" lon="2.29335">
        <ele>62</ele>
        <time>2022-02-02T12:21:06.519Z</time>
      </trkpt>
      <trkpt lat="48.86608" lon="2.29328">
        <ele>62</ele>
        <time>2022-02-02T12:21:11.504Z</time>
      </trkpt>
      <trkpt lat="48.86603" lon="2.29321">
        <ele>62</ele>
        <time>2022-02-02T12:21:16.513Z</time>
      </trkpt>
      <trkpt lat="48.86598" lon="2.29314">
        <ele>64</ele>
        <time>2022-02-02T12:21:21.512Z</time>
      </trkpt>
      <trkpt lat="48.8659" lon="2.29295">
        <ele>66</ele>
        <time>2022-02-02T12:21:35.513Z</time>
      </trkpt>
      <trkpt lat="48.86589" lon="2.29292">
        <ele>66</ele>
        <time>2022-02-02T12:21:40.505Z</time>
      </trkpt>
      <trkpt lat="48.86585" lon="2.29288">
        <ele>66</ele>
        <time>2022-02-02T12:21:45.514Z</time>
      </trkpt>
      <trkpt lat="48.86581" lon="2.29283">
        <ele>66</ele>
        <time>2022-02-02T12:21:49.524Z</time>
      </trkpt>
      <trkpt lat="48.86583" lon="2.29278">
        <ele>66</ele>
        <time>2022-02-02T12:21:54.515Z</time>
      </trkpt>
      <trkpt lat="48.86582" lon="2.29277">
        <ele>66</ele>
        <time>2022-02-02T12:21:59.517Z</time>
      </trkpt>
      <trkpt lat="48.86583" lon="2.29274">
        <ele>66</ele>
        <time>2022-02-02T12:22:04.514Z</time>
      </trkpt>
      <trkpt lat="48.86586" lon="2.29269">
        <ele>66</ele>
        <time>2022-02-02T12:22:09.508Z</time>
      </trkpt>
      <trkpt lat="48.86589" lon="2.29265">
        <ele>66</ele>
        <time>2022-02-02T12:22:13.518Z</time>
      </trkpt>
      <trkpt lat="48.86586" lon="2.29247">
        <ele>65</ele>
        <time>2022-02-02T12:22:18.503Z</time>
      </trkpt>
      <trkpt lat="48.86582" lon="2.29248">
        <ele>65</ele>
        <time>2022-02-02T12:22:22.513Z</time>
      </trkpt>
      <trkpt lat="48.86579" lon="2.2925">
        <ele>65</ele>
        <time>2022-02-02T12:22:27.512Z</time>
      </trkpt>
      <trkpt lat="48.86582" lon="2.29242">
        <ele>65</ele>
        <time>2022-02-02T12:22:31.515Z</time>
      </trkpt>
      <trkpt lat="48.86585" lon="2.29237">
        <ele>65</ele>
        <time>2022-02-02T12:22:35.523Z</time>
      </trkpt>
      <trkpt lat="48.86588" lon="2.29232">
        <ele>65</ele>
        <time>2022-02-02T12:22:40.506Z</time>
      </trkpt>
      <trkpt lat="48.86591" lon="2.29229">
        <ele>65</ele>
        <time>2022-02-02T12:22:45.522Z</time>
      </trkpt>
      <trkpt lat="48.86595" lon="2.29225">
        <ele>65</ele>
        <time>2022-02-02T12:22:50.509Z</time>
      </trkpt>
      <trkpt lat="48.86598" lon="2.29219">
        <ele>66</ele>
        <time>2022-02-02T12:22:55.504Z</time>
      </trkpt>
      <trkpt lat="48.86602" lon="2.29214">
        <ele>66</ele>
        <time>2022-02-02T12:22:59.507Z</time>
      </trkpt>
      <trkpt lat="48.86605" lon="2.29208">
        <ele>66</ele>
        <time>2022-02-02T12:23:03.510Z</time>
      </trkpt>
      <trkpt lat="48.86609" lon="2.29205">
        <ele>66</ele>
        <time>2022-02-02T12:23:08.505Z</time>
      </trkpt>
      <trkpt lat="48.86613" lon="2.292">
        <ele>66</ele>
        <time>2022-02-02T12:23:12.524Z</time>
      </trkpt>
      <trkpt lat="48.86618" lon="2.29194">
        <ele>66</ele>
        <time>2022-02-02T12:23:17.512Z</time>
      </trkpt>
      <trkpt lat="48.86623" lon="2.29189">
        <ele>66</ele>
        <time>2022-02-02T12:23:21.526Z</time>
      </trkpt>
      <trkpt lat="48.86628" lon="2.29184">
        <ele>67</ele>
        <time>2022-02-02T12:23:26.520Z</time>
      </trkpt>
      <trkpt lat="48.86631" lon="2.29176">
        <ele>68</ele>
        <time>2022-02-02T12:23:31.507Z</time>
      </trkpt>
      <trkpt lat="48.86634" lon="2.29168">
        <ele>68</ele>
        <time>2022-02-02T12:23:35.512Z</time>
      </trkpt>
      <trkpt lat="48.86637" lon="2.29163">
        <ele>68</ele>
        <time>2022-02-02T12:23:40.502Z</time>
      </trkpt>
      <trkpt lat="48.8664" lon="2.29159">
        <ele>68</ele>
        <time>2022-02-02T12:23:45.513Z</time>
      </trkpt>
      <trkpt lat="48.86642" lon="2.29152">
        <ele>69</ele>
        <time>2022-02-02T12:23:50.508Z</time>
      </trkpt>
      <trkpt lat="48.86646" lon="2.29147">
        <ele>69</ele>
        <time>2022-02-02T12:23:55.512Z</time>
      </trkpt>
      <trkpt lat="48.8665" lon="2.2914">
        <ele>69</ele>
        <time>2022-02-02T12:24:00.510Z</time>
      </trkpt>
      <trkpt lat="48.86653" lon="2.29134">
        <ele>68</ele>
        <time>2022-02-02T12:24:05.520Z</time>
      </trkpt>
      <trkpt lat="48.86657" lon="2.29127">
        <ele>68</ele>
        <time>2022-02-02T12:24:10.523Z</time>
      </trkpt>
      <trkpt lat="48.8666" lon="2.2912">
        <ele>71</ele>
        <time>2022-02-02T12:24:15.509Z</time>
      </trkpt>
      <trkpt lat="48.86662" lon="2.29115">
        <ele>71</ele>
        <time>2022-02-02T12:24:20.512Z</time>
      </trkpt>
      <trkpt lat="48.86661" lon="2.29109">
        <ele>71</ele>
        <time>2022-02-02T12:24:25.502Z</time>
      </trkpt>
      <trkpt lat="48.86661" lon="2.29108">
        <ele>71</ele>
        <time>2022-02-02T12:24:43.513Z</time>
      </trkpt>
      <trkpt lat="48.86666" lon="2.29104">
        <ele>71</ele>
        <time>2022-02-02T12:24:48.513Z</time>
      </trkpt>
      <trkpt lat="48.86671" lon="2.29099">
        <ele>71</ele>
        <time>2022-02-02T12:24:52.510Z</time>
      </trkpt>
      <trkpt lat="48.86675" lon="2.29092">
        <ele>74</ele>
        <time>2022-02-02T12:24:57.506Z</time>
      </trkpt>
      <trkpt lat="48.86678" lon="2.29087">
        <ele>74</ele>
        <time>2022-02-02T12:25:01.509Z</time>
      </trkpt>
      <trkpt lat="48.8668" lon="2.29082">
        <ele>74</ele>
        <time>2022-02-02T12:25:06.512Z</time>
      </trkpt>
      <trkpt lat="48.86684" lon="2.29076">
        <ele>73</ele>
        <time>2022-02-02T12:25:10.515Z</time>
      </trkpt>
      <trkpt lat="48.86686" lon="2.29071">
        <ele>73</ele>
        <time>2022-02-02T12:25:15.507Z</time>
      </trkpt>
      <trkpt lat="48.86689" lon="2.29066">
        <ele>76</ele>
        <time>2022-02-02T12:25:20.514Z</time>
      </trkpt>
      <trkpt lat="48.86693" lon="2.29056">
        <ele>76</ele>
        <time>2022-02-02T12:25:39.516Z</time>
      </trkpt>
      <trkpt lat="48.86694" lon="2.29038">
        <ele>77</ele>
        <time>2022-02-02T12:25:44.514Z</time>
      </trkpt>
      <trkpt lat="48.86694" lon="2.29037">
        <ele>77</ele>
        <time>2022-02-02T12:25:49.515Z</time>
      </trkpt>
      <trkpt lat="48.86693" lon="2.29033">
        <ele>77</ele>
        <time>2022-02-02T12:25:54.519Z</time>
      </trkpt>
      <trkpt lat="48.86693" lon="2.29033">
        <ele>77</ele>
        <time>2022-02-02T12:25:58.516Z</time>
      </trkpt>
      <trkpt lat="48.86692" lon="2.29029">
        <ele>77</ele>
        <time>2022-02-02T12:26:03.512Z</time>
      </trkpt>
      <trkpt lat="48.86691" lon="2.29026">
        <ele>77</ele>
        <time>2022-02-02T12:26:07.517Z</time>
      </trkpt>
      <trkpt lat="48.8669" lon="2.29026">
        <ele>77</ele>
        <time>2022-02-02T12:26:12.511Z</time>
      </trkpt>
      <trkpt lat="48.8669" lon="2.29024">
        <ele>77</ele>
        <time>2022-02-02T12:26:17.516Z</time>
      </trkpt>
      <trkpt lat="48.86692" lon="2.29018">
        <ele>77</ele>
        <time>2022-02-02T12:26:22.518Z</time>
      </trkpt>
      <trkpt lat="48.86693" lon="2.29009">
        <ele>76</ele>
        <time>2022-02-02T12:26:27.511Z</time>
      </trkpt>
      <trkpt lat="48.86695" lon="2.28999">
        <ele>76</ele>
        <time>2022-02-02T12:26:31.518Z</time>
      </trkpt>
      <trkpt lat="48.86696" lon="2.2899">
        <ele>76</ele>
        <time>2022-02-02T12:26:36.517Z</time>
      </trkpt>
      <trkpt lat="48.86699" lon="2.28981">
        <ele>76</ele>
        <time>2022-02-02T12:26:41.523Z</time>
      </trkpt>
      <trkpt lat="48.86703" lon="2.28977">
        <ele>76</ele>
        <time>2022-02-02T12:26:46.518Z</time>
      </trkpt>
      <trkpt lat="48.86705" lon="2.28972">
        <ele>76</ele>
        <time>2022-02-02T12:26:51.517Z</time>
      </trkpt>
      <trkpt lat="48.86711" lon="2.28966">
        <ele>72</ele>
        <time>2022-02-02T12:26:56.524Z</time>
      </trkpt>
      <trkpt lat="48.86716" lon="2.28962">
        <ele>72</ele>
        <time>2022-02-02T12:27:01.515Z</time>
      </trkpt>
      <trkpt lat="48.86721" lon="2.28958">
        <ele>71</ele>
        <time>2022-02-02T12:27:05.527Z</time>
      </trkpt>
      <trkpt lat="48.86726" lon="2.28953">
        <ele>71</ele>
        <time>2022-02-02T12:27:09.517Z</time>
      </trkpt>
      <trkpt lat="48.86729" lon="2.28943">
        <ele>71</ele>
        <time>2022-02-02T12:27:14.520Z</time>
      </trkpt>
      <trkpt lat="48.86731" lon="2.28938">
        <ele>71</ele>
        <time>2022-02-02T12:27:19.519Z</time>
      </trkpt>
      <trkpt lat="48.86725" lon="2.2893">
        <ele>70</ele>
        <time>2022-02-02T12:27:24.501Z</time>
      </trkpt>
      <trkpt lat="48.86731" lon="2.28914">
        <ele>70</ele>
        <time>2022-02-02T12:27:28.525Z</time>
      </trkpt>
      <trkpt lat="48.86735" lon="2.2891">
        <ele>70</ele>
        <time>2022-02-02T12:27:33.498Z</time>
      </trkpt>
      <trkpt lat="48.8674" lon="2.28906">
        <ele>68</ele>
        <time>2022-02-02T12:27:38.503Z</time>
      </trkpt>
      <trkpt lat="48.86743" lon="2.28902">
        <ele>69</ele>
        <time>2022-02-02T12:27:42.519Z</time>
      </trkpt>
      <trkpt lat="48.86747" lon="2.28894">
        <ele>69</ele>
        <time>2022-02-02T12:27:46.525Z</time>
      </trkpt>
      <trkpt lat="48.86752" lon="2.28893">
        <ele>69</ele>
        <time>2022-02-02T12:27:51.506Z</time>
      </trkpt>
      <trkpt lat="48.86758" lon="2.2889">
        <ele>69</ele>
        <time>2022-02-02T12:27:56.505Z</time>
      </trkpt>
      <trkpt lat="48.86764" lon="2.28882">
        <ele>67</ele>
        <time>2022-02-02T12:28:01.505Z</time>
      </trkpt>
      <trkpt lat="48.86772" lon="2.28875">
        <ele>67</ele>
        <time>2022-02-02T12:28:06.504Z</time>
      </trkpt>
      <trkpt lat="48.86777" lon="2.28866">
        <ele>68</ele>
        <time>2022-02-02T12:28:10.509Z</time>
      </trkpt>
      <trkpt lat="48.8678" lon="2.28854">
        <ele>68</ele>
        <time>2022-02-02T12:28:14.516Z</time>
      </trkpt>
      <trkpt lat="48.86773" lon="2.28845">
        <ele>70</ele>
        <time>2022-02-02T12:28:19.512Z</time>
      </trkpt>
      <trkpt lat="48.86768" lon="2.28838">
        <ele>70</ele>
        <time>2022-02-02T12:28:23.513Z</time>
      </trkpt>
      <trkpt lat="48.86764" lon="2.28833">
        <ele>70</ele>
        <time>2022-02-02T12:28:28.518Z</time>
      </trkpt>
      <trkpt lat="48.86761" lon="2.28828">
        <ele>72</ele>
        <time>2022-02-02T12:28:33.514Z</time>
      </trkpt>
      <trkpt lat="48.86756" lon="2.28822">
        <ele>72</ele>
        <time>2022-02-02T12:28:42.513Z</time>
      </trkpt>
      <trkpt lat="48.86752" lon="2.28819">
        <ele>74</ele>
        <time>2022-02-02T12:28:47.512Z</time>
      </trkpt>
      <trkpt lat="48.86746" lon="2.28814">
        <ele>74</ele>
        <time>2022-02-02T12:28:52.508Z</time>
      </trkpt>
      <trkpt lat="48.8674" lon="2.28811">
        <ele>74</ele>
        <time>2022-02-02T12:28:56.513Z</time>
      </trkpt>
      <trkpt lat="48.86737" lon="2.28806">
        <ele>74</ele>
        <time>2022-02-02T12:29:01.506Z</time>
      </trkpt>
      <trkpt lat="48.86732" lon="2.28799">
        <ele>76</ele>
        <time>2022-02-02T12:29:10.507Z</time>
      </trkpt>
      <trkpt lat="48.86727" lon="2.28795">
        <ele>76</ele>
        <time>2022-02-02T12:29:14.530Z</time>
      </trkpt>
      <trkpt lat="48.86725" lon="2.2879">
        <ele>77</ele>
        <time>2022-02-02T12:29:19.516Z</time>
      </trkpt>
      <trkpt lat="48.8672" lon="2.28788">
        <ele>77</ele>
        <time>2022-02-02T12:29:24.515Z</time>
      </trkpt>
      <trkpt lat="48.86714" lon="2.28783">
        <ele>77</ele>
        <time>2022-02-02T12:29:28.516Z</time>
      </trkpt>
      <trkpt lat="48.8671" lon="2.28775">
        <ele>77</ele>
        <time>2022-02-02T12:29:33.512Z</time>
      </trkpt>
      <trkpt lat="48.86708" lon="2.28766">
        <ele>77</ele>
        <time>2022-02-02T12:29:37.508Z</time>
      </trkpt>
      <trkpt lat="48.86704" lon="2.28762">
        <ele>77</ele>
        <time>2022-02-02T12:29:42.513Z</time>
      </trkpt>
      <trkpt lat="48.86703" lon="2.28762">
        <ele>77</ele>
        <time>2022-02-02T12:29:46.515Z</time>
      </trkpt>
      <trkpt lat="48.86699" lon="2.28758">
        <ele>77</ele>
        <time>2022-02-02T12:29:50.517Z</time>
      </trkpt>
      <trkpt lat="48.86698" lon="2.28753">
        <ele>77</ele>
        <time>2022-02-02T12:29:55.512Z</time>
      </trkpt>
      <trkpt lat="48.86692" lon="2.28743">
        <ele>77</ele>
        <time>2022-02-02T12:29:59.510Z</time>
      </trkpt>
      <trkpt lat="48.86686" lon="2.28737">
        <ele>77</ele>
        <time>2022-02-02T12:30:03.514Z</time>
      </trkpt>
      <trkpt lat="48.86681" lon="2.28732">
        <ele>77</ele>
        <time>2022-02-02T12:30:08.518Z</time>
      </trkpt>
      <trkpt lat="48.86678" lon="2.28722">
        <ele>78</ele>
        <time>2022-02-02T12:30:13.505Z</time>
      </trkpt>
      <trkpt lat="48.86675" lon="2.28715">
        <ele>78</ele>
        <time>2022-02-02T12:30:17.506Z</time>
      </trkpt>
      <trkpt lat="48.8667" lon="2.28707">
        <ele>76</ele>
        <time>2022-02-02T12:30:21.512Z</time>
      </trkpt>
      <trkpt lat="48.86667" lon="2.28703">
        <ele>76</ele>
        <time>2022-02-02T12:30:41.506Z</time>
      </trkpt>
      <trkpt lat="48.86662" lon="2.28699">
        <ele>76</ele>
        <time>2022-02-02T12:30:45.516Z</time>
      </trkpt>
      <trkpt lat="48.8666" lon="2.28697">
        <ele>76</ele>
        <time>2022-02-02T12:30:49.515Z</time>
      </trkpt>
      <trkpt lat="48.86657" lon="2.28691">
        <ele>76</ele>
        <time>2022-02-02T12:30:53.514Z</time>
      </trkpt>
      <trkpt lat="48.86647" lon="2.28684">
        <ele>76</ele>
        <time>2022-02-02T12:30:58.516Z</time>
      </trkpt>
      <trkpt lat="48.86641" lon="2.28677">
        <ele>75</ele>
        <time>2022-02-02T12:31:03.507Z</time>
      </trkpt>
      <trkpt lat="48.86636" lon="2.28675">
        <ele>75</ele>
        <time>2022-02-02T12:31:08.517Z</time>
      </trkpt>
      <trkpt lat="48.86631" lon="2.2867">
        <ele>75</ele>
        <time>2022-02-02T12:31:12.507Z</time>
      </trkpt>
      <trkpt lat="48.86628" lon="2.2866">
        <ele>75</ele>
        <time>2022-02-02T12:31:17.507Z</time>
      </trkpt>
      <trkpt lat="48.86623" lon="2.2865">
        <ele>74</ele>
        <time>2022-02-02T12:31:22.521Z</time>
      </trkpt>
      <trkpt lat="48.86617" lon="2.28645">
        <ele>74</ele>
        <time>2022-02-02T12:31:27.510Z</time>
      </trkpt>
      <trkpt lat="48.86611" lon="2.28647">
        <ele>74</ele>
        <time>2022-02-02T12:31:31.513Z</time>
      </trkpt>
      <trkpt lat="48.86607" lon="2.28652">
        <ele>74</ele>
        <time>2022-02-02T12:31:36.503Z</time>
      </trkpt>
      <trkpt lat="48.86601" lon="2.28654">
        <ele>73</ele>
        <time>2022-02-02T12:31:40.514Z</time>
      </trkpt>
      <trkpt lat="48.86598" lon="2.28659">
        <ele>73</ele>
        <time>2022-02-02T12:31:44.520Z</time>
      </trkpt>
      <trkpt lat="48.86593" lon="2.2866">
        <ele>74</ele>
        <time>2022-02-02T12:31:49.518Z</time>
      </trkpt>
      <trkpt lat="48.86587" lon="2.28659">
        <ele>74</ele>
        <time>2022-02-02T12:31:53.528Z</time>
      </trkpt>
      <trkpt lat="48.86581" lon="2.28657">
        <ele>74</ele>
        <time>2022-02-02T12:31:58.511Z</time>
      </trkpt>
      <trkpt lat="48.86576" lon="2.28657">
        <ele>74</ele>
        <time>2022-02-02T12:32:03.512Z</time>
      </trkpt>
      <trkpt lat="48.8657" lon="2.28657">
        <ele>74</ele>
        <time>2022-02-02T12:32:07.526Z</time>
      </trkpt>
      <trkpt lat="48.86564" lon="2.28658">
        <ele>75</ele>
        <time>2022-02-02T12:32:12.499Z</time>
      </trkpt>
      <trkpt lat="48.86562" lon="2.28658">
        <ele>75</ele>
        <time>2022-02-02T12:32:16.513Z</time>
      </trkpt>
      <trkpt lat="48.8656" lon="2.28656">
        <ele>75</ele>
        <time>2022-02-02T12:32:21.511Z</time>
      </trkpt>
      <trkpt lat="48.86554" lon="2.28658">
        <ele>75</ele>
        <time>2022-02-02T12:32:26.503Z</time>
      </trkpt>
      <trkpt lat="48.86549" lon="2.2866">
        <ele>75</ele>
        <time>2022-02-02T12:32:31.514Z</time>
      </trkpt>
      <trkpt lat="48.86543" lon="2.28663">
        <ele>75</ele>
        <time>2022-02-02T12:32:36.502Z</time>
      </trkpt>
      <trkpt lat="48.86539" lon="2.28664">
        <ele>74</ele>
        <time>2022-02-02T12:32:41.518Z</time>
      </trkpt>
      <trkpt lat="48.86533" lon="2.28666">
        <ele>74</ele>
        <time>2022-02-02T12:32:46.505Z</time>
      </trkpt>
      <trkpt lat="48.86528" lon="2.2867">
        <ele>74</ele>
        <time>2022-02-02T12:32:50.515Z</time>
      </trkpt>
      <trkpt lat="48.86524" lon="2.2867">
        <ele>74</ele>
        <time>2022-02-02T12:32:55.507Z</time>
      </trkpt>
      <trkpt lat="48.86519" lon="2.28672">
        <ele>74</ele>
        <time>2022-02-02T12:32:59.512Z</time>
      </trkpt>
      <trkpt lat="48.86513" lon="2.28674">
        <ele>73</ele>
        <time>2022-02-02T12:33:03.511Z</time>
      </trkpt>
      <trkpt lat="48.86512" lon="2.28681">
        <ele>70</ele>
        <time>2022-02-02T12:33:07.517Z</time>
      </trkpt>
      <trkpt lat="48.86511" lon="2.28688">
        <ele>70</ele>
        <time>2022-02-02T12:33:12.512Z</time>
      </trkpt>
      <trkpt lat="48.86514" lon="2.28693">
        <ele>73</ele>
        <time>2022-02-02T12:33:17.515Z</time>
      </trkpt>
      <trkpt lat="48.86518" lon="2.28695">
        <ele>73</ele>
        <time>2022-02-02T12:33:22.516Z</time>
      </trkpt>
      <trkpt lat="48.86521" lon="2.28698">
        <ele>73</ele>
        <time>2022-02-02T12:33:27.517Z</time>
      </trkpt>
      <trkpt lat="48.86525" lon="2.28704">
        <ele>73</ele>
        <time>2022-02-02T12:33:31.515Z</time>
      </trkpt>
      <trkpt lat="48.86529" lon="2.28711">
        <ele>71</ele>
        <time>2022-02-02T12:33:36.512Z</time>
      </trkpt>
      <trkpt lat="48.86533" lon="2.28716">
        <ele>71</ele>
        <time>2022-02-02T12:33:40.514Z</time>
      </trkpt>
      <trkpt lat="48.86537" lon="2.28717">
        <ele>71</ele>
        <time>2022-02-02T12:33:44.517Z</time>
      </trkpt>
      <trkpt lat="48.86542" lon="2.28724">
        <ele>74</ele>
        <time>2022-02-02T12:33:49.519Z</time>
      </trkpt>
      <trkpt lat="48.86546" lon="2.28733">
        <ele>74</ele>
        <time>2022-02-02T12:33:54.521Z</time>
      </trkpt>
      <trkpt lat="48.86548" lon="2.28741">
        <ele>72</ele>
        <time>2022-02-02T12:33:59.515Z</time>
      </trkpt>
      <trkpt lat="48.8655" lon="2.28746">
        <ele>72</ele>
        <time>2022-02-02T12:34:03.511Z</time>
      </trkpt>
      <trkpt lat="48.86539" lon="2.28755">
        <ele>69</ele>
        <time>2022-02-02T12:34:08.511Z</time>
      </trkpt>
      <trkpt lat="48.86531" lon="2.28764">
        <ele>69</ele>
        <time>2022-02-02T12:34:13.513Z</time>
      </trkpt>
      <trkpt lat="48.86529" lon="2.28773">
        <ele>69</ele>
        <time>2022-02-02T12:34:18.516Z</time>
      </trkpt>
      <trkpt lat="48.86528" lon="2.2878">
        <ele>69</ele>
        <time>2022-02-02T12:34:23.520Z</time>
      </trkpt>
      <trkpt lat="48.86528" lon="2.28791">
        <ele>69</ele>
        <time>2022-02-02T12:34:28.505Z</time>
      </trkpt>
      <trkpt lat="48.86526" lon="2.288">
        <ele>71</ele>
        <time>2022-02-02T12:34:32.520Z</time>
      </trkpt>
      <trkpt lat="48.86524" lon="2.28806">
        <ele>71</ele>
        <time>2022-02-02T12:34:36.518Z</time>
      </trkpt>
      <trkpt lat="48.86521" lon="2.28812">
        <ele>71</ele>
        <time>2022-02-02T12:34:41.510Z</time>
      </trkpt>
      <trkpt lat="48.86515" lon="2.28818">
        <ele>71</ele>
        <time>2022-02-02T12:34:46.509Z</time>
      </trkpt>
      <trkpt lat="48.86509" lon="2.28826">
        <ele>72</ele>
        <time>2022-02-02T12:34:50.509Z</time>
      </trkpt>
      <trkpt lat="48.86504" lon="2.28833">
        <ele>72</ele>
        <time>2022-02-02T12:34:54.512Z</time>
      </trkpt>
      <trkpt lat="48.86501" lon="2.28843">
        <ele>72</ele>
        <time>2022-02-02T12:34:59.526Z</time>
      </trkpt>
      <trkpt lat="48.86501" lon="2.2885">
        <ele>73</ele>
        <time>2022-02-02T12:35:04.505Z</time>
      </trkpt>
      <trkpt lat="48.86499" lon="2.28864">
        <ele>73</ele>
        <time>2022-02-02T12:35:09.501Z</time>
      </trkpt>
      <trkpt lat="48.86501" lon="2.28876">
        <ele>72</ele>
        <time>2022-02-02T12:35:14.510Z</time>
      </trkpt>
      <trkpt lat="48.86502" lon="2.2889">
        <ele>72</ele>
        <time>2022-02-02T12:35:19.505Z</time>
      </trkpt>
      <trkpt lat="48.86505" lon="2.28897">
        <ele>72</ele>
        <time>2022-02-02T12:35:23.512Z</time>
      </trkpt>
      <trkpt lat="48.86501" lon="2.28903">
        <ele>71</ele>
        <time>2022-02-02T12:35:28.511Z</time>
      </trkpt>
      <trkpt lat="48.865" lon="2.28908">
        <ele>71</ele>
        <time>2022-02-02T12:35:32.505Z</time>
      </trkpt>
      <trkpt lat="48.865" lon="2.28919">
        <ele>71</ele>
        <time>2022-02-02T12:35:37.512Z</time>
      </trkpt>
      <trkpt lat="48.86501" lon="2.28928">
        <ele>71</ele>
        <time>2022-02-02T12:35:42.508Z</time>
      </trkpt>
      <trkpt lat="48.86501" lon="2.28937">
        <ele>71</ele>
        <time>2022-02-02T12:35:46.506Z</time>
      </trkpt>
      <trkpt lat="48.86501" lon="2.28943">
        <ele>71</ele>
        <time>2022-02-02T12:35:51.509Z</time>
      </trkpt>
      <trkpt lat="48.86501" lon="2.28948">
        <ele>71</ele>
        <time>2022-02-02T12:35:56.519Z</time>
      </trkpt>
      <trkpt lat="48.86499" lon="2.28964">
        <ele>71</ele>
        <time>2022-02-02T12:36:01.514Z</time>
      </trkpt>
      <trkpt lat="48.86499" lon="2.28966">
        <ele>71</ele>
        <time>2022-02-02T12:36:06.509Z</time>
      </trkpt>
      <trkpt lat="48.86499" lon="2.28972">
        <ele>71</ele>
        <time>2022-02-02T12:36:10.519Z</time>
      </trkpt>
      <trkpt lat="48.86499" lon="2.2898">
        <ele>71</ele>
        <time>2022-02-02T12:36:15.517Z</time>
      </trkpt>
      <trkpt lat="48.86497" lon="2.28989">
        <ele>70</ele>
        <time>2022-02-02T12:36:20.526Z</time>
      </trkpt>
      <trkpt lat="48.86495" lon="2.28995">
        <ele>70</ele>
        <time>2022-02-02T12:36:25.518Z</time>
      </trkpt>
      <trkpt lat="48.86494" lon="2.29">
        <ele>70</ele>
        <time>2022-02-02T12:36:30.514Z</time>
      </trkpt>
      <trkpt lat="48.86494" lon="2.29008">
        <ele>70</ele>
        <time>2022-02-02T12:36:34.526Z</time>
      </trkpt>
      <trkpt lat="48.86493" lon="2.29015">
        <ele>69</ele>
        <time>2022-02-02T12:36:39.501Z</time>
      </trkpt>
      <trkpt lat="48.86492" lon="2.29024">
        <ele>69</ele>
        <time>2022-02-02T12:36:44.514Z</time>
      </trkpt>
      <trkpt lat="48.86491" lon="2.29031">
        <ele>69</ele>
        <time>2022-02-02T12:36:49.514Z</time>
      </trkpt>
      <trkpt lat="48.86489" lon="2.2904">
        <ele>69</ele>
        <time>2022-02-02T12:36:54.508Z</time>
      </trkpt>
      <trkpt lat="48.86489" lon="2.2905">
        <ele>68</ele>
        <time>2022-02-02T12:36:58.514Z</time>
      </trkpt>
      <trkpt lat="48.86488" lon="2.29057">
        <ele>68</ele>
        <time>2022-02-02T12:37:03.518Z</time>
      </trkpt>
      <trkpt lat="48.86486" lon="2.29066">
        <ele>68</ele>
        <time>2022-02-02T12:37:08.504Z</time>
      </trkpt>
      <trkpt lat="48.86489" lon="2.29075">
        <ele>65</ele>
        <time>2022-02-02T12:37:12.509Z</time>
      </trkpt>
      <trkpt lat="48.86493" lon="2.29079">
        <ele>65</ele>
        <time>2022-02-02T12:37:16.516Z</time>
      </trkpt>
      <trkpt lat="48.86493" lon="2.2909">
        <ele>65</ele>
        <time>2022-02-02T12:37:21.514Z</time>
      </trkpt>
      <trkpt lat="48.86492" lon="2.29098">
        <ele>62</ele>
        <time>2022-02-02T12:37:26.508Z</time>
      </trkpt>
      <trkpt lat="48.86489" lon="2.29109">
        <ele>62</ele>
        <time>2022-02-02T12:37:30.514Z</time>
      </trkpt>
      <trkpt lat="48.86487" lon="2.29118">
        <ele>62</ele>
        <time>2022-02-02T12:37:34.517Z</time>
      </trkpt>
      <trkpt lat="48.86488" lon="2.29127">
        <ele>60</ele>
        <time>2022-02-02T12:37:39.518Z</time>
      </trkpt>
      <trkpt lat="48.86487" lon="2.29134">
        <ele>60</ele>
        <time>2022-02-02T12:37:44.507Z</time>
      </trkpt>
      <trkpt lat="48.86488" lon="2.29143">
        <ele>60</ele>
        <time>2022-02-02T12:37:48.511Z</time>
      </trkpt>
      <trkpt lat="48.86487" lon="2.29151">
        <ele>60</ele>
        <time>2022-02-02T12:37:53.506Z</time>
      </trkpt>
      <trkpt lat="48.86487" lon="2.29157">
        <ele>61</ele>
        <time>2022-02-02T12:37:58.506Z</time>
      </trkpt>
      <trkpt lat="48.86486" lon="2.29164">
        <ele>62</ele>
        <time>2022-02-02T12:38:03.510Z</time>
      </trkpt>
      <trkpt lat="48.86485" lon="2.29169">
        <ele>62</ele>
        <time>2022-02-02T12:38:08.516Z</time>
      </trkpt>
      <trkpt lat="48.86484" lon="2.29177">
        <ele>62</ele>
        <time>2022-02-02T12:38:13.512Z</time>
      </trkpt>
      <trkpt lat="48.86483" lon="2.29185">
        <ele>64</ele>
        <time>2022-02-02T12:38:18.508Z</time>
      </trkpt>
      <trkpt lat="48.86483" lon="2.29191">
        <ele>64</ele>
        <time>2022-02-02T12:38:22.507Z</time>
      </trkpt>
      <trkpt lat="48.86483" lon="2.292">
        <ele>64</ele>
        <time>2022-02-02T12:38:26.510Z</time>
      </trkpt>
      <trkpt lat="48.86483" lon="2.29207">
        <ele>64</ele>
        <time>2022-02-02T12:38:31.507Z</time>
      </trkpt>
      <trkpt lat="48.86482" lon="2.29214">
        <ele>65</ele>
        <time>2022-02-02T12:38:36.513Z</time>
      </trkpt>
      <trkpt lat="48.86482" lon="2.29224">
        <ele>65</ele>
        <time>2022-02-02T12:38:40.522Z</time>
      </trkpt>
      <trkpt lat="48.86481" lon="2.29234">
        <ele>65</ele>
        <time>2022-02-02T12:38:45.513Z</time>
      </trkpt>
      <trkpt lat="48.86482" lon="2.29247">
        <ele>65</ele>
        <time>2022-02-02T12:39:04.508Z</time>
      </trkpt>
      <trkpt lat="48.86482" lon="2.29257">
        <ele>65</ele>
        <time>2022-02-02T12:39:09.504Z</time>
      </trkpt>
      <trkpt lat="48.86481" lon="2.29267">
        <ele>62</ele>
        <time>2022-02-02T12:39:14.512Z</time>
      </trkpt>
      <trkpt lat="48.8648" lon="2.29277">
        <ele>62</ele>
        <time>2022-02-02T12:39:19.511Z</time>
      </trkpt>
      <trkpt lat="48.8648" lon="2.29287">
        <ele>62</ele>
        <time>2022-02-02T12:39:23.513Z</time>
      </trkpt>
      <trkpt lat="48.86479" lon="2.29298">
        <ele>60</ele>
        <time>2022-02-02T12:39:28.519Z</time>
      </trkpt>
      <trkpt lat="48.86477" lon="2.29306">
        <ele>60</ele>
        <time>2022-02-02T12:39:33.511Z</time>
      </trkpt>
      <trkpt lat="48.86475" lon="2.29309">
        <ele>60</ele>
        <time>2022-02-02T12:39:37.517Z</time>
      </trkpt>
      <trkpt lat="48.86472" lon="2.29309">
        <ele>60</ele>
        <time>2022-02-02T12:39:42.509Z</time>
      </trkpt>
      <trkpt lat="48.86469" lon="2.29302">
        <ele>60</ele>
        <time>2022-02-02T12:39:46.519Z</time>
      </trkpt>
      <trkpt lat="48.86467" lon="2.29295">
        <ele>60</ele>
        <time>2022-02-02T12:39:51.507Z</time>
      </trkpt>
      <trkpt lat="48.86464" lon="2.29287">
        <ele>62</ele>
        <time>2022-02-02T12:39:55.511Z</time>
      </trkpt>
      <trkpt lat="48.86462" lon="2.29278">
        <ele>62</ele>
        <time>2022-02-02T12:39:59.514Z</time>
      </trkpt>
      <trkpt lat="48.86458" lon="2.29276">
        <ele>59</ele>
        <time>2022-02-02T12:40:04.512Z</time>
      </trkpt>
      <trkpt lat="48.86459" lon="2.29282">
        <ele>62</ele>
        <time>2022-02-02T12:40:09.513Z</time>
      </trkpt>
      <trkpt lat="48.86461" lon="2.2929">
        <ele>62</ele>
        <time>2022-02-02T12:40:13.516Z</time>
      </trkpt>
      <trkpt lat="48.86461" lon="2.293">
        <ele>60</ele>
        <time>2022-02-02T12:40:18.506Z</time>
      </trkpt>
      <trkpt lat="48.86457" lon="2.29308">
        <ele>57</ele>
        <time>2022-02-02T12:40:22.514Z</time>
      </trkpt>
      <trkpt lat="48.86455" lon="2.29311">
        <ele>57</ele>
        <time>2022-02-02T12:40:27.515Z</time>
      </trkpt>
      <trkpt lat="48.86452" lon="2.29319">
        <ele>57</ele>
        <time>2022-02-02T12:40:32.508Z</time>
      </trkpt>
      <trkpt lat="48.8645" lon="2.29325">
        <ele>54</ele>
        <time>2022-02-02T12:40:36.514Z</time>
      </trkpt>
      <trkpt lat="48.86451" lon="2.29334">
        <ele>54</ele>
        <time>2022-02-02T12:40:55.513Z</time>
      </trkpt>
      <trkpt lat="48.86451" lon="2.29339">
        <ele>54</ele>
        <time>2022-02-02T12:41:00.503Z</time>
      </trkpt>
      <trkpt lat="48.8645" lon="2.29339">
        <ele>54</ele>
        <time>2022-02-02T12:41:04.506Z</time>
      </trkpt>
      <trkpt lat="48.86449" lon="2.29346">
        <ele>54</ele>
        <time>2022-02-02T12:41:08.508Z</time>
      </trkpt>
      <trkpt lat="48.86443" lon="2.29342">
        <ele>54</ele>
        <time>2022-02-02T12:41:13.506Z</time>
      </trkpt>
      <trkpt lat="48.8644" lon="2.29337">
        <ele>54</ele>
        <time>2022-02-02T12:41:17.505Z</time>
      </trkpt>
      <trkpt lat="48.86432" lon="2.29338">
        <ele>54</ele>
        <time>2022-02-02T12:41:21.503Z</time>
      </trkpt>
      <trkpt lat="48.8643" lon="2.29331">
        <ele>49</ele>
        <time>2022-02-02T12:41:26.514Z</time>
      </trkpt>
      <trkpt lat="48.86425" lon="2.29324">
        <ele>49</ele>
        <time>2022-02-02T12:41:30.519Z</time>
      </trkpt>
      <trkpt lat="48.86419" lon="2.29319">
        <ele>54</ele>
        <time>2022-02-02T12:41:35.515Z</time>
      </trkpt>
      <trkpt lat="48.86416" lon="2.29313">
        <ele>54</ele>
        <time>2022-02-02T12:41:39.510Z</time>
      </trkpt>
      <trkpt lat="48.86411" lon="2.29307">
        <ele>54</ele>
        <time>2022-02-02T12:41:44.514Z</time>
      </trkpt>
      <trkpt lat="48.86406" lon="2.293">
        <ele>54</ele>
        <time>2022-02-02T12:41:49.516Z</time>
      </trkpt>
      <trkpt lat="48.86402" lon="2.29296">
        <ele>58</ele>
        <time>2022-02-02T12:41:53.516Z</time>
      </trkpt>
      <trkpt lat="48.86397" lon="2.29291">
        <ele>59</ele>
        <time>2022-02-02T12:41:58.506Z</time>
      </trkpt>
      <trkpt lat="48.86391" lon="2.29286">
        <ele>59</ele>
        <time>2022-02-02T12:42:02.503Z</time>
      </trkpt>
      <trkpt lat="48.86386" lon="2.29283">
        <ele>59</ele>
        <time>2022-02-02T12:42:07.506Z</time>
      </trkpt>
      <trkpt lat="48.86381" lon="2.29276">
        <ele>59</ele>
        <time>2022-02-02T12:42:12.511Z</time>
      </trkpt>
      <trkpt lat="48.86376" lon="2.29271">
        <ele>59</ele>
        <time>2022-02-02T12:42:16.518Z</time>
      </trkpt>
      <trkpt lat="48.86371" lon="2.29266">
        <ele>57</ele>
        <time>2022-02-02T12:42:21.512Z</time>
      </trkpt>
      <trkpt lat="48.86365" lon="2.29261">
        <ele>54</ele>
        <time>2022-02-02T12:42:25.502Z</time>
      </trkpt>
      <trkpt lat="48.86359" lon="2.29256">
        <ele>54</ele>
        <time>2022-02-02T12:42:30.511Z</time>
      </trkpt>
      <trkpt lat="48.86355" lon="2.29254">
        <ele>54</ele>
        <time>2022-02-02T12:42:35.506Z</time>
      </trkpt>
      <trkpt lat="48.86351" lon="2.29246">
        <ele>54</ele>
        <time>2022-02-02T12:42:40.516Z</time>
      </trkpt>
      <trkpt lat="48.86347" lon="2.29239">
        <ele>48</ele>
        <time>2022-02-02T12:42:45.507Z</time>
      </trkpt>
      <trkpt lat="48.86343" lon="2.29234">
        <ele>47</ele>
        <time>2022-02-02T12:42:49.508Z</time>
      </trkpt>
      <trkpt lat="48.86339" lon="2.29229">
        <ele>47</ele>
        <time>2022-02-02T12:42:54.506Z</time>
      </trkpt>
      <trkpt lat="48.86333" lon="2.29223">
        <ele>47</ele>
        <time>2022-02-02T12:42:58.508Z</time>
      </trkpt>
      <trkpt lat="48.86328" lon="2.2922">
        <ele>47</ele>
        <time>2022-02-02T12:43:03.508Z</time>
      </trkpt>
      <trkpt lat="48.86323" lon="2.29215">
        <ele>47</ele>
        <time>2022-02-02T12:43:08.506Z</time>
      </trkpt>
      <trkpt lat="48.86318" lon="2.29208">
        <ele>45</ele>
        <time>2022-02-02T12:43:12.511Z</time>
      </trkpt>
      <trkpt lat="48.86314" lon="2.29201">
        <ele>46</ele>
        <time>2022-02-02T12:43:17.511Z</time>
      </trkpt>
      <trkpt lat="48.86311" lon="2.29194">
        <ele>46</ele>
        <time>2022-02-02T12:43:21.512Z</time>
      </trkpt>
      <trkpt lat="48.86311" lon="2.29185">
        <ele>46</ele>
        <time>2022-02-02T12:43:25.513Z</time>
      </trkpt>
      <trkpt lat="48.86309" lon="2.29179">
        <ele>50</ele>
        <time>2022-02-02T12:43:30.504Z</time>
      </trkpt>
      <trkpt lat="48.86305" lon="2.29171">
        <ele>50</ele>
        <time>2022-02-02T12:43:34.506Z</time>
      </trkpt>
      <trkpt lat="48.86305" lon="2.29161">
        <ele>50</ele>
        <time>2022-02-02T12:43:39.520Z</time>
      </trkpt>
      <trkpt lat="48.86307" lon="2.29152">
        <ele>53</ele>
        <time>2022-02-02T12:43:44.509Z</time>
      </trkpt>
      <trkpt lat="48.86311" lon="2.29146">
        <ele>53</ele>
        <time>2022-02-02T12:43:49.516Z</time>
      </trkpt>
      <trkpt lat="48.86315" lon="2.29142">
        <ele>53</ele>
        <time>2022-02-02T12:43:54.513Z</time>
      </trkpt>
      <trkpt lat="48.8632" lon="2.29138">
        <ele>51</ele>
        <time>2022-02-02T12:43:59.517Z</time>
      </trkpt>
      <trkpt lat="48.86323" lon="2.29131">
        <ele>51</ele>
        <time>2022-02-02T12:44:04.517Z</time>
      </trkpt>
      <trkpt lat="48.86328" lon="2.29127">
        <ele>51</ele>
        <time>2022-02-02T12:44:09.516Z</time>
      </trkpt>
      <trkpt lat="48.8633" lon="2.2912">
        <ele>52</ele>
        <time>2022-02-02T12:44:14.501Z</time>
      </trkpt>
      <trkpt lat="48.86333" lon="2.29113">
        <ele>52</ele>
        <time>2022-02-02T12:44:18.511Z</time>
      </trkpt>
      <trkpt lat="48.86337" lon="2.29106">
        <ele>52</ele>
        <time>2022-02-02T12:44:23.522Z</time>
      </trkpt>
      <trkpt lat="48.8634" lon="2.29101">
        <ele>52</ele>
        <time>2022-02-02T12:44:28.513Z</time>
      </trkpt>
      <trkpt lat="48.86343" lon="2.29094">
        <ele>56</ele>
        <time>2022-02-02T12:44:33.508Z</time>
      </trkpt>
      <trkpt lat="48.86348" lon="2.29086">
        <ele>60</ele>
        <time>2022-02-02T12:44:38.509Z</time>
      </trkpt>
      <trkpt lat="48.86353" lon="2.29081">
        <ele>60</ele>
        <time>2022-02-02T12:45:05.518Z</time>
      </trkpt>
      <trkpt lat="48.86357" lon="2.29074">
        <ele>60</ele>
        <time>2022-02-02T12:45:09.526Z</time>
      </trkpt>
      <trkpt lat="48.86361" lon="2.29066">
        <ele>65</ele>
        <time>2022-02-02T12:45:14.516Z</time>
      </trkpt>
      <trkpt lat="48.86366" lon="2.29057">
        <ele>65</ele>
        <time>2022-02-02T12:45:19.510Z</time>
      </trkpt>
      <trkpt lat="48.86365" lon="2.29048">
        <ele>65</ele>
        <time>2022-02-02T12:45:24.511Z</time>
      </trkpt>
      <trkpt lat="48.86361" lon="2.2904">
        <ele>68</ele>
        <time>2022-02-02T12:45:28.518Z</time>
      </trkpt>
      <trkpt lat="48.86358" lon="2.29033">
        <ele>68</ele>
        <time>2022-02-02T12:45:33.512Z</time>
      </trkpt>
      <trkpt lat="48.86356" lon="2.29026">
        <ele>68</ele>
        <time>2022-02-02T12:45:37.511Z</time>
      </trkpt>
      <trkpt lat="48.86355" lon="2.29017">
        <ele>68</ele>
        <time>2022-02-02T12:45:42.516Z</time>
      </trkpt>
      <trkpt lat="48.86353" lon="2.29008">
        <ele>68</ele>
        <time>2022-02-02T12:45:51.509Z</time>
      </trkpt>
      <trkpt lat="48.8635" lon="2.28999">
        <ele>68</ele>
        <time>2022-02-02T12:45:55.505Z</time>
      </trkpt>
      <trkpt lat="48.86347" lon="2.28991">
        <ele>65</ele>
        <time>2022-02-02T12:46:00.515Z</time>
      </trkpt>
      <trkpt lat="48.86343" lon="2.28982">
        <ele>65</ele>
        <time>2022-02-02T12:46:05.513Z</time>
      </trkpt>
      <trkpt lat="48.8634" lon="2.28975">
        <ele>65</ele>
        <time>2022-02-02T12:46:09.507Z</time>
      </trkpt>
      <trkpt lat="48.86337" lon="2.28966">
        <ele>65</ele>
        <time>2022-02-02T12:47:43.511Z</time>
      </trkpt>
      <trkpt lat="48.86335" lon="2.28956">
        <ele>65</ele>
        <time>2022-02-02T12:47:48.512Z</time>
      </trkpt>
      <trkpt lat="48.86334" lon="2.28949">
        <ele>65</ele>
        <time>2022-02-02T12:47:52.527Z</time>
      </trkpt>
      <trkpt lat="48.86333" lon="2.2894">
        <ele>65</ele>
        <time>2022-02-02T12:47:57.518Z</time>
      </trkpt>
      <trkpt lat="48.86331" lon="2.28931">
        <ele>65</ele>
        <time>2022-02-02T12:48:01.520Z</time>
      </trkpt>
      <trkpt lat="48.86329" lon="2.28922">
        <ele>67</ele>
        <time>2022-02-02T12:48:06.506Z</time>
      </trkpt>
      <trkpt lat="48.86326" lon="2.28912">
        <ele>67</ele>
        <time>2022-02-02T12:48:11.508Z</time>
      </trkpt>
      <trkpt lat="48.86324" lon="2.28902">
        <ele>70</ele>
        <time>2022-02-02T12:48:15.512Z</time>
      </trkpt>
      <trkpt lat="48.86322" lon="2.28894">
        <ele>70</ele>
        <time>2022-02-02T12:48:20.517Z</time>
      </trkpt>
      <trkpt lat="48.86319" lon="2.28884">
        <ele>65</ele>
        <time>2022-02-02T12:48:25.526Z</time>
      </trkpt>
      <trkpt lat="48.86316" lon="2.28875">
        <ele>65</ele>
        <time>2022-02-02T12:48:29.531Z</time>
      </trkpt>
      <trkpt lat="48.86313" lon="2.28864">
        <ele>66</ele>
        <time>2022-02-02T12:48:34.517Z</time>
      </trkpt>
      <trkpt lat="48.86313" lon="2.28853">
        <ele>66</ele>
        <time>2022-02-02T12:48:38.519Z</time>
      </trkpt>
      <trkpt lat="48.86313" lon="2.28841">
        <ele>67</ele>
        <time>2022-02-02T12:48:43.523Z</time>
      </trkpt>
      <trkpt lat="48.86308" lon="2.28836">
        <ele>67</ele>
        <time>2022-02-02T12:48:48.518Z</time>
      </trkpt>
      <trkpt lat="48.86304" lon="2.28831">
        <ele>67</ele>
        <time>2022-02-02T12:48:53.523Z</time>
      </trkpt>
      <trkpt lat="48.86299" lon="2.28825">
        <ele>67</ele>
        <time>2022-02-02T12:48:57.530Z</time>
      </trkpt>
      <trkpt lat="48.86295" lon="2.2882">
        <ele>67</ele>
        <time>2022-02-02T12:49:02.525Z</time>
      </trkpt>
      <trkpt lat="48.8629" lon="2.28813">
        <ele>63</ele>
        <time>2022-02-02T12:49:07.512Z</time>
      </trkpt>
      <trkpt lat="48.86286" lon="2.28808">
        <ele>63</ele>
        <time>2022-02-02T12:49:11.525Z</time>
      </trkpt>
      <trkpt lat="48.86281" lon="2.28804">
        <ele>63</ele>
        <time>2022-02-02T12:49:16.524Z</time>
      </trkpt>
      <trkpt lat="48.86275" lon="2.288">
        <ele>63</ele>
        <time>2022-02-02T12:49:21.516Z</time>
      </trkpt>
      <trkpt lat="48.8627" lon="2.28794">
        <ele>63</ele>
        <time>2022-02-02T12:49:25.516Z</time>
      </trkpt>
      <trkpt lat="48.86266" lon="2.2879">
        <ele>63</ele>
        <time>2022-02-02T12:49:30.518Z</time>
      </trkpt>
      <trkpt lat="48.86261" lon="2.28786">
        <ele>61</ele>
        <time>2022-02-02T12:49:35.531Z</time>
      </trkpt>
      <trkpt lat="48.86256" lon="2.28781">
        <ele>61</ele>
        <time>2022-02-02T12:49:40.518Z</time>
      </trkpt>
      <trkpt lat="48.86252" lon="2.28778">
        <ele>61</ele>
        <time>2022-02-02T12:49:45.536Z</time>
      </trkpt>
      <trkpt lat="48.8625" lon="2.2877">
        <ele>61</ele>
        <time>2022-02-02T12:49:50.525Z</time>
      </trkpt>
      <trkpt lat="48.86246" lon="2.28763">
        <ele>62</ele>
        <time>2022-02-02T12:49:54.525Z</time>
      </trkpt>
      <trkpt lat="48.86244" lon="2.28756">
        <ele>62</ele>
        <time>2022-02-02T12:49:59.527Z</time>
      </trkpt>
      <trkpt lat="48.8624" lon="2.28748">
        <ele>62</ele>
        <time>2022-02-02T12:50:04.520Z</time>
      </trkpt>
      <trkpt lat="48.86235" lon="2.2874">
        <ele>62</ele>
        <time>2022-02-02T12:50:09.522Z</time>
      </trkpt>
      <trkpt lat="48.8623" lon="2.28733">
        <ele>65</ele>
        <time>2022-02-02T12:50:14.514Z</time>
      </trkpt>
      <trkpt lat="48.86227" lon="2.28726">
        <ele>65</ele>
        <time>2022-02-02T12:50:18.522Z</time>
      </trkpt>
      <trkpt lat="48.86224" lon="2.28717">
        <ele>65</ele>
        <time>2022-02-02T12:50:23.525Z</time>
      </trkpt>
      <trkpt lat="48.86219" lon="2.28709">
        <ele>65</ele>
        <time>2022-02-02T12:50:28.521Z</time>
      </trkpt>
      <trkpt lat="48.86216" lon="2.28703">
        <ele>68</ele>
        <time>2022-02-02T12:50:33.518Z</time>
      </trkpt>
      <trkpt lat="48.86212" lon="2.28697">
        <ele>68</ele>
        <time>2022-02-02T12:50:37.522Z</time>
      </trkpt>
      <trkpt lat="48.86209" lon="2.28691">
        <ele>68</ele>
        <time>2022-02-02T12:50:42.520Z</time>
      </trkpt>
      <trkpt lat="48.86204" lon="2.28684">
        <ele>70</ele>
        <time>2022-02-02T12:50:47.518Z</time>
      </trkpt>
      <trkpt lat="48.862" lon="2.28679">
        <ele>71</ele>
        <time>2022-02-02T12:50:51.521Z</time>
      </trkpt>
      <trkpt lat="48.86194" lon="2.28675">
        <ele>71</ele>
        <time>2022-02-02T12:50:56.528Z</time>
      </trkpt>
      <trkpt lat="48.86187" lon="2.28674">
        <ele>71</ele>
        <time>2022-02-02T12:51:01.536Z</time>
      </trkpt>
      <trkpt lat="48.8618" lon="2.28674">
        <ele>73</ele>
        <time>2022-02-02T12:51:06.524Z</time>
      </trkpt>
      <trkpt lat="48.86175" lon="2.28675">
        <ele>73</ele>
        <time>2022-02-02T12:51:11.527Z</time>
      </trkpt>
      <trkpt lat="48.86168" lon="2.28674">
        <ele>73</ele>
        <time>2022-02-02T12:51:16.528Z</time>
      </trkpt>
      <trkpt lat="48.86165" lon="2.28674">
        <ele>73</ele>
        <time>2022-02-02T12:51:21.520Z</time>
      </trkpt>
      <trkpt lat="48.8616" lon="2.28674">
        <ele>73</ele>
        <time>2022-02-02T12:51:26.518Z</time>
      </trkpt>
      <trkpt lat="48.86155" lon="2.28673">
        <ele>73</ele>
        <time>2022-02-02T12:51:31.531Z</time>
      </trkpt>
      <trkpt lat="48.86151" lon="2.28672">
        <ele>71</ele>
        <time>2022-02-02T12:51:36.516Z</time>
      </trkpt>
      <trkpt lat="48.86145" lon="2.28668">
        <ele>71</ele>
        <time>2022-02-02T12:51:40.531Z</time>
      </trkpt>
      <trkpt lat="48.86139" lon="2.28665">
        <ele>71</ele>
        <time>2022-02-02T12:51:45.524Z</time>
      </trkpt>
      <trkpt lat="48.86134" lon="2.28663">
        <ele>71</ele>
        <time>2022-02-02T12:51:50.528Z</time>
      </trkpt>
      <trkpt lat="48.86127" lon="2.2866">
        <ele>71</ele>
        <time>2022-02-02T12:51:55.529Z</time>
      </trkpt>
      <trkpt lat="48.8612" lon="2.28657">
        <ele>73</ele>
        <time>2022-02-02T12:52:00.524Z</time>
      </trkpt>
      <trkpt lat="48.86112" lon="2.28654">
        <ele>73</ele>
        <time>2022-02-02T12:52:05.521Z</time>
      </trkpt>
      <trkpt lat="48.86104" lon="2.2865">
        <ele>75</ele>
        <time>2022-02-02T12:52:09.510Z</time>
      </trkpt>
      <trkpt lat="48.86097" lon="2.28646">
        <ele>75</ele>
        <time>2022-02-02T12:52:14.524Z</time>
      </trkpt>
      <trkpt lat="48.86094" lon="2.28642">
        <ele>76</ele>
        <time>2022-02-02T12:52:19.519Z</time>
      </trkpt>
      <trkpt lat="48.8609" lon="2.28641">
        <ele>76</ele>
        <time>2022-02-02T12:52:23.527Z</time>
      </trkpt>
      <trkpt lat="48.86083" lon="2.2864">
        <ele>76</ele>
        <time>2022-02-02T12:52:28.522Z</time>
      </trkpt>
      <trkpt lat="48.86078" lon="2.28637">
        <ele>76</ele>
        <time>2022-02-02T12:52:33.521Z</time>
      </trkpt>
      <trkpt lat="48.86073" lon="2.28635">
        <ele>76</ele>
        <time>2022-02-02T12:52:38.521Z</time>
      </trkpt>
      <trkpt lat="48.86066" lon="2.28632">
        <ele>73</ele>
        <time>2022-02-02T12:52:43.529Z</time>
      </trkpt>
      <trkpt lat="48.86061" lon="2.28625">
        <ele>73</ele>
        <time>2022-02-02T12:52:48.525Z</time>
      </trkpt>
      <trkpt lat="48.86062" lon="2.28623">
        <ele>77</ele>
        <time>2022-02-02T12:52:52.523Z</time>
      </trkpt>
      <trkpt lat="48.86059" lon="2.28622">
        <ele>77</ele>
        <time>2022-02-02T12:52:57.520Z</time>
      </trkpt>
      <trkpt lat="48.86054" lon="2.2862">
        <ele>77</ele>
        <time>2022-02-02T12:53:01.516Z</time>
      </trkpt>
      <trkpt lat="48.86047" lon="2.28616">
        <ele>77</ele>
        <time>2022-02-02T12:53:06.523Z</time>
      </trkpt>
      <trkpt lat="48.86046" lon="2.28612">
        <ele>77</ele>
        <time>2022-02-02T12:53:11.515Z</time>
      </trkpt>
      <trkpt lat="48.86044" lon="2.28614">
        <ele>77</ele>
        <time>2022-02-02T12:53:16.530Z</time>
      </trkpt>
      <trkpt lat="48.86048" lon="2.28611">
        <ele>77</ele>
        <time>2022-02-02T12:53:21.520Z</time>
      </trkpt>
      <trkpt lat="48.86043" lon="2.28619">
        <ele>77</ele>
        <time>2022-02-02T12:53:25.523Z</time>
      </trkpt>
      <trkpt lat="48.86038" lon="2.28627">
        <ele>67</ele>
        <time>2022-02-02T12:53:30.515Z</time>
      </trkpt>
      <trkpt lat="48.86033" lon="2.28633">
        <ele>67</ele>
        <time>2022-02-02T12:53:35.527Z</time>
      </trkpt>
      <trkpt lat="48.8603" lon="2.28639">
        <ele>67</ele>
        <time>2022-02-02T12:53:40.511Z</time>
      </trkpt>
      <trkpt lat="48.86026" lon="2.28645">
        <ele>67</ele>
        <time>2022-02-02T12:53:44.524Z</time>
      </trkpt>
      <trkpt lat="48.86022" lon="2.28655">
        <ele>65</ele>
        <time>2022-02-02T12:53:48.521Z</time>
      </trkpt>
      <trkpt lat="48.86025" lon="2.28654">
        <ele>65</ele>
        <time>2022-02-02T12:53:53.527Z</time>
      </trkpt>
      <trkpt lat="48.86025" lon="2.28654">
        <ele>65</ele>
        <time>2022-02-02T12:53:58.520Z</time>
      </trkpt>
      <trkpt lat="48.86024" lon="2.28662">
        <ele>65</ele>
        <time>2022-02-02T12:54:02.521Z</time>
      </trkpt>
      <trkpt lat="48.86023" lon="2.2867">
        <ele>65</ele>
        <time>2022-02-02T12:54:07.530Z</time>
      </trkpt>
      <trkpt lat="48.86022" lon="2.2868">
        <ele>65</ele>
        <time>2022-02-02T12:54:12.529Z</time>
      </trkpt>
      <trkpt lat="48.86021" lon="2.28687">
        <ele>63</ele>
        <time>2022-02-02T12:54:17.519Z</time>
      </trkpt>
      <trkpt lat="48.8602" lon="2.28693">
        <ele>63</ele>
        <time>2022-02-02T12:54:21.515Z</time>
      </trkpt>
      <trkpt lat="48.86017" lon="2.28701">
        <ele>63</ele>
        <time>2022-02-02T12:54:26.500Z</time>
      </trkpt>
      <trkpt lat="48.86015" lon="2.28707">
        <ele>63</ele>
        <time>2022-02-02T12:54:30.507Z</time>
      </trkpt>
      <trkpt lat="48.86012" lon="2.28712">
        <ele>63</ele>
        <time>2022-02-02T12:54:35.518Z</time>
      </trkpt>
      <trkpt lat="48.8601" lon="2.28712">
        <ele>63</ele>
        <time>2022-02-02T12:54:40.506Z</time>
      </trkpt>
      <trkpt lat="48.86007" lon="2.28717">
        <ele>63</ele>
        <time>2022-02-02T12:54:45.513Z</time>
      </trkpt>
      <trkpt lat="48.86004" lon="2.28721">
        <ele>63</ele>
        <time>2022-02-02T12:54:49.522Z</time>
      </trkpt>
      <trkpt lat="48.86003" lon="2.28728">
        <ele>63</ele>
        <time>2022-02-02T12:54:54.520Z</time>
      </trkpt>
      <trkpt lat="48.86002" lon="2.28733">
        <ele>63</ele>
        <time>2022-02-02T12:54:59.517Z</time>
      </trkpt>
      <trkpt lat="48.86001" lon="2.28743">
        <ele>59</ele>
        <time>2022-02-02T12:55:03.519Z</time>
      </trkpt>
      <trkpt lat="48.86" lon="2.2875">
        <ele>59</ele>
        <time>2022-02-02T12:55:07.529Z</time>
      </trkpt>
      <trkpt lat="48.85999" lon="2.28756">
        <ele>59</ele>
        <time>2022-02-02T12:55:11.638Z</time>
      </trkpt>
      <trkpt lat="48.85996" lon="2.2876">
        <ele>59</ele>
        <time>2022-02-02T12:55:16.522Z</time>
      </trkpt>
      <trkpt lat="48.85994" lon="2.28763">
        <ele>59</ele>
        <time>2022-02-02T12:55:20.523Z</time>
      </trkpt>
      <trkpt lat="48.85988" lon="2.28767">
        <ele>56</ele>
        <time>2022-02-02T12:55:25.532Z</time>
      </trkpt>
      <trkpt lat="48.85988" lon="2.28765">
        <ele>56</ele>
        <time>2022-02-02T12:55:30.516Z</time>
      </trkpt>
      <trkpt lat="48.85988" lon="2.28763">
        <ele>59</ele>
        <time>2022-02-02T12:55:35.512Z</time>
      </trkpt>
      <trkpt lat="48.85987" lon="2.28758">
        <ele>59</ele>
        <time>2022-02-02T12:55:39.519Z</time>
      </trkpt>
      <trkpt lat="48.85984" lon="2.28759">
        <ele>54</ele>
        <time>2022-02-02T12:55:44.519Z</time>
      </trkpt>
      <trkpt lat="48.8598" lon="2.28766">
        <ele>52</ele>
        <time>2022-02-02T12:55:49.527Z</time>
      </trkpt>
      <trkpt lat="48.85981" lon="2.28776">
        <ele>52</ele>
        <time>2022-02-02T12:55:54.516Z</time>
      </trkpt>
      <trkpt lat="48.85981" lon="2.28781">
        <ele>52</ele>
        <time>2022-02-02T12:55:59.520Z</time>
      </trkpt>
      <trkpt lat="48.8598" lon="2.28782">
        <ele>52</ele>
        <time>2022-02-02T12:56:04.519Z</time>
      </trkpt>
      <trkpt lat="48.8598" lon="2.28782">
        <ele>52</ele>
        <time>2022-02-02T12:56:09.526Z</time>
      </trkpt>
      <trkpt lat="48.8598" lon="2.28782">
        <ele>52</ele>
        <time>2022-02-02T12:56:14.524Z</time>
      </trkpt>
      <trkpt lat="48.85976" lon="2.28784">
        <ele>52</ele>
        <time>2022-02-02T12:56:18.519Z</time>
      </trkpt>
      <trkpt lat="48.85969" lon="2.28789">
        <ele>52</ele>
        <time>2022-02-02T12:56:23.516Z</time>
      </trkpt>
      <trkpt lat="48.85966" lon="2.28792">
        <ele>52</ele>
        <time>2022-02-02T12:56:28.532Z</time>
      </trkpt>
      <trkpt lat="48.85958" lon="2.28797">
        <ele>52</ele>
        <time>2022-02-02T12:56:33.523Z</time>
      </trkpt>
      <trkpt lat="48.85955" lon="2.28795">
        <ele>51</ele>
        <time>2022-02-02T12:56:38.519Z</time>
      </trkpt>
      <trkpt lat="48.85953" lon="2.28793">
        <ele>51</ele>
        <time>2022-02-02T12:56:43.522Z</time>
      </trkpt>
      <trkpt lat="48.8595" lon="2.288">
        <ele>51</ele>
        <time>2022-02-02T12:56:47.520Z</time>
      </trkpt>
      <trkpt lat="48.85947" lon="2.28808">
        <ele>51</ele>
        <time>2022-02-02T12:56:51.524Z</time>
      </trkpt>
      <trkpt lat="48.85944" lon="2.28815">
        <ele>51</ele>
        <time>2022-02-02T12:56:56.525Z</time>
      </trkpt>
      <trkpt lat="48.85942" lon="2.28818">
        <ele>51</ele>
        <time>2022-02-02T12:57:01.523Z</time>
      </trkpt>
      <trkpt lat="48.85942" lon="2.2882">
        <ele>48</ele>
        <time>2022-02-02T12:57:05.528Z</time>
      </trkpt>
      <trkpt lat="48.85939" lon="2.28821">
        <ele>48</ele>
        <time>2022-02-02T12:57:10.527Z</time>
      </trkpt>
      <trkpt lat="48.85937" lon="2.28825">
        <ele>48</ele>
        <time>2022-02-02T12:57:14.511Z</time>
      </trkpt>
      <trkpt lat="48.85933" lon="2.28831">
        <ele>48</ele>
        <time>2022-02-02T12:57:19.519Z</time>
      </trkpt>
      <trkpt lat="48.8593" lon="2.28834">
        <ele>50</ele>
        <time>2022-02-02T12:57:23.518Z</time>
      </trkpt>
      <trkpt lat="48.85926" lon="2.28839">
        <ele>50</ele>
        <time>2022-02-02T12:57:27.536Z</time>
      </trkpt>
      <trkpt lat="48.85922" lon="2.28844">
        <ele>50</ele>
        <time>2022-02-02T12:57:32.521Z</time>
      </trkpt>
      <trkpt lat="48.85918" lon="2.28849">
        <ele>48</ele>
        <time>2022-02-02T12:57:42.523Z</time>
      </trkpt>
      <trkpt lat="48.85915" lon="2.28855">
        <ele>48</ele>
        <time>2022-02-02T12:57:47.531Z</time>
      </trkpt>
      <trkpt lat="48.85911" lon="2.28862">
        <ele>48</ele>
        <time>2022-02-02T12:57:52.522Z</time>
      </trkpt>
      <trkpt lat="48.85908" lon="2.28867">
        <ele>48</ele>
        <time>2022-02-02T12:57:57.525Z</time>
      </trkpt>
      <trkpt lat="48.85904" lon="2.28874">
        <ele>48</ele>
        <time>2022-02-02T12:58:02.517Z</time>
      </trkpt>
      <trkpt lat="48.85901" lon="2.28881">
        <ele>49</ele>
        <time>2022-02-02T12:58:07.509Z</time>
      </trkpt>
      <trkpt lat="48.85899" lon="2.28889">
        <ele>49</ele>
        <time>2022-02-02T12:58:11.518Z</time>
      </trkpt>
      <trkpt lat="48.85899" lon="2.28899">
        <ele>49</ele>
        <time>2022-02-02T12:58:15.514Z</time>
      </trkpt>
      <trkpt lat="48.85903" lon="2.28908">
        <ele>39</ele>
        <time>2022-02-02T12:58:20.518Z</time>
      </trkpt>
      <trkpt lat="48.85908" lon="2.28917">
        <ele>39</ele>
        <time>2022-02-02T12:58:25.513Z</time>
      </trkpt>
      <trkpt lat="48.85912" lon="2.28921">
        <ele>39</ele>
        <time>2022-02-02T12:58:29.525Z</time>
      </trkpt>
      <trkpt lat="48.85916" lon="2.28926">
        <ele>39</ele>
        <time>2022-02-02T12:58:34.508Z</time>
      </trkpt>
      <trkpt lat="48.85921" lon="2.28931">
        <ele>34</ele>
        <time>2022-02-02T12:58:39.519Z</time>
      </trkpt>
      <trkpt lat="48.85926" lon="2.28936">
        <ele>34</ele>
        <time>2022-02-02T12:58:44.520Z</time>
      </trkpt>
      <trkpt lat="48.85929" lon="2.28941">
        <ele>34</ele>
        <time>2022-02-02T12:58:49.517Z</time>
      </trkpt>
      <trkpt lat="48.85935" lon="2.28947">
        <ele>38</ele>
        <time>2022-02-02T12:58:53.511Z</time>
      </trkpt>
      <trkpt lat="48.85941" lon="2.28955">
        <ele>38</ele>
        <time>2022-02-02T12:58:58.511Z</time>
      </trkpt>
      <trkpt lat="48.85945" lon="2.2896">
        <ele>38</ele>
        <time>2022-02-02T12:59:02.516Z</time>
      </trkpt>
      <trkpt lat="48.85949" lon="2.28966">
        <ele>38</ele>
        <time>2022-02-02T12:59:07.512Z</time>
      </trkpt>
      <trkpt lat="48.85954" lon="2.2897">
        <ele>38</ele>
        <time>2022-02-02T12:59:12.511Z</time>
      </trkpt>
      <trkpt lat="48.85959" lon="2.28975">
        <ele>42</ele>
        <time>2022-02-02T12:59:17.521Z</time>
      </trkpt>
      <trkpt lat="48.85962" lon="2.2898">
        <ele>42</ele>
        <time>2022-02-02T12:59:21.526Z</time>
      </trkpt>
      <trkpt lat="48.85967" lon="2.28986">
        <ele>42</ele>
        <time>2022-02-02T12:59:25.516Z</time>
      </trkpt>
      <trkpt lat="48.85972" lon="2.28992">
        <ele>41</ele>
        <time>2022-02-02T12:59:30.511Z</time>
      </trkpt>
      <trkpt lat="48.85977" lon="2.28998">
        <ele>41</ele>
        <time>2022-02-02T12:59:35.509Z</time>
      </trkpt>
      <trkpt lat="48.85981" lon="2.29003">
        <ele>41</ele>
        <time>2022-02-02T12:59:40.512Z</time>
      </trkpt>
      <trkpt lat="48.85987" lon="2.29009">
        <ele>39</ele>
        <time>2022-02-02T12:59:45.508Z</time>
      </trkpt>
      <trkpt lat="48.85992" lon="2.29014">
        <ele>39</ele>
        <time>2022-02-02T12:59:50.516Z</time>
      </trkpt>
      <trkpt lat="48.85997" lon="2.29019">
        <ele>35</ele>
        <time>2022-02-02T12:59:54.526Z</time>
      </trkpt>
      <trkpt lat="48.86001" lon="2.29024">
        <ele>35</ele>
        <time>2022-02-02T13:00:17.522Z</time>
      </trkpt>
      <trkpt lat="48.86003" lon="2.29032">
        <ele>35</ele>
        <time>2022-02-02T13:00:22.513Z</time>
      </trkpt>
      <trkpt lat="48.86001" lon="2.29041">
        <ele>35</ele>
        <time>2022-02-02T13:00:26.516Z</time>
      </trkpt>
      <trkpt lat="48.85999" lon="2.29048">
        <ele>33</ele>
        <time>2022-02-02T13:00:31.505Z</time>
      </trkpt>
      <trkpt lat="48.85994" lon="2.29056">
        <ele>33</ele>
        <time>2022-02-02T13:00:35.504Z</time>
      </trkpt>
      <trkpt lat="48.85994" lon="2.29057">
        <ele>33</ele>
        <time>2022-02-02T13:00:40.508Z</time>
      </trkpt>
      <trkpt lat="48.85994" lon="2.29057">
        <ele>33</ele>
        <time>2022-02-02T13:00:44.511Z</time>
      </trkpt>
      <trkpt lat="48.85993" lon="2.29061">
        <ele>33</ele>
        <time>2022-02-02T13:00:49.513Z</time>
      </trkpt>
      <trkpt lat="48.85992" lon="2.29071">
        <ele>32</ele>
        <time>2022-02-02T13:00:54.513Z</time>
      </trkpt>
      <trkpt lat="48.85996" lon="2.2908">
        <ele>32</ele>
        <time>2022-02-02T13:00:58.514Z</time>
      </trkpt>
      <trkpt lat="48.86003" lon="2.29087">
        <ele>32</ele>
        <time>2022-02-02T13:01:03.512Z</time>
      </trkpt>
      <trkpt lat="48.86006" lon="2.29092">
        <ele>32</ele>
        <time>2022-02-02T13:01:07.508Z</time>
      </trkpt>
      <trkpt lat="48.86011" lon="2.29098">
        <ele>31</ele>
        <time>2022-02-02T13:01:12.510Z</time>
      </trkpt>
      <trkpt lat="48.86016" lon="2.29103">
        <ele>33</ele>
        <time>2022-02-02T13:01:16.519Z</time>
      </trkpt>
      <trkpt lat="48.8602" lon="2.29108">
        <ele>33</ele>
        <time>2022-02-02T13:01:21.526Z</time>
      </trkpt>
      <trkpt lat="48.86026" lon="2.29109">
        <ele>33</ele>
        <time>2022-02-02T13:01:26.515Z</time>
      </trkpt>
      <trkpt lat="48.86026" lon="2.29112">
        <ele>33</ele>
        <time>2022-02-02T13:01:31.523Z</time>
      </trkpt>
      <trkpt lat="48.86025" lon="2.29117">
        <ele>33</ele>
        <time>2022-02-02T13:01:36.506Z</time>
      </trkpt>
      <trkpt lat="48.86019" lon="2.29124">
        <ele>33</ele>
        <time>2022-02-02T13:01:41.519Z</time>
      </trkpt>
      <trkpt lat="48.86015" lon="2.29133">
        <ele>31</ele>
        <time>2022-02-02T13:01:46.517Z</time>
      </trkpt>
      <trkpt lat="48.8601" lon="2.29141">
        <ele>28</ele>
        <time>2022-02-02T13:01:51.505Z</time>
      </trkpt>
      <trkpt lat="48.86006" lon="2.29149">
        <ele>28</ele>
        <time>2022-02-02T13:01:55.512Z</time>
      </trkpt>
      <trkpt lat="48.86001" lon="2.29156">
        <ele>26</ele>
        <time>2022-02-02T13:02:00.513Z</time>
      </trkpt>
      <trkpt lat="48.85996" lon="2.29163">
        <ele>26</ele>
        <time>2022-02-02T13:02:04.519Z</time>
      </trkpt>
      <trkpt lat="48.85992" lon="2.29171">
        <ele>26</ele>
        <time>2022-02-02T13:02:09.512Z</time>
      </trkpt>
      <trkpt lat="48.85988" lon="2.29177">
        <ele>26</ele>
        <time>2022-02-02T13:02:13.509Z</time>
      </trkpt>
      <trkpt lat="48.85984" lon="2.29184">
        <ele>25</ele>
        <time>2022-02-02T13:02:17.519Z</time>
      </trkpt>
      <trkpt lat="48.85979" lon="2.29191">
        <ele>25</ele>
        <time>2022-02-02T13:02:22.511Z</time>
      </trkpt>
      <trkpt lat="48.85975" lon="2.29196">
        <ele>25</ele>
        <time>2022-02-02T13:02:27.520Z</time>
      </trkpt>
      <trkpt lat="48.85972" lon="2.29203">
        <ele>25</ele>
        <time>2022-02-02T13:02:32.529Z</time>
      </trkpt>
      <trkpt lat="48.85968" lon="2.29211">
        <ele>21</ele>
        <time>2022-02-02T13:02:37.517Z</time>
      </trkpt>
      <trkpt lat="48.85965" lon="2.29217">
        <ele>21</ele>
        <time>2022-02-02T13:02:41.523Z</time>
      </trkpt>
      <trkpt lat="48.85961" lon="2.29223">
        <ele>21</ele>
        <time>2022-02-02T13:02:45.532Z</time>
      </trkpt>
      <trkpt lat="48.85957" lon="2.29229">
        <ele>28</ele>
        <time>2022-02-02T13:02:49.531Z</time>
      </trkpt>
      <trkpt lat="48.85952" lon="2.29235">
        <ele>28</ele>
        <time>2022-02-02T13:02:54.507Z</time>
      </trkpt>
      <trkpt lat="48.85949" lon="2.29241">
        <ele>28</ele>
        <time>2022-02-02T13:02:58.520Z</time>
      </trkpt>
      <trkpt lat="48.85944" lon="2.29249">
        <ele>28</ele>
        <time>2022-02-02T13:03:02.525Z</time>
      </trkpt>
      <trkpt lat="48.8594" lon="2.29254">
        <ele>28</ele>
        <time>2022-02-02T13:03:07.522Z</time>
      </trkpt>
      <trkpt lat="48.85936" lon="2.29262">
        <ele>28</ele>
        <time>2022-02-02T13:03:11.521Z</time>
      </trkpt>
      <trkpt lat="48.85931" lon="2.29269">
        <ele>31</ele>
        <time>2022-02-02T13:03:16.520Z</time>
      </trkpt>
      <trkpt lat="48.85926" lon="2.29276">
        <ele>35</ele>
        <time>2022-02-02T13:03:20.529Z</time>
      </trkpt>
      <trkpt lat="48.85923" lon="2.29284">
        <ele>35</ele>
        <time>2022-02-02T13:03:25.521Z</time>
      </trkpt>
      <trkpt lat="48.85918" lon="2.29288">
        <ele>35</ele>
        <time>2022-02-02T13:03:29.525Z</time>
      </trkpt>
      <trkpt lat="48.85913" lon="2.29291">
        <ele>35</ele>
        <time>2022-02-02T13:03:34.523Z</time>
      </trkpt>
      <trkpt lat="48.85907" lon="2.29295">
        <ele>37</ele>
        <time>2022-02-02T13:03:39.519Z</time>
      </trkpt>
      <trkpt lat="48.85902" lon="2.29301">
        <ele>35</ele>
        <time>2022-02-02T13:03:44.524Z</time>
      </trkpt>
      <trkpt lat="48.859" lon="2.29303">
        <ele>35</ele>
        <time>2022-02-02T13:03:49.524Z</time>
      </trkpt>
      <trkpt lat="48.85903" lon="2.2931">
        <ele>37</ele>
        <time>2022-02-02T13:03:54.510Z</time>
      </trkpt>
      <trkpt lat="48.85907" lon="2.29316">
        <ele>37</ele>
        <time>2022-02-02T13:03:58.519Z</time>
      </trkpt>
      <trkpt lat="48.85911" lon="2.29323">
        <ele>40</ele>
        <time>2022-02-02T13:04:02.525Z</time>
      </trkpt>
      <trkpt lat="48.85912" lon="2.29324">
        <ele>40</ele>
        <time>2022-02-02T13:04:07.528Z</time>
      </trkpt>
      <trkpt lat="48.85913" lon="2.29323">
        <ele>40</ele>
        <time>2022-02-02T13:04:12.521Z</time>
      </trkpt>
      <trkpt lat="48.85915" lon="2.29323">
        <ele>40</ele>
        <time>2022-02-02T13:04:17.522Z</time>
      </trkpt>
      <trkpt lat="48.85919" lon="2.29329">
        <ele>40</ele>
        <time>2022-02-02T13:04:21.526Z</time>
      </trkpt>
      <trkpt lat="48.85924" lon="2.29335">
        <ele>40</ele>
        <time>2022-02-02T13:04:26.511Z</time>
      </trkpt>
      <trkpt lat="48.85926" lon="2.29344">
        <ele>40</ele>
        <time>2022-02-02T13:04:30.514Z</time>
      </trkpt>
      <trkpt lat="48.85921" lon="2.29352">
        <ele>44</ele>
        <time>2022-02-02T13:04:35.509Z</time>
      </trkpt>
      <trkpt lat="48.85916" lon="2.29353">
        <ele>44</ele>
        <time>2022-02-02T13:04:39.516Z</time>
      </trkpt>
      <trkpt lat="48.85913" lon="2.29355">
        <ele>44</ele>
        <time>2022-02-02T13:04:44.519Z</time>
      </trkpt>
      <trkpt lat="48.85912" lon="2.29356">
        <ele>44</ele>
        <time>2022-02-02T13:04:49.514Z</time>
      </trkpt>
      <trkpt lat="48.85907" lon="2.2936">
        <ele>44</ele>
        <time>2022-02-02T13:04:53.527Z</time>
      </trkpt>
      <trkpt lat="48.85904" lon="2.29369">
        <ele>44</ele>
        <time>2022-02-02T13:05:08.512Z</time>
      </trkpt>
      <trkpt lat="48.85908" lon="2.29378">
        <ele>45</ele>
        <time>2022-02-02T13:05:12.527Z</time>
      </trkpt>
      <trkpt lat="48.85913" lon="2.29386">
        <ele>45</ele>
        <time>2022-02-02T13:05:17.525Z</time>
      </trkpt>
      <trkpt lat="48.85916" lon="2.29393">
        <ele>45</ele>
        <time>2022-02-02T13:05:22.526Z</time>
      </trkpt>
      <trkpt lat="48.85922" lon="2.29402">
        <ele>45</ele>
        <time>2022-02-02T13:05:27.518Z</time>
      </trkpt>
      <trkpt lat="48.85928" lon="2.29412">
        <ele>42</ele>
        <time>2022-02-02T13:05:32.509Z</time>
      </trkpt>
      <trkpt lat="48.85934" lon="2.29422">
        <ele>40</ele>
        <time>2022-02-02T13:05:37.515Z</time>
      </trkpt>
      <trkpt lat="48.8594" lon="2.29429">
        <ele>40</ele>
        <time>2022-02-02T13:05:41.513Z</time>
      </trkpt>
      <trkpt lat="48.85946" lon="2.29437">
        <ele>40</ele>
        <time>2022-02-02T13:05:46.510Z</time>
      </trkpt>
      <trkpt lat="48.85951" lon="2.29444">
        <ele>40</ele>
        <time>2022-02-02T13:05:51.515Z</time>
      </trkpt>
      <trkpt lat="48.85956" lon="2.29452">
        <ele>40</ele>
        <time>2022-02-02T13:05:55.517Z</time>
      </trkpt>
      <trkpt lat="48.85961" lon="2.29459">
        <ele>37</ele>
        <time>2022-02-02T13:06:00.507Z</time>
      </trkpt>
      <trkpt lat="48.85963" lon="2.29468">
        <ele>37</ele>
        <time>2022-02-02T13:06:04.513Z</time>
      </trkpt>
      <trkpt lat="48.8596" lon="2.29478">
        <ele>37</ele>
        <time>2022-02-02T13:06:08.510Z</time>
      </trkpt>
      <trkpt lat="48.85957" lon="2.29486">
        <ele>39</ele>
        <time>2022-02-02T13:06:13.518Z</time>
      </trkpt>
      <trkpt lat="48.85953" lon="2.29493">
        <ele>40</ele>
        <time>2022-02-02T13:06:18.517Z</time>
      </trkpt>
      <trkpt lat="48.85948" lon="2.295">
        <ele>40</ele>
        <time>2022-02-02T13:06:23.514Z</time>
      </trkpt>
      <trkpt lat="48.85944" lon="2.29507">
        <ele>40</ele>
        <time>2022-02-02T13:06:28.513Z</time>
      </trkpt>
      <trkpt lat="48.85942" lon="2.29514">
        <ele>39</ele>
        <time>2022-02-02T13:06:33.523Z</time>
      </trkpt>
      <trkpt lat="48.8594" lon="2.29524">
        <ele>39</ele>
        <time>2022-02-02T13:06:38.523Z</time>
      </trkpt>
      <trkpt lat="48.85938" lon="2.29535">
        <ele>39</ele>
        <time>2022-02-02T13:06:43.514Z</time>
      </trkpt>
      <trkpt lat="48.85934" lon="2.29543">
        <ele>39</ele>
        <time>2022-02-02T13:06:47.509Z</time>
      </trkpt>
      <trkpt lat="48.85932" lon="2.29552">
        <ele>39</ele>
        <time>2022-02-02T13:06:52.522Z</time>
      </trkpt>
      <trkpt lat="48.85929" lon="2.29561">
        <ele>34</ele>
        <time>2022-02-02T13:06:57.517Z</time>
      </trkpt>
      <trkpt lat="48.85929" lon="2.29565">
        <ele>34</ele>
        <time>2022-02-02T13:07:01.522Z</time>
      </trkpt>
      <trkpt lat="48.85929" lon="2.29565">
        <ele>34</ele>
        <time>2022-02-02T13:07:05.522Z</time>
      </trkpt>
      <trkpt lat="48.85928" lon="2.29571">
        <ele>35</ele>
        <time>2022-02-02T13:07:10.507Z</time>
      </trkpt>
      <trkpt lat="48.85925" lon="2.29577">
        <ele>35</ele>
        <time>2022-02-02T13:07:14.511Z</time>
      </trkpt>
      <trkpt lat="48.85921" lon="2.29582">
        <ele>35</ele>
        <time>2022-02-02T13:07:18.520Z</time>
      </trkpt>
      <trkpt lat="48.85917" lon="2.29587">
        <ele>35</ele>
        <time>2022-02-02T13:07:22.518Z</time>
      </trkpt>
      <trkpt lat="48.85911" lon="2.29596">
        <ele>35</ele>
        <time>2022-02-02T13:07:27.514Z</time>
      </trkpt>
      <trkpt lat="48.85905" lon="2.29599">
        <ele>40</ele>
        <time>2022-02-02T13:07:31.518Z</time>
      </trkpt>
      <trkpt lat="48.85898" lon="2.29605">
        <ele>36</ele>
        <time>2022-02-02T13:07:36.515Z</time>
      </trkpt>
      <trkpt lat="48.85892" lon="2.29608">
        <ele>36</ele>
        <time>2022-02-02T13:07:40.517Z</time>
      </trkpt>
      <trkpt lat="48.85886" lon="2.29609">
        <ele>36</ele>
        <time>2022-02-02T13:07:45.522Z</time>
      </trkpt>
      <trkpt lat="48.85879" lon="2.2961">
        <ele>36</ele>
        <time>2022-02-02T13:07:50.517Z</time>
      </trkpt>
      <trkpt lat="48.85873" lon="2.29615">
        <ele>33</ele>
        <time>2022-02-02T13:07:55.523Z</time>
      </trkpt>
      <trkpt lat="48.85867" lon="2.2962">
        <ele>33</ele>
        <time>2022-02-02T13:08:00.518Z</time>
      </trkpt>
      <trkpt lat="48.85862" lon="2.2962">
        <ele>33</ele>
        <time>2022-02-02T13:08:04.518Z</time>
      </trkpt>
      <trkpt lat="48.85856" lon="2.29619">
        <ele>33</ele>
        <time>2022-02-02T13:08:08.539Z</time>
      </trkpt>
      <trkpt lat="48.85852" lon="2.29617">
        <ele>33</ele>
        <time>2022-02-02T13:08:13.517Z</time>
      </trkpt>
      <trkpt lat="48.85846" lon="2.29614">
        <ele>37</ele>
        <time>2022-02-02T13:08:18.511Z</time>
      </trkpt>
      <trkpt lat="48.85842" lon="2.2961">
        <ele>37</ele>
        <time>2022-02-02T13:08:22.530Z</time>
      </trkpt>
      <trkpt lat="48.85838" lon="2.29602">
        <ele>37</ele>
        <time>2022-02-02T13:08:27.518Z</time>
      </trkpt>
      <trkpt lat="48.85834" lon="2.29596">
        <ele>41</ele>
        <time>2022-02-02T13:08:32.514Z</time>
      </trkpt>
      <trkpt lat="48.85828" lon="2.2959">
        <ele>41</ele>
        <time>2022-02-02T13:08:37.519Z</time>
      </trkpt>
      <trkpt lat="48.85823" lon="2.29583">
        <ele>41</ele>
        <time>2022-02-02T13:08:42.507Z</time>
      </trkpt>
      <trkpt lat="48.85819" lon="2.29577">
        <ele>50</ele>
        <time>2022-02-02T13:08:47.515Z</time>
      </trkpt>
      <trkpt lat="48.85814" lon="2.29569">
        <ele>50</ele>
        <time>2022-02-02T13:08:52.504Z</time>
      </trkpt>
      <trkpt lat="48.85809" lon="2.29563">
        <ele>52</ele>
        <time>2022-02-02T13:08:56.516Z</time>
      </trkpt>
      <trkpt lat="48.85804" lon="2.2956">
        <ele>52</ele>
        <time>2022-02-02T13:09:01.512Z</time>
      </trkpt>
      <trkpt lat="48.85797" lon="2.29564">
        <ele>52</ele>
        <time>2022-02-02T13:09:05.514Z</time>
      </trkpt>
      <trkpt lat="48.85792" lon="2.29571">
        <ele>50</ele>
        <time>2022-02-02T13:09:10.523Z</time>
      </trkpt>
      <trkpt lat="48.85787" lon="2.29576">
        <ele>56</ele>
        <time>2022-02-02T13:09:14.517Z</time>
      </trkpt>
      <trkpt lat="48.85781" lon="2.29583">
        <ele>56</ele>
        <time>2022-02-02T13:09:19.519Z</time>
      </trkpt>
      <trkpt lat="48.85775" lon="2.2959">
        <ele>56</ele>
        <time>2022-02-02T13:09:23.533Z</time>
      </trkpt>
      <trkpt lat="48.8577" lon="2.29596">
        <ele>56</ele>
        <time>2022-02-02T13:09:28.523Z</time>
      </trkpt>
      <trkpt lat="48.85765" lon="2.29604">
        <ele>58</ele>
        <time>2022-02-02T13:09:33.524Z</time>
      </trkpt>
      <trkpt lat="48.85761" lon="2.29609">
        <ele>48</ele>
        <time>2022-02-02T13:09:38.526Z</time>
      </trkpt>
      <trkpt lat="48.85757" lon="2.29616">
        <ele>48</ele>
        <time>2022-02-02T13:09:43.513Z</time>
      </trkpt>
      <trkpt lat="48.85752" lon="2.29623">
        <ele>48</ele>
        <time>2022-02-02T13:09:47.521Z</time>
      </trkpt>
      <trkpt lat="48.85748" lon="2.29631">
        <ele>41</ele>
        <time>2022-02-02T13:09:52.525Z</time>
      </trkpt>
      <trkpt lat="48.85742" lon="2.29639">
        <ele>41</ele>
        <time>2022-02-02T13:09:57.519Z</time>
      </trkpt>
      <trkpt lat="48.85737" lon="2.29647">
        <ele>41</ele>
        <time>2022-02-02T13:10:02.511Z</time>
      </trkpt>
      <trkpt lat="48.85732" lon="2.29655">
        <ele>35</ele>
        <time>2022-02-02T13:10:06.515Z</time>
      </trkpt>
      <trkpt lat="48.85727" lon="2.29661">
        <ele>35</ele>
        <time>2022-02-02T13:10:11.514Z</time>
      </trkpt>
      <trkpt lat="48.85723" lon="2.29668">
        <ele>35</ele>
        <time>2022-02-02T13:10:16.522Z</time>
      </trkpt>
      <trkpt lat="48.8572" lon="2.29674">
        <ele>35</ele>
        <time>2022-02-02T13:10:21.519Z</time>
      </trkpt>
      <trkpt lat="48.85715" lon="2.29682">
        <ele>35</ele>
        <time>2022-02-02T13:10:26.519Z</time>
      </trkpt>
      <trkpt lat="48.85711" lon="2.29687">
        <ele>35</ele>
        <time>2022-02-02T13:10:31.516Z</time>
      </trkpt>
      <trkpt lat="48.85707" lon="2.29695">
        <ele>37</ele>
        <time>2022-02-02T13:10:36.520Z</time>
      </trkpt>
      <trkpt lat="48.85702" lon="2.29702">
        <ele>37</ele>
        <time>2022-02-02T13:10:41.520Z</time>
      </trkpt>
      <trkpt lat="48.85697" lon="2.2971">
        <ele>36</ele>
        <time>2022-02-02T13:10:46.522Z</time>
      </trkpt>
      <trkpt lat="48.85692" lon="2.29716">
        <ele>36</ele>
        <time>2022-02-02T13:10:51.528Z</time>
      </trkpt>
      <trkpt lat="48.85688" lon="2.2972">
        <ele>36</ele>
        <time>2022-02-02T13:10:56.521Z</time>
      </trkpt>
      <trkpt lat="48.85683" lon="2.29726">
        <ele>36</ele>
        <time>2022-02-02T13:11:00.514Z</time>
      </trkpt>
      <trkpt lat="48.85679" lon="2.29733">
        <ele>38</ele>
        <time>2022-02-02T13:11:05.526Z</time>
      </trkpt>
      <trkpt lat="48.85674" lon="2.2974">
        <ele>38</ele>
        <time>2022-02-02T13:11:10.531Z</time>
      </trkpt>
      <trkpt lat="48.85668" lon="2.29747">
        <ele>38</ele>
        <time>2022-02-02T13:11:15.522Z</time>
      </trkpt>
      <trkpt lat="48.85664" lon="2.29752">
        <ele>38</ele>
        <time>2022-02-02T13:11:19.532Z</time>
      </trkpt>
      <trkpt lat="48.85658" lon="2.29759">
        <ele>38</ele>
        <time>2022-02-02T13:11:23.526Z</time>
      </trkpt>
      <trkpt lat="48.85653" lon="2.29765">
        <ele>38</ele>
        <time>2022-02-02T13:11:28.528Z</time>
      </trkpt>
      <trkpt lat="48.85649" lon="2.2977">
        <ele>39</ele>
        <time>2022-02-02T13:11:33.522Z</time>
      </trkpt>
      <trkpt lat="48.85645" lon="2.29778">
        <ele>39</ele>
        <time>2022-02-02T13:11:38.520Z</time>
      </trkpt>
      <trkpt lat="48.85643" lon="2.29788">
        <ele>39</ele>
        <time>2022-02-02T13:11:42.516Z</time>
      </trkpt>
      <trkpt lat="48.85639" lon="2.29796">
        <ele>38</ele>
        <time>2022-02-02T13:11:47.520Z</time>
      </trkpt>
      <trkpt lat="48.85636" lon="2.29803">
        <ele>38</ele>
        <time>2022-02-02T13:11:51.519Z</time>
      </trkpt>
      <trkpt lat="48.85633" lon="2.29811">
        <ele>38</ele>
        <time>2022-02-02T13:11:56.518Z</time>
      </trkpt>
      <trkpt lat="48.8563" lon="2.29821">
        <ele>37</ele>
        <time>2022-02-02T13:12:01.512Z</time>
      </trkpt>
      <trkpt lat="48.85627" lon="2.29829">
        <ele>37</ele>
        <time>2022-02-02T13:12:06.515Z</time>
      </trkpt>
      <trkpt lat="48.85621" lon="2.29834">
        <ele>36</ele>
        <time>2022-02-02T13:12:10.526Z</time>
      </trkpt>
      <trkpt lat="48.85615" lon="2.29841">
        <ele>36</ele>
        <time>2022-02-02T13:12:14.527Z</time>
      </trkpt>
      <trkpt lat="48.85608" lon="2.29843">
        <ele>36</ele>
        <time>2022-02-02T13:12:19.532Z</time>
      </trkpt>
      <trkpt lat="48.85602" lon="2.2984">
        <ele>36</ele>
        <time>2022-02-02T13:12:24.518Z</time>
      </trkpt>
      <trkpt lat="48.85597" lon="2.29839">
        <ele>36</ele>
        <time>2022-02-02T13:12:29.517Z</time>
      </trkpt>
      <trkpt lat="48.85591" lon="2.29838">
        <ele>37</ele>
        <time>2022-02-02T13:12:34.514Z</time>
      </trkpt>
      <trkpt lat="48.85586" lon="2.29833">
        <ele>37</ele>
        <time>2022-02-02T13:12:39.512Z</time>
      </trkpt>
      <trkpt lat="48.8558" lon="2.29827">
        <ele>37</ele>
        <time>2022-02-02T13:12:43.516Z</time>
      </trkpt>
      <trkpt lat="48.85574" lon="2.29822">
        <ele>37</ele>
        <time>2022-02-02T13:12:48.523Z</time>
      </trkpt>
      <trkpt lat="48.85568" lon="2.29816">
        <ele>36</ele>
        <time>2022-02-02T13:12:53.527Z</time>
      </trkpt>
      <trkpt lat="48.85562" lon="2.29822">
        <ele>36</ele>
        <time>2022-02-02T13:12:58.514Z</time>
      </trkpt>
      <trkpt lat="48.85558" lon="2.29829">
        <ele>36</ele>
        <time>2022-02-02T13:13:02.522Z</time>
      </trkpt>
      <trkpt lat="48.85553" lon="2.29837">
        <ele>36</ele>
        <time>2022-02-02T13:13:07.518Z</time>
      </trkpt>
      <trkpt lat="48.85548" lon="2.29844">
        <ele>36</ele>
        <time>2022-02-02T13:13:11.523Z</time>
      </trkpt>
      <trkpt lat="48.85544" lon="2.29849">
        <ele>38</ele>
        <time>2022-02-02T13:13:15.530Z</time>
      </trkpt>
      <trkpt lat="48.85539" lon="2.29856">
        <ele>36</ele>
        <time>2022-02-02T13:13:20.515Z</time>
      </trkpt>
      <trkpt lat="48.85535" lon="2.29863">
        <ele>36</ele>
        <time>2022-02-02T13:13:25.515Z</time>
      </trkpt>
      <trkpt lat="48.85531" lon="2.29868">
        <ele>36</ele>
        <time>2022-02-02T13:13:29.513Z</time>
      </trkpt>
      <trkpt lat="48.85525" lon="2.29874">
        <ele>36</ele>
        <time>2022-02-02T13:13:34.521Z</time>
      </trkpt>
      <trkpt lat="48.85521" lon="2.29883">
        <ele>36</ele>
        <time>2022-02-02T13:13:39.513Z</time>
      </trkpt>
      <trkpt lat="48.85517" lon="2.2989">
        <ele>36</ele>
        <time>2022-02-02T13:13:44.520Z</time>
      </trkpt>
      <trkpt lat="48.85513" lon="2.29899">
        <ele>36</ele>
        <time>2022-02-02T13:13:49.520Z</time>
      </trkpt>
      <trkpt lat="48.85509" lon="2.29905">
        <ele>34</ele>
        <time>2022-02-02T13:13:54.522Z</time>
      </trkpt>
      <trkpt lat="48.85505" lon="2.29912">
        <ele>34</ele>
        <time>2022-02-02T13:13:58.521Z</time>
      </trkpt>
      <trkpt lat="48.85501" lon="2.29917">
        <ele>34</ele>
        <time>2022-02-02T13:14:03.521Z</time>
      </trkpt>
      <trkpt lat="48.85497" lon="2.29923">
        <ele>34</ele>
        <time>2022-02-02T13:14:07.519Z</time>
      </trkpt>
      <trkpt lat="48.85492" lon="2.2993">
        <ele>34</ele>
        <time>2022-02-02T13:14:12.516Z</time>
      </trkpt>
      <trkpt lat="48.85486" lon="2.29936">
        <ele>32</ele>
        <time>2022-02-02T13:14:17.519Z</time>
      </trkpt>
      <trkpt lat="48.85482" lon="2.29943">
        <ele>32</ele>
        <time>2022-02-02T13:14:22.517Z</time>
      </trkpt>
      <trkpt lat="48.85478" lon="2.29949">
        <ele>32</ele>
        <time>2022-02-02T13:14:27.527Z</time>
      </trkpt>
      <trkpt lat="48.85473" lon="2.29956">
        <ele>32</ele>
        <time>2022-02-02T13:14:32.523Z</time>
      </trkpt>
      <trkpt lat="48.85468" lon="2.29962">
        <ele>34</ele>
        <time>2022-02-02T13:14:37.525Z</time>
      </trkpt>
      <trkpt lat="48.85464" lon="2.29971">
        <ele>34</ele>
        <time>2022-02-02T13:14:42.514Z</time>
      </trkpt>
      <trkpt lat="48.85461" lon="2.29976">
        <ele>34</ele>
        <time>2022-02-02T13:14:46.529Z</time>
      </trkpt>
      <trkpt lat="48.85456" lon="2.29982">
        <ele>34</ele>
        <time>2022-02-02T13:14:50.526Z</time>
      </trkpt>
      <trkpt lat="48.8545" lon="2.29988">
        <ele>37</ele>
        <time>2022-02-02T13:14:55.519Z</time>
      </trkpt>
      <trkpt lat="48.85445" lon="2.29994">
        <ele>37</ele>
        <time>2022-02-02T13:14:59.519Z</time>
      </trkpt>
      <trkpt lat="48.85439" lon="2.29999">
        <ele>37</ele>
        <time>2022-02-02T13:15:04.513Z</time>
      </trkpt>
      <trkpt lat="48.85434" lon="2.30004">
        <ele>37</ele>
        <time>2022-02-02T13:15:09.519Z</time>
      </trkpt>
      <trkpt lat="48.85429" lon="2.30008">
        <ele>37</ele>
        <time>2022-02-02T13:15:14.527Z</time>
      </trkpt>
      <trkpt lat="48.85423" lon="2.30015">
        <ele>39</ele>
        <time>2022-02-02T13:15:19.520Z</time>
      </trkpt>
      <trkpt lat="48.85419" lon="2.30021">
        <ele>39</ele>
        <time>2022-02-02T13:15:23.523Z</time>
      </trkpt>
      <trkpt lat="48.85415" lon="2.30029">
        <ele>39</ele>
        <time>2022-02-02T13:15:27.518Z</time>
      </trkpt>
      <trkpt lat="48.8541" lon="2.30035">
        <ele>39</ele>
        <time>2022-02-02T13:15:32.525Z</time>
      </trkpt>
      <trkpt lat="48.85405" lon="2.30041">
        <ele>39</ele>
        <time>2022-02-02T13:15:37.524Z</time>
      </trkpt>
      <trkpt lat="48.854" lon="2.30048">
        <ele>39</ele>
        <time>2022-02-02T13:15:42.519Z</time>
      </trkpt>
      <trkpt lat="48.85396" lon="2.30054">
        <ele>39</ele>
        <time>2022-02-02T13:15:46.522Z</time>
      </trkpt>
      <trkpt lat="48.85391" lon="2.30059">
        <ele>39</ele>
        <time>2022-02-02T13:15:51.523Z</time>
      </trkpt>
      <trkpt lat="48.85385" lon="2.30065">
        <ele>39</ele>
        <time>2022-02-02T13:15:56.515Z</time>
      </trkpt>
      <trkpt lat="48.85381" lon="2.30071">
        <ele>35</ele>
        <time>2022-02-02T13:16:00.520Z</time>
      </trkpt>
      <trkpt lat="48.85376" lon="2.30078">
        <ele>35</ele>
        <time>2022-02-02T13:16:05.521Z</time>
      </trkpt>
      <trkpt lat="48.85371" lon="2.30086">
        <ele>37</ele>
        <time>2022-02-02T13:16:10.523Z</time>
      </trkpt>
      <trkpt lat="48.85366" lon="2.30092">
        <ele>37</ele>
        <time>2022-02-02T13:16:15.521Z</time>
      </trkpt>
      <trkpt lat="48.85361" lon="2.30101">
        <ele>36</ele>
        <time>2022-02-02T13:16:19.526Z</time>
      </trkpt>
      <trkpt lat="48.85358" lon="2.30106">
        <ele>36</ele>
        <time>2022-02-02T13:16:24.521Z</time>
      </trkpt>
      <trkpt lat="48.85352" lon="2.3011">
        <ele>36</ele>
        <time>2022-02-02T13:16:29.521Z</time>
      </trkpt>
      <trkpt lat="48.85347" lon="2.30115">
        <ele>36</ele>
        <time>2022-02-02T13:16:34.518Z</time>
      </trkpt>
      <trkpt lat="48.85342" lon="2.30122">
        <ele>36</ele>
        <time>2022-02-02T13:16:39.518Z</time>
      </trkpt>
      <trkpt lat="48.85338" lon="2.30127">
        <ele>37</ele>
        <time>2022-02-02T13:16:44.525Z</time>
      </trkpt>
      <trkpt lat="48.85332" lon="2.30132">
        <ele>37</ele>
        <time>2022-02-02T13:16:49.529Z</time>
      </trkpt>
      <trkpt lat="48.85327" lon="2.30136">
        <ele>37</ele>
        <time>2022-02-02T13:16:54.506Z</time>
      </trkpt>
      <trkpt lat="48.85321" lon="2.3014">
        <ele>37</ele>
        <time>2022-02-02T13:16:58.522Z</time>
      </trkpt>
      <trkpt lat="48.85314" lon="2.30142">
        <ele>39</ele>
        <time>2022-02-02T13:17:03.524Z</time>
      </trkpt>
      <trkpt lat="48.85311" lon="2.30145">
        <ele>39</ele>
        <time>2022-02-02T13:17:08.525Z</time>
      </trkpt>
      <trkpt lat="48.85307" lon="2.30146">
        <ele>39</ele>
        <time>2022-02-02T13:17:13.526Z</time>
      </trkpt>
      <trkpt lat="48.85302" lon="2.30145">
        <ele>39</ele>
        <time>2022-02-02T13:17:18.524Z</time>
      </trkpt>
      <trkpt lat="48.85294" lon="2.30147">
        <ele>39</ele>
        <time>2022-02-02T13:17:23.526Z</time>
      </trkpt>
      <trkpt lat="48.85286" lon="2.30154">
        <ele>39</ele>
        <time>2022-02-02T13:17:28.519Z</time>
      </trkpt>
      <trkpt lat="48.85279" lon="2.3016">
        <ele>39</ele>
        <time>2022-02-02T13:17:32.521Z</time>
      </trkpt>
      <trkpt lat="48.85274" lon="2.30167">
        <ele>39</ele>
        <time>2022-02-02T13:17:37.522Z</time>
      </trkpt>
      <trkpt lat="48.85269" lon="2.30176">
        <ele>39</ele>
        <time>2022-02-02T13:17:42.516Z</time>
      </trkpt>
      <trkpt lat="48.85267" lon="2.30185">
        <ele>37</ele>
        <time>2022-02-02T13:17:46.523Z</time>
      </trkpt>
      <trkpt lat="48.85264" lon="2.30193">
        <ele>37</ele>
        <time>2022-02-02T13:17:51.637Z</time>
      </trkpt>
      <trkpt lat="48.85261" lon="2.302">
        <ele>38</ele>
        <time>2022-02-02T13:17:56.524Z</time>
      </trkpt>
      <trkpt lat="48.85257" lon="2.30207">
        <ele>38</ele>
        <time>2022-02-02T13:18:00.528Z</time>
      </trkpt>
      <trkpt lat="48.85252" lon="2.30215">
        <ele>38</ele>
        <time>2022-02-02T13:18:04.536Z</time>
      </trkpt>
      <trkpt lat="48.85246" lon="2.30221">
        <ele>38</ele>
        <time>2022-02-02T13:18:09.519Z</time>
      </trkpt>
      <trkpt lat="48.85239" lon="2.30224">
        <ele>38</ele>
        <time>2022-02-02T13:18:14.521Z</time>
      </trkpt>
      <trkpt lat="48.85232" lon="2.30227">
        <ele>39</ele>
        <time>2022-02-02T13:18:19.507Z</time>
      </trkpt>
      <trkpt lat="48.85224" lon="2.3023">
        <ele>39</ele>
        <time>2022-02-02T13:18:23.522Z</time>
      </trkpt>
      <trkpt lat="48.85219" lon="2.30238">
        <ele>40</ele>
        <time>2022-02-02T13:18:28.508Z</time>
      </trkpt>
      <trkpt lat="48.85216" lon="2.30244">
        <ele>40</ele>
        <time>2022-02-02T13:18:32.510Z</time>
      </trkpt>
      <trkpt lat="48.85217" lon="2.30248">
        <ele>40</ele>
        <time>2022-02-02T13:18:36.521Z</time>
      </trkpt>
      <trkpt lat="48.85217" lon="2.30253">
        <ele>40</ele>
        <time>2022-02-02T13:18:41.520Z</time>
      </trkpt>
      <trkpt lat="48.85222" lon="2.3026">
        <ele>40</ele>
        <time>2022-02-02T13:18:46.525Z</time>
      </trkpt>
      <trkpt lat="48.85226" lon="2.30266">
        <ele>43</ele>
        <time>2022-02-02T13:18:51.524Z</time>
      </trkpt>
      <trkpt lat="48.8523" lon="2.30271">
        <ele>43</ele>
        <time>2022-02-02T13:18:56.522Z</time>
      </trkpt>
      <trkpt lat="48.85235" lon="2.30278">
        <ele>43</ele>
        <time>2022-02-02T13:19:01.532Z</time>
      </trkpt>
      <trkpt lat="48.85241" lon="2.30284">
        <ele>42</ele>
        <time>2022-02-02T13:19:06.525Z</time>
      </trkpt>
      <trkpt lat="48.85246" lon="2.30291">
        <ele>42</ele>
        <time>2022-02-02T13:19:11.520Z</time>
      </trkpt>
      <trkpt lat="48.85252" lon="2.30294">
        <ele>44</ele>
        <time>2022-02-02T13:19:15.526Z</time>
      </trkpt>
      <trkpt lat="48.85254" lon="2.30292">
        <ele>44</ele>
        <time>2022-02-02T13:19:20.524Z</time>
      </trkpt>
      <trkpt lat="48.85254" lon="2.30291">
        <ele>42</ele>
        <time>2022-02-02T13:19:25.502Z</time>
      </trkpt>
      <trkpt lat="48.85254" lon="2.30291">
        <ele>42</ele>
        <time>2022-02-02T13:19:29.518Z</time>
      </trkpt>
      <trkpt lat="48.85255" lon="2.3029">
        <ele>42</ele>
        <time>2022-02-02T13:19:34.520Z</time>
      </trkpt>
      <trkpt lat="48.85261" lon="2.30284">
        <ele>42</ele>
        <time>2022-02-02T13:19:38.528Z</time>
      </trkpt>
      <trkpt lat="48.85266" lon="2.30278">
        <ele>40</ele>
        <time>2022-02-02T13:19:42.520Z</time>
      </trkpt>
      <trkpt lat="48.85277" lon="2.30283">
        <ele>40</ele>
        <time>2022-02-02T13:19:47.522Z</time>
      </trkpt>
      <trkpt lat="48.85281" lon="2.30289">
        <ele>40</ele>
        <time>2022-02-02T13:19:51.535Z</time>
      </trkpt>
      <trkpt lat="48.85284" lon="2.30293">
        <ele>41</ele>
        <time>2022-02-02T13:19:56.526Z</time>
      </trkpt>
      <trkpt lat="48.85288" lon="2.30299">
        <ele>41</ele>
        <time>2022-02-02T13:20:01.509Z</time>
      </trkpt>
      <trkpt lat="48.85291" lon="2.30306">
        <ele>41</ele>
        <time>2022-02-02T13:20:06.534Z</time>
      </trkpt>
      <trkpt lat="48.85294" lon="2.30311">
        <ele>39</ele>
        <time>2022-02-02T13:20:11.526Z</time>
      </trkpt>
      <trkpt lat="48.85298" lon="2.30316">
        <ele>39</ele>
        <time>2022-02-02T13:20:15.527Z</time>
      </trkpt>
      <trkpt lat="48.85302" lon="2.30323">
        <ele>39</ele>
        <time>2022-02-02T13:20:19.523Z</time>
      </trkpt>
      <trkpt lat="48.85307" lon="2.30332">
        <ele>39</ele>
        <time>2022-02-02T13:20:24.526Z</time>
      </trkpt>
      <trkpt lat="48.85311" lon="2.30338">
        <ele>39</ele>
        <time>2022-02-02T13:20:28.527Z</time>
      </trkpt>
      <trkpt lat="48.85316" lon="2.30345">
        <ele>39</ele>
        <time>2022-02-02T13:20:33.517Z</time>
      </trkpt>
      <trkpt lat="48.85321" lon="2.30352">
        <ele>37</ele>
        <time>2022-02-02T13:20:38.529Z</time>
      </trkpt>
      <trkpt lat="48.85326" lon="2.30359">
        <ele>37</ele>
        <time>2022-02-02T13:20:43.522Z</time>
      </trkpt>
      <trkpt lat="48.8533" lon="2.30366">
        <ele>37</ele>
        <time>2022-02-02T13:20:48.519Z</time>
      </trkpt>
      <trkpt lat="48.85337" lon="2.30366">
        <ele>37</ele>
        <time>2022-02-02T13:20:52.527Z</time>
      </trkpt>
      <trkpt lat="48.85342" lon="2.30364">
        <ele>37</ele>
        <time>2022-02-02T13:20:57.531Z</time>
      </trkpt>
      <trkpt lat="48.85349" lon="2.30365">
        <ele>36</ele>
        <time>2022-02-02T13:21:02.504Z</time>
      </trkpt>
      <trkpt lat="48.85351" lon="2.30372">
        <ele>36</ele>
        <time>2022-02-02T13:21:06.519Z</time>
      </trkpt>
      <trkpt lat="48.85356" lon="2.30376">
        <ele>35</ele>
        <time>2022-02-02T13:21:10.524Z</time>
      </trkpt>
      <trkpt lat="48.85358" lon="2.30382">
        <ele>35</ele>
        <time>2022-02-02T13:21:15.517Z</time>
      </trkpt>
      <trkpt lat="48.85361" lon="2.30385">
        <ele>35</ele>
        <time>2022-02-02T13:21:19.528Z</time>
      </trkpt>
      <trkpt lat="48.85362" lon="2.30386">
        <ele>35</ele>
        <time>2022-02-02T13:21:24.526Z</time>
      </trkpt>
      <trkpt lat="48.85365" lon="2.30393">
        <ele>35</ele>
        <time>2022-02-02T13:21:29.513Z</time>
      </trkpt>
      <trkpt lat="48.85368" lon="2.30399">
        <ele>35</ele>
        <time>2022-02-02T13:21:33.517Z</time>
      </trkpt>
      <trkpt lat="48.85371" lon="2.30404">
        <ele>34</ele>
        <time>2022-02-02T13:21:37.522Z</time>
      </trkpt>
      <trkpt lat="48.85376" lon="2.30411">
        <ele>39</ele>
        <time>2022-02-02T13:21:42.524Z</time>
      </trkpt>
      <trkpt lat="48.85381" lon="2.3042">
        <ele>39</ele>
        <time>2022-02-02T13:21:47.524Z</time>
      </trkpt>
      <trkpt lat="48.85384" lon="2.30426">
        <ele>39</ele>
        <time>2022-02-02T13:21:52.523Z</time>
      </trkpt>
      <trkpt lat="48.85388" lon="2.30434">
        <ele>38</ele>
        <time>2022-02-02T13:21:56.534Z</time>
      </trkpt>
      <trkpt lat="48.85393" lon="2.30441">
        <ele>38</ele>
        <time>2022-02-02T13:22:01.536Z</time>
      </trkpt>
      <trkpt lat="48.85396" lon="2.30446">
        <ele>38</ele>
        <time>2022-02-02T13:22:06.520Z</time>
      </trkpt>
      <trkpt lat="48.85401" lon="2.3045">
        <ele>38</ele>
        <time>2022-02-02T13:22:11.523Z</time>
      </trkpt>
      <trkpt lat="48.85405" lon="2.30454">
        <ele>41</ele>
        <time>2022-02-02T13:22:16.520Z</time>
      </trkpt>
      <trkpt lat="48.85412" lon="2.30457">
        <ele>41</ele>
        <time>2022-02-02T13:22:21.527Z</time>
      </trkpt>
      <trkpt lat="48.85418" lon="2.30459">
        <ele>40</ele>
        <time>2022-02-02T13:22:25.524Z</time>
      </trkpt>
      <trkpt lat="48.85422" lon="2.30466">
        <ele>40</ele>
        <time>2022-02-02T13:22:30.524Z</time>
      </trkpt>
      <trkpt lat="48.85423" lon="2.30475">
        <ele>40</ele>
        <time>2022-02-02T13:22:35.512Z</time>
      </trkpt>
      <trkpt lat="48.85425" lon="2.30483">
        <ele>40</ele>
        <time>2022-02-02T13:22:40.519Z</time>
      </trkpt>
      <trkpt lat="48.85426" lon="2.30494">
        <ele>41</ele>
        <time>2022-02-02T13:22:45.531Z</time>
      </trkpt>
      <trkpt lat="48.85429" lon="2.30502">
        <ele>41</ele>
        <time>2022-02-02T13:22:50.529Z</time>
      </trkpt>
      <trkpt lat="48.85428" lon="2.30511">
        <ele>41</ele>
        <time>2022-02-02T13:22:55.520Z</time>
      </trkpt>
      <trkpt lat="48.85431" lon="2.30517">
        <ele>44</ele>
        <time>2022-02-02T13:22:59.529Z</time>
      </trkpt>
      <trkpt lat="48.85425" lon="2.30519">
        <ele>41</ele>
        <time>2022-02-02T13:23:04.520Z</time>
      </trkpt>
      <trkpt lat="48.85421" lon="2.30521">
        <ele>41</ele>
        <time>2022-02-02T13:23:09.517Z</time>
      </trkpt>
      <trkpt lat="48.85419" lon="2.30521">
        <ele>41</ele>
        <time>2022-02-02T13:23:13.531Z</time>
      </trkpt>
      <trkpt lat="48.85415" lon="2.30525">
        <ele>41</ele>
        <time>2022-02-02T13:23:17.518Z</time>
      </trkpt>
      <trkpt lat="48.85411" lon="2.30533">
        <ele>41</ele>
        <time>2022-02-02T13:23:22.521Z</time>
      </trkpt>
      <trkpt lat="48.8541" lon="2.30543">
        <ele>41</ele>
        <time>2022-02-02T13:23:27.524Z</time>
      </trkpt>
      <trkpt lat="48.85411" lon="2.30552">
        <ele>41</ele>
        <time>2022-02-02T13:23:32.511Z</time>
      </trkpt>
      <trkpt lat="48.85411" lon="2.3056">
        <ele>41</ele>
        <time>2022-02-02T13:23:37.520Z</time>
      </trkpt>
      <trkpt lat="48.85411" lon="2.30569">
        <ele>41</ele>
        <time>2022-02-02T13:23:42.518Z</time>
      </trkpt>
      <trkpt lat="48.8541" lon="2.30578">
        <ele>41</ele>
        <time>2022-02-02T13:23:46.529Z</time>
      </trkpt>
      <trkpt lat="48.85409" lon="2.30586">
        <ele>41</ele>
        <time>2022-02-02T13:23:51.525Z</time>
      </trkpt>
      <trkpt lat="48.85408" lon="2.30595">
        <ele>41</ele>
        <time>2022-02-02T13:23:56.521Z</time>
      </trkpt>
      <trkpt lat="48.85407" lon="2.30603">
        <ele>42</ele>
        <time>2022-02-02T13:24:01.520Z</time>
      </trkpt>
      <trkpt lat="48.85406" lon="2.30613">
        <ele>42</ele>
        <time>2022-02-02T13:24:05.518Z</time>
      </trkpt>
      <trkpt lat="48.85404" lon="2.30621">
        <ele>42</ele>
        <time>2022-02-02T13:24:24.516Z</time>
      </trkpt>
      <trkpt lat="48.85406" lon="2.30628">
        <ele>42</ele>
        <time>2022-02-02T13:24:29.525Z</time>
      </trkpt>
      <trkpt lat="48.85405" lon="2.30635">
        <ele>42</ele>
        <time>2022-02-02T13:24:33.525Z</time>
      </trkpt>
      <trkpt lat="48.854" lon="2.3064">
        <ele>41</ele>
        <time>2022-02-02T13:24:38.522Z</time>
      </trkpt>
      <trkpt lat="48.85396" lon="2.30648">
        <ele>41</ele>
        <time>2022-02-02T13:24:43.515Z</time>
      </trkpt>
      <trkpt lat="48.85394" lon="2.30656">
        <ele>42</ele>
        <time>2022-02-02T13:24:47.514Z</time>
      </trkpt>
      <trkpt lat="48.85397" lon="2.30665">
        <ele>42</ele>
        <time>2022-02-02T13:24:51.528Z</time>
      </trkpt>
      <trkpt lat="48.85401" lon="2.30673">
        <ele>42</ele>
        <time>2022-02-02T13:24:56.522Z</time>
      </trkpt>
      <trkpt lat="48.85405" lon="2.30672">
        <ele>43</ele>
        <time>2022-02-02T13:25:01.518Z</time>
      </trkpt>
      <trkpt lat="48.8541" lon="2.30668">
        <ele>43</ele>
        <time>2022-02-02T13:25:05.513Z</time>
      </trkpt>
      <trkpt lat="48.85414" lon="2.30666">
        <ele>43</ele>
        <time>2022-02-02T13:25:10.511Z</time>
      </trkpt>
      <trkpt lat="48.85419" lon="2.30663">
        <ele>43</ele>
        <time>2022-02-02T13:25:15.534Z</time>
      </trkpt>
      <trkpt lat="48.85423" lon="2.30659">
        <ele>43</ele>
        <time>2022-02-02T13:25:20.518Z</time>
      </trkpt>
      <trkpt lat="48.85423" lon="2.30649">
        <ele>42</ele>
        <time>2022-02-02T13:25:25.523Z</time>
      </trkpt>
      <trkpt lat="48.85427" lon="2.30641">
        <ele>42</ele>
        <time>2022-02-02T13:25:30.524Z</time>
      </trkpt>
      <trkpt lat="48.85432" lon="2.30635">
        <ele>43</ele>
        <time>2022-02-02T13:25:34.521Z</time>
      </trkpt>
      <trkpt lat="48.85438" lon="2.30629">
        <ele>43</ele>
        <time>2022-02-02T13:25:39.515Z</time>
      </trkpt>
      <trkpt lat="48.85442" lon="2.30625">
        <ele>43</ele>
        <time>2022-02-02T13:25:44.522Z</time>
      </trkpt>
      <trkpt lat="48.85447" lon="2.30622">
        <ele>41</ele>
        <time>2022-02-02T13:25:49.518Z</time>
      </trkpt>
      <trkpt lat="48.85452" lon="2.30618">
        <ele>41</ele>
        <time>2022-02-02T13:25:53.519Z</time>
      </trkpt>
      <trkpt lat="48.85458" lon="2.30612">
        <ele>41</ele>
        <time>2022-02-02T13:25:58.520Z</time>
      </trkpt>
      <trkpt lat="48.8546" lon="2.30608">
        <ele>42</ele>
        <time>2022-02-02T13:26:02.526Z</time>
      </trkpt>
      <trkpt lat="48.85462" lon="2.30601">
        <ele>42</ele>
        <time>2022-02-02T13:26:07.509Z</time>
      </trkpt>
      <trkpt lat="48.85465" lon="2.30592">
        <ele>43</ele>
        <time>2022-02-02T13:26:11.521Z</time>
      </trkpt>
      <trkpt lat="48.85467" lon="2.30583">
        <ele>43</ele>
        <time>2022-02-02T13:26:15.521Z</time>
      </trkpt>
      <trkpt lat="48.85469" lon="2.30575">
        <ele>43</ele>
        <time>2022-02-02T13:26:20.530Z</time>
      </trkpt>
      <trkpt lat="48.85473" lon="2.3057">
        <ele>43</ele>
        <time>2022-02-02T13:26:25.526Z</time>
      </trkpt>
      <trkpt lat="48.85479" lon="2.30568">
        <ele>46</ele>
        <time>2022-02-02T13:26:29.524Z</time>
      </trkpt>
      <trkpt lat="48.85485" lon="2.30564">
        <ele>46</ele>
        <time>2022-02-02T13:26:34.532Z</time>
      </trkpt>
      <trkpt lat="48.8549" lon="2.30565">
        <ele>46</ele>
        <time>2022-02-02T13:26:39.515Z</time>
      </trkpt>
      <trkpt lat="48.85498" lon="2.30564">
        <ele>46</ele>
        <time>2022-02-02T13:26:43.524Z</time>
      </trkpt>
      <trkpt lat="48.85505" lon="2.30562">
        <ele>46</ele>
        <time>2022-02-02T13:26:48.532Z</time>
      </trkpt>
      <trkpt lat="48.85509" lon="2.30561">
        <ele>46</ele>
        <time>2022-02-02T13:26:52.531Z</time>
      </trkpt>
      <trkpt lat="48.85514" lon="2.30559">
        <ele>46</ele>
        <time>2022-02-02T13:26:57.524Z</time>
      </trkpt>
      <trkpt lat="48.8552" lon="2.30556">
        <ele>44</ele>
        <time>2022-02-02T13:27:02.515Z</time>
      </trkpt>
      <trkpt lat="48.85525" lon="2.30554">
        <ele>44</ele>
        <time>2022-02-02T13:27:07.526Z</time>
      </trkpt>
      <trkpt lat="48.85532" lon="2.30551">
        <ele>44</ele>
        <time>2022-02-02T13:27:12.519Z</time>
      </trkpt>
      <trkpt lat="48.85537" lon="2.30549">
        <ele>44</ele>
        <time>2022-02-02T13:27:17.523Z</time>
      </trkpt>
      <trkpt lat="48.85543" lon="2.30545">
        <ele>44</ele>
        <time>2022-02-02T13:27:22.520Z</time>
      </trkpt>
      <trkpt lat="48.85548" lon="2.30543">
        <ele>44</ele>
        <time>2022-02-02T13:27:27.530Z</time>
      </trkpt>
      <trkpt lat="48.85554" lon="2.30539">
        <ele>45</ele>
        <time>2022-02-02T13:27:32.515Z</time>
      </trkpt>
      <trkpt lat="48.85558" lon="2.30534">
        <ele>45</ele>
        <time>2022-02-02T13:27:36.524Z</time>
      </trkpt>
      <trkpt lat="48.85563" lon="2.30531">
        <ele>45</ele>
        <time>2022-02-02T13:27:41.520Z</time>
      </trkpt>
      <trkpt lat="48.85571" lon="2.30529">
        <ele>46</ele>
        <time>2022-02-02T13:27:45.526Z</time>
      </trkpt>
      <trkpt lat="48.85578" lon="2.30528">
        <ele>46</ele>
        <time>2022-02-02T13:27:50.514Z</time>
      </trkpt>
      <trkpt lat="48.85584" lon="2.30519">
        <ele>46</ele>
        <time>2022-02-02T13:27:54.543Z</time>
      </trkpt>
      <trkpt lat="48.85591" lon="2.30516">
        <ele>46</ele>
        <time>2022-02-02T13:27:59.525Z</time>
      </trkpt>
      <trkpt lat="48.85597" lon="2.30513">
        <ele>45</ele>
        <time>2022-02-02T13:28:04.527Z</time>
      </trkpt>
      <trkpt lat="48.85602" lon="2.30509">
        <ele>45</ele>
        <time>2022-02-02T13:28:09.520Z</time>
      </trkpt>
      <trkpt lat="48.85609" lon="2.3051">
        <ele>45</ele>
        <time>2022-02-02T13:28:14.523Z</time>
      </trkpt>
      <trkpt lat="48.85615" lon="2.30508">
        <ele>45</ele>
        <time>2022-02-02T13:28:19.534Z</time>
      </trkpt>
      <trkpt lat="48.8562" lon="2.30505">
        <ele>45</ele>
        <time>2022-02-02T13:28:24.528Z</time>
      </trkpt>
      <trkpt lat="48.85627" lon="2.30503">
        <ele>46</ele>
        <time>2022-02-02T13:28:28.526Z</time>
      </trkpt>
      <trkpt lat="48.8563" lon="2.3051">
        <ele>46</ele>
        <time>2022-02-02T13:28:33.533Z</time>
      </trkpt>
      <trkpt lat="48.8563" lon="2.30517">
        <ele>48</ele>
        <time>2022-02-02T13:28:37.532Z</time>
      </trkpt>
      <trkpt lat="48.8563" lon="2.30526">
        <ele>48</ele>
        <time>2022-02-02T13:28:42.529Z</time>
      </trkpt>
      <trkpt lat="48.85629" lon="2.30534">
        <ele>48</ele>
        <time>2022-02-02T13:28:47.520Z</time>
      </trkpt>
      <trkpt lat="48.85629" lon="2.30543">
        <ele>49</ele>
        <time>2022-02-02T13:28:51.516Z</time>
      </trkpt>
      <trkpt lat="48.85628" lon="2.30552">
        <ele>49</ele>
        <time>2022-02-02T13:28:56.526Z</time>
      </trkpt>
      <trkpt lat="48.85628" lon="2.30561">
        <ele>49</ele>
        <time>2022-02-02T13:29:00.536Z</time>
      </trkpt>
      <trkpt lat="48.8563" lon="2.3057">
        <ele>50</ele>
        <time>2022-02-02T13:29:05.517Z</time>
      </trkpt>
      <trkpt lat="48.85632" lon="2.30578">
        <ele>50</ele>
        <time>2022-02-02T13:29:09.516Z</time>
      </trkpt>
      <trkpt lat="48.85634" lon="2.30586">
        <ele>50</ele>
        <time>2022-02-02T13:29:14.527Z</time>
      </trkpt>
      <trkpt lat="48.85639" lon="2.30594">
        <ele>50</ele>
        <time>2022-02-02T13:29:19.522Z</time>
      </trkpt>
      <trkpt lat="48.85643" lon="2.306">
        <ele>49</ele>
        <time>2022-02-02T13:29:24.516Z</time>
      </trkpt>
      <trkpt lat="48.85644" lon="2.30608">
        <ele>49</ele>
        <time>2022-02-02T13:29:28.527Z</time>
      </trkpt>
      <trkpt lat="48.85647" lon="2.30616">
        <ele>49</ele>
        <time>2022-02-02T13:29:33.514Z</time>
      </trkpt>
      <trkpt lat="48.8565" lon="2.30624">
        <ele>49</ele>
        <time>2022-02-02T13:29:37.531Z</time>
      </trkpt>
      <trkpt lat="48.85653" lon="2.30632">
        <ele>47</ele>
        <time>2022-02-02T13:29:41.518Z</time>
      </trkpt>
      <trkpt lat="48.85655" lon="2.30641">
        <ele>46</ele>
        <time>2022-02-02T13:29:46.526Z</time>
      </trkpt>
      <trkpt lat="48.85657" lon="2.30649">
        <ele>46</ele>
        <time>2022-02-02T13:29:51.527Z</time>
      </trkpt>
      <trkpt lat="48.85661" lon="2.30656">
        <ele>46</ele>
        <time>2022-02-02T13:29:56.531Z</time>
      </trkpt>
      <trkpt lat="48.85664" lon="2.30665">
        <ele>46</ele>
        <time>2022-02-02T13:30:01.518Z</time>
      </trkpt>
      <trkpt lat="48.85668" lon="2.30672">
        <ele>46</ele>
        <time>2022-02-02T13:30:05.521Z</time>
      </trkpt>
      <trkpt lat="48.85671" lon="2.30681">
        <ele>46</ele>
        <time>2022-02-02T13:30:09.517Z</time>
      </trkpt>
      <trkpt lat="48.85674" lon="2.3069">
        <ele>46</ele>
        <time>2022-02-02T13:30:14.516Z</time>
      </trkpt>
      <trkpt lat="48.85677" lon="2.30699">
        <ele>46</ele>
        <time>2022-02-02T13:30:19.529Z</time>
      </trkpt>
      <trkpt lat="48.85681" lon="2.30707">
        <ele>45</ele>
        <time>2022-02-02T13:30:24.518Z</time>
      </trkpt>
      <trkpt lat="48.85685" lon="2.30711">
        <ele>45</ele>
        <time>2022-02-02T13:30:28.521Z</time>
      </trkpt>
      <trkpt lat="48.85691" lon="2.30708">
        <ele>45</ele>
        <time>2022-02-02T13:30:33.516Z</time>
      </trkpt>
      <trkpt lat="48.85695" lon="2.30707">
        <ele>45</ele>
        <time>2022-02-02T13:30:38.527Z</time>
      </trkpt>
      <trkpt lat="48.857" lon="2.30706">
        <ele>45</ele>
        <time>2022-02-02T13:30:43.527Z</time>
      </trkpt>
      <trkpt lat="48.85706" lon="2.30703">
        <ele>45</ele>
        <time>2022-02-02T13:30:47.522Z</time>
      </trkpt>
      <trkpt lat="48.85712" lon="2.307">
        <ele>45</ele>
        <time>2022-02-02T13:30:52.520Z</time>
      </trkpt>
      <trkpt lat="48.85718" lon="2.30697">
        <ele>45</ele>
        <time>2022-02-02T13:30:57.513Z</time>
      </trkpt>
      <trkpt lat="48.85723" lon="2.30695">
        <ele>45</ele>
        <time>2022-02-02T13:31:02.523Z</time>
      </trkpt>
      <trkpt lat="48.85729" lon="2.30691">
        <ele>45</ele>
        <time>2022-02-02T13:31:07.521Z</time>
      </trkpt>
      <trkpt lat="48.85735" lon="2.30688">
        <ele>45</ele>
        <time>2022-02-02T13:31:12.520Z</time>
      </trkpt>
      <trkpt lat="48.8574" lon="2.30685">
        <ele>44</ele>
        <time>2022-02-02T13:31:16.524Z</time>
      </trkpt>
      <trkpt lat="48.85746" lon="2.30682">
        <ele>44</ele>
        <time>2022-02-02T13:31:20.533Z</time>
      </trkpt>
      <trkpt lat="48.85752" lon="2.30676">
        <ele>43</ele>
        <time>2022-02-02T13:31:25.522Z</time>
      </trkpt>
      <trkpt lat="48.85758" lon="2.30671">
        <ele>43</ele>
        <time>2022-02-02T13:31:29.538Z</time>
      </trkpt>
      <trkpt lat="48.85763" lon="2.30666">
        <ele>43</ele>
        <time>2022-02-02T13:31:34.518Z</time>
      </trkpt>
      <trkpt lat="48.85768" lon="2.30663">
        <ele>43</ele>
        <time>2022-02-02T13:31:38.523Z</time>
      </trkpt>
      <trkpt lat="48.85775" lon="2.30661">
        <ele>43</ele>
        <time>2022-02-02T13:31:43.518Z</time>
      </trkpt>
      <trkpt lat="48.85781" lon="2.30658">
        <ele>43</ele>
        <time>2022-02-02T13:31:47.519Z</time>
      </trkpt>
      <trkpt lat="48.85785" lon="2.30669">
        <ele>43</ele>
        <time>2022-02-02T13:31:52.512Z</time>
      </trkpt>
      <trkpt lat="48.85788" lon="2.30679">
        <ele>43</ele>
        <time>2022-02-02T13:31:56.520Z</time>
      </trkpt>
      <trkpt lat="48.85789" lon="2.30688">
        <ele>43</ele>
        <time>2022-02-02T13:32:00.523Z</time>
      </trkpt>
      <trkpt lat="48.8579" lon="2.30698">
        <ele>43</ele>
        <time>2022-02-02T13:32:05.526Z</time>
      </trkpt>
      <trkpt lat="48.85791" lon="2.30705">
        <ele>43</ele>
        <time>2022-02-02T13:32:10.515Z</time>
      </trkpt>
      <trkpt lat="48.85792" lon="2.30714">
        <ele>42</ele>
        <time>2022-02-02T13:32:15.511Z</time>
      </trkpt>
      <trkpt lat="48.85791" lon="2.30724">
        <ele>42</ele>
        <time>2022-02-02T13:32:20.519Z</time>
      </trkpt>
      <trkpt lat="48.85787" lon="2.30727">
        <ele>42</ele>
        <time>2022-02-02T13:32:25.520Z</time>
      </trkpt>
      <trkpt lat="48.8578" lon="2.30731">
        <ele>42</ele>
        <time>2022-02-02T13:32:29.530Z</time>
      </trkpt>
      <trkpt lat="48.85776" lon="2.30733">
        <ele>42</ele>
        <time>2022-02-02T13:32:34.513Z</time>
      </trkpt>
      <trkpt lat="48.8577" lon="2.30737">
        <ele>43</ele>
        <time>2022-02-02T13:32:39.516Z</time>
      </trkpt>
      <trkpt lat="48.85766" lon="2.30739">
        <ele>43</ele>
        <time>2022-02-02T13:32:43.524Z</time>
      </trkpt>
      <trkpt lat="48.85762" lon="2.30741">
        <ele>45</ele>
        <time>2022-02-02T13:32:48.516Z</time>
      </trkpt>
      <trkpt lat="48.85756" lon="2.30743">
        <ele>45</ele>
        <time>2022-02-02T13:32:52.523Z</time>
      </trkpt>
      <trkpt lat="48.85751" lon="2.30743">
        <ele>45</ele>
        <time>2022-02-02T13:32:56.528Z</time>
      </trkpt>
      <trkpt lat="48.85743" lon="2.30745">
        <ele>45</ele>
        <time>2022-02-02T13:33:01.518Z</time>
      </trkpt>
      <trkpt lat="48.8574" lon="2.30745">
        <ele>45</ele>
        <time>2022-02-02T13:33:05.520Z</time>
      </trkpt>
      <trkpt lat="48.85734" lon="2.30748">
        <ele>45</ele>
        <time>2022-02-02T13:33:09.517Z</time>
      </trkpt>
      <trkpt lat="48.85728" lon="2.30748">
        <ele>45</ele>
        <time>2022-02-02T13:33:14.522Z</time>
      </trkpt>
      <trkpt lat="48.85718" lon="2.30753">
        <ele>45</ele>
        <time>2022-02-02T13:33:19.522Z</time>
      </trkpt>
      <trkpt lat="48.85713" lon="2.30755">
        <ele>45</ele>
        <time>2022-02-02T13:33:24.514Z</time>
      </trkpt>
      <trkpt lat="48.85709" lon="2.30756">
        <ele>45</ele>
        <time>2022-02-02T13:33:28.514Z</time>
      </trkpt>
      <trkpt lat="48.85705" lon="2.30757">
        <ele>46</ele>
        <time>2022-02-02T13:33:32.521Z</time>
      </trkpt>
      <trkpt lat="48.85701" lon="2.30761">
        <ele>46</ele>
        <time>2022-02-02T13:33:37.523Z</time>
      </trkpt>
      <trkpt lat="48.85696" lon="2.30763">
        <ele>46</ele>
        <time>2022-02-02T13:33:42.519Z</time>
      </trkpt>
      <trkpt lat="48.85691" lon="2.30766">
        <ele>47</ele>
        <time>2022-02-02T13:33:46.513Z</time>
      </trkpt>
      <trkpt lat="48.85687" lon="2.30769">
        <ele>47</ele>
        <time>2022-02-02T13:33:50.525Z</time>
      </trkpt>
      <trkpt lat="48.85681" lon="2.30773">
        <ele>47</ele>
        <time>2022-02-02T13:33:55.519Z</time>
      </trkpt>
      <trkpt lat="48.85679" lon="2.30775">
        <ele>47</ele>
        <time>2022-02-02T13:33:59.527Z</time>
      </trkpt>
      <trkpt lat="48.85673" lon="2.30778">
        <ele>47</ele>
        <time>2022-02-02T13:34:04.517Z</time>
      </trkpt>
      <trkpt lat="48.85668" lon="2.30779">
        <ele>47</ele>
        <time>2022-02-02T13:34:08.523Z</time>
      </trkpt>
      <trkpt lat="48.85663" lon="2.3078">
        <ele>47</ele>
        <time>2022-02-02T13:34:13.523Z</time>
      </trkpt>
      <trkpt lat="48.85657" lon="2.30781">
        <ele>47</ele>
        <time>2022-02-02T13:34:17.516Z</time>
      </trkpt>
      <trkpt lat="48.85652" lon="2.30782">
        <ele>47</ele>
        <time>2022-02-02T13:34:22.522Z</time>
      </trkpt>
      <trkpt lat="48.85647" lon="2.30785">
        <ele>47</ele>
        <time>2022-02-02T13:34:27.518Z</time>
      </trkpt>
      <trkpt lat="48.85643" lon="2.30787">
        <ele>47</ele>
        <time>2022-02-02T13:34:32.519Z</time>
      </trkpt>
      <trkpt lat="48.85638" lon="2.30789">
        <ele>47</ele>
        <time>2022-02-02T13:34:37.517Z</time>
      </trkpt>
      <trkpt lat="48.85634" lon="2.30797">
        <ele>47</ele>
        <time>2022-02-02T13:34:42.532Z</time>
      </trkpt>
      <trkpt lat="48.85628" lon="2.30804">
        <ele>47</ele>
        <time>2022-02-02T13:34:47.509Z</time>
      </trkpt>
      <trkpt lat="48.85627" lon="2.30809">
        <ele>47</ele>
        <time>2022-02-02T13:34:52.507Z</time>
      </trkpt>
      <trkpt lat="48.85622" lon="2.30816">
        <ele>48</ele>
        <time>2022-02-02T13:34:56.514Z</time>
      </trkpt>
      <trkpt lat="48.85621" lon="2.30818">
        <ele>48</ele>
        <time>2022-02-02T13:35:00.514Z</time>
      </trkpt>
      <trkpt lat="48.85617" lon="2.30824">
        <ele>48</ele>
        <time>2022-02-02T13:35:05.517Z</time>
      </trkpt>
      <trkpt lat="48.85612" lon="2.30821">
        <ele>48</ele>
        <time>2022-02-02T13:35:10.516Z</time>
      </trkpt>
      <trkpt lat="48.85606" lon="2.30821">
        <ele>48</ele>
        <time>2022-02-02T13:35:15.519Z</time>
      </trkpt>
      <trkpt lat="48.85598" lon="2.3082">
        <ele>48</ele>
        <time>2022-02-02T13:35:19.516Z</time>
      </trkpt>
      <trkpt lat="48.85595" lon="2.30827">
        <ele>50</ele>
        <time>2022-02-02T13:35:24.522Z</time>
      </trkpt>
      <trkpt lat="48.8559" lon="2.30832">
        <ele>50</ele>
        <time>2022-02-02T13:35:29.519Z</time>
      </trkpt>
      <trkpt lat="48.85585" lon="2.30838">
        <ele>50</ele>
        <time>2022-02-02T13:35:33.519Z</time>
      </trkpt>
      <trkpt lat="48.85583" lon="2.30845">
        <ele>50</ele>
        <time>2022-02-02T13:35:38.515Z</time>
      </trkpt>
      <trkpt lat="48.8558" lon="2.30849">
        <ele>49</ele>
        <time>2022-02-02T13:35:42.517Z</time>
      </trkpt>
      <trkpt lat="48.85573" lon="2.30847">
        <ele>50</ele>
        <time>2022-02-02T13:35:47.526Z</time>
      </trkpt>
      <trkpt lat="48.85569" lon="2.30846">
        <ele>51</ele>
        <time>2022-02-02T13:35:52.517Z</time>
      </trkpt>
      <trkpt lat="48.85564" lon="2.30842">
        <ele>51</ele>
        <time>2022-02-02T13:35:56.519Z</time>
      </trkpt>
      <trkpt lat="48.85562" lon="2.3084">
        <ele>51</ele>
        <time>2022-02-02T13:36:01.516Z</time>
      </trkpt>
      <trkpt lat="48.85559" lon="2.30838">
        <ele>51</ele>
        <time>2022-02-02T13:36:06.522Z</time>
      </trkpt>
      <trkpt lat="48.85554" lon="2.30835">
        <ele>51</ele>
        <time>2022-02-02T13:36:11.525Z</time>
      </trkpt>
      <trkpt lat="48.85549" lon="2.3083">
        <ele>51</ele>
        <time>2022-02-02T13:36:16.515Z</time>
      </trkpt>
      <trkpt lat="48.85544" lon="2.30825">
        <ele>51</ele>
        <time>2022-02-02T13:36:21.520Z</time>
      </trkpt>
      <trkpt lat="48.85539" lon="2.30821">
        <ele>49</ele>
        <time>2022-02-02T13:36:26.519Z</time>
      </trkpt>
      <trkpt lat="48.85532" lon="2.30824">
        <ele>49</ele>
        <time>2022-02-02T13:36:30.524Z</time>
      </trkpt>
      <trkpt lat="48.85526" lon="2.30833">
        <ele>49</ele>
        <time>2022-02-02T13:36:35.531Z</time>
      </trkpt>
      <trkpt lat="48.85523" lon="2.30841">
        <ele>49</ele>
        <time>2022-02-02T13:36:40.522Z</time>
      </trkpt>
      <trkpt lat="48.8552" lon="2.30849">
        <ele>50</ele>
        <time>2022-02-02T13:36:44.522Z</time>
      </trkpt>
      <trkpt lat="48.85513" lon="2.30855">
        <ele>49</ele>
        <time>2022-02-02T13:36:49.519Z</time>
      </trkpt>
      <trkpt lat="48.8551" lon="2.30861">
        <ele>49</ele>
        <time>2022-02-02T13:36:53.514Z</time>
      </trkpt>
      <trkpt lat="48.85506" lon="2.30859">
        <ele>49</ele>
        <time>2022-02-02T13:36:58.520Z</time>
      </trkpt>
      <trkpt lat="48.85502" lon="2.30862">
        <ele>49</ele>
        <time>2022-02-02T13:37:02.521Z</time>
      </trkpt>
      <trkpt lat="48.85496" lon="2.3086">
        <ele>49</ele>
        <time>2022-02-02T13:37:07.522Z</time>
      </trkpt>
      <trkpt lat="48.85491" lon="2.30856">
        <ele>49</ele>
        <time>2022-02-02T13:37:12.520Z</time>
      </trkpt>
      <trkpt lat="48.85485" lon="2.30853">
        <ele>51</ele>
        <time>2022-02-02T13:37:17.529Z</time>
      </trkpt>
      <trkpt lat="48.85479" lon="2.3085">
        <ele>51</ele>
        <time>2022-02-02T13:37:22.510Z</time>
      </trkpt>
      <trkpt lat="48.85472" lon="2.30849">
        <ele>51</ele>
        <time>2022-02-02T13:37:26.554Z</time>
      </trkpt>
      <trkpt lat="48.85467" lon="2.30848">
        <ele>51</ele>
        <time>2022-02-02T13:37:31.518Z</time>
      </trkpt>
      <trkpt lat="48.8546" lon="2.3085">
        <ele>51</ele>
        <time>2022-02-02T13:37:36.515Z</time>
      </trkpt>
      <trkpt lat="48.85455" lon="2.30851">
        <ele>49</ele>
        <time>2022-02-02T13:37:41.504Z</time>
      </trkpt>
      <trkpt lat="48.85449" lon="2.30853">
        <ele>49</ele>
        <time>2022-02-02T13:37:45.516Z</time>
      </trkpt>
      <trkpt lat="48.85441" lon="2.30854">
        <ele>49</ele>
        <time>2022-02-02T13:37:50.517Z</time>
      </trkpt>
      <trkpt lat="48.85434" lon="2.30855">
        <ele>49</ele>
        <time>2022-02-02T13:37:55.517Z</time>
      </trkpt>
      <trkpt lat="48.85427" lon="2.30857">
        <ele>48</ele>
        <time>2022-02-02T13:37:59.521Z</time>
      </trkpt>
      <trkpt lat="48.85422" lon="2.30856">
        <ele>48</ele>
        <time>2022-02-02T13:38:04.514Z</time>
      </trkpt>
      <trkpt lat="48.85416" lon="2.30863">
        <ele>48</ele>
        <time>2022-02-02T13:38:08.521Z</time>
      </trkpt>
      <trkpt lat="48.85414" lon="2.30873">
        <ele>48</ele>
        <time>2022-02-02T13:38:12.523Z</time>
      </trkpt>
      <trkpt lat="48.85413" lon="2.30881">
        <ele>47</ele>
        <time>2022-02-02T13:38:17.516Z</time>
      </trkpt>
      <trkpt lat="48.85413" lon="2.3089">
        <ele>47</ele>
        <time>2022-02-02T13:38:21.536Z</time>
      </trkpt>
      <trkpt lat="48.85411" lon="2.30898">
        <ele>47</ele>
        <time>2022-02-02T13:38:26.535Z</time>
      </trkpt>
      <trkpt lat="48.8541" lon="2.30904">
        <ele>45</ele>
        <time>2022-02-02T13:38:31.527Z</time>
      </trkpt>
      <trkpt lat="48.85408" lon="2.30912">
        <ele>45</ele>
        <time>2022-02-02T13:38:35.531Z</time>
      </trkpt>
      <trkpt lat="48.85407" lon="2.30921">
        <ele>45</ele>
        <time>2022-02-02T13:38:40.521Z</time>
      </trkpt>
      <trkpt lat="48.85405" lon="2.3093">
        <ele>45</ele>
        <time>2022-02-02T13:38:45.528Z</time>
      </trkpt>
      <trkpt lat="48.85406" lon="2.30939">
        <ele>43</ele>
        <time>2022-02-02T13:38:50.519Z</time>
      </trkpt>
      <trkpt lat="48.85408" lon="2.30947">
        <ele>43</ele>
        <time>2022-02-02T13:38:54.531Z</time>
      </trkpt>
      <trkpt lat="48.85411" lon="2.30957">
        <ele>43</ele>
        <time>2022-02-02T13:38:59.519Z</time>
      </trkpt>
      <trkpt lat="48.8541" lon="2.30969">
        <ele>42</ele>
        <time>2022-02-02T13:39:04.518Z</time>
      </trkpt>
      <trkpt lat="48.8541" lon="2.30977">
        <ele>42</ele>
        <time>2022-02-02T13:39:09.525Z</time>
      </trkpt>
      <trkpt lat="48.85409" lon="2.30986">
        <ele>42</ele>
        <time>2022-02-02T13:39:14.526Z</time>
      </trkpt>
      <trkpt lat="48.85406" lon="2.30995">
        <ele>45</ele>
        <time>2022-02-02T13:39:19.529Z</time>
      </trkpt>
      <trkpt lat="48.85406" lon="2.31006">
        <ele>45</ele>
        <time>2022-02-02T13:39:23.529Z</time>
      </trkpt>
      <trkpt lat="48.85406" lon="2.31015">
        <ele>48</ele>
        <time>2022-02-02T13:39:28.532Z</time>
      </trkpt>
      <trkpt lat="48.85406" lon="2.31024">
        <ele>48</ele>
        <time>2022-02-02T13:39:33.528Z</time>
      </trkpt>
      <trkpt lat="48.85405" lon="2.31034">
        <ele>48</ele>
        <time>2022-02-02T13:39:37.530Z</time>
      </trkpt>
      <trkpt lat="48.85404" lon="2.31044">
        <ele>43</ele>
        <time>2022-02-02T13:39:42.519Z</time>
      </trkpt>
      <trkpt lat="48.85404" lon="2.31053">
        <ele>43</ele>
        <time>2022-02-02T13:39:47.527Z</time>
      </trkpt>
      <trkpt lat="48.85404" lon="2.31064">
        <ele>43</ele>
        <time>2022-02-02T13:39:52.519Z</time>
      </trkpt>
      <trkpt lat="48.85403" lon="2.31073">
        <ele>37</ele>
        <time>2022-02-02T13:39:57.508Z</time>
      </trkpt>
      <trkpt lat="48.85402" lon="2.31083">
        <ele>37</ele>
        <time>2022-02-02T13:40:16.507Z</time>
      </trkpt>
      <trkpt lat="48.85401" lon="2.3109">
        <ele>37</ele>
        <time>2022-02-02T13:40:20.513Z</time>
      </trkpt>
      <trkpt lat="48.85401" lon="2.31098">
        <ele>37</ele>
        <time>2022-02-02T13:40:25.518Z</time>
      </trkpt>
      <trkpt lat="48.85401" lon="2.31109">
        <ele>37</ele>
        <time>2022-02-02T13:40:30.520Z</time>
      </trkpt>
      <trkpt lat="48.85401" lon="2.31117">
        <ele>37</ele>
        <time>2022-02-02T13:40:35.521Z</time>
      </trkpt>
      <trkpt lat="48.854" lon="2.31125">
        <ele>38</ele>
        <time>2022-02-02T13:40:40.512Z</time>
      </trkpt>
      <trkpt lat="48.854" lon="2.31133">
        <ele>38</ele>
        <time>2022-02-02T13:40:44.522Z</time>
      </trkpt>
      <trkpt lat="48.854" lon="2.3114">
        <ele>38</ele>
        <time>2022-02-02T13:40:49.509Z</time>
      </trkpt>
      <trkpt lat="48.85399" lon="2.3115">
        <ele>38</ele>
        <time>2022-02-02T13:40:54.512Z</time>
      </trkpt>
      <trkpt lat="48.85399" lon="2.31158">
        <ele>39</ele>
        <time>2022-02-02T13:40:59.519Z</time>
      </trkpt>
      <trkpt lat="48.85398" lon="2.31168">
        <ele>39</ele>
        <time>2022-02-02T13:41:04.518Z</time>
      </trkpt>
      <trkpt lat="48.85398" lon="2.31176">
        <ele>39</ele>
        <time>2022-02-02T13:41:08.524Z</time>
      </trkpt>
      <trkpt lat="48.85397" lon="2.31185">
        <ele>41</ele>
        <time>2022-02-02T13:41:13.516Z</time>
      </trkpt>
      <trkpt lat="48.85397" lon="2.31194">
        <ele>41</ele>
        <time>2022-02-02T13:41:17.518Z</time>
      </trkpt>
      <trkpt lat="48.85396" lon="2.31202">
        <ele>41</ele>
        <time>2022-02-02T13:41:21.524Z</time>
      </trkpt>
      <trkpt lat="48.85398" lon="2.31212">
        <ele>41</ele>
        <time>2022-02-02T13:41:26.522Z</time>
      </trkpt>
      <trkpt lat="48.85402" lon="2.31214">
        <ele>41</ele>
        <time>2022-02-02T13:41:30.521Z</time>
      </trkpt>
      <trkpt lat="48.85401" lon="2.31222">
        <ele>41</ele>
        <time>2022-02-02T13:41:35.520Z</time>
      </trkpt>
      <trkpt lat="48.85398" lon="2.31232">
        <ele>41</ele>
        <time>2022-02-02T13:41:40.511Z</time>
      </trkpt>
      <trkpt lat="48.85396" lon="2.31243">
        <ele>42</ele>
        <time>2022-02-02T13:41:45.515Z</time>
      </trkpt>
      <trkpt lat="48.85394" lon="2.31253">
        <ele>42</ele>
        <time>2022-02-02T13:41:49.515Z</time>
      </trkpt>
      <trkpt lat="48.85393" lon="2.3126">
        <ele>42</ele>
        <time>2022-02-02T13:41:53.514Z</time>
      </trkpt>
      <trkpt lat="48.85394" lon="2.31266">
        <ele>44</ele>
        <time>2022-02-02T13:41:57.538Z</time>
      </trkpt>
      <trkpt lat="48.85394" lon="2.31269">
        <ele>44</ele>
        <time>2022-02-02T13:42:02.510Z</time>
      </trkpt>
      <trkpt lat="48.85392" lon="2.3128">
        <ele>44</ele>
        <time>2022-02-02T13:42:06.520Z</time>
      </trkpt>
      <trkpt lat="48.8539" lon="2.31291">
        <ele>44</ele>
        <time>2022-02-02T13:42:11.514Z</time>
      </trkpt>
      <trkpt lat="48.85389" lon="2.31302">
        <ele>42</ele>
        <time>2022-02-02T13:42:15.514Z</time>
      </trkpt>
      <trkpt lat="48.85389" lon="2.31312">
        <ele>42</ele>
        <time>2022-02-02T13:42:19.512Z</time>
      </trkpt>
      <trkpt lat="48.85388" lon="2.31321">
        <ele>41</ele>
        <time>2022-02-02T13:42:24.509Z</time>
      </trkpt>
      <trkpt lat="48.85388" lon="2.31332">
        <ele>41</ele>
        <time>2022-02-02T13:42:29.519Z</time>
      </trkpt>
      <trkpt lat="48.85388" lon="2.3134">
        <ele>41</ele>
        <time>2022-02-02T13:42:34.523Z</time>
      </trkpt>
      <trkpt lat="48.85388" lon="2.31351">
        <ele>40</ele>
        <time>2022-02-02T13:42:38.521Z</time>
      </trkpt>
      <trkpt lat="48.85388" lon="2.31359">
        <ele>40</ele>
        <time>2022-02-02T13:42:43.529Z</time>
      </trkpt>
      <trkpt lat="48.85388" lon="2.31369">
        <ele>40</ele>
        <time>2022-02-02T13:42:48.519Z</time>
      </trkpt>
      <trkpt lat="48.85388" lon="2.31379">
        <ele>38</ele>
        <time>2022-02-02T13:42:52.516Z</time>
      </trkpt>
      <trkpt lat="48.85387" lon="2.31388">
        <ele>38</ele>
        <time>2022-02-02T13:42:57.529Z</time>
      </trkpt>
      <trkpt lat="48.85387" lon="2.31398">
        <ele>38</ele>
        <time>2022-02-02T13:43:02.516Z</time>
      </trkpt>
      <trkpt lat="48.85386" lon="2.31409">
        <ele>37</ele>
        <time>2022-02-02T13:43:06.514Z</time>
      </trkpt>
      <trkpt lat="48.85384" lon="2.31418">
        <ele>37</ele>
        <time>2022-02-02T13:43:11.522Z</time>
      </trkpt>
      <trkpt lat="48.85382" lon="2.31428">
        <ele>37</ele>
        <time>2022-02-02T13:43:16.520Z</time>
      </trkpt>
      <trkpt lat="48.8538" lon="2.31438">
        <ele>37</ele>
        <time>2022-02-02T13:43:21.526Z</time>
      </trkpt>
      <trkpt lat="48.85379" lon="2.31446">
        <ele>37</ele>
        <time>2022-02-02T13:43:26.526Z</time>
      </trkpt>
      <trkpt lat="48.85377" lon="2.31454">
        <ele>37</ele>
        <time>2022-02-02T13:43:31.535Z</time>
      </trkpt>
      <trkpt lat="48.85372" lon="2.31457">
        <ele>40</ele>
        <time>2022-02-02T13:43:36.525Z</time>
      </trkpt>
      <trkpt lat="48.85366" lon="2.31456">
        <ele>40</ele>
        <time>2022-02-02T13:43:41.520Z</time>
      </trkpt>
      <trkpt lat="48.85361" lon="2.31456">
        <ele>40</ele>
        <time>2022-02-02T13:43:45.532Z</time>
      </trkpt>
      <trkpt lat="48.85355" lon="2.31455">
        <ele>40</ele>
        <time>2022-02-02T13:43:49.523Z</time>
      </trkpt>
      <trkpt lat="48.85349" lon="2.31455">
        <ele>40</ele>
        <time>2022-02-02T13:43:54.524Z</time>
      </trkpt>
      <trkpt lat="48.85346" lon="2.31462">
        <ele>43</ele>
        <time>2022-02-02T13:43:59.515Z</time>
      </trkpt>
      <trkpt lat="48.85341" lon="2.31462">
        <ele>43</ele>
        <time>2022-02-02T13:44:04.515Z</time>
      </trkpt>
      <trkpt lat="48.85341" lon="2.31462">
        <ele>43</ele>
        <time>2022-02-02T13:44:08.519Z</time>
      </trkpt>
      <trkpt lat="48.85341" lon="2.31463">
        <ele>43</ele>
        <time>2022-02-02T13:44:13.520Z</time>
      </trkpt>
      <trkpt lat="48.85342" lon="2.31466">
        <ele>43</ele>
        <time>2022-02-02T13:44:18.527Z</time>
      </trkpt>
      <trkpt lat="48.85343" lon="2.31481">
        <ele>43</ele>
        <time>2022-02-02T13:44:23.519Z</time>
      </trkpt>
      <trkpt lat="48.85342" lon="2.31489">
        <ele>42</ele>
        <time>2022-02-02T13:44:28.515Z</time>
      </trkpt>
      <trkpt lat="48.85338" lon="2.31494">
        <ele>42</ele>
        <time>2022-02-02T13:44:33.532Z</time>
      </trkpt>
      <trkpt lat="48.85333" lon="2.31495">
        <ele>42</ele>
        <time>2022-02-02T13:44:38.513Z</time>
      </trkpt>
      <trkpt lat="48.85328" lon="2.31494">
        <ele>42</ele>
        <time>2022-02-02T13:44:42.514Z</time>
      </trkpt>
      <trkpt lat="48.85323" lon="2.31492">
        <ele>42</ele>
        <time>2022-02-02T13:44:46.525Z</time>
      </trkpt>
      <trkpt lat="48.85318" lon="2.31491">
        <ele>43</ele>
        <time>2022-02-02T13:44:51.511Z</time>
      </trkpt>
      <trkpt lat="48.85312" lon="2.3149">
        <ele>43</ele>
        <time>2022-02-02T13:44:55.526Z</time>
      </trkpt>
      <trkpt lat="48.85306" lon="2.31489">
        <ele>43</ele>
        <time>2022-02-02T13:45:00.521Z</time>
      </trkpt>
      <trkpt lat="48.853" lon="2.31489">
        <ele>43</ele>
        <time>2022-02-02T13:45:04.521Z</time>
      </trkpt>
      <trkpt lat="48.85294" lon="2.31488">
        <ele>43</ele>
        <time>2022-02-02T13:45:08.520Z</time>
      </trkpt>
      <trkpt lat="48.85289" lon="2.31487">
        <ele>43</ele>
        <time>2022-02-02T13:45:13.515Z</time>
      </trkpt>
      <trkpt lat="48.85284" lon="2.31486">
        <ele>43</ele>
        <time>2022-02-02T13:45:18.521Z</time>
      </trkpt>
      <trkpt lat="48.85277" lon="2.31485">
        <ele>43</ele>
        <time>2022-02-02T13:45:23.515Z</time>
      </trkpt>
      <trkpt lat="48.85272" lon="2.31485">
        <ele>43</ele>
        <time>2022-02-02T13:45:27.515Z</time>
      </trkpt>
      <trkpt lat="48.85266" lon="2.31485">
        <ele>43</ele>
        <time>2022-02-02T13:45:32.527Z</time>
      </trkpt>
      <trkpt lat="48.85259" lon="2.31484">
        <ele>43</ele>
        <time>2022-02-02T13:45:37.515Z</time>
      </trkpt>
      <trkpt lat="48.85251" lon="2.31484">
        <ele>43</ele>
        <time>2022-02-02T13:45:41.518Z</time>
      </trkpt>
      <trkpt lat="48.85244" lon="2.31483">
        <ele>43</ele>
        <time>2022-02-02T13:45:46.528Z</time>
      </trkpt>
      <trkpt lat="48.8524" lon="2.31483">
        <ele>43</ele>
        <time>2022-02-02T13:45:51.518Z</time>
      </trkpt>
      <trkpt lat="48.85234" lon="2.31481">
        <ele>44</ele>
        <time>2022-02-02T13:45:55.516Z</time>
      </trkpt>
      <trkpt lat="48.85228" lon="2.31482">
        <ele>44</ele>
        <time>2022-02-02T13:46:00.523Z</time>
      </trkpt>
      <trkpt lat="48.8522" lon="2.31479">
        <ele>44</ele>
        <time>2022-02-02T13:46:05.521Z</time>
      </trkpt>
      <trkpt lat="48.85214" lon="2.31477">
        <ele>44</ele>
        <time>2022-02-02T13:46:10.514Z</time>
      </trkpt>
      <trkpt lat="48.85206" lon="2.31476">
        <ele>46</ele>
        <time>2022-02-02T13:46:14.512Z</time>
      </trkpt>
      <trkpt lat="48.85202" lon="2.31476">
        <ele>46</ele>
        <time>2022-02-02T13:46:18.513Z</time>
      </trkpt>
      <trkpt lat="48.85197" lon="2.31475">
        <ele>46</ele>
        <time>2022-02-02T13:46:22.517Z</time>
      </trkpt>
      <trkpt lat="48.8519" lon="2.31477">
        <ele>46</ele>
        <time>2022-02-02T13:46:27.512Z</time>
      </trkpt>
      <trkpt lat="48.85191" lon="2.31487">
        <ele>45</ele>
        <time>2022-02-02T13:46:32.510Z</time>
      </trkpt>
      <trkpt lat="48.85189" lon="2.31495">
        <ele>45</ele>
        <time>2022-02-02T13:46:37.517Z</time>
      </trkpt>
      <trkpt lat="48.85188" lon="2.31504">
        <ele>45</ele>
        <time>2022-02-02T13:46:42.514Z</time>
      </trkpt>
      <trkpt lat="48.85187" lon="2.31513">
        <ele>45</ele>
        <time>2022-02-02T13:46:46.521Z</time>
      </trkpt>
      <trkpt lat="48.85186" lon="2.31521">
        <ele>44</ele>
        <time>2022-02-02T13:46:51.523Z</time>
      </trkpt>
      <trkpt lat="48.85186" lon="2.31531">
        <ele>44</ele>
        <time>2022-02-02T13:46:55.522Z</time>
      </trkpt>
      <trkpt lat="48.85186" lon="2.3154">
        <ele>44</ele>
        <time>2022-02-02T13:47:00.519Z</time>
      </trkpt>
      <trkpt lat="48.85186" lon="2.3155">
        <ele>43</ele>
        <time>2022-02-02T13:47:04.519Z</time>
      </trkpt>
      <trkpt lat="48.85185" lon="2.31561">
        <ele>43</ele>
        <time>2022-02-02T13:47:09.520Z</time>
      </trkpt>
      <trkpt lat="48.85182" lon="2.31571">
        <ele>43</ele>
        <time>2022-02-02T13:47:14.516Z</time>
      </trkpt>
      <trkpt lat="48.8518" lon="2.3158">
        <ele>43</ele>
        <time>2022-02-02T13:47:19.518Z</time>
      </trkpt>
      <trkpt lat="48.85179" lon="2.3159">
        <ele>43</ele>
        <time>2022-02-02T13:47:24.517Z</time>
      </trkpt>
      <trkpt lat="48.85177" lon="2.31599">
        <ele>42</ele>
        <time>2022-02-02T13:47:29.519Z</time>
      </trkpt>
      <trkpt lat="48.85173" lon="2.31599">
        <ele>42</ele>
        <time>2022-02-02T13:47:33.522Z</time>
      </trkpt>
      <trkpt lat="48.85173" lon="2.31599">
        <ele>42</ele>
        <time>2022-02-02T13:47:38.521Z</time>
      </trkpt>
      <trkpt lat="48.8517" lon="2.31603">
        <ele>42</ele>
        <time>2022-02-02T13:47:43.521Z</time>
      </trkpt>
      <trkpt lat="48.85167" lon="2.31609">
        <ele>42</ele>
        <time>2022-02-02T13:47:47.528Z</time>
      </trkpt>
      <trkpt lat="48.85164" lon="2.31612">
        <ele>42</ele>
        <time>2022-02-02T13:47:51.546Z</time>
      </trkpt>
      <trkpt lat="48.85159" lon="2.31614">
        <ele>42</ele>
        <time>2022-02-02T13:47:56.523Z</time>
      </trkpt>
      <trkpt lat="48.85154" lon="2.31616">
        <ele>42</ele>
        <time>2022-02-02T13:48:01.526Z</time>
      </trkpt>
      <trkpt lat="48.85149" lon="2.31619">
        <ele>44</ele>
        <time>2022-02-02T13:48:05.525Z</time>
      </trkpt>
      <trkpt lat="48.85144" lon="2.31622">
        <ele>44</ele>
        <time>2022-02-02T13:48:10.527Z</time>
      </trkpt>
      <trkpt lat="48.85138" lon="2.31624">
        <ele>44</ele>
        <time>2022-02-02T13:48:15.532Z</time>
      </trkpt>
      <trkpt lat="48.85134" lon="2.31627">
        <ele>44</ele>
        <time>2022-02-02T13:48:20.518Z</time>
      </trkpt>
      <trkpt lat="48.85128" lon="2.31629">
        <ele>44</ele>
        <time>2022-02-02T13:48:37.518Z</time>
      </trkpt>
      <trkpt lat="48.85122" lon="2.3163">
        <ele>43</ele>
        <time>2022-02-02T13:48:42.521Z</time>
      </trkpt>
      <trkpt lat="48.85116" lon="2.31631">
        <ele>43</ele>
        <time>2022-02-02T13:48:46.524Z</time>
      </trkpt>
      <trkpt lat="48.85109" lon="2.31633">
        <ele>43</ele>
        <time>2022-02-02T13:48:51.634Z</time>
      </trkpt>
      <trkpt lat="48.85104" lon="2.31634">
        <ele>43</ele>
        <time>2022-02-02T13:48:56.522Z</time>
      </trkpt>
      <trkpt lat="48.851" lon="2.31636">
        <ele>43</ele>
        <time>2022-02-02T13:49:00.517Z</time>
      </trkpt>
      <trkpt lat="48.85095" lon="2.31641">
        <ele>41</ele>
        <time>2022-02-02T13:49:04.521Z</time>
      </trkpt>
      <trkpt lat="48.85093" lon="2.31642">
        <ele>41</ele>
        <time>2022-02-02T13:49:09.519Z</time>
      </trkpt>
      <trkpt lat="48.85089" lon="2.31641">
        <ele>41</ele>
        <time>2022-02-02T13:49:14.518Z</time>
      </trkpt>
      <trkpt lat="48.85084" lon="2.3164">
        <ele>41</ele>
        <time>2022-02-02T13:49:18.526Z</time>
      </trkpt>
      <trkpt lat="48.85078" lon="2.31639">
        <ele>41</ele>
        <time>2022-02-02T13:49:23.530Z</time>
      </trkpt>
      <trkpt lat="48.85074" lon="2.3164">
        <ele>41</ele>
        <time>2022-02-02T13:49:28.518Z</time>
      </trkpt>
      <trkpt lat="48.85069" lon="2.31639">
        <ele>40</ele>
        <time>2022-02-02T13:49:33.517Z</time>
      </trkpt>
      <trkpt lat="48.85062" lon="2.31639">
        <ele>40</ele>
        <time>2022-02-02T13:49:38.515Z</time>
      </trkpt>
      <trkpt lat="48.85055" lon="2.31641">
        <ele>40</ele>
        <time>2022-02-02T13:49:43.523Z</time>
      </trkpt>
      <trkpt lat="48.85048" lon="2.31644">
        <ele>40</ele>
        <time>2022-02-02T13:49:47.530Z</time>
      </trkpt>
      <trkpt lat="48.85043" lon="2.31646">
        <ele>40</ele>
        <time>2022-02-02T13:49:52.528Z</time>
      </trkpt>
      <trkpt lat="48.85034" lon="2.31647">
        <ele>41</ele>
        <time>2022-02-02T13:49:57.526Z</time>
      </trkpt>
      <trkpt lat="48.85027" lon="2.3165">
        <ele>41</ele>
        <time>2022-02-02T13:50:01.529Z</time>
      </trkpt>
      <trkpt lat="48.85021" lon="2.31651">
        <ele>41</ele>
        <time>2022-02-02T13:50:06.515Z</time>
      </trkpt>
      <trkpt lat="48.85014" lon="2.31653">
        <ele>42</ele>
        <time>2022-02-02T13:50:11.518Z</time>
      </trkpt>
      <trkpt lat="48.85004" lon="2.31653">
        <ele>42</ele>
        <time>2022-02-02T13:50:16.521Z</time>
      </trkpt>
      <trkpt lat="48.84998" lon="2.31653">
        <ele>42</ele>
        <time>2022-02-02T13:50:21.509Z</time>
      </trkpt>
      <trkpt lat="48.84992" lon="2.31659">
        <ele>42</ele>
        <time>2022-02-02T13:50:25.521Z</time>
      </trkpt>
      <trkpt lat="48.8499" lon="2.31668">
        <ele>42</ele>
        <time>2022-02-02T13:50:30.525Z</time>
      </trkpt>
      <trkpt lat="48.84995" lon="2.31677">
        <ele>42</ele>
        <time>2022-02-02T13:50:35.519Z</time>
      </trkpt>
      <trkpt lat="48.85002" lon="2.31684">
        <ele>43</ele>
        <time>2022-02-02T13:50:40.531Z</time>
      </trkpt>
      <trkpt lat="48.85005" lon="2.31689">
        <ele>43</ele>
        <time>2022-02-02T13:50:45.535Z</time>
      </trkpt>
      <trkpt lat="48.85009" lon="2.31696">
        <ele>43</ele>
        <time>2022-02-02T13:50:50.520Z</time>
      </trkpt>
      <trkpt lat="48.85012" lon="2.31702">
        <ele>43</ele>
        <time>2022-02-02T13:50:54.522Z</time>
      </trkpt>
      <trkpt lat="48.85014" lon="2.31709">
        <ele>45</ele>
        <time>2022-02-02T13:50:58.522Z</time>
      </trkpt>
      <trkpt lat="48.85016" lon="2.31716">
        <ele>45</ele>
        <time>2022-02-02T13:51:03.525Z</time>
      </trkpt>
      <trkpt lat="48.85018" lon="2.31723">
        <ele>45</ele>
        <time>2022-02-02T13:51:08.513Z</time>
      </trkpt>
      <trkpt lat="48.8502" lon="2.31729">
        <ele>45</ele>
        <time>2022-02-02T13:51:13.525Z</time>
      </trkpt>
      <trkpt lat="48.85022" lon="2.31735">
        <ele>45</ele>
        <time>2022-02-02T13:51:18.527Z</time>
      </trkpt>
      <trkpt lat="48.85023" lon="2.31744">
        <ele>45</ele>
        <time>2022-02-02T13:51:23.538Z</time>
      </trkpt>
      <trkpt lat="48.85022" lon="2.3175">
        <ele>45</ele>
        <time>2022-02-02T13:51:27.524Z</time>
      </trkpt>
      <trkpt lat="48.8502" lon="2.31751">
        <ele>45</ele>
        <time>2022-02-02T13:51:32.533Z</time>
      </trkpt>
      <trkpt lat="48.8501" lon="2.31795">
        <ele>45</ele>
        <time>2022-02-02T13:51:37.527Z</time>
      </trkpt>
      <trkpt lat="48.85013" lon="2.31801">
        <ele>45</ele>
        <time>2022-02-02T13:51:42.518Z</time>
      </trkpt>
      <trkpt lat="48.85018" lon="2.31807">
        <ele>46</ele>
        <time>2022-02-02T13:51:47.524Z</time>
      </trkpt>
      <trkpt lat="48.85021" lon="2.31814">
        <ele>46</ele>
        <time>2022-02-02T13:51:52.519Z</time>
      </trkpt>
      <trkpt lat="48.85024" lon="2.31819">
        <ele>46</ele>
        <time>2022-02-02T13:51:56.526Z</time>
      </trkpt>
      <trkpt lat="48.85026" lon="2.31826">
        <ele>46</ele>
        <time>2022-02-02T13:52:01.535Z</time>
      </trkpt>
      <trkpt lat="48.8503" lon="2.31832">
        <ele>46</ele>
        <time>2022-02-02T13:52:06.521Z</time>
      </trkpt>
      <trkpt lat="48.85033" lon="2.31837">
        <ele>46</ele>
        <time>2022-02-02T13:52:10.520Z</time>
      </trkpt>
      <trkpt lat="48.85036" lon="2.31843">
        <ele>46</ele>
        <time>2022-02-02T13:52:15.535Z</time>
      </trkpt>
      <trkpt lat="48.8504" lon="2.31848">
        <ele>45</ele>
        <time>2022-02-02T13:52:20.517Z</time>
      </trkpt>
      <trkpt lat="48.85042" lon="2.31854">
        <ele>46</ele>
        <time>2022-02-02T13:52:25.522Z</time>
      </trkpt>
      <trkpt lat="48.85044" lon="2.31863">
        <ele>46</ele>
        <time>2022-02-02T13:52:29.528Z</time>
      </trkpt>
      <trkpt lat="48.85046" lon="2.31872">
        <ele>46</ele>
        <time>2022-02-02T13:52:34.522Z</time>
      </trkpt>
      <trkpt lat="48.85048" lon="2.31879">
        <ele>46</ele>
        <time>2022-02-02T13:52:39.522Z</time>
      </trkpt>
      <trkpt lat="48.8505" lon="2.31887">
        <ele>46</ele>
        <time>2022-02-02T13:52:44.515Z</time>
      </trkpt>
      <trkpt lat="48.85054" lon="2.31895">
        <ele>46</ele>
        <time>2022-02-02T13:52:49.522Z</time>
      </trkpt>
      <trkpt lat="48.85056" lon="2.31904">
        <ele>45</ele>
        <time>2022-02-02T13:52:54.522Z</time>
      </trkpt>
      <trkpt lat="48.85057" lon="2.31912">
        <ele>45</ele>
        <time>2022-02-02T13:52:58.530Z</time>
      </trkpt>
      <trkpt lat="48.85058" lon="2.31919">
        <ele>45</ele>
        <time>2022-02-02T13:53:03.534Z</time>
      </trkpt>
      <trkpt lat="48.85061" lon="2.31927">
        <ele>45</ele>
        <time>2022-02-02T13:53:08.529Z</time>
      </trkpt>
      <trkpt lat="48.85062" lon="2.31934">
        <ele>43</ele>
        <time>2022-02-02T13:53:13.523Z</time>
      </trkpt>
      <trkpt lat="48.85067" lon="2.3194">
        <ele>43</ele>
        <time>2022-02-02T13:53:18.526Z</time>
      </trkpt>
      <trkpt lat="48.85072" lon="2.31939">
        <ele>45</ele>
        <time>2022-02-02T13:53:23.529Z</time>
      </trkpt>
      <trkpt lat="48.85074" lon="2.31941">
        <ele>45</ele>
        <time>2022-02-02T13:53:28.522Z</time>
      </trkpt>
      <trkpt lat="48.85079" lon="2.31939">
        <ele>45</ele>
        <time>2022-02-02T13:53:33.521Z</time>
      </trkpt>
      <trkpt lat="48.85083" lon="2.31938">
        <ele>45</ele>
        <time>2022-02-02T13:53:37.526Z</time>
      </trkpt>
      <trkpt lat="48.85089" lon="2.31939">
        <ele>45</ele>
        <time>2022-02-02T13:53:41.523Z</time>
      </trkpt>
      <trkpt lat="48.85095" lon="2.31938">
        <ele>45</ele>
        <time>2022-02-02T13:53:46.528Z</time>
      </trkpt>
      <trkpt lat="48.851" lon="2.31939">
        <ele>44</ele>
        <time>2022-02-02T13:53:51.524Z</time>
      </trkpt>
      <trkpt lat="48.85106" lon="2.3194">
        <ele>44</ele>
        <time>2022-02-02T13:53:56.525Z</time>
      </trkpt>
      <trkpt lat="48.85113" lon="2.31939">
        <ele>44</ele>
        <time>2022-02-02T13:54:01.522Z</time>
      </trkpt>
      <trkpt lat="48.85118" lon="2.31937">
        <ele>44</ele>
        <time>2022-02-02T13:54:06.525Z</time>
      </trkpt>
      <trkpt lat="48.85121" lon="2.31933">
        <ele>44</ele>
        <time>2022-02-02T13:54:11.530Z</time>
      </trkpt>
      <trkpt lat="48.85125" lon="2.31927">
        <ele>43</ele>
        <time>2022-02-02T13:54:16.525Z</time>
      </trkpt>
      <trkpt lat="48.85128" lon="2.31924">
        <ele>43</ele>
        <time>2022-02-02T13:54:20.531Z</time>
      </trkpt>
      <trkpt lat="48.85133" lon="2.3192">
        <ele>43</ele>
        <time>2022-02-02T13:54:25.535Z</time>
      </trkpt>
      <trkpt lat="48.85134" lon="2.31922">
        <ele>43</ele>
        <time>2022-02-02T13:54:30.519Z</time>
      </trkpt>
      <trkpt lat="48.85136" lon="2.31919">
        <ele>43</ele>
        <time>2022-02-02T13:54:34.528Z</time>
      </trkpt>
      <trkpt lat="48.85142" lon="2.31919">
        <ele>43</ele>
        <time>2022-02-02T13:54:39.519Z</time>
      </trkpt>
      <trkpt lat="48.8515" lon="2.31919">
        <ele>43</ele>
        <time>2022-02-02T13:54:44.530Z</time>
      </trkpt>
      <trkpt lat="48.85156" lon="2.31909">
        <ele>44</ele>
        <time>2022-02-02T13:54:49.527Z</time>
      </trkpt>
      <trkpt lat="48.85159" lon="2.31906">
        <ele>44</ele>
        <time>2022-02-02T13:54:54.538Z</time>
      </trkpt>
      <trkpt lat="48.85164" lon="2.31906">
        <ele>44</ele>
        <time>2022-02-02T13:54:59.523Z</time>
      </trkpt>
      <trkpt lat="48.8517" lon="2.31909">
        <ele>44</ele>
        <time>2022-02-02T13:55:03.528Z</time>
      </trkpt>
      <trkpt lat="48.85179" lon="2.31911">
        <ele>44</ele>
        <time>2022-02-02T13:55:08.509Z</time>
      </trkpt>
      <trkpt lat="48.85184" lon="2.31912">
        <ele>45</ele>
        <time>2022-02-02T13:55:12.528Z</time>
      </trkpt>
      <trkpt lat="48.85188" lon="2.31914">
        <ele>45</ele>
        <time>2022-02-02T13:55:17.527Z</time>
      </trkpt>
      <trkpt lat="48.85194" lon="2.31916">
        <ele>45</ele>
        <time>2022-02-02T13:55:21.522Z</time>
      </trkpt>
      <trkpt lat="48.85202" lon="2.31919">
        <ele>45</ele>
        <time>2022-02-02T13:55:26.523Z</time>
      </trkpt>
      <trkpt lat="48.85207" lon="2.3192">
        <ele>45</ele>
        <time>2022-02-02T13:55:31.524Z</time>
      </trkpt>
      <trkpt lat="48.85212" lon="2.31921">
        <ele>43</ele>
        <time>2022-02-02T13:55:35.536Z</time>
      </trkpt>
      <trkpt lat="48.85218" lon="2.31919">
        <ele>43</ele>
        <time>2022-02-02T13:55:40.520Z</time>
      </trkpt>
      <trkpt lat="48.85226" lon="2.31922">
        <ele>43</ele>
        <time>2022-02-02T13:55:44.511Z</time>
      </trkpt>
      <trkpt lat="48.85232" lon="2.3192">
        <ele>43</ele>
        <time>2022-02-02T13:55:49.518Z</time>
      </trkpt>
      <trkpt lat="48.85239" lon="2.31915">
        <ele>45</ele>
        <time>2022-02-02T13:55:53.523Z</time>
      </trkpt>
      <trkpt lat="48.85246" lon="2.31911">
        <ele>45</ele>
        <time>2022-02-02T13:55:54.522Z</time>
      </trkpt>
      <trkpt lat="48.85251" lon="2.31912">
        <ele>45</ele>
        <time>2022-02-02T13:59:58.516Z</time>
      </trkpt>
      <trkpt lat="48.85257" lon="2.31913">
        <ele>45</ele>
        <time>2022-02-02T14:00:03.520Z</time>
      </trkpt>
      <trkpt lat="48.85262" lon="2.31913">
        <ele>45</ele>
        <time>2022-02-02T14:00:08.522Z</time>
      </trkpt>
      <trkpt lat="48.85266" lon="2.31913">
        <ele>47</ele>
        <time>2022-02-02T14:00:13.517Z</time>
      </trkpt>
      <trkpt lat="48.85273" lon="2.31908">
        <ele>47</ele>
        <time>2022-02-02T14:00:17.517Z</time>
      </trkpt>
      <trkpt lat="48.85279" lon="2.31908">
        <ele>47</ele>
        <time>2022-02-02T14:00:22.535Z</time>
      </trkpt>
      <trkpt lat="48.85284" lon="2.31908">
        <ele>47</ele>
        <time>2022-02-02T14:00:27.523Z</time>
      </trkpt>
      <trkpt lat="48.85289" lon="2.31909">
        <ele>47</ele>
        <time>2022-02-02T14:00:31.527Z</time>
      </trkpt>
      <trkpt lat="48.85293" lon="2.31911">
        <ele>48</ele>
        <time>2022-02-02T14:00:36.511Z</time>
      </trkpt>
      <trkpt lat="48.85299" lon="2.31913">
        <ele>48</ele>
        <time>2022-02-02T14:00:41.511Z</time>
      </trkpt>
      <trkpt lat="48.85305" lon="2.31917">
        <ele>48</ele>
        <time>2022-02-02T14:00:45.520Z</time>
      </trkpt>
      <trkpt lat="48.85311" lon="2.31922">
        <ele>48</ele>
        <time>2022-02-02T14:00:50.515Z</time>
      </trkpt>
      <trkpt lat="48.85316" lon="2.31923">
        <ele>48</ele>
        <time>2022-02-02T14:00:55.520Z</time>
      </trkpt>
      <trkpt lat="48.85322" lon="2.3193">
        <ele>47</ele>
        <time>2022-02-02T14:00:59.523Z</time>
      </trkpt>
      <trkpt lat="48.85327" lon="2.31934">
        <ele>46</ele>
        <time>2022-02-02T14:01:03.533Z</time>
      </trkpt>
      <trkpt lat="48.85331" lon="2.31936">
        <ele>46</ele>
        <time>2022-02-02T14:01:08.522Z</time>
      </trkpt>
      <trkpt lat="48.85334" lon="2.31936">
        <ele>46</ele>
        <time>2022-02-02T14:01:13.521Z</time>
      </trkpt>
      <trkpt lat="48.85336" lon="2.3194">
        <ele>46</ele>
        <time>2022-02-02T14:01:18.520Z</time>
      </trkpt>
      <trkpt lat="48.85338" lon="2.31943">
        <ele>46</ele>
        <time>2022-02-02T14:01:22.525Z</time>
      </trkpt>
      <trkpt lat="48.85341" lon="2.31948">
        <ele>46</ele>
        <time>2022-02-02T14:01:27.513Z</time>
      </trkpt>
      <trkpt lat="48.85346" lon="2.31949">
        <ele>46</ele>
        <time>2022-02-02T14:01:31.524Z</time>
      </trkpt>
      <trkpt lat="48.8535" lon="2.3195">
        <ele>46</ele>
        <time>2022-02-02T14:02:03.533Z</time>
      </trkpt>
      <trkpt lat="48.85355" lon="2.3195">
        <ele>46</ele>
        <time>2022-02-02T14:02:08.525Z</time>
      </trkpt>
      <trkpt lat="48.85362" lon="2.31952">
        <ele>46</ele>
        <time>2022-02-02T14:02:12.534Z</time>
      </trkpt>
      <trkpt lat="48.85368" lon="2.31952">
        <ele>46</ele>
        <time>2022-02-02T14:02:17.520Z</time>
      </trkpt>
      <trkpt lat="48.85374" lon="2.31952">
        <ele>46</ele>
        <time>2022-02-02T14:02:21.533Z</time>
      </trkpt>
      <trkpt lat="48.85379" lon="2.31953">
        <ele>46</ele>
        <time>2022-02-02T14:02:26.522Z</time>
      </trkpt>
      <trkpt lat="48.85385" lon="2.31958">
        <ele>46</ele>
        <time>2022-02-02T14:02:31.515Z</time>
      </trkpt>
      <trkpt lat="48.85387" lon="2.31958">
        <ele>46</ele>
        <time>2022-02-02T14:02:35.520Z</time>
      </trkpt>
      <trkpt lat="48.85391" lon="2.31959">
        <ele>45</ele>
        <time>2022-02-02T14:02:39.518Z</time>
      </trkpt>
      <trkpt lat="48.85396" lon="2.31962">
        <ele>45</ele>
        <time>2022-02-02T14:02:44.517Z</time>
      </trkpt>
      <trkpt lat="48.85404" lon="2.31961">
        <ele>44</ele>
        <time>2022-02-02T14:02:49.519Z</time>
      </trkpt>
      <trkpt lat="48.8541" lon="2.31959">
        <ele>44</ele>
        <time>2022-02-02T14:02:53.522Z</time>
      </trkpt>
      <trkpt lat="48.85414" lon="2.31957">
        <ele>45</ele>
        <time>2022-02-02T14:02:58.514Z</time>
      </trkpt>
      <trkpt lat="48.85418" lon="2.31962">
        <ele>44</ele>
        <time>2022-02-02T14:03:02.510Z</time>
      </trkpt>
      <trkpt lat="48.85424" lon="2.31961">
        <ele>44</ele>
        <time>2022-02-02T14:03:06.526Z</time>
      </trkpt>
      <trkpt lat="48.85429" lon="2.31965">
        <ele>44</ele>
        <time>2022-02-02T14:03:11.518Z</time>
      </trkpt>
      <trkpt lat="48.8543" lon="2.31964">
        <ele>44</ele>
        <time>2022-02-02T14:03:15.521Z</time>
      </trkpt>
      <trkpt lat="48.8543" lon="2.31958">
        <ele>45</ele>
        <time>2022-02-02T14:03:19.533Z</time>
      </trkpt>
      <trkpt lat="48.85433" lon="2.31959">
        <ele>43</ele>
        <time>2022-02-02T14:03:24.523Z</time>
      </trkpt>
      <trkpt lat="48.85438" lon="2.31964">
        <ele>43</ele>
        <time>2022-02-02T14:03:29.521Z</time>
      </trkpt>
      <trkpt lat="48.85442" lon="2.31968">
        <ele>43</ele>
        <time>2022-02-02T14:03:33.521Z</time>
      </trkpt>
      <trkpt lat="48.85441" lon="2.31973">
        <ele>43</ele>
        <time>2022-02-02T14:03:38.527Z</time>
      </trkpt>
      <trkpt lat="48.85443" lon="2.31977">
        <ele>43</ele>
        <time>2022-02-02T14:03:43.510Z</time>
      </trkpt>
      <trkpt lat="48.85446" lon="2.31982">
        <ele>43</ele>
        <time>2022-02-02T14:03:47.516Z</time>
      </trkpt>
      <trkpt lat="48.85451" lon="2.31988">
        <ele>43</ele>
        <time>2022-02-02T14:03:52.518Z</time>
      </trkpt>
      <trkpt lat="48.85456" lon="2.31989">
        <ele>43</ele>
        <time>2022-02-02T14:03:56.520Z</time>
      </trkpt>
      <trkpt lat="48.85461" lon="2.31993">
        <ele>44</ele>
        <time>2022-02-02T14:04:01.516Z</time>
      </trkpt>
      <trkpt lat="48.85466" lon="2.31995">
        <ele>44</ele>
        <time>2022-02-02T14:04:06.518Z</time>
      </trkpt>
      <trkpt lat="48.85474" lon="2.31997">
        <ele>44</ele>
        <time>2022-02-02T14:04:10.516Z</time>
      </trkpt>
      <trkpt lat="48.8548" lon="2.32">
        <ele>44</ele>
        <time>2022-02-02T14:04:15.509Z</time>
      </trkpt>
      <trkpt lat="48.85487" lon="2.32">
        <ele>44</ele>
        <time>2022-02-02T14:04:20.521Z</time>
      </trkpt>
      <trkpt lat="48.85493" lon="2.31998">
        <ele>44</ele>
        <time>2022-02-02T14:04:25.512Z</time>
      </trkpt>
      <trkpt lat="48.85496" lon="2.31996">
        <ele>44</ele>
        <time>2022-02-02T14:04:30.517Z</time>
      </trkpt>
      <trkpt lat="48.85496" lon="2.31995">
        <ele>44</ele>
        <time>2022-02-02T14:04:34.526Z</time>
      </trkpt>
      <trkpt lat="48.855" lon="2.31997">
        <ele>44</ele>
        <time>2022-02-02T14:04:38.536Z</time>
      </trkpt>
      <trkpt lat="48.85505" lon="2.32001">
        <ele>44</ele>
        <time>2022-02-02T14:04:43.523Z</time>
      </trkpt>
      <trkpt lat="48.8551" lon="2.32004">
        <ele>44</ele>
        <time>2022-02-02T14:04:48.525Z</time>
      </trkpt>
      <trkpt lat="48.85513" lon="2.32007">
        <ele>44</ele>
        <time>2022-02-02T14:04:52.533Z</time>
      </trkpt>
      <trkpt lat="48.85517" lon="2.32012">
        <ele>44</ele>
        <time>2022-02-02T14:04:56.525Z</time>
      </trkpt>
      <trkpt lat="48.85521" lon="2.32017">
        <ele>45</ele>
        <time>2022-02-02T14:05:01.526Z</time>
      </trkpt>
      <trkpt lat="48.85524" lon="2.32021">
        <ele>45</ele>
        <time>2022-02-02T14:05:06.512Z</time>
      </trkpt>
      <trkpt lat="48.85527" lon="2.32024">
        <ele>45</ele>
        <time>2022-02-02T14:05:11.522Z</time>
      </trkpt>
      <trkpt lat="48.85531" lon="2.3203">
        <ele>45</ele>
        <time>2022-02-02T14:05:16.524Z</time>
      </trkpt>
      <trkpt lat="48.85534" lon="2.32034">
        <ele>45</ele>
        <time>2022-02-02T14:05:21.521Z</time>
      </trkpt>
      <trkpt lat="48.85538" lon="2.3204">
        <ele>45</ele>
        <time>2022-02-02T14:05:26.530Z</time>
      </trkpt>
      <trkpt lat="48.85544" lon="2.32045">
        <ele>48</ele>
        <time>2022-02-02T14:05:31.518Z</time>
      </trkpt>
      <trkpt lat="48.85547" lon="2.32051">
        <ele>48</ele>
        <time>2022-02-02T14:05:36.514Z</time>
      </trkpt>
      <trkpt lat="48.85552" lon="2.32056">
        <ele>48</ele>
        <time>2022-02-02T14:05:40.514Z</time>
      </trkpt>
      <trkpt lat="48.85556" lon="2.3206">
        <ele>48</ele>
        <time>2022-02-02T14:05:45.512Z</time>
      </trkpt>
      <trkpt lat="48.85562" lon="2.32064">
        <ele>48</ele>
        <time>2022-02-02T14:05:49.516Z</time>
      </trkpt>
      <trkpt lat="48.85567" lon="2.32068">
        <ele>48</ele>
        <time>2022-02-02T14:05:53.518Z</time>
      </trkpt>
      <trkpt lat="48.85573" lon="2.32073">
        <ele>49</ele>
        <time>2022-02-02T14:05:57.517Z</time>
      </trkpt>
      <trkpt lat="48.85577" lon="2.32077">
        <ele>49</ele>
        <time>2022-02-02T14:06:02.522Z</time>
      </trkpt>
      <trkpt lat="48.85582" lon="2.32082">
        <ele>49</ele>
        <time>2022-02-02T14:06:07.525Z</time>
      </trkpt>
      <trkpt lat="48.85586" lon="2.32086">
        <ele>49</ele>
        <time>2022-02-02T14:06:12.524Z</time>
      </trkpt>
      <trkpt lat="48.8559" lon="2.32092">
        <ele>49</ele>
        <time>2022-02-02T14:06:17.521Z</time>
      </trkpt>
      <trkpt lat="48.85595" lon="2.32098">
        <ele>48</ele>
        <time>2022-02-02T14:06:22.514Z</time>
      </trkpt>
      <trkpt lat="48.85599" lon="2.321">
        <ele>49</ele>
        <time>2022-02-02T14:06:26.513Z</time>
      </trkpt>
      <trkpt lat="48.85606" lon="2.32102">
        <ele>49</ele>
        <time>2022-02-02T14:06:30.521Z</time>
      </trkpt>
      <trkpt lat="48.8561" lon="2.32104">
        <ele>49</ele>
        <time>2022-02-02T14:06:34.530Z</time>
      </trkpt>
      <trkpt lat="48.85614" lon="2.32106">
        <ele>49</ele>
        <time>2022-02-02T14:06:39.513Z</time>
      </trkpt>
      <trkpt lat="48.85619" lon="2.32109">
        <ele>49</ele>
        <time>2022-02-02T14:06:43.512Z</time>
      </trkpt>
      <trkpt lat="48.85621" lon="2.32118">
        <ele>49</ele>
        <time>2022-02-02T14:06:48.519Z</time>
      </trkpt>
      <trkpt lat="48.85626" lon="2.32119">
        <ele>49</ele>
        <time>2022-02-02T14:06:52.514Z</time>
      </trkpt>
      <trkpt lat="48.85627" lon="2.32119">
        <ele>49</ele>
        <time>2022-02-02T14:06:57.512Z</time>
      </trkpt>
      <trkpt lat="48.85626" lon="2.32124">
        <ele>49</ele>
        <time>2022-02-02T14:07:01.522Z</time>
      </trkpt>
      <trkpt lat="48.85624" lon="2.3213">
        <ele>47</ele>
        <time>2022-02-02T14:07:06.518Z</time>
      </trkpt>
      <trkpt lat="48.85621" lon="2.32135">
        <ele>47</ele>
        <time>2022-02-02T14:07:11.510Z</time>
      </trkpt>
      <trkpt lat="48.85622" lon="2.32147">
        <ele>47</ele>
        <time>2022-02-02T14:07:15.510Z</time>
      </trkpt>
      <trkpt lat="48.85625" lon="2.32156">
        <ele>45</ele>
        <time>2022-02-02T14:07:20.507Z</time>
      </trkpt>
      <trkpt lat="48.85624" lon="2.3216">
        <ele>45</ele>
        <time>2022-02-02T14:07:24.501Z</time>
      </trkpt>
      <trkpt lat="48.85623" lon="2.3217">
        <ele>45</ele>
        <time>2022-02-02T14:07:28.521Z</time>
      </trkpt>
      <trkpt lat="48.85623" lon="2.32179">
        <ele>45</ele>
        <time>2022-02-02T14:07:33.524Z</time>
      </trkpt>
      <trkpt lat="48.85626" lon="2.32192">
        <ele>45</ele>
        <time>2022-02-02T14:07:38.516Z</time>
      </trkpt>
      <trkpt lat="48.85622" lon="2.32199">
        <ele>44</ele>
        <time>2022-02-02T14:07:43.509Z</time>
      </trkpt>
      <trkpt lat="48.85618" lon="2.32201">
        <ele>44</ele>
        <time>2022-02-02T14:07:48.510Z</time>
      </trkpt>
      <trkpt lat="48.85615" lon="2.32207">
        <ele>44</ele>
        <time>2022-02-02T14:08:06.533Z</time>
      </trkpt>
      <trkpt lat="48.85611" lon="2.32214">
        <ele>43</ele>
        <time>2022-02-02T14:08:10.515Z</time>
      </trkpt>
      <trkpt lat="48.85609" lon="2.32225">
        <ele>43</ele>
        <time>2022-02-02T14:08:15.519Z</time>
      </trkpt>
      <trkpt lat="48.85608" lon="2.32235">
        <ele>43</ele>
        <time>2022-02-02T14:08:20.516Z</time>
      </trkpt>
      <trkpt lat="48.85605" lon="2.32241">
        <ele>41</ele>
        <time>2022-02-02T14:08:25.508Z</time>
      </trkpt>
      <trkpt lat="48.85603" lon="2.32251">
        <ele>41</ele>
        <time>2022-02-02T14:08:29.523Z</time>
      </trkpt>
      <trkpt lat="48.856" lon="2.32257">
        <ele>41</ele>
        <time>2022-02-02T14:08:34.511Z</time>
      </trkpt>
      <trkpt lat="48.85598" lon="2.32264">
        <ele>40</ele>
        <time>2022-02-02T14:08:38.511Z</time>
      </trkpt>
      <trkpt lat="48.85597" lon="2.3227">
        <ele>40</ele>
        <time>2022-02-02T14:08:43.521Z</time>
      </trkpt>
      <trkpt lat="48.85597" lon="2.32277">
        <ele>40</ele>
        <time>2022-02-02T14:08:48.526Z</time>
      </trkpt>
      <trkpt lat="48.85592" lon="2.32283">
        <ele>40</ele>
        <time>2022-02-02T14:08:53.530Z</time>
      </trkpt>
      <trkpt lat="48.8559" lon="2.32286">
        <ele>40</ele>
        <time>2022-02-02T14:08:58.531Z</time>
      </trkpt>
      <trkpt lat="48.8559" lon="2.32291">
        <ele>40</ele>
        <time>2022-02-02T14:09:03.523Z</time>
      </trkpt>
      <trkpt lat="48.85588" lon="2.32297">
        <ele>41</ele>
        <time>2022-02-02T14:09:07.522Z</time>
      </trkpt>
      <trkpt lat="48.85586" lon="2.32305">
        <ele>41</ele>
        <time>2022-02-02T14:09:12.519Z</time>
      </trkpt>
      <trkpt lat="48.85583" lon="2.3231">
        <ele>41</ele>
        <time>2022-02-02T14:09:17.519Z</time>
      </trkpt>
      <trkpt lat="48.85579" lon="2.32312">
        <ele>41</ele>
        <time>2022-02-02T14:09:22.518Z</time>
      </trkpt>
      <trkpt lat="48.8558" lon="2.32314">
        <ele>41</ele>
        <time>2022-02-02T14:09:26.534Z</time>
      </trkpt>
      <trkpt lat="48.85579" lon="2.32317">
        <ele>41</ele>
        <time>2022-02-02T14:09:31.536Z</time>
      </trkpt>
      <trkpt lat="48.85575" lon="2.32326">
        <ele>42</ele>
        <time>2022-02-02T14:09:36.518Z</time>
      </trkpt>
      <trkpt lat="48.85574" lon="2.32334">
        <ele>42</ele>
        <time>2022-02-02T14:09:40.527Z</time>
      </trkpt>
      <trkpt lat="48.8557" lon="2.32342">
        <ele>42</ele>
        <time>2022-02-02T14:09:44.529Z</time>
      </trkpt>
      <trkpt lat="48.85567" lon="2.32349">
        <ele>46</ele>
        <time>2022-02-02T14:09:49.528Z</time>
      </trkpt>
      <trkpt lat="48.85567" lon="2.32357">
        <ele>46</ele>
        <time>2022-02-02T14:09:53.528Z</time>
      </trkpt>
      <trkpt lat="48.85562" lon="2.32364">
        <ele>46</ele>
        <time>2022-02-02T14:09:58.523Z</time>
      </trkpt>
      <trkpt lat="48.85556" lon="2.32367">
        <ele>46</ele>
        <time>2022-02-02T14:10:03.517Z</time>
      </trkpt>
      <trkpt lat="48.85551" lon="2.32371">
        <ele>46</ele>
        <time>2022-02-02T14:10:07.521Z</time>
      </trkpt>
      <trkpt lat="48.85551" lon="2.3238">
        <ele>48</ele>
        <time>2022-02-02T14:10:12.512Z</time>
      </trkpt>
      <trkpt lat="48.85548" lon="2.32384">
        <ele>48</ele>
        <time>2022-02-02T14:10:16.526Z</time>
      </trkpt>
      <trkpt lat="48.85543" lon="2.32387">
        <ele>48</ele>
        <time>2022-02-02T14:10:21.524Z</time>
      </trkpt>
      <trkpt lat="48.85541" lon="2.32393">
        <ele>48</ele>
        <time>2022-02-02T14:10:26.521Z</time>
      </trkpt>
      <trkpt lat="48.85543" lon="2.32395">
        <ele>48</ele>
        <time>2022-02-02T14:10:31.514Z</time>
      </trkpt>
      <trkpt lat="48.8554" lon="2.32399">
        <ele>48</ele>
        <time>2022-02-02T14:10:35.514Z</time>
      </trkpt>
      <trkpt lat="48.85536" lon="2.32403">
        <ele>49</ele>
        <time>2022-02-02T14:10:40.516Z</time>
      </trkpt>
      <trkpt lat="48.85532" lon="2.32409">
        <ele>49</ele>
        <time>2022-02-02T14:10:44.525Z</time>
      </trkpt>
      <trkpt lat="48.85526" lon="2.32412">
        <ele>49</ele>
        <time>2022-02-02T14:10:49.531Z</time>
      </trkpt>
      <trkpt lat="48.85527" lon="2.32415">
        <ele>49</ele>
        <time>2022-02-02T14:10:54.522Z</time>
      </trkpt>
      <trkpt lat="48.85528" lon="2.32417">
        <ele>49</ele>
        <time>2022-02-02T14:10:58.523Z</time>
      </trkpt>
      <trkpt lat="48.85526" lon="2.3242">
        <ele>49</ele>
        <time>2022-02-02T14:11:03.536Z</time>
      </trkpt>
      <trkpt lat="48.85523" lon="2.32426">
        <ele>49</ele>
        <time>2022-02-02T14:11:08.521Z</time>
      </trkpt>
      <trkpt lat="48.8552" lon="2.32431">
        <ele>49</ele>
        <time>2022-02-02T14:11:13.527Z</time>
      </trkpt>
      <trkpt lat="48.85516" lon="2.32433">
        <ele>49</ele>
        <time>2022-02-02T14:11:18.523Z</time>
      </trkpt>
      <trkpt lat="48.85513" lon="2.32439">
        <ele>48</ele>
        <time>2022-02-02T14:11:23.526Z</time>
      </trkpt>
      <trkpt lat="48.85513" lon="2.32444">
        <ele>48</ele>
        <time>2022-02-02T14:11:28.515Z</time>
      </trkpt>
      <trkpt lat="48.8551" lon="2.3245">
        <ele>48</ele>
        <time>2022-02-02T14:11:32.522Z</time>
      </trkpt>
      <trkpt lat="48.85504" lon="2.32451">
        <ele>48</ele>
        <time>2022-02-02T14:11:36.519Z</time>
      </trkpt>
      <trkpt lat="48.85498" lon="2.32447">
        <ele>48</ele>
        <time>2022-02-02T14:11:41.531Z</time>
      </trkpt>
      <trkpt lat="48.85492" lon="2.32443">
        <ele>48</ele>
        <time>2022-02-02T14:11:45.513Z</time>
      </trkpt>
      <trkpt lat="48.85484" lon="2.32438">
        <ele>46</ele>
        <time>2022-02-02T14:11:50.522Z</time>
      </trkpt>
      <trkpt lat="48.85478" lon="2.32437">
        <ele>46</ele>
        <time>2022-02-02T14:11:55.516Z</time>
      </trkpt>
      <trkpt lat="48.85472" lon="2.32435">
        <ele>46</ele>
        <time>2022-02-02T14:12:00.517Z</time>
      </trkpt>
      <trkpt lat="48.85466" lon="2.32434">
        <ele>46</ele>
        <time>2022-02-02T14:12:05.518Z</time>
      </trkpt>
      <trkpt lat="48.85456" lon="2.32433">
        <ele>45</ele>
        <time>2022-02-02T14:12:10.516Z</time>
      </trkpt>
      <trkpt lat="48.85455" lon="2.3243">
        <ele>45</ele>
        <time>2022-02-02T14:12:23.522Z</time>
      </trkpt>
      <trkpt lat="48.8545" lon="2.32426">
        <ele>45</ele>
        <time>2022-02-02T14:12:28.518Z</time>
      </trkpt>
      <trkpt lat="48.85446" lon="2.32425">
        <ele>45</ele>
        <time>2022-02-02T14:12:32.521Z</time>
      </trkpt>
      <trkpt lat="48.85444" lon="2.32421">
        <ele>45</ele>
        <time>2022-02-02T14:12:36.530Z</time>
      </trkpt>
      <trkpt lat="48.85438" lon="2.32418">
        <ele>45</ele>
        <time>2022-02-02T14:12:41.519Z</time>
      </trkpt>
      <trkpt lat="48.85433" lon="2.32414">
        <ele>45</ele>
        <time>2022-02-02T14:12:46.522Z</time>
      </trkpt>
      <trkpt lat="48.85427" lon="2.32412">
        <ele>44</ele>
        <time>2022-02-02T14:12:51.520Z</time>
      </trkpt>
      <trkpt lat="48.85423" lon="2.32409">
        <ele>44</ele>
        <time>2022-02-02T14:12:55.517Z</time>
      </trkpt>
      <trkpt lat="48.85426" lon="2.32418">
        <ele>44</ele>
        <time>2022-02-02T14:13:00.509Z</time>
      </trkpt>
      <trkpt lat="48.85422" lon="2.32416">
        <ele>44</ele>
        <time>2022-02-02T14:13:04.519Z</time>
      </trkpt>
      <trkpt lat="48.85419" lon="2.32413">
        <ele>44</ele>
        <time>2022-02-02T14:13:09.519Z</time>
      </trkpt>
      <trkpt lat="48.85415" lon="2.32411">
        <ele>44</ele>
        <time>2022-02-02T14:13:13.521Z</time>
      </trkpt>
      <trkpt lat="48.8541" lon="2.32407">
        <ele>44</ele>
        <time>2022-02-02T14:13:17.534Z</time>
      </trkpt>
      <trkpt lat="48.85404" lon="2.324">
        <ele>46</ele>
        <time>2022-02-02T14:13:22.527Z</time>
      </trkpt>
      <trkpt lat="48.854" lon="2.32394">
        <ele>48</ele>
        <time>2022-02-02T14:13:26.533Z</time>
      </trkpt>
      <trkpt lat="48.85397" lon="2.32394">
        <ele>48</ele>
        <time>2022-02-02T14:13:31.523Z</time>
      </trkpt>
      <trkpt lat="48.85396" lon="2.32397">
        <ele>48</ele>
        <time>2022-02-02T14:13:36.529Z</time>
      </trkpt>
      <trkpt lat="48.85399" lon="2.324">
        <ele>48</ele>
        <time>2022-02-02T14:13:41.512Z</time>
      </trkpt>
      <trkpt lat="48.85398" lon="2.32405">
        <ele>45</ele>
        <time>2022-02-02T14:13:45.523Z</time>
      </trkpt>
      <trkpt lat="48.85396" lon="2.32409">
        <ele>45</ele>
        <time>2022-02-02T14:13:50.518Z</time>
      </trkpt>
      <trkpt lat="48.85395" lon="2.32415">
        <ele>45</ele>
        <time>2022-02-02T14:13:54.517Z</time>
      </trkpt>
      <trkpt lat="48.85394" lon="2.32424">
        <ele>45</ele>
        <time>2022-02-02T14:13:59.518Z</time>
      </trkpt>
      <trkpt lat="48.85394" lon="2.32429">
        <ele>45</ele>
        <time>2022-02-02T14:14:04.515Z</time>
      </trkpt>
      <trkpt lat="48.85394" lon="2.32429">
        <ele>45</ele>
        <time>2022-02-02T14:14:08.527Z</time>
      </trkpt>
      <trkpt lat="48.85393" lon="2.32432">
        <ele>45</ele>
        <time>2022-02-02T14:14:13.515Z</time>
      </trkpt>
      <trkpt lat="48.85391" lon="2.32437">
        <ele>45</ele>
        <time>2022-02-02T14:14:17.512Z</time>
      </trkpt>
      <trkpt lat="48.85391" lon="2.32438">
        <ele>45</ele>
        <time>2022-02-02T14:14:22.518Z</time>
      </trkpt>
      <trkpt lat="48.85386" lon="2.32442">
        <ele>45</ele>
        <time>2022-02-02T14:14:27.519Z</time>
      </trkpt>
      <trkpt lat="48.85383" lon="2.32448">
        <ele>45</ele>
        <time>2022-02-02T14:14:32.524Z</time>
      </trkpt>
      <trkpt lat="48.85382" lon="2.32456">
        <ele>45</ele>
        <time>2022-02-02T14:14:37.521Z</time>
      </trkpt>
      <trkpt lat="48.85381" lon="2.32463">
        <ele>45</ele>
        <time>2022-02-02T14:14:42.515Z</time>
      </trkpt>
      <trkpt lat="48.85381" lon="2.32469">
        <ele>45</ele>
        <time>2022-02-02T14:14:46.528Z</time>
      </trkpt>
      <trkpt lat="48.85378" lon="2.32476">
        <ele>45</ele>
        <time>2022-02-02T14:14:51.520Z</time>
      </trkpt>
      <trkpt lat="48.85377" lon="2.32485">
        <ele>45</ele>
        <time>2022-02-02T14:14:55.524Z</time>
      </trkpt>
      <trkpt lat="48.85376" lon="2.32492">
        <ele>47</ele>
        <time>2022-02-02T14:15:00.530Z</time>
      </trkpt>
      <trkpt lat="48.85374" lon="2.325">
        <ele>46</ele>
        <time>2022-02-02T14:15:04.527Z</time>
      </trkpt>
      <trkpt lat="48.85371" lon="2.32506">
        <ele>46</ele>
        <time>2022-02-02T14:15:08.532Z</time>
      </trkpt>
      <trkpt lat="48.85369" lon="2.32513">
        <ele>46</ele>
        <time>2022-02-02T14:15:13.531Z</time>
      </trkpt>
      <trkpt lat="48.85365" lon="2.32516">
        <ele>46</ele>
        <time>2022-02-02T14:15:37.524Z</time>
      </trkpt>
      <trkpt lat="48.85362" lon="2.32522">
        <ele>46</ele>
        <time>2022-02-02T14:15:42.514Z</time>
      </trkpt>
      <trkpt lat="48.8536" lon="2.32531">
        <ele>46</ele>
        <time>2022-02-02T14:15:47.517Z</time>
      </trkpt>
      <trkpt lat="48.85357" lon="2.32536">
        <ele>46</ele>
        <time>2022-02-02T14:15:52.516Z</time>
      </trkpt>
      <trkpt lat="48.85356" lon="2.32541">
        <ele>46</ele>
        <time>2022-02-02T14:15:56.512Z</time>
      </trkpt>
      <trkpt lat="48.85355" lon="2.32548">
        <ele>46</ele>
        <time>2022-02-02T14:16:01.512Z</time>
      </trkpt>
      <trkpt lat="48.85355" lon="2.32556">
        <ele>46</ele>
        <time>2022-02-02T14:16:06.513Z</time>
      </trkpt>
      <trkpt lat="48.85354" lon="2.32564">
        <ele>46</ele>
        <time>2022-02-02T14:16:11.517Z</time>
      </trkpt>
      <trkpt lat="48.85351" lon="2.32569">
        <ele>46</ele>
        <time>2022-02-02T14:16:15.529Z</time>
      </trkpt>
      <trkpt lat="48.85348" lon="2.32574">
        <ele>46</ele>
        <time>2022-02-02T14:16:20.526Z</time>
      </trkpt>
      <trkpt lat="48.85344" lon="2.3258">
        <ele>47</ele>
        <time>2022-02-02T14:16:25.629Z</time>
      </trkpt>
      <trkpt lat="48.85341" lon="2.32585">
        <ele>47</ele>
        <time>2022-02-02T14:16:30.524Z</time>
      </trkpt>
      <trkpt lat="48.85336" lon="2.32588">
        <ele>47</ele>
        <time>2022-02-02T14:16:35.517Z</time>
      </trkpt>
      <trkpt lat="48.85335" lon="2.32593">
        <ele>47</ele>
        <time>2022-02-02T14:16:40.520Z</time>
      </trkpt>
      <trkpt lat="48.85334" lon="2.32601">
        <ele>47</ele>
        <time>2022-02-02T14:16:44.523Z</time>
      </trkpt>
      <trkpt lat="48.85335" lon="2.3261">
        <ele>47</ele>
        <time>2022-02-02T14:16:49.518Z</time>
      </trkpt>
      <trkpt lat="48.85332" lon="2.32618">
        <ele>47</ele>
        <time>2022-02-02T14:16:54.520Z</time>
      </trkpt>
      <trkpt lat="48.85329" lon="2.32627">
        <ele>47</ele>
        <time>2022-02-02T14:17:08.513Z</time>
      </trkpt>
      <trkpt lat="48.85325" lon="2.3263">
        <ele>47</ele>
        <time>2022-02-02T14:17:12.524Z</time>
      </trkpt>
      <trkpt lat="48.85321" lon="2.32632">
        <ele>47</ele>
        <time>2022-02-02T14:17:17.510Z</time>
      </trkpt>
      <trkpt lat="48.85316" lon="2.32633">
        <ele>47</ele>
        <time>2022-02-02T14:17:21.512Z</time>
      </trkpt>
      <trkpt lat="48.85311" lon="2.32634">
        <ele>47</ele>
        <time>2022-02-02T14:17:25.511Z</time>
      </trkpt>
      <trkpt lat="48.85306" lon="2.32637">
        <ele>47</ele>
        <time>2022-02-02T14:17:30.517Z</time>
      </trkpt>
      <trkpt lat="48.85301" lon="2.32634">
        <ele>47</ele>
        <time>2022-02-02T14:17:35.517Z</time>
      </trkpt>
      <trkpt lat="48.853" lon="2.32633">
        <ele>47</ele>
        <time>2022-02-02T14:17:39.522Z</time>
      </trkpt>
      <trkpt lat="48.853" lon="2.32636">
        <ele>47</ele>
        <time>2022-02-02T14:17:44.523Z</time>
      </trkpt>
      <trkpt lat="48.85295" lon="2.32638">
        <ele>47</ele>
        <time>2022-02-02T14:17:49.518Z</time>
      </trkpt>
      <trkpt lat="48.85289" lon="2.3264">
        <ele>48</ele>
        <time>2022-02-02T14:17:54.529Z</time>
      </trkpt>
      <trkpt lat="48.85285" lon="2.32644">
        <ele>48</ele>
        <time>2022-02-02T14:17:59.511Z</time>
      </trkpt>
      <trkpt lat="48.85281" lon="2.32645">
        <ele>48</ele>
        <time>2022-02-02T14:18:03.523Z</time>
      </trkpt>
      <trkpt lat="48.8528" lon="2.32646">
        <ele>48</ele>
        <time>2022-02-02T14:18:08.524Z</time>
      </trkpt>
      <trkpt lat="48.85279" lon="2.3265">
        <ele>48</ele>
        <time>2022-02-02T14:18:12.530Z</time>
      </trkpt>
      <trkpt lat="48.85272" lon="2.3265">
        <ele>48</ele>
        <time>2022-02-02T14:18:17.519Z</time>
      </trkpt>
      <trkpt lat="48.85266" lon="2.32653">
        <ele>49</ele>
        <time>2022-02-02T14:18:21.519Z</time>
      </trkpt>
      <trkpt lat="48.85261" lon="2.32654">
        <ele>48</ele>
        <time>2022-02-02T14:18:25.520Z</time>
      </trkpt>
      <trkpt lat="48.85254" lon="2.32656">
        <ele>48</ele>
        <time>2022-02-02T14:18:30.519Z</time>
      </trkpt>
      <trkpt lat="48.85248" lon="2.32656">
        <ele>48</ele>
        <time>2022-02-02T14:18:35.524Z</time>
      </trkpt>
      <trkpt lat="48.85245" lon="2.32661">
        <ele>48</ele>
        <time>2022-02-02T14:18:40.517Z</time>
      </trkpt>
      <trkpt lat="48.85241" lon="2.32672">
        <ele>48</ele>
        <time>2022-02-02T14:18:45.515Z</time>
      </trkpt>
      <trkpt lat="48.85238" lon="2.32676">
        <ele>48</ele>
        <time>2022-02-02T14:18:53.527Z</time>
      </trkpt>
      <trkpt lat="48.85233" lon="2.32676">
        <ele>47</ele>
        <time>2022-02-02T14:18:58.529Z</time>
      </trkpt>
      <trkpt lat="48.85228" lon="2.32679">
        <ele>47</ele>
        <time>2022-02-02T14:19:03.509Z</time>
      </trkpt>
      <trkpt lat="48.85221" lon="2.3268">
        <ele>47</ele>
        <time>2022-02-02T14:19:07.526Z</time>
      </trkpt>
      <trkpt lat="48.85216" lon="2.32678">
        <ele>47</ele>
        <time>2022-02-02T14:19:12.524Z</time>
      </trkpt>
      <trkpt lat="48.85212" lon="2.32677">
        <ele>47</ele>
        <time>2022-02-02T14:19:17.522Z</time>
      </trkpt>
      <trkpt lat="48.85204" lon="2.32675">
        <ele>45</ele>
        <time>2022-02-02T14:19:21.521Z</time>
      </trkpt>
      <trkpt lat="48.85198" lon="2.32676">
        <ele>45</ele>
        <time>2022-02-02T14:19:26.515Z</time>
      </trkpt>
      <trkpt lat="48.85191" lon="2.32675">
        <ele>45</ele>
        <time>2022-02-02T14:19:31.526Z</time>
      </trkpt>
      <trkpt lat="48.85185" lon="2.32674">
        <ele>45</ele>
        <time>2022-02-02T14:19:36.512Z</time>
      </trkpt>
      <trkpt lat="48.85182" lon="2.32679">
        <ele>45</ele>
        <time>2022-02-02T14:19:40.530Z</time>
      </trkpt>
      <trkpt lat="48.85177" lon="2.32682">
        <ele>43</ele>
        <time>2022-02-02T14:19:45.518Z</time>
      </trkpt>
      <trkpt lat="48.85173" lon="2.32684">
        <ele>43</ele>
        <time>2022-02-02T14:19:50.521Z</time>
      </trkpt>
      <trkpt lat="48.8517" lon="2.32681">
        <ele>43</ele>
        <time>2022-02-02T14:19:54.527Z</time>
      </trkpt>
      <trkpt lat="48.85169" lon="2.32679">
        <ele>44</ele>
        <time>2022-02-02T14:19:59.517Z</time>
      </trkpt>
      <trkpt lat="48.85165" lon="2.32681">
        <ele>43</ele>
        <time>2022-02-02T14:20:04.529Z</time>
      </trkpt>
      <trkpt lat="48.85162" lon="2.32684">
        <ele>43</ele>
        <time>2022-02-02T14:20:09.512Z</time>
      </trkpt>
      <trkpt lat="48.85161" lon="2.32686">
        <ele>43</ele>
        <time>2022-02-02T14:20:13.520Z</time>
      </trkpt>
      <trkpt lat="48.8516" lon="2.32684">
        <ele>43</ele>
        <time>2022-02-02T14:20:18.522Z</time>
      </trkpt>
      <trkpt lat="48.85157" lon="2.32683">
        <ele>43</ele>
        <time>2022-02-02T14:20:23.514Z</time>
      </trkpt>
      <trkpt lat="48.85139" lon="2.32713">
        <ele>47</ele>
        <time>2022-02-02T14:20:27.516Z</time>
      </trkpt>
      <trkpt lat="48.85134" lon="2.32713">
        <ele>47</ele>
        <time>2022-02-02T14:20:31.511Z</time>
      </trkpt>
      <trkpt lat="48.85131" lon="2.32717">
        <ele>47</ele>
        <time>2022-02-02T14:20:35.522Z</time>
      </trkpt>
      <trkpt lat="48.85125" lon="2.32716">
        <ele>47</ele>
        <time>2022-02-02T14:20:40.522Z</time>
      </trkpt>
      <trkpt lat="48.8512" lon="2.32715">
        <ele>50</ele>
        <time>2022-02-02T14:20:45.518Z</time>
      </trkpt>
      <trkpt lat="48.85112" lon="2.32706">
        <ele>48</ele>
        <time>2022-02-02T14:20:49.526Z</time>
      </trkpt>
      <trkpt lat="48.85104" lon="2.32707">
        <ele>48</ele>
        <time>2022-02-02T14:20:54.522Z</time>
      </trkpt>
      <trkpt lat="48.851" lon="2.32706">
        <ele>48</ele>
        <time>2022-02-02T14:20:59.523Z</time>
      </trkpt>
      <trkpt lat="48.85099" lon="2.32707">
        <ele>48</ele>
        <time>2022-02-02T14:21:04.518Z</time>
      </trkpt>
      <trkpt lat="48.85099" lon="2.32707">
        <ele>48</ele>
        <time>2022-02-02T14:21:09.517Z</time>
      </trkpt>
      <trkpt lat="48.85093" lon="2.32705">
        <ele>48</ele>
        <time>2022-02-02T14:21:13.521Z</time>
      </trkpt>
      <trkpt lat="48.85089" lon="2.32706">
        <ele>48</ele>
        <time>2022-02-02T14:21:17.524Z</time>
      </trkpt>
      <trkpt lat="48.85085" lon="2.32705">
        <ele>48</ele>
        <time>2022-02-02T14:21:21.621Z</time>
      </trkpt>
      <trkpt lat="48.85081" lon="2.32705">
        <ele>48</ele>
        <time>2022-02-02T14:21:26.521Z</time>
      </trkpt>
      <trkpt lat="48.85078" lon="2.32704">
        <ele>48</ele>
        <time>2022-02-02T14:21:31.529Z</time>
      </trkpt>
      <trkpt lat="48.85076" lon="2.32704">
        <ele>48</ele>
        <time>2022-02-02T14:21:36.522Z</time>
      </trkpt>
      <trkpt lat="48.85077" lon="2.32706">
        <ele>48</ele>
        <time>2022-02-02T14:21:40.530Z</time>
      </trkpt>
      <trkpt lat="48.85076" lon="2.32707">
        <ele>48</ele>
        <time>2022-02-02T14:21:45.513Z</time>
      </trkpt>
      <trkpt lat="48.85074" lon="2.32712">
        <ele>50</ele>
        <time>2022-02-02T14:21:49.519Z</time>
      </trkpt>
      <trkpt lat="48.85071" lon="2.32715">
        <ele>50</ele>
        <time>2022-02-02T14:21:53.524Z</time>
      </trkpt>
      <trkpt lat="48.85066" lon="2.32718">
        <ele>47</ele>
        <time>2022-02-02T14:21:58.520Z</time>
      </trkpt>
      <trkpt lat="48.85061" lon="2.32722">
        <ele>47</ele>
        <time>2022-02-02T14:22:03.523Z</time>
      </trkpt>
      <trkpt lat="48.85057" lon="2.32725">
        <ele>47</ele>
        <time>2022-02-02T14:22:08.520Z</time>
      </trkpt>
      <trkpt lat="48.85051" lon="2.32725">
        <ele>47</ele>
        <time>2022-02-02T14:22:13.526Z</time>
      </trkpt>
      <trkpt lat="48.85045" lon="2.32725">
        <ele>47</ele>
        <time>2022-02-02T14:22:18.518Z</time>
      </trkpt>
      <trkpt lat="48.85041" lon="2.32726">
        <ele>44</ele>
        <time>2022-02-02T14:22:32.523Z</time>
      </trkpt>
      <trkpt lat="48.85039" lon="2.32725">
        <ele>44</ele>
        <time>2022-02-02T14:22:36.513Z</time>
      </trkpt>
      <trkpt lat="48.85036" lon="2.32722">
        <ele>44</ele>
        <time>2022-02-02T14:22:41.523Z</time>
      </trkpt>
      <trkpt lat="48.85032" lon="2.3272">
        <ele>44</ele>
        <time>2022-02-02T14:22:45.526Z</time>
      </trkpt>
      <trkpt lat="48.85026" lon="2.3272">
        <ele>44</ele>
        <time>2022-02-02T14:22:50.512Z</time>
      </trkpt>
      <trkpt lat="48.85018" lon="2.32723">
        <ele>44</ele>
        <time>2022-02-02T14:22:55.524Z</time>
      </trkpt>
      <trkpt lat="48.85011" lon="2.32724">
        <ele>44</ele>
        <time>2022-02-02T14:22:59.526Z</time>
      </trkpt>
      <trkpt lat="48.85007" lon="2.32722">
        <ele>44</ele>
        <time>2022-02-02T14:23:04.513Z</time>
      </trkpt>
      <trkpt lat="48.85001" lon="2.3272">
        <ele>44</ele>
        <time>2022-02-02T14:23:09.524Z</time>
      </trkpt>
      <trkpt lat="48.84996" lon="2.32716">
        <ele>44</ele>
        <time>2022-02-02T14:23:14.525Z</time>
      </trkpt>
      <trkpt lat="48.84991" lon="2.32713">
        <ele>44</ele>
        <time>2022-02-02T14:23:19.518Z</time>
      </trkpt>
      <trkpt lat="48.84983" lon="2.3271">
        <ele>46</ele>
        <time>2022-02-02T14:23:23.523Z</time>
      </trkpt>
      <trkpt lat="48.84982" lon="2.32713">
        <ele>46</ele>
        <time>2022-02-02T14:23:28.525Z</time>
      </trkpt>
      <trkpt lat="48.8498" lon="2.32712">
        <ele>46</ele>
        <time>2022-02-02T14:23:32.527Z</time>
      </trkpt>
      <trkpt lat="48.84975" lon="2.32712">
        <ele>46</ele>
        <time>2022-02-02T14:23:37.538Z</time>
      </trkpt>
      <trkpt lat="48.84968" lon="2.32709">
        <ele>46</ele>
        <time>2022-02-02T14:23:42.521Z</time>
      </trkpt>
      <trkpt lat="48.84962" lon="2.32708">
        <ele>47</ele>
        <time>2022-02-02T14:23:46.528Z</time>
      </trkpt>
      <trkpt lat="48.84958" lon="2.32708">
        <ele>49</ele>
        <time>2022-02-02T14:23:51.515Z</time>
      </trkpt>
      <trkpt lat="48.84953" lon="2.3271">
        <ele>48</ele>
        <time>2022-02-02T14:23:55.526Z</time>
      </trkpt>
      <trkpt lat="48.84945" lon="2.32708">
        <ele>49</ele>
        <time>2022-02-02T14:24:00.526Z</time>
      </trkpt>
      <trkpt lat="48.84937" lon="2.32708">
        <ele>49</ele>
        <time>2022-02-02T14:24:04.533Z</time>
      </trkpt>
      <trkpt lat="48.84936" lon="2.32712">
        <ele>48</ele>
        <time>2022-02-02T14:24:09.521Z</time>
      </trkpt>
      <trkpt lat="48.84933" lon="2.32711">
        <ele>48</ele>
        <time>2022-02-02T14:24:14.526Z</time>
      </trkpt>
      <trkpt lat="48.84929" lon="2.32716">
        <ele>50</ele>
        <time>2022-02-02T14:24:18.525Z</time>
      </trkpt>
      <trkpt lat="48.84923" lon="2.32719">
        <ele>50</ele>
        <time>2022-02-02T14:24:23.518Z</time>
      </trkpt>
      <trkpt lat="48.84917" lon="2.32724">
        <ele>50</ele>
        <time>2022-02-02T14:24:27.524Z</time>
      </trkpt>
      <trkpt lat="48.84913" lon="2.32726">
        <ele>50</ele>
        <time>2022-02-02T14:24:32.525Z</time>
      </trkpt>
      <trkpt lat="48.84907" lon="2.32731">
        <ele>50</ele>
        <time>2022-02-02T14:24:37.527Z</time>
      </trkpt>
      <trkpt lat="48.84901" lon="2.32733">
        <ele>50</ele>
        <time>2022-02-02T14:24:42.523Z</time>
      </trkpt>
      <trkpt lat="48.84896" lon="2.32733">
        <ele>50</ele>
        <time>2022-02-02T14:24:47.539Z</time>
      </trkpt>
      <trkpt lat="48.84894" lon="2.32738">
        <ele>48</ele>
        <time>2022-02-02T14:24:52.528Z</time>
      </trkpt>
      <trkpt lat="48.84891" lon="2.32747">
        <ele>48</ele>
        <time>2022-02-02T14:24:57.521Z</time>
      </trkpt>
      <trkpt lat="48.84888" lon="2.32752">
        <ele>48</ele>
        <time>2022-02-02T14:25:02.524Z</time>
      </trkpt>
      <trkpt lat="48.8488" lon="2.32753">
        <ele>48</ele>
        <time>2022-02-02T14:25:06.526Z</time>
      </trkpt>
      <trkpt lat="48.84877" lon="2.3276">
        <ele>48</ele>
        <time>2022-02-02T14:25:11.529Z</time>
      </trkpt>
      <trkpt lat="48.84873" lon="2.32766">
        <ele>49</ele>
        <time>2022-02-02T14:25:16.524Z</time>
      </trkpt>
      <trkpt lat="48.84869" lon="2.3277">
        <ele>49</ele>
        <time>2022-02-02T14:25:21.518Z</time>
      </trkpt>
      <trkpt lat="48.84865" lon="2.32776">
        <ele>49</ele>
        <time>2022-02-02T14:25:26.524Z</time>
      </trkpt>
      <trkpt lat="48.84861" lon="2.3278">
        <ele>49</ele>
        <time>2022-02-02T14:25:36.514Z</time>
      </trkpt>
      <trkpt lat="48.84855" lon="2.32778">
        <ele>49</ele>
        <time>2022-02-02T14:25:40.533Z</time>
      </trkpt>
      <trkpt lat="48.84848" lon="2.32778">
        <ele>49</ele>
        <time>2022-02-02T14:25:45.517Z</time>
      </trkpt>
      <trkpt lat="48.84843" lon="2.32783">
        <ele>49</ele>
        <time>2022-02-02T14:25:50.519Z</time>
      </trkpt>
      <trkpt lat="48.8484" lon="2.32787">
        <ele>49</ele>
        <time>2022-02-02T14:25:55.507Z</time>
      </trkpt>
      <trkpt lat="48.84837" lon="2.32789">
        <ele>49</ele>
        <time>2022-02-02T14:25:59.518Z</time>
      </trkpt>
      <trkpt lat="48.84836" lon="2.32791">
        <ele>49</ele>
        <time>2022-02-02T14:26:03.515Z</time>
      </trkpt>
      <trkpt lat="48.84835" lon="2.32795">
        <ele>51</ele>
        <time>2022-02-02T14:26:08.515Z</time>
      </trkpt>
      <trkpt lat="48.84834" lon="2.32799">
        <ele>51</ele>
        <time>2022-02-02T14:26:12.525Z</time>
      </trkpt>
      <trkpt lat="48.84826" lon="2.32799">
        <ele>51</ele>
        <time>2022-02-02T14:26:26.522Z</time>
      </trkpt>
      <trkpt lat="48.84814" lon="2.32802">
        <ele>52</ele>
        <time>2022-02-02T14:26:31.512Z</time>
      </trkpt>
      <trkpt lat="48.84808" lon="2.32803">
        <ele>52</ele>
        <time>2022-02-02T14:26:36.520Z</time>
      </trkpt>
      <trkpt lat="48.84804" lon="2.32807">
        <ele>52</ele>
        <time>2022-02-02T14:26:41.523Z</time>
      </trkpt>
      <trkpt lat="48.848" lon="2.32809">
        <ele>52</ele>
        <time>2022-02-02T14:26:46.527Z</time>
      </trkpt>
      <trkpt lat="48.84795" lon="2.32811">
        <ele>52</ele>
        <time>2022-02-02T14:26:51.514Z</time>
      </trkpt>
      <trkpt lat="48.84788" lon="2.32811">
        <ele>53</ele>
        <time>2022-02-02T14:26:56.523Z</time>
      </trkpt>
      <trkpt lat="48.84784" lon="2.32812">
        <ele>53</ele>
        <time>2022-02-02T14:27:01.530Z</time>
      </trkpt>
      <trkpt lat="48.84778" lon="2.32814">
        <ele>53</ele>
        <time>2022-02-02T14:27:06.524Z</time>
      </trkpt>
      <trkpt lat="48.84773" lon="2.32815">
        <ele>53</ele>
        <time>2022-02-02T14:27:11.516Z</time>
      </trkpt>
      <trkpt lat="48.84768" lon="2.32815">
        <ele>53</ele>
        <time>2022-02-02T14:27:15.524Z</time>
      </trkpt>
      <trkpt lat="48.84763" lon="2.32821">
        <ele>52</ele>
        <time>2022-02-02T14:27:19.531Z</time>
      </trkpt>
      <trkpt lat="48.84761" lon="2.32827">
        <ele>52</ele>
        <time>2022-02-02T14:27:24.528Z</time>
      </trkpt>
      <trkpt lat="48.84757" lon="2.32827">
        <ele>52</ele>
        <time>2022-02-02T14:27:29.521Z</time>
      </trkpt>
      <trkpt lat="48.8475" lon="2.3283">
        <ele>52</ele>
        <time>2022-02-02T14:27:34.521Z</time>
      </trkpt>
      <trkpt lat="48.84745" lon="2.32831">
        <ele>52</ele>
        <time>2022-02-02T14:27:39.515Z</time>
      </trkpt>
      <trkpt lat="48.8474" lon="2.32832">
        <ele>52</ele>
        <time>2022-02-02T14:27:43.520Z</time>
      </trkpt>
      <trkpt lat="48.84736" lon="2.32839">
        <ele>53</ele>
        <time>2022-02-02T14:27:48.518Z</time>
      </trkpt>
      <trkpt lat="48.84733" lon="2.32843">
        <ele>53</ele>
        <time>2022-02-02T14:27:53.523Z</time>
      </trkpt>
      <trkpt lat="48.84728" lon="2.32849">
        <ele>54</ele>
        <time>2022-02-02T14:27:58.524Z</time>
      </trkpt>
      <trkpt lat="48.84726" lon="2.32855">
        <ele>54</ele>
        <time>2022-02-02T14:28:03.513Z</time>
      </trkpt>
      <trkpt lat="48.84722" lon="2.32861">
        <ele>54</ele>
        <time>2022-02-02T14:28:07.518Z</time>
      </trkpt>
      <trkpt lat="48.84716" lon="2.32859">
        <ele>54</ele>
        <time>2022-02-02T14:28:12.519Z</time>
      </trkpt>
      <trkpt lat="48.84711" lon="2.32864">
        <ele>54</ele>
        <time>2022-02-02T14:28:17.521Z</time>
      </trkpt>
      <trkpt lat="48.84704" lon="2.32864">
        <ele>54</ele>
        <time>2022-02-02T14:28:22.526Z</time>
      </trkpt>
      <trkpt lat="48.84699" lon="2.32865">
        <ele>54</ele>
        <time>2022-02-02T14:28:26.528Z</time>
      </trkpt>
      <trkpt lat="48.84695" lon="2.32866">
        <ele>54</ele>
        <time>2022-02-02T14:28:31.533Z</time>
      </trkpt>
      <trkpt lat="48.84694" lon="2.32863">
        <ele>54</ele>
        <time>2022-02-02T14:28:35.516Z</time>
      </trkpt>
      <trkpt lat="48.84694" lon="2.32865">
        <ele>54</ele>
        <time>2022-02-02T14:28:40.520Z</time>
      </trkpt>
      <trkpt lat="48.84695" lon="2.32872">
        <ele>54</ele>
        <time>2022-02-02T14:28:53.523Z</time>
      </trkpt>
      <trkpt lat="48.84696" lon="2.32878">
        <ele>56</ele>
        <time>2022-02-02T14:28:58.512Z</time>
      </trkpt>
      <trkpt lat="48.84698" lon="2.3288">
        <ele>56</ele>
        <time>2022-02-02T14:29:03.517Z</time>
      </trkpt>
      <trkpt lat="48.84699" lon="2.32885">
        <ele>56</ele>
        <time>2022-02-02T14:29:07.519Z</time>
      </trkpt>
      <trkpt lat="48.847" lon="2.32891">
        <ele>56</ele>
        <time>2022-02-02T14:29:12.517Z</time>
      </trkpt>
      <trkpt lat="48.84701" lon="2.32895">
        <ele>56</ele>
        <time>2022-02-02T14:29:16.530Z</time>
      </trkpt>
      <trkpt lat="48.84702" lon="2.32902">
        <ele>56</ele>
        <time>2022-02-02T14:29:20.516Z</time>
      </trkpt>
      <trkpt lat="48.84703" lon="2.32908">
        <ele>56</ele>
        <time>2022-02-02T14:29:25.519Z</time>
      </trkpt>
      <trkpt lat="48.84704" lon="2.32918">
        <ele>56</ele>
        <time>2022-02-02T14:29:30.513Z</time>
      </trkpt>
      <trkpt lat="48.84705" lon="2.32925">
        <ele>56</ele>
        <time>2022-02-02T14:29:34.516Z</time>
      </trkpt>
      <trkpt lat="48.84706" lon="2.32931">
        <ele>57</ele>
        <time>2022-02-02T14:29:38.525Z</time>
      </trkpt>
      <trkpt lat="48.84707" lon="2.3294">
        <ele>57</ele>
        <time>2022-02-02T14:29:43.516Z</time>
      </trkpt>
      <trkpt lat="48.84709" lon="2.32953">
        <ele>58</ele>
        <time>2022-02-02T14:29:47.526Z</time>
      </trkpt>
      <trkpt lat="48.84708" lon="2.32965">
        <ele>58</ele>
        <time>2022-02-02T14:29:52.518Z</time>
      </trkpt>
      <trkpt lat="48.84709" lon="2.32973">
        <ele>57</ele>
        <time>2022-02-02T14:29:57.518Z</time>
      </trkpt>
      <trkpt lat="48.84712" lon="2.32981">
        <ele>57</ele>
        <time>2022-02-02T14:30:02.523Z</time>
      </trkpt>
      <trkpt lat="48.84712" lon="2.32987">
        <ele>56</ele>
        <time>2022-02-02T14:30:07.523Z</time>
      </trkpt>
      <trkpt lat="48.84714" lon="2.32989">
        <ele>56</ele>
        <time>2022-02-02T14:30:12.509Z</time>
      </trkpt>
      <trkpt lat="48.84717" lon="2.32999">
        <ele>56</ele>
        <time>2022-02-02T14:30:16.519Z</time>
      </trkpt>
      <trkpt lat="48.8472" lon="2.33012">
        <ele>56</ele>
        <time>2022-02-02T14:30:21.519Z</time>
      </trkpt>
      <trkpt lat="48.84719" lon="2.3302">
        <ele>54</ele>
        <time>2022-02-02T14:30:26.518Z</time>
      </trkpt>
      <trkpt lat="48.84718" lon="2.3303">
        <ele>54</ele>
        <time>2022-02-02T14:30:31.520Z</time>
      </trkpt>
      <trkpt lat="48.84719" lon="2.33038">
        <ele>54</ele>
        <time>2022-02-02T14:30:35.520Z</time>
      </trkpt>
      <trkpt lat="48.84721" lon="2.33047">
        <ele>53</ele>
        <time>2022-02-02T14:30:40.522Z</time>
      </trkpt>
      <trkpt lat="48.84719" lon="2.33056">
        <ele>53</ele>
        <time>2022-02-02T14:30:44.529Z</time>
      </trkpt>
      <trkpt lat="48.84716" lon="2.33068">
        <ele>53</ele>
        <time>2022-02-02T14:30:49.525Z</time>
      </trkpt>
      <trkpt lat="48.84716" lon="2.33077">
        <ele>54</ele>
        <time>2022-02-02T14:31:28.519Z</time>
      </trkpt>
      <trkpt lat="48.84715" lon="2.33087">
        <ele>54</ele>
        <time>2022-02-02T14:31:33.526Z</time>
      </trkpt>
      <trkpt lat="48.84713" lon="2.33095">
        <ele>54</ele>
        <time>2022-02-02T14:31:38.521Z</time>
      </trkpt>
      <trkpt lat="48.8471" lon="2.33102">
        <ele>55</ele>
        <time>2022-02-02T14:31:42.533Z</time>
      </trkpt>
      <trkpt lat="48.84708" lon="2.33111">
        <ele>57</ele>
        <time>2022-02-02T14:31:46.525Z</time>
      </trkpt>
      <trkpt lat="48.84708" lon="2.3312">
        <ele>57</ele>
        <time>2022-02-02T14:31:51.517Z</time>
      </trkpt>
      <trkpt lat="48.84711" lon="2.33132">
        <ele>55</ele>
        <time>2022-02-02T14:31:55.521Z</time>
      </trkpt>
      <trkpt lat="48.84713" lon="2.33138">
        <ele>55</ele>
        <time>2022-02-02T14:32:00.522Z</time>
      </trkpt>
      <trkpt lat="48.84715" lon="2.33143">
        <ele>55</ele>
        <time>2022-02-02T14:32:05.522Z</time>
      </trkpt>
      <trkpt lat="48.84714" lon="2.33151">
        <ele>55</ele>
        <time>2022-02-02T14:32:10.521Z</time>
      </trkpt>
      <trkpt lat="48.84718" lon="2.33157">
        <ele>55</ele>
        <time>2022-02-02T14:32:15.517Z</time>
      </trkpt>
      <trkpt lat="48.84719" lon="2.33162">
        <ele>55</ele>
        <time>2022-02-02T14:32:19.523Z</time>
      </trkpt>
      <trkpt lat="48.8473" lon="2.33163">
        <ele>55</ele>
        <time>2022-02-02T14:32:24.515Z</time>
      </trkpt>
      <trkpt lat="48.84735" lon="2.33162">
        <ele>55</ele>
        <time>2022-02-02T14:32:28.524Z</time>
      </trkpt>
      <trkpt lat="48.84742" lon="2.33161">
        <ele>54</ele>
        <time>2022-02-02T14:32:33.516Z</time>
      </trkpt>
      <trkpt lat="48.84743" lon="2.33161">
        <ele>54</ele>
        <time>2022-02-02T14:32:38.513Z</time>
      </trkpt>
      <trkpt lat="48.84747" lon="2.3316">
        <ele>54</ele>
        <time>2022-02-02T14:32:42.517Z</time>
      </trkpt>
      <trkpt lat="48.84752" lon="2.33158">
        <ele>54</ele>
        <time>2022-02-02T14:32:46.520Z</time>
      </trkpt>
      <trkpt lat="48.84759" lon="2.33156">
        <ele>54</ele>
        <time>2022-02-02T14:32:51.526Z</time>
      </trkpt>
      <trkpt lat="48.84765" lon="2.33156">
        <ele>53</ele>
        <time>2022-02-02T14:32:55.528Z</time>
      </trkpt>
      <trkpt lat="48.84769" lon="2.33154">
        <ele>53</ele>
        <time>2022-02-02T14:33:00.524Z</time>
      </trkpt>
      <trkpt lat="48.84775" lon="2.33152">
        <ele>54</ele>
        <time>2022-02-02T14:33:04.520Z</time>
      </trkpt>
      <trkpt lat="48.84782" lon="2.33152">
        <ele>54</ele>
        <time>2022-02-02T14:33:09.518Z</time>
      </trkpt>
      <trkpt lat="48.84789" lon="2.33158">
        <ele>53</ele>
        <time>2022-02-02T14:33:13.523Z</time>
      </trkpt>
      <trkpt lat="48.84792" lon="2.33162">
        <ele>51</ele>
        <time>2022-02-02T14:33:18.522Z</time>
      </trkpt>
      <trkpt lat="48.84798" lon="2.33164">
        <ele>51</ele>
        <time>2022-02-02T14:33:23.530Z</time>
      </trkpt>
      <trkpt lat="48.84805" lon="2.33166">
        <ele>51</ele>
        <time>2022-02-02T14:33:28.518Z</time>
      </trkpt>
      <trkpt lat="48.84812" lon="2.3317">
        <ele>51</ele>
        <time>2022-02-02T14:33:32.527Z</time>
      </trkpt>
      <trkpt lat="48.8482" lon="2.33166">
        <ele>51</ele>
        <time>2022-02-02T14:33:37.514Z</time>
      </trkpt>
      <trkpt lat="48.84828" lon="2.33168">
        <ele>51</ele>
        <time>2022-02-02T14:33:41.522Z</time>
      </trkpt>
      <trkpt lat="48.84833" lon="2.3317">
        <ele>51</ele>
        <time>2022-02-02T14:33:46.525Z</time>
      </trkpt>
      <trkpt lat="48.84839" lon="2.33174">
        <ele>51</ele>
        <time>2022-02-02T14:33:51.517Z</time>
      </trkpt>
      <trkpt lat="48.84843" lon="2.33175">
        <ele>51</ele>
        <time>2022-02-02T14:33:55.527Z</time>
      </trkpt>
      <trkpt lat="48.84842" lon="2.33171">
        <ele>51</ele>
        <time>2022-02-02T14:34:00.524Z</time>
      </trkpt>
      <trkpt lat="48.84842" lon="2.3317">
        <ele>51</ele>
        <time>2022-02-02T14:34:05.515Z</time>
      </trkpt>
      <trkpt lat="48.84842" lon="2.3317">
        <ele>51</ele>
        <time>2022-02-02T14:34:09.518Z</time>
      </trkpt>
      <trkpt lat="48.84842" lon="2.33167">
        <ele>51</ele>
        <time>2022-02-02T14:34:14.522Z</time>
      </trkpt>
      <trkpt lat="48.84842" lon="2.33156">
        <ele>51</ele>
        <time>2022-02-02T14:34:19.530Z</time>
      </trkpt>
      <trkpt lat="48.84835" lon="2.33156">
        <ele>51</ele>
        <time>2022-02-02T14:34:24.525Z</time>
      </trkpt>
      <trkpt lat="48.84842" lon="2.33172">
        <ele>51</ele>
        <time>2022-02-02T14:34:28.522Z</time>
      </trkpt>
      <trkpt lat="48.84843" lon="2.33176">
        <ele>51</ele>
        <time>2022-02-02T14:34:33.526Z</time>
      </trkpt>
      <trkpt lat="48.84842" lon="2.33181">
        <ele>50</ele>
        <time>2022-02-02T14:34:38.524Z</time>
      </trkpt>
      <trkpt lat="48.84842" lon="2.33187">
        <ele>50</ele>
        <time>2022-02-02T14:34:43.523Z</time>
      </trkpt>
      <trkpt lat="48.84845" lon="2.33193">
        <ele>50</ele>
        <time>2022-02-02T14:34:48.524Z</time>
      </trkpt>
      <trkpt lat="48.84846" lon="2.33199">
        <ele>50</ele>
        <time>2022-02-02T14:34:53.528Z</time>
      </trkpt>
      <trkpt lat="48.84849" lon="2.33205">
        <ele>52</ele>
        <time>2022-02-02T14:34:58.514Z</time>
      </trkpt>
      <trkpt lat="48.84852" lon="2.33207">
        <ele>52</ele>
        <time>2022-02-02T14:35:02.518Z</time>
      </trkpt>
      <trkpt lat="48.84855" lon="2.33211">
        <ele>52</ele>
        <time>2022-02-02T14:35:07.517Z</time>
      </trkpt>
      <trkpt lat="48.84858" lon="2.33217">
        <ele>52</ele>
        <time>2022-02-02T14:35:12.522Z</time>
      </trkpt>
      <trkpt lat="48.8486" lon="2.33226">
        <ele>52</ele>
        <time>2022-02-02T14:35:17.520Z</time>
      </trkpt>
      <trkpt lat="48.84861" lon="2.33237">
        <ele>53</ele>
        <time>2022-02-02T14:35:21.521Z</time>
      </trkpt>
      <trkpt lat="48.84859" lon="2.33245">
        <ele>53</ele>
        <time>2022-02-02T14:35:26.524Z</time>
      </trkpt>
      <trkpt lat="48.84856" lon="2.3325">
        <ele>53</ele>
        <time>2022-02-02T14:35:31.525Z</time>
      </trkpt>
      <trkpt lat="48.84854" lon="2.33257">
        <ele>53</ele>
        <time>2022-02-02T14:35:36.515Z</time>
      </trkpt>
      <trkpt lat="48.84856" lon="2.33264">
        <ele>54</ele>
        <time>2022-02-02T14:35:40.518Z</time>
      </trkpt>
      <trkpt lat="48.84858" lon="2.33272">
        <ele>54</ele>
        <time>2022-02-02T14:35:45.529Z</time>
      </trkpt>
      <trkpt lat="48.8486" lon="2.33277">
        <ele>54</ele>
        <time>2022-02-02T14:35:50.515Z</time>
      </trkpt>
      <trkpt lat="48.84863" lon="2.33282">
        <ele>54</ele>
        <time>2022-02-02T14:35:55.513Z</time>
      </trkpt>
      <trkpt lat="48.84868" lon="2.33288">
        <ele>54</ele>
        <time>2022-02-02T14:36:00.509Z</time>
      </trkpt>
      <trkpt lat="48.8487" lon="2.33297">
        <ele>56</ele>
        <time>2022-02-02T14:36:04.519Z</time>
      </trkpt>
      <trkpt lat="48.84872" lon="2.33306">
        <ele>56</ele>
        <time>2022-02-02T14:36:08.522Z</time>
      </trkpt>
      <trkpt lat="48.84875" lon="2.33314">
        <ele>56</ele>
        <time>2022-02-02T14:36:12.515Z</time>
      </trkpt>
      <trkpt lat="48.84877" lon="2.33324">
        <ele>52</ele>
        <time>2022-02-02T14:36:17.506Z</time>
      </trkpt>
      <trkpt lat="48.8488" lon="2.33333">
        <ele>52</ele>
        <time>2022-02-02T14:36:21.516Z</time>
      </trkpt>
      <trkpt lat="48.84883" lon="2.3334">
        <ele>52</ele>
        <time>2022-02-02T14:36:26.521Z</time>
      </trkpt>
      <trkpt lat="48.84885" lon="2.33348">
        <ele>52</ele>
        <time>2022-02-02T14:36:31.519Z</time>
      </trkpt>
      <trkpt lat="48.84888" lon="2.33356">
        <ele>52</ele>
        <time>2022-02-02T14:36:36.520Z</time>
      </trkpt>
      <trkpt lat="48.8489" lon="2.33365">
        <ele>52</ele>
        <time>2022-02-02T14:36:40.529Z</time>
      </trkpt>
      <trkpt lat="48.84893" lon="2.33371">
        <ele>52</ele>
        <time>2022-02-02T14:36:45.526Z</time>
      </trkpt>
      <trkpt lat="48.84893" lon="2.33379">
        <ele>52</ele>
        <time>2022-02-02T14:36:49.525Z</time>
      </trkpt>
      <trkpt lat="48.84894" lon="2.33389">
        <ele>52</ele>
        <time>2022-02-02T14:36:53.518Z</time>
      </trkpt>
      <trkpt lat="48.84896" lon="2.33398">
        <ele>52</ele>
        <time>2022-02-02T14:36:58.521Z</time>
      </trkpt>
      <trkpt lat="48.84896" lon="2.33407">
        <ele>51</ele>
        <time>2022-02-02T14:37:03.524Z</time>
      </trkpt>
      <trkpt lat="48.84901" lon="2.33414">
        <ele>51</ele>
        <time>2022-02-02T14:37:08.511Z</time>
      </trkpt>
      <trkpt lat="48.84905" lon="2.33422">
        <ele>49</ele>
        <time>2022-02-02T14:37:12.536Z</time>
      </trkpt>
      <trkpt lat="48.84908" lon="2.33428">
        <ele>49</ele>
        <time>2022-02-02T14:37:17.532Z</time>
      </trkpt>
      <trkpt lat="48.84909" lon="2.33436">
        <ele>47</ele>
        <time>2022-02-02T14:37:22.517Z</time>
      </trkpt>
      <trkpt lat="48.84906" lon="2.33444">
        <ele>47</ele>
        <time>2022-02-02T14:37:27.532Z</time>
      </trkpt>
      <trkpt lat="48.84907" lon="2.33453">
        <ele>47</ele>
        <time>2022-02-02T14:37:32.518Z</time>
      </trkpt>
      <trkpt lat="48.84907" lon="2.33461">
        <ele>45</ele>
        <time>2022-02-02T14:37:36.520Z</time>
      </trkpt>
      <trkpt lat="48.84905" lon="2.33466">
        <ele>45</ele>
        <time>2022-02-02T14:37:40.522Z</time>
      </trkpt>
      <trkpt lat="48.84905" lon="2.33474">
        <ele>45</ele>
        <time>2022-02-02T14:37:45.515Z</time>
      </trkpt>
      <trkpt lat="48.84902" lon="2.33482">
        <ele>46</ele>
        <time>2022-02-02T14:37:50.523Z</time>
      </trkpt>
      <trkpt lat="48.84904" lon="2.33492">
        <ele>44</ele>
        <time>2022-02-02T14:37:55.518Z</time>
      </trkpt>
      <trkpt lat="48.84906" lon="2.33499">
        <ele>44</ele>
        <time>2022-02-02T14:38:00.532Z</time>
      </trkpt>
      <trkpt lat="48.84905" lon="2.33505">
        <ele>44</ele>
        <time>2022-02-02T14:38:24.523Z</time>
      </trkpt>
      <trkpt lat="48.84906" lon="2.33513">
        <ele>44</ele>
        <time>2022-02-02T14:38:29.523Z</time>
      </trkpt>
      <trkpt lat="48.84908" lon="2.33522">
        <ele>46</ele>
        <time>2022-02-02T14:38:34.525Z</time>
      </trkpt>
      <trkpt lat="48.8491" lon="2.33531">
        <ele>46</ele>
        <time>2022-02-02T14:38:38.528Z</time>
      </trkpt>
      <trkpt lat="48.84911" lon="2.33537">
        <ele>46</ele>
        <time>2022-02-02T14:38:43.528Z</time>
      </trkpt>
      <trkpt lat="48.8491" lon="2.33546">
        <ele>49</ele>
        <time>2022-02-02T14:39:02.528Z</time>
      </trkpt>
      <trkpt lat="48.84909" lon="2.33551">
        <ele>49</ele>
        <time>2022-02-02T14:39:07.535Z</time>
      </trkpt>
      <trkpt lat="48.84907" lon="2.33559">
        <ele>49</ele>
        <time>2022-02-02T14:39:12.533Z</time>
      </trkpt>
      <trkpt lat="48.84905" lon="2.33566">
        <ele>49</ele>
        <time>2022-02-02T14:39:17.531Z</time>
      </trkpt>
      <trkpt lat="48.84905" lon="2.33572">
        <ele>52</ele>
        <time>2022-02-02T14:39:22.520Z</time>
      </trkpt>
      <trkpt lat="48.84903" lon="2.33576">
        <ele>52</ele>
        <time>2022-02-02T14:39:27.515Z</time>
      </trkpt>
      <trkpt lat="48.84905" lon="2.33585">
        <ele>52</ele>
        <time>2022-02-02T14:39:32.520Z</time>
      </trkpt>
      <trkpt lat="48.84907" lon="2.33595">
        <ele>52</ele>
        <time>2022-02-02T14:39:36.521Z</time>
      </trkpt>
      <trkpt lat="48.84907" lon="2.33604">
        <ele>51</ele>
        <time>2022-02-02T14:39:41.526Z</time>
      </trkpt>
      <trkpt lat="48.84907" lon="2.33613">
        <ele>51</ele>
        <time>2022-02-02T14:39:46.520Z</time>
      </trkpt>
      <trkpt lat="48.84907" lon="2.33623">
        <ele>51</ele>
        <time>2022-02-02T14:39:51.515Z</time>
      </trkpt>
      <trkpt lat="48.84903" lon="2.33629">
        <ele>51</ele>
        <time>2022-02-02T14:39:55.524Z</time>
      </trkpt>
      <trkpt lat="48.84901" lon="2.33639">
        <ele>51</ele>
        <time>2022-02-02T14:40:00.524Z</time>
      </trkpt>
      <trkpt lat="48.84903" lon="2.33652">
        <ele>51</ele>
        <time>2022-02-02T14:40:05.517Z</time>
      </trkpt>
      <trkpt lat="48.84907" lon="2.33663">
        <ele>51</ele>
        <time>2022-02-02T14:40:10.518Z</time>
      </trkpt>
      <trkpt lat="48.84908" lon="2.3367">
        <ele>51</ele>
        <time>2022-02-02T14:40:14.539Z</time>
      </trkpt>
      <trkpt lat="48.84907" lon="2.33677">
        <ele>51</ele>
        <time>2022-02-02T14:40:19.512Z</time>
      </trkpt>
      <trkpt lat="48.84906" lon="2.33685">
        <ele>53</ele>
        <time>2022-02-02T14:40:24.514Z</time>
      </trkpt>
      <trkpt lat="48.84904" lon="2.33695">
        <ele>53</ele>
        <time>2022-02-02T14:40:29.523Z</time>
      </trkpt>
      <trkpt lat="48.84899" lon="2.33702">
        <ele>53</ele>
        <time>2022-02-02T14:40:33.522Z</time>
      </trkpt>
      <trkpt lat="48.84898" lon="2.3371">
        <ele>54</ele>
        <time>2022-02-02T14:40:37.522Z</time>
      </trkpt>
      <trkpt lat="48.84895" lon="2.33718">
        <ele>54</ele>
        <time>2022-02-02T14:40:42.524Z</time>
      </trkpt>
      <trkpt lat="48.84892" lon="2.33725">
        <ele>54</ele>
        <time>2022-02-02T14:40:47.526Z</time>
      </trkpt>
      <trkpt lat="48.84891" lon="2.33731">
        <ele>54</ele>
        <time>2022-02-02T14:40:52.516Z</time>
      </trkpt>
      <trkpt lat="48.84889" lon="2.33738">
        <ele>53</ele>
        <time>2022-02-02T14:40:57.517Z</time>
      </trkpt>
      <trkpt lat="48.84891" lon="2.3375">
        <ele>53</ele>
        <time>2022-02-02T14:41:02.515Z</time>
      </trkpt>
      <trkpt lat="48.84891" lon="2.33758">
        <ele>53</ele>
        <time>2022-02-02T14:41:07.528Z</time>
      </trkpt>
      <trkpt lat="48.84892" lon="2.33767">
        <ele>51</ele>
        <time>2022-02-02T14:41:12.518Z</time>
      </trkpt>
      <trkpt lat="48.84893" lon="2.33777">
        <ele>51</ele>
        <time>2022-02-02T14:41:16.518Z</time>
      </trkpt>
      <trkpt lat="48.84893" lon="2.33788">
        <ele>51</ele>
        <time>2022-02-02T14:41:21.526Z</time>
      </trkpt>
      <trkpt lat="48.84895" lon="2.33799">
        <ele>51</ele>
        <time>2022-02-02T14:41:25.523Z</time>
      </trkpt>
      <trkpt lat="48.84896" lon="2.33811">
        <ele>51</ele>
        <time>2022-02-02T14:41:30.524Z</time>
      </trkpt>
      <trkpt lat="48.84897" lon="2.33822">
        <ele>50</ele>
        <time>2022-02-02T14:41:35.524Z</time>
      </trkpt>
      <trkpt lat="48.84899" lon="2.33834">
        <ele>50</ele>
        <time>2022-02-02T15:00:10.514Z</time>
      </trkpt>
      <trkpt lat="48.84898" lon="2.33844">
        <ele>50</ele>
        <time>2022-02-02T15:00:14.515Z</time>
      </trkpt>
      <trkpt lat="48.84896" lon="2.33846">
        <ele>50</ele>
        <time>2022-02-02T15:00:18.518Z</time>
      </trkpt>
      <trkpt lat="48.84894" lon="2.33844">
        <ele>50</ele>
        <time>2022-02-02T15:00:22.518Z</time>
      </trkpt>
      <trkpt lat="48.84889" lon="2.33843">
        <ele>50</ele>
        <time>2022-02-02T15:00:27.515Z</time>
      </trkpt>
      <trkpt lat="48.84884" lon="2.33843">
        <ele>50</ele>
        <time>2022-02-02T15:00:32.523Z</time>
      </trkpt>
      <trkpt lat="48.84879" lon="2.33843">
        <ele>50</ele>
        <time>2022-02-02T15:00:37.513Z</time>
      </trkpt>
      <trkpt lat="48.84873" lon="2.33843">
        <ele>56</ele>
        <time>2022-02-02T15:00:42.520Z</time>
      </trkpt>
      <trkpt lat="48.84866" lon="2.33841">
        <ele>56</ele>
        <time>2022-02-02T15:00:47.514Z</time>
      </trkpt>
      <trkpt lat="48.84861" lon="2.33841">
        <ele>56</ele>
        <time>2022-02-02T15:00:52.518Z</time>
      </trkpt>
      <trkpt lat="48.84855" lon="2.3384">
        <ele>56</ele>
        <time>2022-02-02T15:00:57.512Z</time>
      </trkpt>
      <trkpt lat="48.84849" lon="2.3384">
        <ele>56</ele>
        <time>2022-02-02T15:01:02.520Z</time>
      </trkpt>
      <trkpt lat="48.84844" lon="2.3384">
        <ele>57</ele>
        <time>2022-02-02T15:01:07.514Z</time>
      </trkpt>
      <trkpt lat="48.84839" lon="2.3384">
        <ele>57</ele>
        <time>2022-02-02T15:01:11.519Z</time>
      </trkpt>
      <trkpt lat="48.84835" lon="2.33839">
        <ele>57</ele>
        <time>2022-02-02T15:01:16.517Z</time>
      </trkpt>
      <trkpt lat="48.84829" lon="2.33838">
        <ele>57</ele>
        <time>2022-02-02T15:01:21.525Z</time>
      </trkpt>
      <trkpt lat="48.84822" lon="2.33838">
        <ele>57</ele>
        <time>2022-02-02T15:01:26.522Z</time>
      </trkpt>
      <trkpt lat="48.84818" lon="2.33836">
        <ele>60</ele>
        <time>2022-02-02T15:01:31.519Z</time>
      </trkpt>
      <trkpt lat="48.84812" lon="2.33836">
        <ele>60</ele>
        <time>2022-02-02T15:01:36.524Z</time>
      </trkpt>
      <trkpt lat="48.84804" lon="2.33845">
        <ele>60</ele>
        <time>2022-02-02T15:01:41.524Z</time>
      </trkpt>
      <trkpt lat="48.848" lon="2.33841">
        <ele>60</ele>
        <time>2022-02-02T15:01:46.519Z</time>
      </trkpt>
      <trkpt lat="48.84795" lon="2.33835">
        <ele>60</ele>
        <time>2022-02-02T15:01:51.531Z</time>
      </trkpt>
      <trkpt lat="48.84791" lon="2.3383">
        <ele>59</ele>
        <time>2022-02-02T15:01:56.522Z</time>
      </trkpt>
      <trkpt lat="48.84785" lon="2.33823">
        <ele>59</ele>
        <time>2022-02-02T15:02:00.523Z</time>
      </trkpt>
      <trkpt lat="48.84781" lon="2.33814">
        <ele>61</ele>
        <time>2022-02-02T15:02:04.519Z</time>
      </trkpt>
      <trkpt lat="48.84777" lon="2.33807">
        <ele>61</ele>
        <time>2022-02-02T15:02:09.527Z</time>
      </trkpt>
      <trkpt lat="48.84775" lon="2.338">
        <ele>61</ele>
        <time>2022-02-02T15:02:14.533Z</time>
      </trkpt>
      <trkpt lat="48.84772" lon="2.33792">
        <ele>59</ele>
        <time>2022-02-02T15:02:19.525Z</time>
      </trkpt>
      <trkpt lat="48.84771" lon="2.33783">
        <ele>59</ele>
        <time>2022-02-02T15:02:24.513Z</time>
      </trkpt>
      <trkpt lat="48.84767" lon="2.33776">
        <ele>59</ele>
        <time>2022-02-02T15:02:29.522Z</time>
      </trkpt>
      <trkpt lat="48.84761" lon="2.33775">
        <ele>57</ele>
        <time>2022-02-02T15:02:34.515Z</time>
      </trkpt>
      <trkpt lat="48.84756" lon="2.33774">
        <ele>57</ele>
        <time>2022-02-02T15:02:38.527Z</time>
      </trkpt>
      <trkpt lat="48.84751" lon="2.33774">
        <ele>57</ele>
        <time>2022-02-02T15:02:42.531Z</time>
      </trkpt>
      <trkpt lat="48.84744" lon="2.33773">
        <ele>57</ele>
        <time>2022-02-02T15:02:47.526Z</time>
      </trkpt>
      <trkpt lat="48.84738" lon="2.33772">
        <ele>57</ele>
        <time>2022-02-02T15:02:52.526Z</time>
      </trkpt>
      <trkpt lat="48.84733" lon="2.33771">
        <ele>58</ele>
        <time>2022-02-02T15:02:57.520Z</time>
      </trkpt>
      <trkpt lat="48.84727" lon="2.33771">
        <ele>58</ele>
        <time>2022-02-02T15:03:01.529Z</time>
      </trkpt>
      <trkpt lat="48.8472" lon="2.33769">
        <ele>58</ele>
        <time>2022-02-02T15:03:06.528Z</time>
      </trkpt>
      <trkpt lat="48.84714" lon="2.33765">
        <ele>58</ele>
        <time>2022-02-02T15:03:11.517Z</time>
      </trkpt>
      <trkpt lat="48.84708" lon="2.33765">
        <ele>58</ele>
        <time>2022-02-02T15:03:16.519Z</time>
      </trkpt>
      <trkpt lat="48.84702" lon="2.33766">
        <ele>55</ele>
        <time>2022-02-02T15:03:21.538Z</time>
      </trkpt>
      <trkpt lat="48.84697" lon="2.33767">
        <ele>55</ele>
        <time>2022-02-02T15:03:26.522Z</time>
      </trkpt>
      <trkpt lat="48.84691" lon="2.33765">
        <ele>55</ele>
        <time>2022-02-02T15:03:30.523Z</time>
      </trkpt>
      <trkpt lat="48.84685" lon="2.33764">
        <ele>55</ele>
        <time>2022-02-02T15:03:34.530Z</time>
      </trkpt>
      <trkpt lat="48.8468" lon="2.33764">
        <ele>51</ele>
        <time>2022-02-02T15:03:39.517Z</time>
      </trkpt>
      <trkpt lat="48.84675" lon="2.33765">
        <ele>51</ele>
        <time>2022-02-02T15:03:44.527Z</time>
      </trkpt>
      <trkpt lat="48.84669" lon="2.33764">
        <ele>51</ele>
        <time>2022-02-02T15:03:49.527Z</time>
      </trkpt>
      <trkpt lat="48.84663" lon="2.33763">
        <ele>51</ele>
        <time>2022-02-02T15:03:54.523Z</time>
      </trkpt>
      <trkpt lat="48.84657" lon="2.33762">
        <ele>51</ele>
        <time>2022-02-02T15:03:58.515Z</time>
      </trkpt>
      <trkpt lat="48.84651" lon="2.33762">
        <ele>50</ele>
        <time>2022-02-02T15:04:03.540Z</time>
      </trkpt>
      <trkpt lat="48.84644" lon="2.33761">
        <ele>50</ele>
        <time>2022-02-02T15:04:08.523Z</time>
      </trkpt>
      <trkpt lat="48.84638" lon="2.33761">
        <ele>50</ele>
        <time>2022-02-02T15:04:12.530Z</time>
      </trkpt>
      <trkpt lat="48.84633" lon="2.3376">
        <ele>50</ele>
        <time>2022-02-02T15:04:16.524Z</time>
      </trkpt>
      <trkpt lat="48.84627" lon="2.33762">
        <ele>50</ele>
        <time>2022-02-02T15:04:21.528Z</time>
      </trkpt>
      <trkpt lat="48.8462" lon="2.33761">
        <ele>50</ele>
        <time>2022-02-02T15:04:26.521Z</time>
      </trkpt>
      <trkpt lat="48.84614" lon="2.33759">
        <ele>50</ele>
        <time>2022-02-02T15:04:31.524Z</time>
      </trkpt>
      <trkpt lat="48.84608" lon="2.33756">
        <ele>50</ele>
        <time>2022-02-02T15:04:35.534Z</time>
      </trkpt>
      <trkpt lat="48.84603" lon="2.33755">
        <ele>50</ele>
        <time>2022-02-02T15:04:40.521Z</time>
      </trkpt>
      <trkpt lat="48.84599" lon="2.33755">
        <ele>50</ele>
        <time>2022-02-02T15:04:44.531Z</time>
      </trkpt>
      <trkpt lat="48.84593" lon="2.33753">
        <ele>48</ele>
        <time>2022-02-02T15:04:49.524Z</time>
      </trkpt>
      <trkpt lat="48.84588" lon="2.33752">
        <ele>48</ele>
        <time>2022-02-02T15:04:54.518Z</time>
      </trkpt>
      <trkpt lat="48.84584" lon="2.3375">
        <ele>48</ele>
        <time>2022-02-02T15:04:58.524Z</time>
      </trkpt>
      <trkpt lat="48.84578" lon="2.33746">
        <ele>48</ele>
        <time>2022-02-02T15:05:02.531Z</time>
      </trkpt>
      <trkpt lat="48.84573" lon="2.33744">
        <ele>48</ele>
        <time>2022-02-02T15:05:07.522Z</time>
      </trkpt>
      <trkpt lat="48.84568" lon="2.33743">
        <ele>49</ele>
        <time>2022-02-02T15:05:12.528Z</time>
      </trkpt>
      <trkpt lat="48.84563" lon="2.33741">
        <ele>49</ele>
        <time>2022-02-02T15:05:17.522Z</time>
      </trkpt>
      <trkpt lat="48.84557" lon="2.3374">
        <ele>49</ele>
        <time>2022-02-02T15:05:22.522Z</time>
      </trkpt>
      <trkpt lat="48.84551" lon="2.33739">
        <ele>49</ele>
        <time>2022-02-02T15:05:27.513Z</time>
      </trkpt>
      <trkpt lat="48.84545" lon="2.33737">
        <ele>49</ele>
        <time>2022-02-02T15:05:31.536Z</time>
      </trkpt>
      <trkpt lat="48.84543" lon="2.33739">
        <ele>49</ele>
        <time>2022-02-02T15:05:36.525Z</time>
      </trkpt>
      <trkpt lat="48.84539" lon="2.33736">
        <ele>50</ele>
        <time>2022-02-02T15:05:41.515Z</time>
      </trkpt>
      <trkpt lat="48.84534" lon="2.33737">
        <ele>50</ele>
        <time>2022-02-02T15:05:46.521Z</time>
      </trkpt>
      <trkpt lat="48.84529" lon="2.33737">
        <ele>50</ele>
        <time>2022-02-02T15:05:50.520Z</time>
      </trkpt>
      <trkpt lat="48.84524" lon="2.33736">
        <ele>51</ele>
        <time>2022-02-02T15:05:55.535Z</time>
      </trkpt>
      <trkpt lat="48.84519" lon="2.33736">
        <ele>50</ele>
        <time>2022-02-02T15:05:59.533Z</time>
      </trkpt>
      <trkpt lat="48.84513" lon="2.33736">
        <ele>51</ele>
        <time>2022-02-02T15:06:04.524Z</time>
      </trkpt>
      <trkpt lat="48.84508" lon="2.33737">
        <ele>51</ele>
        <time>2022-02-02T15:06:09.526Z</time>
      </trkpt>
      <trkpt lat="48.84503" lon="2.33736">
        <ele>51</ele>
        <time>2022-02-02T15:06:14.528Z</time>
      </trkpt>
      <trkpt lat="48.84497" lon="2.33735">
        <ele>51</ele>
        <time>2022-02-02T15:06:19.519Z</time>
      </trkpt>
      <trkpt lat="48.84492" lon="2.33734">
        <ele>51</ele>
        <time>2022-02-02T15:06:24.522Z</time>
      </trkpt>
      <trkpt lat="48.84486" lon="2.33735">
        <ele>48</ele>
        <time>2022-02-02T15:06:28.524Z</time>
      </trkpt>
      <trkpt lat="48.84481" lon="2.33735">
        <ele>48</ele>
        <time>2022-02-02T15:06:33.523Z</time>
      </trkpt>
      <trkpt lat="48.84474" lon="2.33735">
        <ele>48</ele>
        <time>2022-02-02T15:06:38.522Z</time>
      </trkpt>
      <trkpt lat="48.84469" lon="2.33734">
        <ele>48</ele>
        <time>2022-02-02T15:06:43.526Z</time>
      </trkpt>
      <trkpt lat="48.84462" lon="2.33736">
        <ele>51</ele>
        <time>2022-02-02T15:06:48.527Z</time>
      </trkpt>
      <trkpt lat="48.84457" lon="2.33738">
        <ele>50</ele>
        <time>2022-02-02T15:06:53.520Z</time>
      </trkpt>
      <trkpt lat="48.84453" lon="2.33741">
        <ele>50</ele>
        <time>2022-02-02T15:06:57.519Z</time>
      </trkpt>
      <trkpt lat="48.84449" lon="2.33745">
        <ele>50</ele>
        <time>2022-02-02T15:07:01.529Z</time>
      </trkpt>
      <trkpt lat="48.84445" lon="2.3375">
        <ele>50</ele>
        <time>2022-02-02T15:07:06.520Z</time>
      </trkpt>
      <trkpt lat="48.8444" lon="2.33755">
        <ele>50</ele>
        <time>2022-02-02T15:07:11.528Z</time>
      </trkpt>
      <trkpt lat="48.84436" lon="2.3376">
        <ele>50</ele>
        <time>2022-02-02T15:07:16.524Z</time>
      </trkpt>
      <trkpt lat="48.84431" lon="2.33764">
        <ele>52</ele>
        <time>2022-02-02T15:07:21.526Z</time>
      </trkpt>
      <trkpt lat="48.84429" lon="2.3377">
        <ele>62</ele>
        <time>2022-02-02T15:07:26.523Z</time>
      </trkpt>
      <trkpt lat="48.84427" lon="2.33775">
        <ele>62</ele>
        <time>2022-02-02T15:07:30.513Z</time>
      </trkpt>
      <trkpt lat="48.84424" lon="2.33782">
        <ele>62</ele>
        <time>2022-02-02T15:07:35.515Z</time>
      </trkpt>
      <trkpt lat="48.84421" lon="2.33786">
        <ele>62</ele>
        <time>2022-02-02T15:07:40.514Z</time>
      </trkpt>
      <trkpt lat="48.84416" lon="2.33793">
        <ele>62</ele>
        <time>2022-02-02T15:07:44.522Z</time>
      </trkpt>
      <trkpt lat="48.84412" lon="2.338">
        <ele>62</ele>
        <time>2022-02-02T15:07:49.517Z</time>
      </trkpt>
      <trkpt lat="48.84408" lon="2.33804">
        <ele>62</ele>
        <time>2022-02-02T15:07:54.523Z</time>
      </trkpt>
      <trkpt lat="48.84403" lon="2.3381">
        <ele>62</ele>
        <time>2022-02-02T15:07:59.517Z</time>
      </trkpt>
      <trkpt lat="48.84401" lon="2.33819">
        <ele>71</ele>
        <time>2022-02-02T15:08:03.518Z</time>
      </trkpt>
      <trkpt lat="48.84402" lon="2.33825">
        <ele>67</ele>
        <time>2022-02-02T15:08:08.515Z</time>
      </trkpt>
      <trkpt lat="48.84402" lon="2.33832">
        <ele>67</ele>
        <time>2022-02-02T15:08:12.518Z</time>
      </trkpt>
      <trkpt lat="48.84406" lon="2.33836">
        <ele>61</ele>
        <time>2022-02-02T15:08:16.523Z</time>
      </trkpt>
      <trkpt lat="48.84409" lon="2.33845">
        <ele>61</ele>
        <time>2022-02-02T15:08:20.528Z</time>
      </trkpt>
      <trkpt lat="48.84409" lon="2.33858">
        <ele>60</ele>
        <time>2022-02-02T15:08:25.526Z</time>
      </trkpt>
      <trkpt lat="48.84408" lon="2.33865">
        <ele>60</ele>
        <time>2022-02-02T15:08:30.524Z</time>
      </trkpt>
      <trkpt lat="48.8441" lon="2.33872">
        <ele>60</ele>
        <time>2022-02-02T15:08:34.532Z</time>
      </trkpt>
      <trkpt lat="48.84411" lon="2.33875">
        <ele>60</ele>
        <time>2022-02-02T15:08:39.543Z</time>
      </trkpt>
      <trkpt lat="48.8441" lon="2.33879">
        <ele>60</ele>
        <time>2022-02-02T15:09:03.515Z</time>
      </trkpt>
      <trkpt lat="48.84408" lon="2.33892">
        <ele>60</ele>
        <time>2022-02-02T15:09:07.521Z</time>
      </trkpt>
      <trkpt lat="48.84408" lon="2.33904">
        <ele>61</ele>
        <time>2022-02-02T15:09:12.521Z</time>
      </trkpt>
      <trkpt lat="48.84407" lon="2.33908">
        <ele>61</ele>
        <time>2022-02-02T15:09:17.522Z</time>
      </trkpt>
      <trkpt lat="48.84407" lon="2.3391">
        <ele>61</ele>
        <time>2022-02-02T15:09:22.526Z</time>
      </trkpt>
      <trkpt lat="48.84411" lon="2.33919">
        <ele>61</ele>
        <time>2022-02-02T15:09:27.526Z</time>
      </trkpt>
      <trkpt lat="48.84415" lon="2.33927">
        <ele>61</ele>
        <time>2022-02-02T15:09:32.519Z</time>
      </trkpt>
      <trkpt lat="48.84421" lon="2.33932">
        <ele>63</ele>
        <time>2022-02-02T15:09:36.517Z</time>
      </trkpt>
      <trkpt lat="48.84426" lon="2.33936">
        <ele>63</ele>
        <time>2022-02-02T15:09:41.535Z</time>
      </trkpt>
      <trkpt lat="48.84428" lon="2.3394">
        <ele>63</ele>
        <time>2022-02-02T15:09:46.526Z</time>
      </trkpt>
      <trkpt lat="48.84432" lon="2.33945">
        <ele>64</ele>
        <time>2022-02-02T15:09:51.526Z</time>
      </trkpt>
      <trkpt lat="48.84435" lon="2.33946">
        <ele>64</ele>
        <time>2022-02-02T15:09:56.529Z</time>
      </trkpt>
      <trkpt lat="48.8444" lon="2.33947">
        <ele>64</ele>
        <time>2022-02-02T15:10:01.519Z</time>
      </trkpt>
      <trkpt lat="48.84444" lon="2.3395">
        <ele>64</ele>
        <time>2022-02-02T15:10:05.521Z</time>
      </trkpt>
      <trkpt lat="48.84449" lon="2.3395">
        <ele>64</ele>
        <time>2022-02-02T15:10:10.630Z</time>
      </trkpt>
      <trkpt lat="48.84453" lon="2.3395">
        <ele>64</ele>
        <time>2022-02-02T15:10:15.517Z</time>
      </trkpt>
      <trkpt lat="48.84458" lon="2.33951">
        <ele>64</ele>
        <time>2022-02-02T15:10:19.515Z</time>
      </trkpt>
      <trkpt lat="48.84462" lon="2.33953">
        <ele>61</ele>
        <time>2022-02-02T15:10:24.528Z</time>
      </trkpt>
      <trkpt lat="48.84467" lon="2.33955">
        <ele>61</ele>
        <time>2022-02-02T15:10:29.524Z</time>
      </trkpt>
      <trkpt lat="48.84472" lon="2.33957">
        <ele>61</ele>
        <time>2022-02-02T15:10:34.532Z</time>
      </trkpt>
      <trkpt lat="48.84476" lon="2.33958">
        <ele>61</ele>
        <time>2022-02-02T15:10:39.530Z</time>
      </trkpt>
      <trkpt lat="48.84481" lon="2.3396">
        <ele>64</ele>
        <time>2022-02-02T15:10:44.544Z</time>
      </trkpt>
      <trkpt lat="48.84484" lon="2.33962">
        <ele>64</ele>
        <time>2022-02-02T15:10:49.543Z</time>
      </trkpt>
      <trkpt lat="48.84489" lon="2.33965">
        <ele>63</ele>
        <time>2022-02-02T15:10:54.535Z</time>
      </trkpt>
      <trkpt lat="48.84494" lon="2.33969">
        <ele>63</ele>
        <time>2022-02-02T15:10:59.519Z</time>
      </trkpt>
      <trkpt lat="48.84499" lon="2.33971">
        <ele>63</ele>
        <time>2022-02-02T15:11:03.522Z</time>
      </trkpt>
      <trkpt lat="48.84502" lon="2.33974">
        <ele>63</ele>
        <time>2022-02-02T15:11:07.523Z</time>
      </trkpt>
      <trkpt lat="48.84507" lon="2.33977">
        <ele>63</ele>
        <time>2022-02-02T15:11:12.514Z</time>
      </trkpt>
      <trkpt lat="48.84512" lon="2.3398">
        <ele>63</ele>
        <time>2022-02-02T15:11:16.534Z</time>
      </trkpt>
      <trkpt lat="48.84517" lon="2.33985">
        <ele>65</ele>
        <time>2022-02-02T15:11:21.523Z</time>
      </trkpt>
      <trkpt lat="48.84522" lon="2.33988">
        <ele>67</ele>
        <time>2022-02-02T15:11:26.528Z</time>
      </trkpt>
      <trkpt lat="48.84527" lon="2.3399">
        <ele>67</ele>
        <time>2022-02-02T15:11:31.525Z</time>
      </trkpt>
      <trkpt lat="48.84532" lon="2.33995">
        <ele>67</ele>
        <time>2022-02-02T15:11:35.518Z</time>
      </trkpt>
      <trkpt lat="48.84536" lon="2.33997">
        <ele>67</ele>
        <time>2022-02-02T15:11:39.538Z</time>
      </trkpt>
      <trkpt lat="48.84541" lon="2.34">
        <ele>67</ele>
        <time>2022-02-02T15:11:44.537Z</time>
      </trkpt>
      <trkpt lat="48.84546" lon="2.34003">
        <ele>66</ele>
        <time>2022-02-02T15:11:49.654Z</time>
      </trkpt>
      <trkpt lat="48.84551" lon="2.34007">
        <ele>66</ele>
        <time>2022-02-02T15:11:54.530Z</time>
      </trkpt>
      <trkpt lat="48.84555" lon="2.34011">
        <ele>66</ele>
        <time>2022-02-02T15:11:59.518Z</time>
      </trkpt>
      <trkpt lat="48.84561" lon="2.34015">
        <ele>65</ele>
        <time>2022-02-02T15:12:03.522Z</time>
      </trkpt>
      <trkpt lat="48.84567" lon="2.3402">
        <ele>65</ele>
        <time>2022-02-02T15:12:07.527Z</time>
      </trkpt>
      <trkpt lat="48.84574" lon="2.34023">
        <ele>64</ele>
        <time>2022-02-02T15:12:12.518Z</time>
      </trkpt>
      <trkpt lat="48.84581" lon="2.34026">
        <ele>64</ele>
        <time>2022-02-02T15:12:16.526Z</time>
      </trkpt>
      <trkpt lat="48.84586" lon="2.34028">
        <ele>64</ele>
        <time>2022-02-02T15:12:20.532Z</time>
      </trkpt>
      <trkpt lat="48.84593" lon="2.3403">
        <ele>64</ele>
        <time>2022-02-02T15:12:25.519Z</time>
      </trkpt>
      <trkpt lat="48.84602" lon="2.34033">
        <ele>63</ele>
        <time>2022-02-02T15:12:29.529Z</time>
      </trkpt>
      <trkpt lat="48.84611" lon="2.34034">
        <ele>63</ele>
        <time>2022-02-02T15:12:34.529Z</time>
      </trkpt>
      <trkpt lat="48.84616" lon="2.3404">
        <ele>63</ele>
        <time>2022-02-02T15:12:38.523Z</time>
      </trkpt>
      <trkpt lat="48.84617" lon="2.34046">
        <ele>62</ele>
        <time>2022-02-02T15:12:43.520Z</time>
      </trkpt>
      <trkpt lat="48.84621" lon="2.3405">
        <ele>62</ele>
        <time>2022-02-02T15:12:48.531Z</time>
      </trkpt>
      <trkpt lat="48.84627" lon="2.34055">
        <ele>58</ele>
        <time>2022-02-02T15:12:53.517Z</time>
      </trkpt>
      <trkpt lat="48.84632" lon="2.34057">
        <ele>58</ele>
        <time>2022-02-02T15:12:58.512Z</time>
      </trkpt>
      <trkpt lat="48.84638" lon="2.34062">
        <ele>58</ele>
        <time>2022-02-02T15:13:02.514Z</time>
      </trkpt>
      <trkpt lat="48.84644" lon="2.34066">
        <ele>58</ele>
        <time>2022-02-02T15:13:07.525Z</time>
      </trkpt>
      <trkpt lat="48.8465" lon="2.3407">
        <ele>61</ele>
        <time>2022-02-02T15:13:12.513Z</time>
      </trkpt>
      <trkpt lat="48.84655" lon="2.34073">
        <ele>61</ele>
        <time>2022-02-02T15:13:16.513Z</time>
      </trkpt>
      <trkpt lat="48.84661" lon="2.34076">
        <ele>61</ele>
        <time>2022-02-02T15:13:20.517Z</time>
      </trkpt>
      <trkpt lat="48.84666" lon="2.34079">
        <ele>61</ele>
        <time>2022-02-02T15:13:25.524Z</time>
      </trkpt>
      <trkpt lat="48.84673" lon="2.34082">
        <ele>61</ele>
        <time>2022-02-02T15:13:29.523Z</time>
      </trkpt>
      <trkpt lat="48.8468" lon="2.34085">
        <ele>61</ele>
        <time>2022-02-02T15:13:34.521Z</time>
      </trkpt>
      <trkpt lat="48.84686" lon="2.34087">
        <ele>60</ele>
        <time>2022-02-02T15:13:39.517Z</time>
      </trkpt>
      <trkpt lat="48.84691" lon="2.34091">
        <ele>60</ele>
        <time>2022-02-02T15:13:43.522Z</time>
      </trkpt>
      <trkpt lat="48.84696" lon="2.34093">
        <ele>60</ele>
        <time>2022-02-02T15:13:48.510Z</time>
      </trkpt>
      <trkpt lat="48.84695" lon="2.34098">
        <ele>63</ele>
        <time>2022-02-02T15:13:52.525Z</time>
      </trkpt>
      <trkpt lat="48.84695" lon="2.34103">
        <ele>63</ele>
        <time>2022-02-02T15:13:57.525Z</time>
      </trkpt>
      <trkpt lat="48.84698" lon="2.34107">
        <ele>63</ele>
        <time>2022-02-02T15:14:01.527Z</time>
      </trkpt>
      <trkpt lat="48.84701" lon="2.3411">
        <ele>63</ele>
        <time>2022-02-02T15:14:06.531Z</time>
      </trkpt>
      <trkpt lat="48.84711" lon="2.34113">
        <ele>61</ele>
        <time>2022-02-02T15:14:11.527Z</time>
      </trkpt>
      <trkpt lat="48.84722" lon="2.34113">
        <ele>61</ele>
        <time>2022-02-02T15:14:15.529Z</time>
      </trkpt>
      <trkpt lat="48.8473" lon="2.34114">
        <ele>61</ele>
        <time>2022-02-02T15:14:19.526Z</time>
      </trkpt>
      <trkpt lat="48.84737" lon="2.3412">
        <ele>60</ele>
        <time>2022-02-02T15:14:23.537Z</time>
      </trkpt>
      <trkpt lat="48.84743" lon="2.34128">
        <ele>59</ele>
        <time>2022-02-02T15:14:28.519Z</time>
      </trkpt>
      <trkpt lat="48.84749" lon="2.3413">
        <ele>59</ele>
        <time>2022-02-02T15:14:32.542Z</time>
      </trkpt>
      <trkpt lat="48.84753" lon="2.34136">
        <ele>59</ele>
        <time>2022-02-02T15:14:37.517Z</time>
      </trkpt>
      <trkpt lat="48.84754" lon="2.34142">
        <ele>59</ele>
        <time>2022-02-02T15:14:41.521Z</time>
      </trkpt>
      <trkpt lat="48.84757" lon="2.34142">
        <ele>59</ele>
        <time>2022-02-02T15:14:45.532Z</time>
      </trkpt>
      <trkpt lat="48.84764" lon="2.34141">
        <ele>59</ele>
        <time>2022-02-02T15:14:50.524Z</time>
      </trkpt>
      <trkpt lat="48.8477" lon="2.34141">
        <ele>58</ele>
        <time>2022-02-02T15:14:54.527Z</time>
      </trkpt>
      <trkpt lat="48.84776" lon="2.34139">
        <ele>58</ele>
        <time>2022-02-02T15:14:59.520Z</time>
      </trkpt>
      <trkpt lat="48.84781" lon="2.34142">
        <ele>58</ele>
        <time>2022-02-02T15:15:04.524Z</time>
      </trkpt>
      <trkpt lat="48.84787" lon="2.34142">
        <ele>58</ele>
        <time>2022-02-02T15:15:09.524Z</time>
      </trkpt>
      <trkpt lat="48.84794" lon="2.34141">
        <ele>58</ele>
        <time>2022-02-02T15:15:14.525Z</time>
      </trkpt>
      <trkpt lat="48.84799" lon="2.34142">
        <ele>58</ele>
        <time>2022-02-02T15:15:19.526Z</time>
      </trkpt>
      <trkpt lat="48.84805" lon="2.34145">
        <ele>58</ele>
        <time>2022-02-02T15:15:24.518Z</time>
      </trkpt>
      <trkpt lat="48.84807" lon="2.34143">
        <ele>58</ele>
        <time>2022-02-02T15:15:29.519Z</time>
      </trkpt>
      <trkpt lat="48.84809" lon="2.34144">
        <ele>58</ele>
        <time>2022-02-02T15:15:33.530Z</time>
      </trkpt>
      <trkpt lat="48.84811" lon="2.34145">
        <ele>58</ele>
        <time>2022-02-02T15:15:38.522Z</time>
      </trkpt>
      <trkpt lat="48.84809" lon="2.34152">
        <ele>58</ele>
        <time>2022-02-02T15:15:43.516Z</time>
      </trkpt>
      <trkpt lat="48.84807" lon="2.34158">
        <ele>61</ele>
        <time>2022-02-02T15:15:47.518Z</time>
      </trkpt>
      <trkpt lat="48.84806" lon="2.34159">
        <ele>61</ele>
        <time>2022-02-02T15:15:52.521Z</time>
      </trkpt>
      <trkpt lat="48.84803" lon="2.34164">
        <ele>61</ele>
        <time>2022-02-02T15:15:57.523Z</time>
      </trkpt>
      <trkpt lat="48.84803" lon="2.34172">
        <ele>61</ele>
        <time>2022-02-02T15:16:01.528Z</time>
      </trkpt>
      <trkpt lat="48.84804" lon="2.34177">
        <ele>61</ele>
        <time>2022-02-02T15:16:06.520Z</time>
      </trkpt>
      <trkpt lat="48.84802" lon="2.34178">
        <ele>61</ele>
        <time>2022-02-02T15:16:11.519Z</time>
      </trkpt>
      <trkpt lat="48.84801" lon="2.34178">
        <ele>61</ele>
        <time>2022-02-02T15:16:16.518Z</time>
      </trkpt>
      <trkpt lat="48.84796" lon="2.34186">
        <ele>64</ele>
        <time>2022-02-02T15:16:20.530Z</time>
      </trkpt>
      <trkpt lat="48.84791" lon="2.34191">
        <ele>62</ele>
        <time>2022-02-02T15:16:25.519Z</time>
      </trkpt>
      <trkpt lat="48.8479" lon="2.34203">
        <ele>62</ele>
        <time>2022-02-02T15:16:30.516Z</time>
      </trkpt>
      <trkpt lat="48.84787" lon="2.34213">
        <ele>63</ele>
        <time>2022-02-02T15:16:35.531Z</time>
      </trkpt>
      <trkpt lat="48.84787" lon="2.34219">
        <ele>63</ele>
        <time>2022-02-02T15:16:40.516Z</time>
      </trkpt>
      <trkpt lat="48.84785" lon="2.34224">
        <ele>63</ele>
        <time>2022-02-02T15:16:44.519Z</time>
      </trkpt>
      <trkpt lat="48.84784" lon="2.34228">
        <ele>63</ele>
        <time>2022-02-02T15:16:49.518Z</time>
      </trkpt>
      <trkpt lat="48.84783" lon="2.34235">
        <ele>63</ele>
        <time>2022-02-02T15:16:53.520Z</time>
      </trkpt>
      <trkpt lat="48.8478" lon="2.34242">
        <ele>63</ele>
        <time>2022-02-02T15:16:58.512Z</time>
      </trkpt>
      <trkpt lat="48.84777" lon="2.34249">
        <ele>63</ele>
        <time>2022-02-02T15:17:02.524Z</time>
      </trkpt>
      <trkpt lat="48.84774" lon="2.34257">
        <ele>63</ele>
        <time>2022-02-02T15:17:07.520Z</time>
      </trkpt>
      <trkpt lat="48.84771" lon="2.34265">
        <ele>63</ele>
        <time>2022-02-02T15:17:11.522Z</time>
      </trkpt>
      <trkpt lat="48.84768" lon="2.34274">
        <ele>63</ele>
        <time>2022-02-02T15:17:16.514Z</time>
      </trkpt>
      <trkpt lat="48.84766" lon="2.34281">
        <ele>63</ele>
        <time>2022-02-02T15:17:20.520Z</time>
      </trkpt>
      <trkpt lat="48.84764" lon="2.34287">
        <ele>63</ele>
        <time>2022-02-02T15:17:25.528Z</time>
      </trkpt>
      <trkpt lat="48.84761" lon="2.34295">
        <ele>64</ele>
        <time>2022-02-02T15:17:30.526Z</time>
      </trkpt>
      <trkpt lat="48.84758" lon="2.34301">
        <ele>64</ele>
        <time>2022-02-02T15:17:34.523Z</time>
      </trkpt>
      <trkpt lat="48.84755" lon="2.34308">
        <ele>64</ele>
        <time>2022-02-02T15:17:39.524Z</time>
      </trkpt>
      <trkpt lat="48.84751" lon="2.34314">
        <ele>64</ele>
        <time>2022-02-02T15:17:43.534Z</time>
      </trkpt>
      <trkpt lat="48.84747" lon="2.34321">
        <ele>63</ele>
        <time>2022-02-02T15:17:48.524Z</time>
      </trkpt>
      <trkpt lat="48.84742" lon="2.34328">
        <ele>63</ele>
        <time>2022-02-02T15:17:52.529Z</time>
      </trkpt>
      <trkpt lat="48.84742" lon="2.34337">
        <ele>63</ele>
        <time>2022-02-02T15:17:57.515Z</time>
      </trkpt>
      <trkpt lat="48.84742" lon="2.3434">
        <ele>63</ele>
        <time>2022-02-02T15:18:01.529Z</time>
      </trkpt>
      <trkpt lat="48.84743" lon="2.34345">
        <ele>63</ele>
        <time>2022-02-02T15:18:06.512Z</time>
      </trkpt>
      <trkpt lat="48.84746" lon="2.3435">
        <ele>60</ele>
        <time>2022-02-02T15:18:11.519Z</time>
      </trkpt>
      <trkpt lat="48.84746" lon="2.34356">
        <ele>60</ele>
        <time>2022-02-02T15:18:16.518Z</time>
      </trkpt>
      <trkpt lat="48.84741" lon="2.34365">
        <ele>60</ele>
        <time>2022-02-02T15:18:21.520Z</time>
      </trkpt>
      <trkpt lat="48.84739" lon="2.34375">
        <ele>58</ele>
        <time>2022-02-02T15:18:25.529Z</time>
      </trkpt>
      <trkpt lat="48.84737" lon="2.34385">
        <ele>58</ele>
        <time>2022-02-02T15:18:30.519Z</time>
      </trkpt>
      <trkpt lat="48.84734" lon="2.34397">
        <ele>61</ele>
        <time>2022-02-02T15:18:34.522Z</time>
      </trkpt>
      <trkpt lat="48.8473" lon="2.34411">
        <ele>62</ele>
        <time>2022-02-02T15:18:39.523Z</time>
      </trkpt>
      <trkpt lat="48.84726" lon="2.34422">
        <ele>62</ele>
        <time>2022-02-02T15:18:44.521Z</time>
      </trkpt>
      <trkpt lat="48.84725" lon="2.34429">
        <ele>62</ele>
        <time>2022-02-02T15:18:49.522Z</time>
      </trkpt>
      <trkpt lat="48.84721" lon="2.34442">
        <ele>64</ele>
        <time>2022-02-02T15:18:54.531Z</time>
      </trkpt>
      <trkpt lat="48.84718" lon="2.3445">
        <ele>64</ele>
        <time>2022-02-02T15:18:59.528Z</time>
      </trkpt>
      <trkpt lat="48.84716" lon="2.34455">
        <ele>64</ele>
        <time>2022-02-02T15:19:04.529Z</time>
      </trkpt>
      <trkpt lat="48.84714" lon="2.34463">
        <ele>66</ele>
        <time>2022-02-02T15:19:09.524Z</time>
      </trkpt>
      <trkpt lat="48.84711" lon="2.3447">
        <ele>66</ele>
        <time>2022-02-02T15:19:14.519Z</time>
      </trkpt>
      <trkpt lat="48.84712" lon="2.34475">
        <ele>66</ele>
        <time>2022-02-02T15:19:18.516Z</time>
      </trkpt>
      <trkpt lat="48.84714" lon="2.34477">
        <ele>66</ele>
        <time>2022-02-02T15:19:23.525Z</time>
      </trkpt>
      <trkpt lat="48.84711" lon="2.34485">
        <ele>66</ele>
        <time>2022-02-02T15:19:28.528Z</time>
      </trkpt>
      <trkpt lat="48.84708" lon="2.34494">
        <ele>69</ele>
        <time>2022-02-02T15:19:33.523Z</time>
      </trkpt>
      <trkpt lat="48.84705" lon="2.34506">
        <ele>69</ele>
        <time>2022-02-02T15:19:38.514Z</time>
      </trkpt>
      <trkpt lat="48.84704" lon="2.34516">
        <ele>66</ele>
        <time>2022-02-02T15:19:42.520Z</time>
      </trkpt>
      <trkpt lat="48.84702" lon="2.34525">
        <ele>66</ele>
        <time>2022-02-02T15:19:46.524Z</time>
      </trkpt>
      <trkpt lat="48.847" lon="2.34537">
        <ele>66</ele>
        <time>2022-02-02T15:19:51.521Z</time>
      </trkpt>
      <trkpt lat="48.84699" lon="2.34551">
        <ele>66</ele>
        <time>2022-02-02T15:19:55.533Z</time>
      </trkpt>
      <trkpt lat="48.84699" lon="2.34559">
        <ele>66</ele>
        <time>2022-02-02T15:20:00.524Z</time>
      </trkpt>
      <trkpt lat="48.84696" lon="2.34566">
        <ele>66</ele>
        <time>2022-02-02T15:20:05.519Z</time>
      </trkpt>
      <trkpt lat="48.84692" lon="2.34569">
        <ele>66</ele>
        <time>2022-02-02T15:20:10.524Z</time>
      </trkpt>
      <trkpt lat="48.8469" lon="2.34576">
        <ele>65</ele>
        <time>2022-02-02T15:20:15.517Z</time>
      </trkpt>
      <trkpt lat="48.8469" lon="2.34589">
        <ele>65</ele>
        <time>2022-02-02T15:20:20.526Z</time>
      </trkpt>
      <trkpt lat="48.84688" lon="2.34598">
        <ele>66</ele>
        <time>2022-02-02T15:20:24.529Z</time>
      </trkpt>
      <trkpt lat="48.84685" lon="2.34607">
        <ele>66</ele>
        <time>2022-02-02T15:20:29.520Z</time>
      </trkpt>
      <trkpt lat="48.84684" lon="2.34615">
        <ele>66</ele>
        <time>2022-02-02T15:20:34.534Z</time>
      </trkpt>
      <trkpt lat="48.84685" lon="2.34624">
        <ele>66</ele>
        <time>2022-02-02T15:20:39.527Z</time>
      </trkpt>
      <trkpt lat="48.84684" lon="2.34632">
        <ele>66</ele>
        <time>2022-02-02T15:20:44.520Z</time>
      </trkpt>
      <trkpt lat="48.84683" lon="2.34639">
        <ele>66</ele>
        <time>2022-02-02T15:20:49.540Z</time>
      </trkpt>
      <trkpt lat="48.84682" lon="2.34647">
        <ele>66</ele>
        <time>2022-02-02T15:20:54.533Z</time>
      </trkpt>
      <trkpt lat="48.84681" lon="2.34656">
        <ele>66</ele>
        <time>2022-02-02T15:20:59.522Z</time>
      </trkpt>
      <trkpt lat="48.8468" lon="2.34664">
        <ele>67</ele>
        <time>2022-02-02T15:21:03.521Z</time>
      </trkpt>
      <trkpt lat="48.84678" lon="2.34672">
        <ele>67</ele>
        <time>2022-02-02T15:21:07.523Z</time>
      </trkpt>
      <trkpt lat="48.84676" lon="2.3468">
        <ele>67</ele>
        <time>2022-02-02T15:21:12.522Z</time>
      </trkpt>
      <trkpt lat="48.84672" lon="2.34689">
        <ele>66</ele>
        <time>2022-02-02T15:21:17.518Z</time>
      </trkpt>
      <trkpt lat="48.84666" lon="2.34695">
        <ele>66</ele>
        <time>2022-02-02T15:21:21.528Z</time>
      </trkpt>
      <trkpt lat="48.8466" lon="2.347">
        <ele>66</ele>
        <time>2022-02-02T15:21:26.523Z</time>
      </trkpt>
      <trkpt lat="48.84655" lon="2.34703">
        <ele>66</ele>
        <time>2022-02-02T15:21:31.514Z</time>
      </trkpt>
      <trkpt lat="48.84653" lon="2.34708">
        <ele>64</ele>
        <time>2022-02-02T15:21:35.523Z</time>
      </trkpt>
      <trkpt lat="48.84647" lon="2.34712">
        <ele>65</ele>
        <time>2022-02-02T15:21:40.523Z</time>
      </trkpt>
      <trkpt lat="48.84642" lon="2.34709">
        <ele>65</ele>
        <time>2022-02-02T15:21:45.515Z</time>
      </trkpt>
      <trkpt lat="48.84636" lon="2.34709">
        <ele>65</ele>
        <time>2022-02-02T15:21:49.534Z</time>
      </trkpt>
      <trkpt lat="48.84631" lon="2.34707">
        <ele>64</ele>
        <time>2022-02-02T15:21:54.525Z</time>
      </trkpt>
      <trkpt lat="48.84626" lon="2.34704">
        <ele>64</ele>
        <time>2022-02-02T15:21:59.525Z</time>
      </trkpt>
      <trkpt lat="48.8462" lon="2.34702">
        <ele>61</ele>
        <time>2022-02-02T15:22:04.527Z</time>
      </trkpt>
      <trkpt lat="48.84616" lon="2.347">
        <ele>61</ele>
        <time>2022-02-02T15:22:09.516Z</time>
      </trkpt>
      <trkpt lat="48.8461" lon="2.34697">
        <ele>61</ele>
        <time>2022-02-02T15:22:13.533Z</time>
      </trkpt>
      <trkpt lat="48.84603" lon="2.34697">
        <ele>61</ele>
        <time>2022-02-02T15:22:18.519Z</time>
      </trkpt>
      <trkpt lat="48.84597" lon="2.34697">
        <ele>61</ele>
        <time>2022-02-02T15:22:22.524Z</time>
      </trkpt>
      <trkpt lat="48.8459" lon="2.34696">
        <ele>63</ele>
        <time>2022-02-02T15:22:27.530Z</time>
      </trkpt>
      <trkpt lat="48.84585" lon="2.34693">
        <ele>63</ele>
        <time>2022-02-02T15:22:32.522Z</time>
      </trkpt>
      <trkpt lat="48.8458" lon="2.34689">
        <ele>63</ele>
        <time>2022-02-02T15:22:37.517Z</time>
      </trkpt>
      <trkpt lat="48.84573" lon="2.34686">
        <ele>63</ele>
        <time>2022-02-02T15:22:41.521Z</time>
      </trkpt>
      <trkpt lat="48.84569" lon="2.34683">
        <ele>65</ele>
        <time>2022-02-02T15:22:46.513Z</time>
      </trkpt>
      <trkpt lat="48.84564" lon="2.34679">
        <ele>66</ele>
        <time>2022-02-02T15:22:51.526Z</time>
      </trkpt>
      <trkpt lat="48.84557" lon="2.34676">
        <ele>66</ele>
        <time>2022-02-02T15:22:56.524Z</time>
      </trkpt>
      <trkpt lat="48.84551" lon="2.3467">
        <ele>66</ele>
        <time>2022-02-02T15:23:01.521Z</time>
      </trkpt>
      <trkpt lat="48.84547" lon="2.34662">
        <ele>66</ele>
        <time>2022-02-02T15:23:05.519Z</time>
      </trkpt>
      <trkpt lat="48.84543" lon="2.34658">
        <ele>66</ele>
        <time>2022-02-02T15:23:10.519Z</time>
      </trkpt>
      <trkpt lat="48.8454" lon="2.34651">
        <ele>70</ele>
        <time>2022-02-02T15:23:15.515Z</time>
      </trkpt>
      <trkpt lat="48.84542" lon="2.34642">
        <ele>68</ele>
        <time>2022-02-02T15:23:20.522Z</time>
      </trkpt>
      <trkpt lat="48.84544" lon="2.34634">
        <ele>68</ele>
        <time>2022-02-02T15:23:25.516Z</time>
      </trkpt>
      <trkpt lat="48.84547" lon="2.34627">
        <ele>68</ele>
        <time>2022-02-02T15:23:30.518Z</time>
      </trkpt>
      <trkpt lat="48.84549" lon="2.3462">
        <ele>71</ele>
        <time>2022-02-02T15:23:35.517Z</time>
      </trkpt>
      <trkpt lat="48.84549" lon="2.34612">
        <ele>71</ele>
        <time>2022-02-02T15:23:40.517Z</time>
      </trkpt>
      <trkpt lat="48.84552" lon="2.34604">
        <ele>71</ele>
        <time>2022-02-02T15:23:44.518Z</time>
      </trkpt>
      <trkpt lat="48.84556" lon="2.34602">
        <ele>71</ele>
        <time>2022-02-02T15:23:49.518Z</time>
      </trkpt>
      <trkpt lat="48.84555" lon="2.34596">
        <ele>73</ele>
        <time>2022-02-02T15:23:54.517Z</time>
      </trkpt>
      <trkpt lat="48.84552" lon="2.34588">
        <ele>73</ele>
        <time>2022-02-02T15:23:59.515Z</time>
      </trkpt>
      <trkpt lat="48.84547" lon="2.34587">
        <ele>73</ele>
        <time>2022-02-02T15:24:03.524Z</time>
      </trkpt>
      <trkpt lat="48.84541" lon="2.34583">
        <ele>72</ele>
        <time>2022-02-02T15:24:08.520Z</time>
      </trkpt>
      <trkpt lat="48.84536" lon="2.34581">
        <ele>72</ele>
        <time>2022-02-02T15:24:13.518Z</time>
      </trkpt>
      <trkpt lat="48.84532" lon="2.34578">
        <ele>72</ele>
        <time>2022-02-02T15:24:17.521Z</time>
      </trkpt>
      <trkpt lat="48.84526" lon="2.34577">
        <ele>72</ele>
        <time>2022-02-02T15:24:22.523Z</time>
      </trkpt>
      <trkpt lat="48.84521" lon="2.34576">
        <ele>72</ele>
        <time>2022-02-02T15:24:27.524Z</time>
      </trkpt>
      <trkpt lat="48.84517" lon="2.34574">
        <ele>72</ele>
        <time>2022-02-02T15:24:31.526Z</time>
      </trkpt>
      <trkpt lat="48.84512" lon="2.34575">
        <ele>70</ele>
        <time>2022-02-02T15:24:36.513Z</time>
      </trkpt>
      <trkpt lat="48.8451" lon="2.34579">
        <ele>70</ele>
        <time>2022-02-02T15:24:40.524Z</time>
      </trkpt>
      <trkpt lat="48.84509" lon="2.34582">
        <ele>70</ele>
        <time>2022-02-02T15:24:45.525Z</time>
      </trkpt>
      <trkpt lat="48.84507" lon="2.34587">
        <ele>70</ele>
        <time>2022-02-02T15:24:50.522Z</time>
      </trkpt>
      <trkpt lat="48.84503" lon="2.34591">
        <ele>70</ele>
        <time>2022-02-02T15:24:54.518Z</time>
      </trkpt>
      <trkpt lat="48.845" lon="2.34598">
        <ele>69</ele>
        <time>2022-02-02T15:24:59.527Z</time>
      </trkpt>
      <trkpt lat="48.84498" lon="2.34604">
        <ele>69</ele>
        <time>2022-02-02T15:25:04.517Z</time>
      </trkpt>
      <trkpt lat="48.84494" lon="2.3461">
        <ele>69</ele>
        <time>2022-02-02T15:25:08.517Z</time>
      </trkpt>
      <trkpt lat="48.84492" lon="2.34616">
        <ele>69</ele>
        <time>2022-02-02T15:25:13.518Z</time>
      </trkpt>
      <trkpt lat="48.84489" lon="2.34621">
        <ele>69</ele>
        <time>2022-02-02T15:25:17.527Z</time>
      </trkpt>
      <trkpt lat="48.84485" lon="2.34628">
        <ele>68</ele>
        <time>2022-02-02T15:25:21.519Z</time>
      </trkpt>
      <trkpt lat="48.84483" lon="2.34634">
        <ele>68</ele>
        <time>2022-02-02T15:25:26.526Z</time>
      </trkpt>
      <trkpt lat="48.84483" lon="2.34642">
        <ele>68</ele>
        <time>2022-02-02T15:25:31.518Z</time>
      </trkpt>
      <trkpt lat="48.84482" lon="2.34651">
        <ele>68</ele>
        <time>2022-02-02T15:25:36.524Z</time>
      </trkpt>
      <trkpt lat="48.84479" lon="2.34657">
        <ele>66</ele>
        <time>2022-02-02T15:25:41.526Z</time>
      </trkpt>
      <trkpt lat="48.84476" lon="2.34662">
        <ele>66</ele>
        <time>2022-02-02T15:25:46.521Z</time>
      </trkpt>
      <trkpt lat="48.84474" lon="2.3467">
        <ele>66</ele>
        <time>2022-02-02T15:25:51.523Z</time>
      </trkpt>
      <trkpt lat="48.84472" lon="2.34676">
        <ele>66</ele>
        <time>2022-02-02T15:25:55.516Z</time>
      </trkpt>
      <trkpt lat="48.8447" lon="2.34683">
        <ele>65</ele>
        <time>2022-02-02T15:26:00.526Z</time>
      </trkpt>
      <trkpt lat="48.84468" lon="2.3469">
        <ele>65</ele>
        <time>2022-02-02T15:26:05.513Z</time>
      </trkpt>
      <trkpt lat="48.84468" lon="2.347">
        <ele>65</ele>
        <time>2022-02-02T15:26:09.525Z</time>
      </trkpt>
      <trkpt lat="48.84466" lon="2.34708">
        <ele>65</ele>
        <time>2022-02-02T15:26:14.523Z</time>
      </trkpt>
      <trkpt lat="48.84463" lon="2.34718">
        <ele>62</ele>
        <time>2022-02-02T15:26:18.525Z</time>
      </trkpt>
      <trkpt lat="48.84461" lon="2.34726">
        <ele>62</ele>
        <time>2022-02-02T15:26:23.520Z</time>
      </trkpt>
      <trkpt lat="48.84461" lon="2.34736">
        <ele>62</ele>
        <time>2022-02-02T15:26:27.525Z</time>
      </trkpt>
      <trkpt lat="48.84457" lon="2.34744">
        <ele>61</ele>
        <time>2022-02-02T15:26:32.528Z</time>
      </trkpt>
      <trkpt lat="48.84456" lon="2.34754">
        <ele>61</ele>
        <time>2022-02-02T15:26:36.525Z</time>
      </trkpt>
      <trkpt lat="48.84458" lon="2.34763">
        <ele>61</ele>
        <time>2022-02-02T15:26:41.523Z</time>
      </trkpt>
      <trkpt lat="48.8446" lon="2.34772">
        <ele>60</ele>
        <time>2022-02-02T15:26:46.527Z</time>
      </trkpt>
      <trkpt lat="48.84463" lon="2.3478">
        <ele>60</ele>
        <time>2022-02-02T15:26:51.514Z</time>
      </trkpt>
      <trkpt lat="48.84468" lon="2.34787">
        <ele>60</ele>
        <time>2022-02-02T15:26:56.513Z</time>
      </trkpt>
      <trkpt lat="48.84471" lon="2.34795">
        <ele>61</ele>
        <time>2022-02-02T15:27:01.513Z</time>
      </trkpt>
      <trkpt lat="48.84473" lon="2.34801">
        <ele>61</ele>
        <time>2022-02-02T15:27:05.519Z</time>
      </trkpt>
      <trkpt lat="48.8448" lon="2.3482">
        <ele>63</ele>
        <time>2022-02-02T15:27:10.518Z</time>
      </trkpt>
      <trkpt lat="48.84483" lon="2.34828">
        <ele>63</ele>
        <time>2022-02-02T15:27:14.524Z</time>
      </trkpt>
      <trkpt lat="48.84483" lon="2.34836">
        <ele>63</ele>
        <time>2022-02-02T15:27:18.527Z</time>
      </trkpt>
      <trkpt lat="48.84486" lon="2.34847">
        <ele>62</ele>
        <time>2022-02-02T15:27:23.524Z</time>
      </trkpt>
      <trkpt lat="48.8449" lon="2.34855">
        <ele>63</ele>
        <time>2022-02-02T15:27:28.532Z</time>
      </trkpt>
      <trkpt lat="48.84493" lon="2.3486">
        <ele>63</ele>
        <time>2022-02-02T15:27:33.521Z</time>
      </trkpt>
      <trkpt lat="48.84491" lon="2.34871">
        <ele>63</ele>
        <time>2022-02-02T15:27:37.523Z</time>
      </trkpt>
      <trkpt lat="48.84488" lon="2.34883">
        <ele>64</ele>
        <time>2022-02-02T15:27:42.532Z</time>
      </trkpt>
      <trkpt lat="48.84492" lon="2.34894">
        <ele>64</ele>
        <time>2022-02-02T15:27:47.534Z</time>
      </trkpt>
      <trkpt lat="48.84495" lon="2.34904">
        <ele>66</ele>
        <time>2022-02-02T15:27:52.527Z</time>
      </trkpt>
      <trkpt lat="48.84497" lon="2.34912">
        <ele>66</ele>
        <time>2022-02-02T15:27:57.526Z</time>
      </trkpt>
      <trkpt lat="48.84499" lon="2.34919">
        <ele>66</ele>
        <time>2022-02-02T15:28:02.518Z</time>
      </trkpt>
      <trkpt lat="48.84501" lon="2.34926">
        <ele>66</ele>
        <time>2022-02-02T15:28:07.524Z</time>
      </trkpt>
      <trkpt lat="48.84503" lon="2.34932">
        <ele>67</ele>
        <time>2022-02-02T15:28:12.522Z</time>
      </trkpt>
      <trkpt lat="48.84505" lon="2.3494">
        <ele>67</ele>
        <time>2022-02-02T15:28:16.523Z</time>
      </trkpt>
      <trkpt lat="48.84508" lon="2.34949">
        <ele>67</ele>
        <time>2022-02-02T15:28:20.522Z</time>
      </trkpt>
      <trkpt lat="48.8451" lon="2.34956">
        <ele>67</ele>
        <time>2022-02-02T15:28:25.523Z</time>
      </trkpt>
      <trkpt lat="48.8451" lon="2.34963">
        <ele>67</ele>
        <time>2022-02-02T15:28:30.512Z</time>
      </trkpt>
      <trkpt lat="48.84513" lon="2.3497">
        <ele>67</ele>
        <time>2022-02-02T15:28:35.519Z</time>
      </trkpt>
      <trkpt lat="48.84511" lon="2.3498">
        <ele>67</ele>
        <time>2022-02-02T15:28:39.521Z</time>
      </trkpt>
      <trkpt lat="48.84507" lon="2.34982">
        <ele>67</ele>
        <time>2022-02-02T15:28:44.519Z</time>
      </trkpt>
      <trkpt lat="48.84502" lon="2.34982">
        <ele>67</ele>
        <time>2022-02-02T15:28:48.523Z</time>
      </trkpt>
      <trkpt lat="48.84497" lon="2.34979">
        <ele>67</ele>
        <time>2022-02-02T15:28:53.507Z</time>
      </trkpt>
      <trkpt lat="48.84493" lon="2.34976">
        <ele>67</ele>
        <time>2022-02-02T15:28:57.513Z</time>
      </trkpt>
      <trkpt lat="48.84488" lon="2.34977">
        <ele>67</ele>
        <time>2022-02-02T15:29:02.530Z</time>
      </trkpt>
      <trkpt lat="48.84484" lon="2.34975">
        <ele>67</ele>
        <time>2022-02-02T15:29:07.519Z</time>
      </trkpt>
      <trkpt lat="48.84479" lon="2.34973">
        <ele>67</ele>
        <time>2022-02-02T15:29:11.519Z</time>
      </trkpt>
      <trkpt lat="48.84475" lon="2.34971">
        <ele>67</ele>
        <time>2022-02-02T15:29:16.520Z</time>
      </trkpt>
      <trkpt lat="48.84469" lon="2.34969">
        <ele>67</ele>
        <time>2022-02-02T15:29:20.523Z</time>
      </trkpt>
      <trkpt lat="48.84463" lon="2.34969">
        <ele>67</ele>
        <time>2022-02-02T15:29:25.526Z</time>
      </trkpt>
      <trkpt lat="48.84459" lon="2.34967">
        <ele>67</ele>
        <time>2022-02-02T15:29:30.524Z</time>
      </trkpt>
      <trkpt lat="48.84456" lon="2.34966">
        <ele>66</ele>
        <time>2022-02-02T15:29:34.521Z</time>
      </trkpt>
      <trkpt lat="48.8445" lon="2.34967">
        <ele>66</ele>
        <time>2022-02-02T15:29:38.519Z</time>
      </trkpt>
      <trkpt lat="48.84445" lon="2.34968">
        <ele>66</ele>
        <time>2022-02-02T15:29:43.526Z</time>
      </trkpt>
      <trkpt lat="48.84442" lon="2.34974">
        <ele>66</ele>
        <time>2022-02-02T15:29:47.528Z</time>
      </trkpt>
      <trkpt lat="48.8444" lon="2.3498">
        <ele>66</ele>
        <time>2022-02-02T15:29:52.522Z</time>
      </trkpt>
      <trkpt lat="48.84439" lon="2.34985">
        <ele>66</ele>
        <time>2022-02-02T15:29:57.518Z</time>
      </trkpt>
      <trkpt lat="48.84435" lon="2.34989">
        <ele>65</ele>
        <time>2022-02-02T15:30:02.522Z</time>
      </trkpt>
      <trkpt lat="48.84434" lon="2.34997">
        <ele>65</ele>
        <time>2022-02-02T15:30:07.521Z</time>
      </trkpt>
      <trkpt lat="48.84434" lon="2.35003">
        <ele>65</ele>
        <time>2022-02-02T15:30:11.517Z</time>
      </trkpt>
      <trkpt lat="48.84432" lon="2.3501">
        <ele>65</ele>
        <time>2022-02-02T15:30:15.537Z</time>
      </trkpt>
      <trkpt lat="48.84429" lon="2.35015">
        <ele>63</ele>
        <time>2022-02-02T15:30:20.526Z</time>
      </trkpt>
      <trkpt lat="48.84426" lon="2.3502">
        <ele>63</ele>
        <time>2022-02-02T15:30:25.516Z</time>
      </trkpt>
      <trkpt lat="48.8442" lon="2.35024">
        <ele>63</ele>
        <time>2022-02-02T15:30:29.525Z</time>
      </trkpt>
      <trkpt lat="48.84416" lon="2.35031">
        <ele>63</ele>
        <time>2022-02-02T15:30:33.530Z</time>
      </trkpt>
      <trkpt lat="48.84413" lon="2.35039">
        <ele>63</ele>
        <time>2022-02-02T15:30:38.519Z</time>
      </trkpt>
      <trkpt lat="48.8441" lon="2.35047">
        <ele>64</ele>
        <time>2022-02-02T15:30:42.530Z</time>
      </trkpt>
      <trkpt lat="48.84408" lon="2.35057">
        <ele>64</ele>
        <time>2022-02-02T15:30:46.522Z</time>
      </trkpt>
      <trkpt lat="48.84406" lon="2.35066">
        <ele>64</ele>
        <time>2022-02-02T15:30:51.525Z</time>
      </trkpt>
      <trkpt lat="48.84405" lon="2.35074">
        <ele>64</ele>
        <time>2022-02-02T15:30:56.526Z</time>
      </trkpt>
      <trkpt lat="48.84403" lon="2.35082">
        <ele>64</ele>
        <time>2022-02-02T15:31:01.523Z</time>
      </trkpt>
      <trkpt lat="48.84401" lon="2.35089">
        <ele>62</ele>
        <time>2022-02-02T15:31:06.518Z</time>
      </trkpt>
      <trkpt lat="48.844" lon="2.35097">
        <ele>62</ele>
        <time>2022-02-02T15:31:10.525Z</time>
      </trkpt>
      <trkpt lat="48.84398" lon="2.35105">
        <ele>62</ele>
        <time>2022-02-02T15:31:15.524Z</time>
      </trkpt>
      <trkpt lat="48.84396" lon="2.35114">
        <ele>62</ele>
        <time>2022-02-02T15:31:20.527Z</time>
      </trkpt>
      <trkpt lat="48.84395" lon="2.35121">
        <ele>62</ele>
        <time>2022-02-02T15:31:25.514Z</time>
      </trkpt>
      <trkpt lat="48.84392" lon="2.3513">
        <ele>62</ele>
        <time>2022-02-02T15:31:29.514Z</time>
      </trkpt>
      <trkpt lat="48.8439" lon="2.3514">
        <ele>62</ele>
        <time>2022-02-02T15:31:34.527Z</time>
      </trkpt>
      <trkpt lat="48.84389" lon="2.35148">
        <ele>62</ele>
        <time>2022-02-02T15:31:39.513Z</time>
      </trkpt>
      <trkpt lat="48.84388" lon="2.35155">
        <ele>62</ele>
        <time>2022-02-02T15:31:43.516Z</time>
      </trkpt>
      <trkpt lat="48.84387" lon="2.35165">
        <ele>62</ele>
        <time>2022-02-02T15:31:47.525Z</time>
      </trkpt>
      <trkpt lat="48.84385" lon="2.35172">
        <ele>62</ele>
        <time>2022-02-02T15:31:52.527Z</time>
      </trkpt>
      <trkpt lat="48.84384" lon="2.35178">
        <ele>62</ele>
        <time>2022-02-02T15:31:57.520Z</time>
      </trkpt>
      <trkpt lat="48.84383" lon="2.35185">
        <ele>62</ele>
        <time>2022-02-02T15:32:01.524Z</time>
      </trkpt>
      <trkpt lat="48.84379" lon="2.35191">
        <ele>62</ele>
        <time>2022-02-02T15:32:06.535Z</time>
      </trkpt>
      <trkpt lat="48.84382" lon="2.35202">
        <ele>62</ele>
        <time>2022-02-02T15:32:11.529Z</time>
      </trkpt>
      <trkpt lat="48.84386" lon="2.35209">
        <ele>61</ele>
        <time>2022-02-02T15:32:15.521Z</time>
      </trkpt>
      <trkpt lat="48.84386" lon="2.35211">
        <ele>61</ele>
        <time>2022-02-02T15:32:20.527Z</time>
      </trkpt>
      <trkpt lat="48.84386" lon="2.35212">
        <ele>61</ele>
        <time>2022-02-02T15:32:24.524Z</time>
      </trkpt>
      <trkpt lat="48.84387" lon="2.35213">
        <ele>61</ele>
        <time>2022-02-02T15:32:28.546Z</time>
      </trkpt>
      <trkpt lat="48.84387" lon="2.35215">
        <ele>61</ele>
        <time>2022-02-02T15:32:33.530Z</time>
      </trkpt>
      <trkpt lat="48.84387" lon="2.35215">
        <ele>61</ele>
        <time>2022-02-02T15:32:37.530Z</time>
      </trkpt>
      <trkpt lat="48.84386" lon="2.35216">
        <ele>61</ele>
        <time>2022-02-02T15:32:41.530Z</time>
      </trkpt>
      <trkpt lat="48.84382" lon="2.35216">
        <ele>61</ele>
        <time>2022-02-02T15:32:46.530Z</time>
      </trkpt>
      <trkpt lat="48.84376" lon="2.35224">
        <ele>61</ele>
        <time>2022-02-02T15:32:50.526Z</time>
      </trkpt>
      <trkpt lat="48.84372" lon="2.3523">
        <ele>62</ele>
        <time>2022-02-02T15:32:55.530Z</time>
      </trkpt>
      <trkpt lat="48.8437" lon="2.35238">
        <ele>61</ele>
        <time>2022-02-02T15:33:00.532Z</time>
      </trkpt>
      <trkpt lat="48.84366" lon="2.35246">
        <ele>61</ele>
        <time>2022-02-02T15:33:05.523Z</time>
      </trkpt>
      <trkpt lat="48.84365" lon="2.35254">
        <ele>61</ele>
        <time>2022-02-02T15:33:09.521Z</time>
      </trkpt>
      <trkpt lat="48.84364" lon="2.35264">
        <ele>61</ele>
        <time>2022-02-02T15:33:14.519Z</time>
      </trkpt>
      <trkpt lat="48.84365" lon="2.35271">
        <ele>59</ele>
        <time>2022-02-02T15:33:18.521Z</time>
      </trkpt>
      <trkpt lat="48.84366" lon="2.35278">
        <ele>59</ele>
        <time>2022-02-02T15:33:23.529Z</time>
      </trkpt>
      <trkpt lat="48.84366" lon="2.35287">
        <ele>59</ele>
        <time>2022-02-02T15:33:28.527Z</time>
      </trkpt>
      <trkpt lat="48.84363" lon="2.35298">
        <ele>58</ele>
        <time>2022-02-02T15:33:33.522Z</time>
      </trkpt>
      <trkpt lat="48.84361" lon="2.35312">
        <ele>58</ele>
        <time>2022-02-02T15:33:37.531Z</time>
      </trkpt>
      <trkpt lat="48.8436" lon="2.35322">
        <ele>59</ele>
        <time>2022-02-02T15:33:42.524Z</time>
      </trkpt>
      <trkpt lat="48.84361" lon="2.35329">
        <ele>59</ele>
        <time>2022-02-02T15:33:46.527Z</time>
      </trkpt>
      <trkpt lat="48.84359" lon="2.35338">
        <ele>59</ele>
        <time>2022-02-02T15:33:51.526Z</time>
      </trkpt>
      <trkpt lat="48.84358" lon="2.35345">
        <ele>59</ele>
        <time>2022-02-02T15:33:56.524Z</time>
      </trkpt>
      <trkpt lat="48.84363" lon="2.35352">
        <ele>59</ele>
        <time>2022-02-02T15:34:00.522Z</time>
      </trkpt>
      <trkpt lat="48.84366" lon="2.35358">
        <ele>59</ele>
        <time>2022-02-02T15:34:19.516Z</time>
      </trkpt>
      <trkpt lat="48.84362" lon="2.35367">
        <ele>59</ele>
        <time>2022-02-02T15:34:24.526Z</time>
      </trkpt>
      <trkpt lat="48.84362" lon="2.35376">
        <ele>58</ele>
        <time>2022-02-02T15:34:28.521Z</time>
      </trkpt>
      <trkpt lat="48.84361" lon="2.35383">
        <ele>58</ele>
        <time>2022-02-02T15:34:33.520Z</time>
      </trkpt>
      <trkpt lat="48.84359" lon="2.35389">
        <ele>58</ele>
        <time>2022-02-02T15:34:38.513Z</time>
      </trkpt>
      <trkpt lat="48.84358" lon="2.35398">
        <ele>58</ele>
        <time>2022-02-02T15:34:42.530Z</time>
      </trkpt>
      <trkpt lat="48.8436" lon="2.35405">
        <ele>56</ele>
        <time>2022-02-02T15:34:46.529Z</time>
      </trkpt>
      <trkpt lat="48.84361" lon="2.35415">
        <ele>56</ele>
        <time>2022-02-02T15:34:51.527Z</time>
      </trkpt>
      <trkpt lat="48.8436" lon="2.35423">
        <ele>56</ele>
        <time>2022-02-02T15:34:55.530Z</time>
      </trkpt>
      <trkpt lat="48.84359" lon="2.35431">
        <ele>53</ele>
        <time>2022-02-02T15:35:00.526Z</time>
      </trkpt>
      <trkpt lat="48.84358" lon="2.3544">
        <ele>53</ele>
        <time>2022-02-02T15:35:05.524Z</time>
      </trkpt>
      <trkpt lat="48.84357" lon="2.35447">
        <ele>53</ele>
        <time>2022-02-02T15:35:10.517Z</time>
      </trkpt>
      <trkpt lat="48.84356" lon="2.35457">
        <ele>53</ele>
        <time>2022-02-02T15:35:15.519Z</time>
      </trkpt>
      <trkpt lat="48.84356" lon="2.35468">
        <ele>53</ele>
        <time>2022-02-02T15:35:20.523Z</time>
      </trkpt>
      <trkpt lat="48.84359" lon="2.35475">
        <ele>53</ele>
        <time>2022-02-02T15:35:24.528Z</time>
      </trkpt>
      <trkpt lat="48.84366" lon="2.35476">
        <ele>53</ele>
        <time>2022-02-02T15:35:29.518Z</time>
      </trkpt>
      <trkpt lat="48.84373" lon="2.35476">
        <ele>53</ele>
        <time>2022-02-02T15:35:33.522Z</time>
      </trkpt>
      <trkpt lat="48.8438" lon="2.35477">
        <ele>51</ele>
        <time>2022-02-02T15:35:37.522Z</time>
      </trkpt>
      <trkpt lat="48.84385" lon="2.35477">
        <ele>51</ele>
        <time>2022-02-02T15:35:42.528Z</time>
      </trkpt>
      <trkpt lat="48.84392" lon="2.35477">
        <ele>51</ele>
        <time>2022-02-02T15:35:47.515Z</time>
      </trkpt>
      <trkpt lat="48.84397" lon="2.35475">
        <ele>51</ele>
        <time>2022-02-02T15:35:51.528Z</time>
      </trkpt>
      <trkpt lat="48.84402" lon="2.35476">
        <ele>51</ele>
        <time>2022-02-02T15:35:56.518Z</time>
      </trkpt>
      <trkpt lat="48.84408" lon="2.35477">
        <ele>50</ele>
        <time>2022-02-02T15:36:00.535Z</time>
      </trkpt>
      <trkpt lat="48.84415" lon="2.35475">
        <ele>50</ele>
        <time>2022-02-02T15:36:05.514Z</time>
      </trkpt>
      <trkpt lat="48.8442" lon="2.35475">
        <ele>50</ele>
        <time>2022-02-02T15:36:10.518Z</time>
      </trkpt>
      <trkpt lat="48.84425" lon="2.35477">
        <ele>50</ele>
        <time>2022-02-02T15:36:14.522Z</time>
      </trkpt>
      <trkpt lat="48.84431" lon="2.35476">
        <ele>48</ele>
        <time>2022-02-02T15:36:19.522Z</time>
      </trkpt>
      <trkpt lat="48.84436" lon="2.35474">
        <ele>48</ele>
        <time>2022-02-02T15:36:23.524Z</time>
      </trkpt>
      <trkpt lat="48.84444" lon="2.35473">
        <ele>48</ele>
        <time>2022-02-02T15:36:28.526Z</time>
      </trkpt>
      <trkpt lat="48.84448" lon="2.35473">
        <ele>48</ele>
        <time>2022-02-02T15:36:33.526Z</time>
      </trkpt>
      <trkpt lat="48.84455" lon="2.35472">
        <ele>48</ele>
        <time>2022-02-02T15:36:37.522Z</time>
      </trkpt>
      <trkpt lat="48.8446" lon="2.35471">
        <ele>49</ele>
        <time>2022-02-02T15:36:42.519Z</time>
      </trkpt>
      <trkpt lat="48.84467" lon="2.35467">
        <ele>49</ele>
        <time>2022-02-02T15:36:47.516Z</time>
      </trkpt>
      <trkpt lat="48.84467" lon="2.35463">
        <ele>49</ele>
        <time>2022-02-02T15:36:51.534Z</time>
      </trkpt>
      <trkpt lat="48.84473" lon="2.35464">
        <ele>49</ele>
        <time>2022-02-02T15:36:56.521Z</time>
      </trkpt>
      <trkpt lat="48.84479" lon="2.35463">
        <ele>49</ele>
        <time>2022-02-02T15:37:01.527Z</time>
      </trkpt>
      <trkpt lat="48.84486" lon="2.35462">
        <ele>51</ele>
        <time>2022-02-02T15:37:06.531Z</time>
      </trkpt>
      <trkpt lat="48.84494" lon="2.35462">
        <ele>51</ele>
        <time>2022-02-02T15:37:10.527Z</time>
      </trkpt>
      <trkpt lat="48.845" lon="2.3546">
        <ele>51</ele>
        <time>2022-02-02T15:37:15.528Z</time>
      </trkpt>
      <trkpt lat="48.84507" lon="2.35458">
        <ele>51</ele>
        <time>2022-02-02T15:37:19.522Z</time>
      </trkpt>
      <trkpt lat="48.84512" lon="2.35458">
        <ele>52</ele>
        <time>2022-02-02T15:37:24.519Z</time>
      </trkpt>
      <trkpt lat="48.84518" lon="2.35458">
        <ele>51</ele>
        <time>2022-02-02T15:37:28.521Z</time>
      </trkpt>
      <trkpt lat="48.84523" lon="2.35458">
        <ele>51</ele>
        <time>2022-02-02T15:37:32.518Z</time>
      </trkpt>
      <trkpt lat="48.84528" lon="2.35457">
        <ele>51</ele>
        <time>2022-02-02T15:37:37.527Z</time>
      </trkpt>
      <trkpt lat="48.84532" lon="2.35455">
        <ele>51</ele>
        <time>2022-02-02T15:37:42.527Z</time>
      </trkpt>
      <trkpt lat="48.84538" lon="2.35454">
        <ele>51</ele>
        <time>2022-02-02T15:37:47.531Z</time>
      </trkpt>
      <trkpt lat="48.84544" lon="2.35455">
        <ele>49</ele>
        <time>2022-02-02T15:37:52.522Z</time>
      </trkpt>
      <trkpt lat="48.8455" lon="2.35453">
        <ele>49</ele>
        <time>2022-02-02T15:37:57.529Z</time>
      </trkpt>
      <trkpt lat="48.84557" lon="2.35453">
        <ele>49</ele>
        <time>2022-02-02T15:38:02.518Z</time>
      </trkpt>
      <trkpt lat="48.84564" lon="2.35453">
        <ele>49</ele>
        <time>2022-02-02T15:38:07.536Z</time>
      </trkpt>
      <trkpt lat="48.84571" lon="2.35453">
        <ele>47</ele>
        <time>2022-02-02T15:38:12.518Z</time>
      </trkpt>
      <trkpt lat="48.84577" lon="2.35451">
        <ele>47</ele>
        <time>2022-02-02T15:38:16.526Z</time>
      </trkpt>
      <trkpt lat="48.84583" lon="2.35451">
        <ele>47</ele>
        <time>2022-02-02T15:38:21.519Z</time>
      </trkpt>
      <trkpt lat="48.8459" lon="2.35451">
        <ele>47</ele>
        <time>2022-02-02T15:38:26.526Z</time>
      </trkpt>
      <trkpt lat="48.84596" lon="2.35451">
        <ele>47</ele>
        <time>2022-02-02T15:38:31.528Z</time>
      </trkpt>
      <trkpt lat="48.84601" lon="2.35451">
        <ele>48</ele>
        <time>2022-02-02T15:38:35.519Z</time>
      </trkpt>
      <trkpt lat="48.84603" lon="2.35455">
        <ele>48</ele>
        <time>2022-02-02T15:38:40.524Z</time>
      </trkpt>
      <trkpt lat="48.84607" lon="2.35463">
        <ele>50</ele>
        <time>2022-02-02T15:38:45.515Z</time>
      </trkpt>
      <trkpt lat="48.84613" lon="2.35468">
        <ele>50</ele>
        <time>2022-02-02T15:38:49.529Z</time>
      </trkpt>
      <trkpt lat="48.84618" lon="2.35468">
        <ele>50</ele>
        <time>2022-02-02T15:38:53.531Z</time>
      </trkpt>
      <trkpt lat="48.84624" lon="2.35469">
        <ele>50</ele>
        <time>2022-02-02T15:38:58.520Z</time>
      </trkpt>
      <trkpt lat="48.8463" lon="2.35465">
        <ele>49</ele>
        <time>2022-02-02T15:39:03.518Z</time>
      </trkpt>
      <trkpt lat="48.84635" lon="2.35458">
        <ele>46</ele>
        <time>2022-02-02T15:39:07.524Z</time>
      </trkpt>
      <trkpt lat="48.84642" lon="2.35457">
        <ele>46</ele>
        <time>2022-02-02T15:39:12.518Z</time>
      </trkpt>
      <trkpt lat="48.84647" lon="2.35457">
        <ele>46</ele>
        <time>2022-02-02T15:39:17.524Z</time>
      </trkpt>
      <trkpt lat="48.84654" lon="2.35457">
        <ele>42</ele>
        <time>2022-02-02T15:39:21.525Z</time>
      </trkpt>
      <trkpt lat="48.84659" lon="2.35457">
        <ele>42</ele>
        <time>2022-02-02T15:39:26.526Z</time>
      </trkpt>
      <trkpt lat="48.84665" lon="2.35451">
        <ele>42</ele>
        <time>2022-02-02T15:39:31.520Z</time>
      </trkpt>
      <trkpt lat="48.8467" lon="2.35448">
        <ele>42</ele>
        <time>2022-02-02T15:39:36.533Z</time>
      </trkpt>
      <trkpt lat="48.84676" lon="2.35442">
        <ele>42</ele>
        <time>2022-02-02T15:39:41.522Z</time>
      </trkpt>
      <trkpt lat="48.84677" lon="2.35436">
        <ele>42</ele>
        <time>2022-02-02T15:39:51.517Z</time>
      </trkpt>
      <trkpt lat="48.8468" lon="2.35432">
        <ele>42</ele>
        <time>2022-02-02T15:39:56.516Z</time>
      </trkpt>
      <trkpt lat="48.84684" lon="2.35427">
        <ele>39</ele>
        <time>2022-02-02T15:40:00.517Z</time>
      </trkpt>
      <trkpt lat="48.84688" lon="2.35422">
        <ele>39</ele>
        <time>2022-02-02T15:40:04.523Z</time>
      </trkpt>
      <trkpt lat="48.84692" lon="2.35418">
        <ele>39</ele>
        <time>2022-02-02T15:40:09.520Z</time>
      </trkpt>
      <trkpt lat="48.84696" lon="2.35413">
        <ele>39</ele>
        <time>2022-02-02T15:40:14.520Z</time>
      </trkpt>
      <trkpt lat="48.84701" lon="2.35409">
        <ele>39</ele>
        <time>2022-02-02T15:40:18.528Z</time>
      </trkpt>
      <trkpt lat="48.84706" lon="2.35406">
        <ele>39</ele>
        <time>2022-02-02T15:40:23.518Z</time>
      </trkpt>
      <trkpt lat="48.8471" lon="2.35403">
        <ele>38</ele>
        <time>2022-02-02T15:40:27.519Z</time>
      </trkpt>
      <trkpt lat="48.84714" lon="2.35397">
        <ele>39</ele>
        <time>2022-02-02T15:40:32.517Z</time>
      </trkpt>
      <trkpt lat="48.84717" lon="2.3539">
        <ele>39</ele>
        <time>2022-02-02T15:40:36.533Z</time>
      </trkpt>
      <trkpt lat="48.8472" lon="2.35382">
        <ele>39</ele>
        <time>2022-02-02T15:40:40.525Z</time>
      </trkpt>
      <trkpt lat="48.84723" lon="2.35377">
        <ele>39</ele>
        <time>2022-02-02T15:40:45.516Z</time>
      </trkpt>
      <trkpt lat="48.84727" lon="2.3537">
        <ele>37</ele>
        <time>2022-02-02T15:40:50.518Z</time>
      </trkpt>
      <trkpt lat="48.8473" lon="2.35369">
        <ele>37</ele>
        <time>2022-02-02T15:40:55.515Z</time>
      </trkpt>
      <trkpt lat="48.84737" lon="2.35368">
        <ele>36</ele>
        <time>2022-02-02T15:41:00.520Z</time>
      </trkpt>
      <trkpt lat="48.84742" lon="2.35367">
        <ele>36</ele>
        <time>2022-02-02T15:41:04.520Z</time>
      </trkpt>
      <trkpt lat="48.84746" lon="2.35368">
        <ele>36</ele>
        <time>2022-02-02T15:41:09.528Z</time>
      </trkpt>
      <trkpt lat="48.8475" lon="2.35373">
        <ele>36</ele>
        <time>2022-02-02T15:41:13.517Z</time>
      </trkpt>
      <trkpt lat="48.84753" lon="2.35378">
        <ele>36</ele>
        <time>2022-02-02T15:41:18.518Z</time>
      </trkpt>
      <trkpt lat="48.84757" lon="2.35384">
        <ele>36</ele>
        <time>2022-02-02T15:41:23.520Z</time>
      </trkpt>
      <trkpt lat="48.8476" lon="2.3539">
        <ele>36</ele>
        <time>2022-02-02T15:41:27.536Z</time>
      </trkpt>
      <trkpt lat="48.84764" lon="2.35397">
        <ele>37</ele>
        <time>2022-02-02T15:41:32.520Z</time>
      </trkpt>
      <trkpt lat="48.84769" lon="2.35403">
        <ele>36</ele>
        <time>2022-02-02T15:41:36.525Z</time>
      </trkpt>
      <trkpt lat="48.84773" lon="2.35411">
        <ele>36</ele>
        <time>2022-02-02T15:41:40.537Z</time>
      </trkpt>
      <trkpt lat="48.84777" lon="2.35417">
        <ele>36</ele>
        <time>2022-02-02T15:41:45.524Z</time>
      </trkpt>
      <trkpt lat="48.84781" lon="2.3542">
        <ele>36</ele>
        <time>2022-02-02T15:41:49.527Z</time>
      </trkpt>
      <trkpt lat="48.84786" lon="2.35425">
        <ele>36</ele>
        <time>2022-02-02T15:41:54.519Z</time>
      </trkpt>
      <trkpt lat="48.84791" lon="2.35431">
        <ele>36</ele>
        <time>2022-02-02T15:41:58.529Z</time>
      </trkpt>
      <trkpt lat="48.84796" lon="2.35436">
        <ele>38</ele>
        <time>2022-02-02T15:42:03.520Z</time>
      </trkpt>
      <trkpt lat="48.84801" lon="2.35441">
        <ele>38</ele>
        <time>2022-02-02T15:42:08.516Z</time>
      </trkpt>
      <trkpt lat="48.84805" lon="2.35446">
        <ele>38</ele>
        <time>2022-02-02T15:42:12.519Z</time>
      </trkpt>
      <trkpt lat="48.84811" lon="2.35452">
        <ele>38</ele>
        <time>2022-02-02T15:42:17.518Z</time>
      </trkpt>
      <trkpt lat="48.84816" lon="2.35457">
        <ele>38</ele>
        <time>2022-02-02T15:42:22.522Z</time>
      </trkpt>
      <trkpt lat="48.8482" lon="2.35463">
        <ele>42</ele>
        <time>2022-02-02T15:42:26.527Z</time>
      </trkpt>
      <trkpt lat="48.84825" lon="2.35469">
        <ele>42</ele>
        <time>2022-02-02T15:42:31.525Z</time>
      </trkpt>
      <trkpt lat="48.84828" lon="2.35474">
        <ele>42</ele>
        <time>2022-02-02T15:42:36.527Z</time>
      </trkpt>
      <trkpt lat="48.84833" lon="2.35481">
        <ele>42</ele>
        <time>2022-02-02T15:42:41.524Z</time>
      </trkpt>
      <trkpt lat="48.84839" lon="2.35484">
        <ele>42</ele>
        <time>2022-02-02T15:42:45.530Z</time>
      </trkpt>
      <trkpt lat="48.84844" lon="2.35491">
        <ele>40</ele>
        <time>2022-02-02T15:42:50.521Z</time>
      </trkpt>
      <trkpt lat="48.84848" lon="2.35495">
        <ele>41</ele>
        <time>2022-02-02T15:42:55.525Z</time>
      </trkpt>
      <trkpt lat="48.84853" lon="2.35499">
        <ele>41</ele>
        <time>2022-02-02T15:43:00.517Z</time>
      </trkpt>
      <trkpt lat="48.84858" lon="2.35506">
        <ele>41</ele>
        <time>2022-02-02T15:43:05.526Z</time>
      </trkpt>
      <trkpt lat="48.84862" lon="2.35512">
        <ele>41</ele>
        <time>2022-02-02T15:43:10.520Z</time>
      </trkpt>
      <trkpt lat="48.84866" lon="2.35521">
        <ele>38</ele>
        <time>2022-02-02T15:43:15.528Z</time>
      </trkpt>
      <trkpt lat="48.8487" lon="2.35528">
        <ele>38</ele>
        <time>2022-02-02T15:43:20.526Z</time>
      </trkpt>
      <trkpt lat="48.84874" lon="2.35533">
        <ele>38</ele>
        <time>2022-02-02T15:43:25.518Z</time>
      </trkpt>
      <trkpt lat="48.84878" lon="2.35539">
        <ele>39</ele>
        <time>2022-02-02T15:43:29.523Z</time>
      </trkpt>
      <trkpt lat="48.84882" lon="2.35547">
        <ele>37</ele>
        <time>2022-02-02T15:43:34.522Z</time>
      </trkpt>
      <trkpt lat="48.84886" lon="2.35553">
        <ele>37</ele>
        <time>2022-02-02T15:43:38.529Z</time>
      </trkpt>
      <trkpt lat="48.84891" lon="2.3556">
        <ele>37</ele>
        <time>2022-02-02T15:43:43.521Z</time>
      </trkpt>
      <trkpt lat="48.84895" lon="2.35565">
        <ele>37</ele>
        <time>2022-02-02T15:43:48.529Z</time>
      </trkpt>
      <trkpt lat="48.849" lon="2.35571">
        <ele>34</ele>
        <time>2022-02-02T15:43:53.529Z</time>
      </trkpt>
      <trkpt lat="48.84904" lon="2.35578">
        <ele>35</ele>
        <time>2022-02-02T15:43:58.525Z</time>
      </trkpt>
      <trkpt lat="48.84909" lon="2.35586">
        <ele>35</ele>
        <time>2022-02-02T15:44:02.529Z</time>
      </trkpt>
      <trkpt lat="48.84912" lon="2.35592">
        <ele>35</ele>
        <time>2022-02-02T15:44:07.519Z</time>
      </trkpt>
      <trkpt lat="48.84916" lon="2.35599">
        <ele>34</ele>
        <time>2022-02-02T15:44:12.527Z</time>
      </trkpt>
      <trkpt lat="48.8492" lon="2.35606">
        <ele>34</ele>
        <time>2022-02-02T15:44:17.525Z</time>
      </trkpt>
      <trkpt lat="48.84923" lon="2.35614">
        <ele>34</ele>
        <time>2022-02-02T15:44:22.518Z</time>
      </trkpt>
      <trkpt lat="48.84927" lon="2.35623">
        <ele>34</ele>
        <time>2022-02-02T15:44:27.523Z</time>
      </trkpt>
      <trkpt lat="48.84929" lon="2.35629">
        <ele>32</ele>
        <time>2022-02-02T15:44:31.522Z</time>
      </trkpt>
      <trkpt lat="48.84928" lon="2.35637">
        <ele>32</ele>
        <time>2022-02-02T15:44:36.522Z</time>
      </trkpt>
      <trkpt lat="48.84928" lon="2.35645">
        <ele>32</ele>
        <time>2022-02-02T15:44:40.523Z</time>
      </trkpt>
      <trkpt lat="48.84928" lon="2.35652">
        <ele>32</ele>
        <time>2022-02-02T15:44:44.522Z</time>
      </trkpt>
      <trkpt lat="48.84928" lon="2.35661">
        <ele>32</ele>
        <time>2022-02-02T15:44:48.527Z</time>
      </trkpt>
      <trkpt lat="48.84928" lon="2.3567">
        <ele>32</ele>
        <time>2022-02-02T15:44:53.519Z</time>
      </trkpt>
      <trkpt lat="48.84928" lon="2.35678">
        <ele>32</ele>
        <time>2022-02-02T15:44:58.522Z</time>
      </trkpt>
      <trkpt lat="48.84935" lon="2.35698">
        <ele>31</ele>
        <time>2022-02-02T15:45:03.517Z</time>
      </trkpt>
      <trkpt lat="48.84935" lon="2.35698">
        <ele>31</ele>
        <time>2022-02-02T15:45:08.520Z</time>
      </trkpt>
      <trkpt lat="48.84935" lon="2.35698">
        <ele>31</ele>
        <time>2022-02-02T15:45:13.525Z</time>
      </trkpt>
      <trkpt lat="48.84935" lon="2.35698">
        <ele>31</ele>
        <time>2022-02-02T15:45:18.526Z</time>
      </trkpt>
      <trkpt lat="48.84936" lon="2.357">
        <ele>31</ele>
        <time>2022-02-02T15:45:23.525Z</time>
      </trkpt>
      <trkpt lat="48.84939" lon="2.35706">
        <ele>31</ele>
        <time>2022-02-02T15:45:28.523Z</time>
      </trkpt>
      <trkpt lat="48.84943" lon="2.35711">
        <ele>29</ele>
        <time>2022-02-02T15:45:33.528Z</time>
      </trkpt>
      <trkpt lat="48.84946" lon="2.35717">
        <ele>29</ele>
        <time>2022-02-02T15:45:38.512Z</time>
      </trkpt>
      <trkpt lat="48.84949" lon="2.35726">
        <ele>29</ele>
        <time>2022-02-02T15:45:42.521Z</time>
      </trkpt>
      <trkpt lat="48.84951" lon="2.35733">
        <ele>29</ele>
        <time>2022-02-02T15:45:46.527Z</time>
      </trkpt>
      <trkpt lat="48.84952" lon="2.3574">
        <ele>28</ele>
        <time>2022-02-02T15:45:51.531Z</time>
      </trkpt>
      <trkpt lat="48.84955" lon="2.35748">
        <ele>28</ele>
        <time>2022-02-02T15:45:56.522Z</time>
      </trkpt>
      <trkpt lat="48.84957" lon="2.35755">
        <ele>28</ele>
        <time>2022-02-02T15:46:00.524Z</time>
      </trkpt>
      <trkpt lat="48.84959" lon="2.35762">
        <ele>28</ele>
        <time>2022-02-02T15:46:05.523Z</time>
      </trkpt>
      <trkpt lat="48.84962" lon="2.3577">
        <ele>31</ele>
        <time>2022-02-02T15:46:10.528Z</time>
      </trkpt>
      <trkpt lat="48.84963" lon="2.35777">
        <ele>31</ele>
        <time>2022-02-02T15:46:15.527Z</time>
      </trkpt>
      <trkpt lat="48.84966" lon="2.35785">
        <ele>31</ele>
        <time>2022-02-02T15:46:20.522Z</time>
      </trkpt>
      <trkpt lat="48.84968" lon="2.35792">
        <ele>37</ele>
        <time>2022-02-02T15:46:24.529Z</time>
      </trkpt>
      <trkpt lat="48.84971" lon="2.35799">
        <ele>37</ele>
        <time>2022-02-02T15:46:29.535Z</time>
      </trkpt>
      <trkpt lat="48.84974" lon="2.35808">
        <ele>37</ele>
        <time>2022-02-02T15:46:33.532Z</time>
      </trkpt>
      <trkpt lat="48.84976" lon="2.35816">
        <ele>37</ele>
        <time>2022-02-02T15:46:38.523Z</time>
      </trkpt>
      <trkpt lat="48.84979" lon="2.35825">
        <ele>38</ele>
        <time>2022-02-02T15:46:42.530Z</time>
      </trkpt>
      <trkpt lat="48.84982" lon="2.35833">
        <ele>38</ele>
        <time>2022-02-02T15:46:47.519Z</time>
      </trkpt>
      <trkpt lat="48.84985" lon="2.3584">
        <ele>38</ele>
        <time>2022-02-02T15:46:51.524Z</time>
      </trkpt>
      <trkpt lat="48.84987" lon="2.35847">
        <ele>41</ele>
        <time>2022-02-02T15:46:56.528Z</time>
      </trkpt>
      <trkpt lat="48.84989" lon="2.35854">
        <ele>41</ele>
        <time>2022-02-02T15:47:01.528Z</time>
      </trkpt>
      <trkpt lat="48.84992" lon="2.35863">
        <ele>41</ele>
        <time>2022-02-02T15:47:06.515Z</time>
      </trkpt>
      <trkpt lat="48.84995" lon="2.35872">
        <ele>41</ele>
        <time>2022-02-02T15:47:10.528Z</time>
      </trkpt>
      <trkpt lat="48.84998" lon="2.3588">
        <ele>43</ele>
        <time>2022-02-02T15:47:15.528Z</time>
      </trkpt>
      <trkpt lat="48.85004" lon="2.35908">
        <ele>43</ele>
        <time>2022-02-02T15:47:20.534Z</time>
      </trkpt>
      <trkpt lat="48.85004" lon="2.35908">
        <ele>43</ele>
        <time>2022-02-02T15:47:24.536Z</time>
      </trkpt>
      <trkpt lat="48.85005" lon="2.3591">
        <ele>43</ele>
        <time>2022-02-02T15:47:29.531Z</time>
      </trkpt>
      <trkpt lat="48.85009" lon="2.35917">
        <ele>43</ele>
        <time>2022-02-02T15:47:34.531Z</time>
      </trkpt>
      <trkpt lat="48.85012" lon="2.35924">
        <ele>43</ele>
        <time>2022-02-02T15:47:38.529Z</time>
      </trkpt>
      <trkpt lat="48.85015" lon="2.3593">
        <ele>47</ele>
        <time>2022-02-02T15:47:43.526Z</time>
      </trkpt>
      <trkpt lat="48.85017" lon="2.35937">
        <ele>44</ele>
        <time>2022-02-02T15:47:47.519Z</time>
      </trkpt>
      <trkpt lat="48.85019" lon="2.35942">
        <ele>44</ele>
        <time>2022-02-02T15:47:52.541Z</time>
      </trkpt>
      <trkpt lat="48.85022" lon="2.3595">
        <ele>44</ele>
        <time>2022-02-02T15:47:57.528Z</time>
      </trkpt>
      <trkpt lat="48.85024" lon="2.35958">
        <ele>44</ele>
        <time>2022-02-02T15:48:02.524Z</time>
      </trkpt>
      <trkpt lat="48.85026" lon="2.35964">
        <ele>38</ele>
        <time>2022-02-02T15:48:06.528Z</time>
      </trkpt>
      <trkpt lat="48.85028" lon="2.35972">
        <ele>38</ele>
        <time>2022-02-02T15:48:10.545Z</time>
      </trkpt>
      <trkpt lat="48.8503" lon="2.35979">
        <ele>38</ele>
        <time>2022-02-02T15:48:15.531Z</time>
      </trkpt>
      <trkpt lat="48.85032" lon="2.35986">
        <ele>35</ele>
        <time>2022-02-02T15:48:19.531Z</time>
      </trkpt>
      <trkpt lat="48.85034" lon="2.35994">
        <ele>35</ele>
        <time>2022-02-02T15:48:23.530Z</time>
      </trkpt>
      <trkpt lat="48.85037" lon="2.36004">
        <ele>35</ele>
        <time>2022-02-02T15:48:28.525Z</time>
      </trkpt>
      <trkpt lat="48.85039" lon="2.36012">
        <ele>35</ele>
        <time>2022-02-02T15:48:33.525Z</time>
      </trkpt>
      <trkpt lat="48.8504" lon="2.36018">
        <ele>35</ele>
        <time>2022-02-02T15:48:38.526Z</time>
      </trkpt>
      <trkpt lat="48.85042" lon="2.36025">
        <ele>35</ele>
        <time>2022-02-02T15:48:43.520Z</time>
      </trkpt>
      <trkpt lat="48.85045" lon="2.36033">
        <ele>35</ele>
        <time>2022-02-02T15:48:47.529Z</time>
      </trkpt>
      <trkpt lat="48.85047" lon="2.36043">
        <ele>36</ele>
        <time>2022-02-02T15:48:51.535Z</time>
      </trkpt>
      <trkpt lat="48.8505" lon="2.36053">
        <ele>36</ele>
        <time>2022-02-02T15:48:56.526Z</time>
      </trkpt>
      <trkpt lat="48.85053" lon="2.36062">
        <ele>36</ele>
        <time>2022-02-02T15:49:01.521Z</time>
      </trkpt>
      <trkpt lat="48.85055" lon="2.36072">
        <ele>38</ele>
        <time>2022-02-02T15:49:05.526Z</time>
      </trkpt>
      <trkpt lat="48.85058" lon="2.36081">
        <ele>38</ele>
        <time>2022-02-02T15:49:10.524Z</time>
      </trkpt>
      <trkpt lat="48.8506" lon="2.3609">
        <ele>38</ele>
        <time>2022-02-02T15:49:14.531Z</time>
      </trkpt>
      <trkpt lat="48.85062" lon="2.36101">
        <ele>36</ele>
        <time>2022-02-02T15:49:19.529Z</time>
      </trkpt>
      <trkpt lat="48.85065" lon="2.3611">
        <ele>36</ele>
        <time>2022-02-02T15:49:24.527Z</time>
      </trkpt>
      <trkpt lat="48.85067" lon="2.36119">
        <ele>36</ele>
        <time>2022-02-02T15:49:28.529Z</time>
      </trkpt>
      <trkpt lat="48.85069" lon="2.36128">
        <ele>34</ele>
        <time>2022-02-02T15:49:33.512Z</time>
      </trkpt>
      <trkpt lat="48.85071" lon="2.36138">
        <ele>33</ele>
        <time>2022-02-02T15:49:38.531Z</time>
      </trkpt>
      <trkpt lat="48.85069" lon="2.36146">
        <ele>33</ele>
        <time>2022-02-02T15:49:43.530Z</time>
      </trkpt>
      <trkpt lat="48.85074" lon="2.36145">
        <ele>33</ele>
        <time>2022-02-02T15:49:48.527Z</time>
      </trkpt>
      <trkpt lat="48.85074" lon="2.36144">
        <ele>33</ele>
        <time>2022-02-02T15:49:53.517Z</time>
      </trkpt>
      <trkpt lat="48.85074" lon="2.36144">
        <ele>33</ele>
        <time>2022-02-02T15:49:57.530Z</time>
      </trkpt>
      <trkpt lat="48.85074" lon="2.36145">
        <ele>33</ele>
        <time>2022-02-02T15:50:02.528Z</time>
      </trkpt>
      <trkpt lat="48.85077" lon="2.36152">
        <ele>33</ele>
        <time>2022-02-02T15:50:07.524Z</time>
      </trkpt>
      <trkpt lat="48.85074" lon="2.36159">
        <ele>34</ele>
        <time>2022-02-02T15:50:11.531Z</time>
      </trkpt>
      <trkpt lat="48.85074" lon="2.36166">
        <ele>34</ele>
        <time>2022-02-02T15:50:16.525Z</time>
      </trkpt>
      <trkpt lat="48.85075" lon="2.36174">
        <ele>34</ele>
        <time>2022-02-02T15:50:21.524Z</time>
      </trkpt>
      <trkpt lat="48.85077" lon="2.36182">
        <ele>34</ele>
        <time>2022-02-02T15:50:25.529Z</time>
      </trkpt>
      <trkpt lat="48.85078" lon="2.3619">
        <ele>34</ele>
        <time>2022-02-02T15:50:30.525Z</time>
      </trkpt>
      <trkpt lat="48.8508" lon="2.36197">
        <ele>34</ele>
        <time>2022-02-02T15:50:35.523Z</time>
      </trkpt>
      <trkpt lat="48.85084" lon="2.36204">
        <ele>34</ele>
        <time>2022-02-02T15:50:40.530Z</time>
      </trkpt>
      <trkpt lat="48.85087" lon="2.36213">
        <ele>36</ele>
        <time>2022-02-02T15:50:45.523Z</time>
      </trkpt>
      <trkpt lat="48.8509" lon="2.36222">
        <ele>36</ele>
        <time>2022-02-02T15:50:49.519Z</time>
      </trkpt>
      <trkpt lat="48.85095" lon="2.36236">
        <ele>36</ele>
        <time>2022-02-02T15:50:54.527Z</time>
      </trkpt>
      <trkpt lat="48.85091" lon="2.36239">
        <ele>39</ele>
        <time>2022-02-02T15:50:59.524Z</time>
      </trkpt>
      <trkpt lat="48.85085" lon="2.36245">
        <ele>39</ele>
        <time>2022-02-02T15:51:04.526Z</time>
      </trkpt>
      <trkpt lat="48.85081" lon="2.36251">
        <ele>39</ele>
        <time>2022-02-02T15:51:08.532Z</time>
      </trkpt>
      <trkpt lat="48.85078" lon="2.36258">
        <ele>39</ele>
        <time>2022-02-02T15:51:13.519Z</time>
      </trkpt>
      <trkpt lat="48.85076" lon="2.36262">
        <ele>39</ele>
        <time>2022-02-02T15:51:18.523Z</time>
      </trkpt>
      <trkpt lat="48.85072" lon="2.36266">
        <ele>38</ele>
        <time>2022-02-02T15:51:23.525Z</time>
      </trkpt>
      <trkpt lat="48.85067" lon="2.36271">
        <ele>37</ele>
        <time>2022-02-02T15:51:28.534Z</time>
      </trkpt>
      <trkpt lat="48.85062" lon="2.36275">
        <ele>37</ele>
        <time>2022-02-02T15:51:32.537Z</time>
      </trkpt>
      <trkpt lat="48.85057" lon="2.36279">
        <ele>37</ele>
        <time>2022-02-02T15:51:37.529Z</time>
      </trkpt>
      <trkpt lat="48.85054" lon="2.36285">
        <ele>37</ele>
        <time>2022-02-02T15:51:42.530Z</time>
      </trkpt>
      <trkpt lat="48.85049" lon="2.36292">
        <ele>37</ele>
        <time>2022-02-02T15:51:46.538Z</time>
      </trkpt>
      <trkpt lat="48.85046" lon="2.36297">
        <ele>36</ele>
        <time>2022-02-02T15:51:51.533Z</time>
      </trkpt>
      <trkpt lat="48.85041" lon="2.36304">
        <ele>34</ele>
        <time>2022-02-02T15:51:56.523Z</time>
      </trkpt>
      <trkpt lat="48.85036" lon="2.36309">
        <ele>34</ele>
        <time>2022-02-02T15:52:00.530Z</time>
      </trkpt>
      <trkpt lat="48.85032" lon="2.36312">
        <ele>34</ele>
        <time>2022-02-02T15:52:23.536Z</time>
      </trkpt>
      <trkpt lat="48.85029" lon="2.36314">
        <ele>34</ele>
        <time>2022-02-02T15:52:28.529Z</time>
      </trkpt>
      <trkpt lat="48.85022" lon="2.36315">
        <ele>34</ele>
        <time>2022-02-02T15:52:33.534Z</time>
      </trkpt>
      <trkpt lat="48.85012" lon="2.36315">
        <ele>33</ele>
        <time>2022-02-02T15:52:38.526Z</time>
      </trkpt>
      <trkpt lat="48.85006" lon="2.36316">
        <ele>33</ele>
        <time>2022-02-02T15:52:42.526Z</time>
      </trkpt>
      <trkpt lat="48.84999" lon="2.36321">
        <ele>34</ele>
        <time>2022-02-02T15:52:46.536Z</time>
      </trkpt>
      <trkpt lat="48.84993" lon="2.36326">
        <ele>34</ele>
        <time>2022-02-02T15:52:51.526Z</time>
      </trkpt>
      <trkpt lat="48.84987" lon="2.36331">
        <ele>34</ele>
        <time>2022-02-02T15:52:56.522Z</time>
      </trkpt>
      <trkpt lat="48.84983" lon="2.36335">
        <ele>36</ele>
        <time>2022-02-02T15:53:01.522Z</time>
      </trkpt>
      <trkpt lat="48.84979" lon="2.36342">
        <ele>36</ele>
        <time>2022-02-02T15:53:06.518Z</time>
      </trkpt>
      <trkpt lat="48.84974" lon="2.36347">
        <ele>36</ele>
        <time>2022-02-02T15:53:10.528Z</time>
      </trkpt>
      <trkpt lat="48.84969" lon="2.36354">
        <ele>38</ele>
        <time>2022-02-02T15:53:15.526Z</time>
      </trkpt>
      <trkpt lat="48.84966" lon="2.36361">
        <ele>38</ele>
        <time>2022-02-02T15:53:19.537Z</time>
      </trkpt>
      <trkpt lat="48.84963" lon="2.36367">
        <ele>38</ele>
        <time>2022-02-02T15:53:23.530Z</time>
      </trkpt>
      <trkpt lat="48.84958" lon="2.36376">
        <ele>42</ele>
        <time>2022-02-02T15:53:28.518Z</time>
      </trkpt>
      <trkpt lat="48.84956" lon="2.36387">
        <ele>42</ele>
        <time>2022-02-02T15:53:32.528Z</time>
      </trkpt>
      <trkpt lat="48.84959" lon="2.36402">
        <ele>40</ele>
        <time>2022-02-02T15:53:37.528Z</time>
      </trkpt>
      <trkpt lat="48.84964" lon="2.36417">
        <ele>41</ele>
        <time>2022-02-02T15:53:42.528Z</time>
      </trkpt>
      <trkpt lat="48.84968" lon="2.36428">
        <ele>41</ele>
        <time>2022-02-02T15:53:46.528Z</time>
      </trkpt>
      <trkpt lat="48.84971" lon="2.36436">
        <ele>42</ele>
        <time>2022-02-02T15:53:51.535Z</time>
      </trkpt>
      <trkpt lat="48.84976" lon="2.36443">
        <ele>42</ele>
        <time>2022-02-02T15:53:56.515Z</time>
      </trkpt>
      <trkpt lat="48.84979" lon="2.36446">
        <ele>42</ele>
        <time>2022-02-02T15:54:01.527Z</time>
      </trkpt>
      <trkpt lat="48.84979" lon="2.36452">
        <ele>42</ele>
        <time>2022-02-02T15:54:06.525Z</time>
      </trkpt>
      <trkpt lat="48.84977" lon="2.3646">
        <ele>43</ele>
        <time>2022-02-02T15:54:10.529Z</time>
      </trkpt>
      <trkpt lat="48.84974" lon="2.36467">
        <ele>43</ele>
        <time>2022-02-02T15:54:15.527Z</time>
      </trkpt>
      <trkpt lat="48.8497" lon="2.36474">
        <ele>43</ele>
        <time>2022-02-02T15:54:19.534Z</time>
      </trkpt>
      <trkpt lat="48.84969" lon="2.36484">
        <ele>43</ele>
        <time>2022-02-02T15:54:24.531Z</time>
      </trkpt>
      <trkpt lat="48.84968" lon="2.36493">
        <ele>43</ele>
        <time>2022-02-02T15:54:29.531Z</time>
      </trkpt>
      <trkpt lat="48.84968" lon="2.36501">
        <ele>43</ele>
        <time>2022-02-02T15:54:34.520Z</time>
      </trkpt>
      <trkpt lat="48.84968" lon="2.36509">
        <ele>43</ele>
        <time>2022-02-02T15:55:21.529Z</time>
      </trkpt>
      <trkpt lat="48.84966" lon="2.36512">
        <ele>43</ele>
        <time>2022-02-02T15:55:26.527Z</time>
      </trkpt>
      <trkpt lat="48.84967" lon="2.36517">
        <ele>43</ele>
        <time>2022-02-02T15:55:30.537Z</time>
      </trkpt>
      <trkpt lat="48.84973" lon="2.36522">
        <ele>43</ele>
        <time>2022-02-02T15:55:35.524Z</time>
      </trkpt>
      <trkpt lat="48.84981" lon="2.36529">
        <ele>43</ele>
        <time>2022-02-02T15:55:39.529Z</time>
      </trkpt>
      <trkpt lat="48.84986" lon="2.36539">
        <ele>43</ele>
        <time>2022-02-02T15:55:43.538Z</time>
      </trkpt>
      <trkpt lat="48.84994" lon="2.36543">
        <ele>42</ele>
        <time>2022-02-02T15:55:48.535Z</time>
      </trkpt>
      <trkpt lat="48.84998" lon="2.36548">
        <ele>42</ele>
        <time>2022-02-02T15:55:52.529Z</time>
      </trkpt>
      <trkpt lat="48.85003" lon="2.36553">
        <ele>42</ele>
        <time>2022-02-02T15:55:57.527Z</time>
      </trkpt>
      <trkpt lat="48.85009" lon="2.36555">
        <ele>42</ele>
        <time>2022-02-02T15:56:02.523Z</time>
      </trkpt>
      <trkpt lat="48.85016" lon="2.36561">
        <ele>40</ele>
        <time>2022-02-02T15:56:06.522Z</time>
      </trkpt>
      <trkpt lat="48.85021" lon="2.36567">
        <ele>40</ele>
        <time>2022-02-02T15:56:11.524Z</time>
      </trkpt>
      <trkpt lat="48.85026" lon="2.36573">
        <ele>40</ele>
        <time>2022-02-02T15:56:16.519Z</time>
      </trkpt>
      <trkpt lat="48.85029" lon="2.36582">
        <ele>40</ele>
        <time>2022-02-02T15:56:21.525Z</time>
      </trkpt>
      <trkpt lat="48.8503" lon="2.3659">
        <ele>40</ele>
        <time>2022-02-02T15:56:25.525Z</time>
      </trkpt>
      <trkpt lat="48.85035" lon="2.36594">
        <ele>40</ele>
        <time>2022-02-02T15:56:30.522Z</time>
      </trkpt>
      <trkpt lat="48.85041" lon="2.36597">
        <ele>44</ele>
        <time>2022-02-02T15:56:35.528Z</time>
      </trkpt>
      <trkpt lat="48.85045" lon="2.36602">
        <ele>40</ele>
        <time>2022-02-02T15:56:39.533Z</time>
      </trkpt>
      <trkpt lat="48.85049" lon="2.36605">
        <ele>40</ele>
        <time>2022-02-02T15:56:44.533Z</time>
      </trkpt>
      <trkpt lat="48.85056" lon="2.36609">
        <ele>40</ele>
        <time>2022-02-02T15:56:49.529Z</time>
      </trkpt>
      <trkpt lat="48.85061" lon="2.36613">
        <ele>40</ele>
        <time>2022-02-02T15:56:54.528Z</time>
      </trkpt>
      <trkpt lat="48.85065" lon="2.36616">
        <ele>40</ele>
        <time>2022-02-02T15:56:59.522Z</time>
      </trkpt>
      <trkpt lat="48.85071" lon="2.3662">
        <ele>40</ele>
        <time>2022-02-02T15:57:03.524Z</time>
      </trkpt>
      <trkpt lat="48.85076" lon="2.36624">
        <ele>40</ele>
        <time>2022-02-02T15:57:08.528Z</time>
      </trkpt>
      <trkpt lat="48.85082" lon="2.36626">
        <ele>43</ele>
        <time>2022-02-02T15:57:12.526Z</time>
      </trkpt>
      <trkpt lat="48.85087" lon="2.36626">
        <ele>43</ele>
        <time>2022-02-02T15:57:16.531Z</time>
      </trkpt>
      <trkpt lat="48.85092" lon="2.3663">
        <ele>43</ele>
        <time>2022-02-02T15:57:21.524Z</time>
      </trkpt>
      <trkpt lat="48.85096" lon="2.36633">
        <ele>43</ele>
        <time>2022-02-02T15:57:26.526Z</time>
      </trkpt>
      <trkpt lat="48.851" lon="2.36636">
        <ele>43</ele>
        <time>2022-02-02T15:57:31.524Z</time>
      </trkpt>
      <trkpt lat="48.85106" lon="2.3664">
        <ele>43</ele>
        <time>2022-02-02T15:57:36.666Z</time>
      </trkpt>
      <trkpt lat="48.85111" lon="2.36644">
        <ele>43</ele>
        <time>2022-02-02T15:57:41.527Z</time>
      </trkpt>
      <trkpt lat="48.85116" lon="2.36647">
        <ele>43</ele>
        <time>2022-02-02T15:57:46.519Z</time>
      </trkpt>
      <trkpt lat="48.85122" lon="2.3665">
        <ele>43</ele>
        <time>2022-02-02T15:57:51.538Z</time>
      </trkpt>
      <trkpt lat="48.85126" lon="2.36653">
        <ele>44</ele>
        <time>2022-02-02T15:58:20.519Z</time>
      </trkpt>
      <trkpt lat="48.85132" lon="2.36656">
        <ele>45</ele>
        <time>2022-02-02T15:58:24.519Z</time>
      </trkpt>
      <trkpt lat="48.85137" lon="2.36658">
        <ele>45</ele>
        <time>2022-02-02T15:58:29.527Z</time>
      </trkpt>
      <trkpt lat="48.85142" lon="2.36662">
        <ele>45</ele>
        <time>2022-02-02T15:58:34.525Z</time>
      </trkpt>
      <trkpt lat="48.85146" lon="2.36666">
        <ele>45</ele>
        <time>2022-02-02T15:58:38.527Z</time>
      </trkpt>
      <trkpt lat="48.85151" lon="2.36671">
        <ele>45</ele>
        <time>2022-02-02T15:58:42.538Z</time>
      </trkpt>
      <trkpt lat="48.85157" lon="2.36675">
        <ele>46</ele>
        <time>2022-02-02T15:58:47.529Z</time>
      </trkpt>
      <trkpt lat="48.85162" lon="2.3668">
        <ele>46</ele>
        <time>2022-02-02T15:58:52.531Z</time>
      </trkpt>
      <trkpt lat="48.85168" lon="2.36683">
        <ele>45</ele>
        <time>2022-02-02T15:58:57.515Z</time>
      </trkpt>
      <trkpt lat="48.85171" lon="2.36691">
        <ele>45</ele>
        <time>2022-02-02T15:59:01.520Z</time>
      </trkpt>
      <trkpt lat="48.85171" lon="2.36694">
        <ele>45</ele>
        <time>2022-02-02T15:59:06.527Z</time>
      </trkpt>
      <trkpt lat="48.85172" lon="2.36699">
        <ele>45</ele>
        <time>2022-02-02T15:59:11.530Z</time>
      </trkpt>
      <trkpt lat="48.85175" lon="2.36708">
        <ele>45</ele>
        <time>2022-02-02T15:59:16.518Z</time>
      </trkpt>
      <trkpt lat="48.85174" lon="2.36719">
        <ele>43</ele>
        <time>2022-02-02T15:59:44.525Z</time>
      </trkpt>
      <trkpt lat="48.85172" lon="2.36728">
        <ele>43</ele>
        <time>2022-02-02T15:59:49.530Z</time>
      </trkpt>
      <trkpt lat="48.85169" lon="2.36737">
        <ele>41</ele>
        <time>2022-02-02T15:59:54.534Z</time>
      </trkpt>
      <trkpt lat="48.8517" lon="2.36744">
        <ele>41</ele>
        <time>2022-02-02T15:59:59.524Z</time>
      </trkpt>
      <trkpt lat="48.85175" lon="2.36751">
        <ele>41</ele>
        <time>2022-02-02T16:00:04.529Z</time>
      </trkpt>
      <trkpt lat="48.85178" lon="2.3675">
        <ele>41</ele>
        <time>2022-02-02T16:00:08.529Z</time>
      </trkpt>
      <trkpt lat="48.85182" lon="2.36755">
        <ele>41</ele>
        <time>2022-02-02T16:00:12.531Z</time>
      </trkpt>
      <trkpt lat="48.85188" lon="2.36761">
        <ele>41</ele>
        <time>2022-02-02T16:00:17.525Z</time>
      </trkpt>
      <trkpt lat="48.85193" lon="2.36763">
        <ele>41</ele>
        <time>2022-02-02T16:00:22.523Z</time>
      </trkpt>
      <trkpt lat="48.85199" lon="2.36766">
        <ele>35</ele>
        <time>2022-02-02T16:00:27.518Z</time>
      </trkpt>
      <trkpt lat="48.85206" lon="2.36769">
        <ele>35</ele>
        <time>2022-02-02T16:00:31.526Z</time>
      </trkpt>
      <trkpt lat="48.85211" lon="2.36771">
        <ele>39</ele>
        <time>2022-02-02T16:00:36.524Z</time>
      </trkpt>
      <trkpt lat="48.85219" lon="2.36777">
        <ele>39</ele>
        <time>2022-02-02T16:00:40.530Z</time>
      </trkpt>
      <trkpt lat="48.85225" lon="2.3678">
        <ele>39</ele>
        <time>2022-02-02T16:00:45.530Z</time>
      </trkpt>
      <trkpt lat="48.85232" lon="2.36784">
        <ele>39</ele>
        <time>2022-02-02T16:00:50.516Z</time>
      </trkpt>
      <trkpt lat="48.85236" lon="2.36787">
        <ele>39</ele>
        <time>2022-02-02T16:00:54.522Z</time>
      </trkpt>
      <trkpt lat="48.85242" lon="2.3679">
        <ele>43</ele>
        <time>2022-02-02T16:00:59.522Z</time>
      </trkpt>
      <trkpt lat="48.85247" lon="2.3679">
        <ele>43</ele>
        <time>2022-02-02T16:01:04.517Z</time>
      </trkpt>
      <trkpt lat="48.85253" lon="2.36792">
        <ele>43</ele>
        <time>2022-02-02T16:01:09.528Z</time>
      </trkpt>
      <trkpt lat="48.85258" lon="2.36795">
        <ele>42</ele>
        <time>2022-02-02T16:01:14.522Z</time>
      </trkpt>
      <trkpt lat="48.85263" lon="2.36798">
        <ele>42</ele>
        <time>2022-02-02T16:01:19.516Z</time>
      </trkpt>
      <trkpt lat="48.85268" lon="2.36803">
        <ele>44</ele>
        <time>2022-02-02T16:01:24.528Z</time>
      </trkpt>
      <trkpt lat="48.85271" lon="2.36809">
        <ele>44</ele>
        <time>2022-02-02T16:01:29.514Z</time>
      </trkpt>
      <trkpt lat="48.85271" lon="2.36815">
        <ele>44</ele>
        <time>2022-02-02T16:01:33.529Z</time>
      </trkpt>
      <trkpt lat="48.85271" lon="2.36815">
        <ele>44</ele>
        <time>2022-02-02T16:01:38.543Z</time>
      </trkpt>
      <trkpt lat="48.85271" lon="2.36815">
        <ele>44</ele>
        <time>2022-02-02T16:01:43.527Z</time>
      </trkpt>
      <trkpt lat="48.85271" lon="2.36816">
        <ele>44</ele>
        <time>2022-02-02T16:01:48.537Z</time>
      </trkpt>
      <trkpt lat="48.85268" lon="2.36822">
        <ele>43</ele>
        <time>2022-02-02T16:01:53.530Z</time>
      </trkpt>
      <trkpt lat="48.85267" lon="2.36828">
        <ele>43</ele>
        <time>2022-02-02T16:01:58.522Z</time>
      </trkpt>
      <trkpt lat="48.85265" lon="2.36836">
        <ele>43</ele>
        <time>2022-02-02T16:02:03.528Z</time>
      </trkpt>
      <trkpt lat="48.85266" lon="2.36845">
        <ele>43</ele>
        <time>2022-02-02T16:02:07.520Z</time>
      </trkpt>
      <trkpt lat="48.85267" lon="2.36853">
        <ele>42</ele>
        <time>2022-02-02T16:02:12.518Z</time>
      </trkpt>
      <trkpt lat="48.8527" lon="2.36861">
        <ele>42</ele>
        <time>2022-02-02T16:02:17.525Z</time>
      </trkpt>
      <trkpt lat="48.85275" lon="2.36873">
        <ele>42</ele>
        <time>2022-02-02T16:02:22.523Z</time>
      </trkpt>
      <trkpt lat="48.8528" lon="2.36884">
        <ele>43</ele>
        <time>2022-02-02T16:02:26.539Z</time>
      </trkpt>
      <trkpt lat="48.85285" lon="2.36895">
        <ele>43</ele>
        <time>2022-02-02T16:02:31.520Z</time>
      </trkpt>
      <trkpt lat="48.8529" lon="2.36905">
        <ele>44</ele>
        <time>2022-02-02T16:02:36.518Z</time>
      </trkpt>
      <trkpt lat="48.85295" lon="2.36915">
        <ele>44</ele>
        <time>2022-02-02T16:02:41.532Z</time>
      </trkpt>
      <trkpt lat="48.85298" lon="2.36923">
        <ele>44</ele>
        <time>2022-02-02T16:02:46.524Z</time>
      </trkpt>
      <trkpt lat="48.85305" lon="2.36933">
        <ele>43</ele>
        <time>2022-02-02T16:02:51.535Z</time>
      </trkpt>
      <trkpt lat="48.85312" lon="2.3694">
        <ele>43</ele>
        <time>2022-02-02T16:02:56.529Z</time>
      </trkpt>
      <trkpt lat="48.85316" lon="2.36947">
        <ele>43</ele>
        <time>2022-02-02T16:03:01.522Z</time>
      </trkpt>
      <trkpt lat="48.85319" lon="2.36958">
        <ele>43</ele>
        <time>2022-02-02T16:03:05.530Z</time>
      </trkpt>
      <trkpt lat="48.85321" lon="2.36966">
        <ele>41</ele>
        <time>2022-02-02T16:03:09.543Z</time>
      </trkpt>
      <trkpt lat="48.8534" lon="2.36833">
        <ele>49</ele>
        <time>2022-02-02T16:03:14.528Z</time>
      </trkpt>
    </trkseg>
  </trk>
</gpx>